<?xml version='1.0' encoding='UTF-8'?><gpx version="1.1" creator="JPX - https://github.com/jenetics/jpx" xmlns="http://www.topografix.com/GPX/1/1"><trk><trkseg><trkpt lat="45.6099831" lon="9.4271792"><ele>200.2857142857143</ele><time>2026-04-21T10:18:40Z</time></trkpt><trkpt lat="45.6100408" lon="9.4271307"><ele>200.57142857142858</ele><time>2026-04-21T10:21:36Z</time></trkpt><trkpt lat="45.6100246" lon="9.4270236"><ele>200.85714285714286</ele><time>2026-04-21T10:21:45Z</time></trkpt><trkpt lat="45.610002" lon="9.4268887"><ele>201.14285714285717</ele><time>2026-04-21T10:21:47Z</time></trkpt><trkpt lat="45.6099885" lon="9.4267994"><ele>201.42857142857142</ele><time>2026-04-21T10:21:49Z</time></trkpt><trkpt lat="45.6099223" lon="9.4267662"><ele>201.71428571428572</ele><time>2026-04-21T10:21:51Z</time></trkpt><trkpt lat="45.6098556" lon="9.4267256"><ele>202.0</ele><time>2026-04-21T10:21:53Z</time></trkpt><trkpt lat="45.6097929" lon="9.4266549"><ele>202.0</ele><time>2026-04-21T10:21:55Z</time></trkpt><trkpt lat="45.6097683" lon="9.4265548"><ele>202.0</ele><time>2026-04-21T10:21:57Z</time></trkpt><trkpt lat="45.609743" lon="9.426472"><ele>202.0</ele><time>2026-04-21T10:21:59Z</time></trkpt><trkpt lat="45.609741" lon="9.426346"><ele>202.0</ele><time>2026-04-21T10:22:01Z</time></trkpt><trkpt lat="45.6097479" lon="9.4262358"><ele>202.0</ele><time>2026-04-21T10:22:03Z</time></trkpt><trkpt lat="45.6097356" lon="9.426141"><ele>202.0</ele><time>2026-04-21T10:22:05Z</time></trkpt><trkpt lat="45.6096979" lon="9.4260634"><ele>202.0</ele><time>2026-04-21T10:22:08Z</time></trkpt><trkpt lat="45.6096093" lon="9.4260421"><ele>202.0</ele><time>2026-04-21T10:22:19Z</time></trkpt><trkpt lat="45.609538" lon="9.4260447"><ele>202.0</ele><time>2026-04-21T10:22:21Z</time></trkpt><trkpt lat="45.609461" lon="9.426046"><ele>202.0</ele><time>2026-04-21T10:22:23Z</time></trkpt><trkpt lat="45.6093932" lon="9.4260413"><ele>202.0</ele><time>2026-04-21T10:22:25Z</time></trkpt><trkpt lat="45.6093185" lon="9.4260429"><ele>202.0</ele><time>2026-04-21T10:22:27Z</time></trkpt><trkpt lat="45.6092504" lon="9.4260409"><ele>202.0</ele><time>2026-04-21T10:22:29Z</time></trkpt><trkpt lat="45.6091797" lon="9.4260364"><ele>202.0</ele><time>2026-04-21T10:22:31Z</time></trkpt><trkpt lat="45.6090886" lon="9.4260323"><ele>201.49999999999997</ele><time>2026-04-21T10:22:33Z</time></trkpt><trkpt lat="45.6089948" lon="9.4260262"><ele>201.0</ele><time>2026-04-21T10:22:35Z</time></trkpt><trkpt lat="45.6089016" lon="9.4260218"><ele>200.5</ele><time>2026-04-21T10:22:37Z</time></trkpt><trkpt lat="45.608811" lon="9.4260168"><ele>200.0</ele><time>2026-04-21T10:22:39Z</time></trkpt><trkpt lat="45.6087325" lon="9.4260169"><ele>199.49999999999997</ele><time>2026-04-21T10:22:41Z</time></trkpt><trkpt lat="45.6086499" lon="9.4259967"><ele>199.0</ele><time>2026-04-21T10:22:44Z</time></trkpt><trkpt lat="45.6085456" lon="9.4259903"><ele>198.39999999999998</ele><time>2026-04-21T10:22:47Z</time></trkpt><trkpt lat="45.608454" lon="9.4259889"><ele>197.8</ele><time>2026-04-21T10:22:49Z</time></trkpt><trkpt lat="45.608358" lon="9.4259807"><ele>197.2</ele><time>2026-04-21T10:22:51Z</time></trkpt><trkpt lat="45.6082663" lon="9.4259778"><ele>196.60000000000002</ele><time>2026-04-21T10:22:53Z</time></trkpt><trkpt lat="45.6081684" lon="9.4259779"><ele>196.0</ele><time>2026-04-21T10:22:55Z</time></trkpt><trkpt lat="45.6080466" lon="9.4259834"><ele>196.0</ele><time>2026-04-21T10:22:57Z</time></trkpt><trkpt lat="45.6079327" lon="9.4259826"><ele>196.0</ele><time>2026-04-21T10:22:59Z</time></trkpt><trkpt lat="45.6075882" lon="9.4260054"><ele>195.83333333333331</ele><time>2026-04-21T10:23:05Z</time></trkpt><trkpt lat="45.6075035" lon="9.4260861"><ele>195.66666666666666</ele><time>2026-04-21T10:23:07Z</time></trkpt><trkpt lat="45.6074559" lon="9.4261776"><ele>195.5</ele><time>2026-04-21T10:23:09Z</time></trkpt><trkpt lat="45.6074414" lon="9.4262829"><ele>195.33333333333331</ele><time>2026-04-21T10:23:11Z</time></trkpt><trkpt lat="45.6074387" lon="9.4263901"><ele>195.16666666666666</ele><time>2026-04-21T10:23:13Z</time></trkpt><trkpt lat="45.6074357" lon="9.4265135"><ele>195.0</ele><time>2026-04-21T10:23:15Z</time></trkpt><trkpt lat="45.6074351" lon="9.4266307"><ele>195.0</ele><time>2026-04-21T10:23:17Z</time></trkpt><trkpt lat="45.607431" lon="9.426747"><ele>195.0</ele><time>2026-04-21T10:23:19Z</time></trkpt><trkpt lat="45.6074346" lon="9.4268686"><ele>195.0</ele><time>2026-04-21T10:23:21Z</time></trkpt><trkpt lat="45.6074263" lon="9.4269997"><ele>195.0</ele><time>2026-04-21T10:23:23Z</time></trkpt><trkpt lat="45.6074146" lon="9.4271279"><ele>195.0</ele><time>2026-04-21T10:23:25Z</time></trkpt><trkpt lat="45.6074021" lon="9.427251"><ele>195.0</ele><time>2026-04-21T10:23:27Z</time></trkpt><trkpt lat="45.6073797" lon="9.4273698"><ele>195.0</ele><time>2026-04-21T10:23:28.999Z</time></trkpt><trkpt lat="45.6073555" lon="9.4274957"><ele>195.0</ele><time>2026-04-21T10:23:31Z</time></trkpt><trkpt lat="45.6073426" lon="9.4276498"><ele>195.0</ele><time>2026-04-21T10:23:33Z</time></trkpt><trkpt lat="45.6073378" lon="9.427766"><ele>195.0</ele><time>2026-04-21T10:23:35Z</time></trkpt><trkpt lat="45.6073336" lon="9.4278989"><ele>195.0</ele><time>2026-04-21T10:23:37Z</time></trkpt><trkpt lat="45.6073261" lon="9.4280246"><ele>195.0</ele><time>2026-04-21T10:23:39Z</time></trkpt><trkpt lat="45.6073127" lon="9.4281611"><ele>195.0</ele><time>2026-04-21T10:23:41Z</time></trkpt><trkpt lat="45.607297" lon="9.4282692"><ele>195.0</ele><time>2026-04-21T10:23:43Z</time></trkpt><trkpt lat="45.6072772" lon="9.4283586"><ele>195.0</ele><time>2026-04-21T10:23:45Z</time></trkpt><trkpt lat="45.6072471" lon="9.428464"><ele>195.0</ele><time>2026-04-21T10:23:47Z</time></trkpt><trkpt lat="45.6072366" lon="9.4285965"><ele>195.0</ele><time>2026-04-21T10:23:49Z</time></trkpt><trkpt lat="45.6072352" lon="9.4287342"><ele>195.0</ele><time>2026-04-21T10:23:51Z</time></trkpt><trkpt lat="45.6072345" lon="9.4288683"><ele>195.0</ele><time>2026-04-21T10:23:53Z</time></trkpt><trkpt lat="45.6072254" lon="9.4289801"><ele>195.0</ele><time>2026-04-21T10:23:55Z</time></trkpt><trkpt lat="45.6072152" lon="9.429132"><ele>195.0</ele><time>2026-04-21T10:23:57Z</time></trkpt><trkpt lat="45.6072284" lon="9.4292386"><ele>195.0</ele><time>2026-04-21T10:23:58Z</time></trkpt><trkpt lat="45.6072294" lon="9.4293845"><ele>195.0</ele><time>2026-04-21T10:24:00Z</time></trkpt><trkpt lat="45.6072207" lon="9.4295414"><ele>195.0</ele><time>2026-04-21T10:24:02Z</time></trkpt><trkpt lat="45.6072599" lon="9.4296726"><ele>195.0</ele><time>2026-04-21T10:24:03Z</time></trkpt><trkpt lat="45.6072564" lon="9.4298187"><ele>195.0</ele><time>2026-04-21T10:24:05Z</time></trkpt><trkpt lat="45.6072518" lon="9.4299387"><ele>195.0</ele><time>2026-04-21T10:24:07Z</time></trkpt><trkpt lat="45.6072383" lon="9.4300477"><ele>195.2</ele><time>2026-04-21T10:24:09Z</time></trkpt><trkpt lat="45.6072181" lon="9.4301339"><ele>195.4</ele><time>2026-04-21T10:24:11Z</time></trkpt><trkpt lat="45.6071502" lon="9.4302437"><ele>195.60000000000002</ele><time>2026-04-21T10:24:14.999Z</time></trkpt><trkpt lat="45.6071088" lon="9.4303665"><ele>195.8</ele><time>2026-04-21T10:24:16Z</time></trkpt><trkpt lat="45.6070757" lon="9.430458"><ele>196.0</ele><time>2026-04-21T10:24:17Z</time></trkpt><trkpt lat="45.6070845" lon="9.4306439"><ele>196.16666666666666</ele><time>2026-04-21T10:24:19Z</time></trkpt><trkpt lat="45.607054" lon="9.4307924"><ele>196.33333333333331</ele><time>2026-04-21T10:24:21Z</time></trkpt><trkpt lat="45.6070155" lon="9.4309347"><ele>196.5</ele><time>2026-04-21T10:24:23Z</time></trkpt><trkpt lat="45.6069864" lon="9.4310403"><ele>196.66666666666669</ele><time>2026-04-21T10:24:25Z</time></trkpt><trkpt lat="45.6069902" lon="9.431136"><ele>196.83333333333334</ele><time>2026-04-21T10:24:27Z</time></trkpt><trkpt lat="45.607056" lon="9.4312112"><ele>197.0</ele><time>2026-04-21T10:24:29Z</time></trkpt><trkpt lat="45.6071175" lon="9.4312635"><ele>197.00000000000003</ele><time>2026-04-21T10:24:31Z</time></trkpt><trkpt lat="45.6072082" lon="9.4313066"><ele>197.0</ele><time>2026-04-21T10:24:34Z</time></trkpt><trkpt lat="45.6072912" lon="9.4314051"><ele>197.0</ele><time>2026-04-21T10:24:36Z</time></trkpt><trkpt lat="45.6073293" lon="9.4315254"><ele>197.0</ele><time>2026-04-21T10:24:38Z</time></trkpt><trkpt lat="45.6073296" lon="9.4316265"><ele>197.00000000000003</ele><time>2026-04-21T10:24:40Z</time></trkpt><trkpt lat="45.6073439" lon="9.4317361"><ele>197.0</ele><time>2026-04-21T10:24:42Z</time></trkpt><trkpt lat="45.6073827" lon="9.4318246"><ele>197.00000000000003</ele><time>2026-04-21T10:24:44Z</time></trkpt><trkpt lat="45.6074556" lon="9.4318634"><ele>197.0</ele><time>2026-04-21T10:24:46Z</time></trkpt><trkpt lat="45.6075433" lon="9.4318999"><ele>197.0</ele><time>2026-04-21T10:24:48Z</time></trkpt><trkpt lat="45.6076332" lon="9.4319295"><ele>197.0</ele><time>2026-04-21T10:24:50Z</time></trkpt><trkpt lat="45.607717" lon="9.4319549"><ele>197.00000000000003</ele><time>2026-04-21T10:24:52Z</time></trkpt><trkpt lat="45.6078025" lon="9.4319792"><ele>197.0</ele><time>2026-04-21T10:24:53.999Z</time></trkpt><trkpt lat="45.6078947" lon="9.4319991"><ele>197.2</ele><time>2026-04-21T10:24:56Z</time></trkpt><trkpt lat="45.6080008" lon="9.4319998"><ele>197.39999999999998</ele><time>2026-04-21T10:24:58Z</time></trkpt><trkpt lat="45.6080899" lon="9.4319626"><ele>197.60000000000002</ele><time>2026-04-21T10:25:00Z</time></trkpt><trkpt lat="45.6081789" lon="9.4318992"><ele>197.8</ele><time>2026-04-21T10:25:02Z</time></trkpt><trkpt lat="45.6082785" lon="9.4318445"><ele>198.0</ele><time>2026-04-21T10:25:04Z</time></trkpt><trkpt lat="45.6084125" lon="9.4318308"><ele>198.0</ele><time>2026-04-21T10:25:06Z</time></trkpt><trkpt lat="45.6084832" lon="9.4318365"><ele>198.0</ele><time>2026-04-21T10:25:07Z</time></trkpt><trkpt lat="45.6086001" lon="9.4318589"><ele>198.0</ele><time>2026-04-21T10:25:09Z</time></trkpt><trkpt lat="45.6086967" lon="9.4318954"><ele>198.0</ele><time>2026-04-21T10:25:11Z</time></trkpt><trkpt lat="45.6087964" lon="9.431936"><ele>198.0</ele><time>2026-04-21T10:25:13Z</time></trkpt><trkpt lat="45.6089013" lon="9.431978"><ele>197.60000000000002</ele><time>2026-04-21T10:25:15Z</time></trkpt><trkpt lat="45.6089991" lon="9.4320235"><ele>197.20000000000002</ele><time>2026-04-21T10:25:17Z</time></trkpt><trkpt lat="45.6090989" lon="9.4320696"><ele>196.8</ele><time>2026-04-21T10:25:19Z</time></trkpt><trkpt lat="45.6092054" lon="9.4321137"><ele>196.4</ele><time>2026-04-21T10:25:21Z</time></trkpt><trkpt lat="45.6093157" lon="9.4321591"><ele>196.0</ele><time>2026-04-21T10:25:23Z</time></trkpt><trkpt lat="45.6094172" lon="9.4321956"><ele>196.0</ele><time>2026-04-21T10:25:25Z</time></trkpt><trkpt lat="45.6095158" lon="9.4322306"><ele>196.0</ele><time>2026-04-21T10:25:27Z</time></trkpt><trkpt lat="45.6096193" lon="9.4322744"><ele>196.0</ele><time>2026-04-21T10:25:29Z</time></trkpt><trkpt lat="45.609742" lon="9.4323259"><ele>196.0</ele><time>2026-04-21T10:25:31Z</time></trkpt><trkpt lat="45.6098426" lon="9.4323383"><ele>196.0</ele><time>2026-04-21T10:25:33Z</time></trkpt><trkpt lat="45.6099363" lon="9.4322953"><ele>196.0</ele><time>2026-04-21T10:25:35Z</time></trkpt><trkpt lat="45.6100251" lon="9.4322588"><ele>196.0</ele><time>2026-04-21T10:25:37Z</time></trkpt><trkpt lat="45.610132" lon="9.4322658"><ele>196.0</ele><time>2026-04-21T10:25:39Z</time></trkpt><trkpt lat="45.6102227" lon="9.4322542"><ele>196.0</ele><time>2026-04-21T10:25:40.999Z</time></trkpt><trkpt lat="45.610313" lon="9.4322088"><ele>196.0</ele><time>2026-04-21T10:25:43Z</time></trkpt><trkpt lat="45.610406" lon="9.4321313"><ele>196.60000000000002</ele><time>2026-04-21T10:25:45Z</time></trkpt><trkpt lat="45.6105047" lon="9.4320515"><ele>197.2</ele><time>2026-04-21T10:25:47Z</time></trkpt><trkpt lat="45.6105792" lon="9.4319924"><ele>197.8</ele><time>2026-04-21T10:25:49Z</time></trkpt><trkpt lat="45.610669" lon="9.4319544"><ele>198.39999999999998</ele><time>2026-04-21T10:25:51Z</time></trkpt><trkpt lat="45.6107709" lon="9.4319542"><ele>199.0</ele><time>2026-04-21T10:25:53Z</time></trkpt><trkpt lat="45.6108741" lon="9.4319781"><ele>198.99999999999997</ele><time>2026-04-21T10:25:55Z</time></trkpt><trkpt lat="45.610974" lon="9.4319972"><ele>199.0</ele><time>2026-04-21T10:25:57Z</time></trkpt><trkpt lat="45.6110485" lon="9.4320062"><ele>199.0</ele><time>2026-04-21T10:25:59Z</time></trkpt><trkpt lat="45.6111142" lon="9.4320028"><ele>199.0</ele><time>2026-04-21T10:26:00Z</time></trkpt><trkpt lat="45.6112114" lon="9.431979"><ele>198.99999999999997</ele><time>2026-04-21T10:26:02Z</time></trkpt><trkpt lat="45.6113053" lon="9.4319771"><ele>199.0</ele><time>2026-04-21T10:26:04Z</time></trkpt><trkpt lat="45.6113836" lon="9.43198"><ele>199.6</ele><time>2026-04-21T10:26:06Z</time></trkpt><trkpt lat="45.6114541" lon="9.4320027"><ele>200.2</ele><time>2026-04-21T10:26:08Z</time></trkpt><trkpt lat="45.6115323" lon="9.4320378"><ele>200.79999999999998</ele><time>2026-04-21T10:26:10Z</time></trkpt><trkpt lat="45.6116559" lon="9.4321128"><ele>201.39999999999998</ele><time>2026-04-21T10:26:12Z</time></trkpt><trkpt lat="45.6117159" lon="9.4321779"><ele>202.0</ele><time>2026-04-21T10:26:13Z</time></trkpt><trkpt lat="45.6118053" lon="9.4322568"><ele>202.0</ele><time>2026-04-21T10:26:15Z</time></trkpt><trkpt lat="45.6118646" lon="9.4322897"><ele>202.0</ele><time>2026-04-21T10:26:16Z</time></trkpt><trkpt lat="45.6119755" lon="9.4323169"><ele>202.0</ele><time>2026-04-21T10:26:18Z</time></trkpt><trkpt lat="45.6120822" lon="9.4323197"><ele>202.0</ele><time>2026-04-21T10:26:20Z</time></trkpt><trkpt lat="45.6121935" lon="9.4323243"><ele>202.0</ele><time>2026-04-21T10:26:22Z</time></trkpt><trkpt lat="45.6123006" lon="9.4323428"><ele>202.2</ele><time>2026-04-21T10:26:24Z</time></trkpt><trkpt lat="45.6124033" lon="9.4323606"><ele>202.39999999999998</ele><time>2026-04-21T10:26:26Z</time></trkpt><trkpt lat="45.6125073" lon="9.4323772"><ele>202.60000000000002</ele><time>2026-04-21T10:26:28Z</time></trkpt><trkpt lat="45.6126111" lon="9.4324022"><ele>202.8</ele><time>2026-04-21T10:26:30Z</time></trkpt><trkpt lat="45.612714" lon="9.4324273"><ele>203.0</ele><time>2026-04-21T10:26:32Z</time></trkpt><trkpt lat="45.6128097" lon="9.4324587"><ele>203.0</ele><time>2026-04-21T10:26:34Z</time></trkpt><trkpt lat="45.6128799" lon="9.4324851"><ele>203.0</ele><time>2026-04-21T10:26:35Z</time></trkpt><trkpt lat="45.6129782" lon="9.4325273"><ele>203.0</ele><time>2026-04-21T10:26:36.999Z</time></trkpt><trkpt lat="45.6130789" lon="9.4325786"><ele>203.0</ele><time>2026-04-21T10:26:39Z</time></trkpt><trkpt lat="45.6131743" lon="9.4326314"><ele>203.0</ele><time>2026-04-21T10:26:41Z</time></trkpt><trkpt lat="45.6132675" lon="9.4326762"><ele>203.0</ele><time>2026-04-21T10:26:43Z</time></trkpt><trkpt lat="45.613328" lon="9.4327017"><ele>203.0</ele><time>2026-04-21T10:26:44Z</time></trkpt><trkpt lat="45.6134368" lon="9.4327671"><ele>203.0</ele><time>2026-04-21T10:26:46Z</time></trkpt><trkpt lat="45.6135469" lon="9.4328195"><ele>203.0</ele><time>2026-04-21T10:26:48Z</time></trkpt><trkpt lat="45.6136532" lon="9.432868"><ele>203.0</ele><time>2026-04-21T10:26:50Z</time></trkpt><trkpt lat="45.6137494" lon="9.4328857"><ele>203.0</ele><time>2026-04-21T10:26:52Z</time></trkpt><trkpt lat="45.6138562" lon="9.4328572"><ele>203.0</ele><time>2026-04-21T10:26:54Z</time></trkpt><trkpt lat="45.6139474" lon="9.4328125"><ele>203.0</ele><time>2026-04-21T10:26:56Z</time></trkpt><trkpt lat="45.614056" lon="9.4328297"><ele>203.0</ele><time>2026-04-21T10:26:57.999Z</time></trkpt><trkpt lat="45.6141457" lon="9.43287"><ele>203.0</ele><time>2026-04-21T10:27:00Z</time></trkpt><trkpt lat="45.6142434" lon="9.4329163"><ele>203.0</ele><time>2026-04-21T10:27:02Z</time></trkpt><trkpt lat="45.6143399" lon="9.4329609"><ele>203.0</ele><time>2026-04-21T10:27:04Z</time></trkpt><trkpt lat="45.6144328" lon="9.4329992"><ele>203.0</ele><time>2026-04-21T10:27:06Z</time></trkpt><trkpt lat="45.6145309" lon="9.4330564"><ele>203.0</ele><time>2026-04-21T10:27:08Z</time></trkpt><trkpt lat="45.6146202" lon="9.4330967"><ele>203.0</ele><time>2026-04-21T10:27:10Z</time></trkpt><trkpt lat="45.6147124" lon="9.4331466"><ele>203.4</ele><time>2026-04-21T10:27:12Z</time></trkpt><trkpt lat="45.614808" lon="9.4332099"><ele>203.8</ele><time>2026-04-21T10:27:14Z</time></trkpt><trkpt lat="45.6149051" lon="9.4332571"><ele>204.2</ele><time>2026-04-21T10:27:16Z</time></trkpt><trkpt lat="45.6149925" lon="9.4333054"><ele>204.6</ele><time>2026-04-21T10:27:18Z</time></trkpt><trkpt lat="45.6150902" lon="9.4333535"><ele>205.0</ele><time>2026-04-21T10:27:20Z</time></trkpt><trkpt lat="45.6151979" lon="9.4333936"><ele>205.0</ele><time>2026-04-21T10:27:22Z</time></trkpt><trkpt lat="45.6152992" lon="9.4334392"><ele>205.0</ele><time>2026-04-21T10:27:24Z</time></trkpt><trkpt lat="45.6153989" lon="9.4334911"><ele>205.0</ele><time>2026-04-21T10:27:26Z</time></trkpt><trkpt lat="45.6154995" lon="9.4335243"><ele>205.0</ele><time>2026-04-21T10:27:28Z</time></trkpt><trkpt lat="45.6155836" lon="9.4335437"><ele>205.0</ele><time>2026-04-21T10:27:30Z</time></trkpt><trkpt lat="45.6156129" lon="9.4334089"><ele>204.8</ele><time>2026-04-21T10:27:33Z</time></trkpt><trkpt lat="45.615599" lon="9.433265"><ele>204.6</ele><time>2026-04-21T10:27:35Z</time></trkpt><trkpt lat="45.6156081" lon="9.4331291"><ele>204.39999999999998</ele><time>2026-04-21T10:27:37Z</time></trkpt><trkpt lat="45.6156388" lon="9.4330226"><ele>204.2</ele><time>2026-04-21T10:27:39Z</time></trkpt><trkpt lat="45.6156994" lon="9.432939"><ele>204.0</ele><time>2026-04-21T10:27:42Z</time></trkpt><trkpt lat="45.6157957" lon="9.4327523"><ele>204.0</ele><time>2026-04-21T10:27:46.997Z</time></trkpt><trkpt lat="45.6158346" lon="9.4326583"><ele>204.0</ele><time>2026-04-21T10:27:47.996Z</time></trkpt><trkpt lat="45.6158651" lon="9.432568"><ele>204.0</ele><time>2026-04-21T10:27:49.004Z</time></trkpt><trkpt lat="45.6158991" lon="9.4324365"><ele>204.0</ele><time>2026-04-21T10:27:51.003Z</time></trkpt><trkpt lat="45.6159224" lon="9.4323298"><ele>204.0</ele><time>2026-04-21T10:27:53.001Z</time></trkpt><trkpt lat="45.6159388" lon="9.4322075"><ele>204.0</ele><time>2026-04-21T10:27:55.001Z</time></trkpt><trkpt lat="45.6159631" lon="9.4320992"><ele>204.0</ele><time>2026-04-21T10:27:57.001Z</time></trkpt><trkpt lat="45.6160379" lon="9.4320226"><ele>204.0</ele><time>2026-04-21T10:28:00.001Z</time></trkpt><trkpt lat="45.6161041" lon="9.4320452"><ele>204.0</ele><time>2026-04-21T10:28:02.001Z</time></trkpt><trkpt lat="45.6161533" lon="9.4321238"><ele>204.0</ele><time>2026-04-21T10:28:04.001Z</time></trkpt><trkpt lat="45.6161506" lon="9.4322408"><ele>204.0</ele><time>2026-04-21T10:28:06.001Z</time></trkpt><trkpt lat="45.6161435" lon="9.4323669"><ele>204.0</ele><time>2026-04-21T10:28:08.001Z</time></trkpt><trkpt lat="45.6161561" lon="9.4324929"><ele>204.2</ele><time>2026-04-21T10:28:10.001Z</time></trkpt><trkpt lat="45.6161784" lon="9.4326254"><ele>204.39999999999998</ele><time>2026-04-21T10:28:12.001Z</time></trkpt><trkpt lat="45.6161945" lon="9.4327655"><ele>204.6</ele><time>2026-04-21T10:28:14.001Z</time></trkpt><trkpt lat="45.6162069" lon="9.4329075"><ele>204.8</ele><time>2026-04-21T10:28:16.001Z</time></trkpt><trkpt lat="45.6162224" lon="9.4330515"><ele>205.0</ele><time>2026-04-21T10:28:18.001Z</time></trkpt><trkpt lat="45.616239" lon="9.433205"><ele>205.0</ele><time>2026-04-21T10:28:20.001Z</time></trkpt><trkpt lat="45.6162657" lon="9.4333571"><ele>205.0</ele><time>2026-04-21T10:28:22.001Z</time></trkpt><trkpt lat="45.6163086" lon="9.4335048"><ele>205.0</ele><time>2026-04-21T10:28:24.001Z</time></trkpt><trkpt lat="45.6163688" lon="9.4336556"><ele>205.0</ele><time>2026-04-21T10:28:26.001Z</time></trkpt><trkpt lat="45.6164364" lon="9.4337869"><ele>205.0</ele><time>2026-04-21T10:28:28.001Z</time></trkpt><trkpt lat="45.6165141" lon="9.4338713"><ele>205.0</ele><time>2026-04-21T10:28:30Z</time></trkpt><trkpt lat="45.616606" lon="9.4339155"><ele>205.0</ele><time>2026-04-21T10:28:32.001Z</time></trkpt><trkpt lat="45.6167135" lon="9.4339066"><ele>205.0</ele><time>2026-04-21T10:28:34.001Z</time></trkpt><trkpt lat="45.6167919" lon="9.433815"><ele>205.0</ele><time>2026-04-21T10:28:36.001Z</time></trkpt><trkpt lat="45.6168531" lon="9.4336823"><ele>205.0</ele><time>2026-04-21T10:28:38.001Z</time></trkpt><trkpt lat="45.6169297" lon="9.4335645"><ele>205.0</ele><time>2026-04-21T10:28:40.001Z</time></trkpt><trkpt lat="45.6170159" lon="9.433453"><ele>205.0</ele><time>2026-04-21T10:28:42.001Z</time></trkpt><trkpt lat="45.6170967" lon="9.4333369"><ele>205.0</ele><time>2026-04-21T10:28:44.001Z</time></trkpt><trkpt lat="45.6171818" lon="9.4332188"><ele>205.25</ele><time>2026-04-21T10:28:46.001Z</time></trkpt><trkpt lat="45.6172589" lon="9.4331035"><ele>205.5</ele><time>2026-04-21T10:28:48.001Z</time></trkpt><trkpt lat="45.6173336" lon="9.4329809"><ele>205.75</ele><time>2026-04-21T10:28:50.001Z</time></trkpt><trkpt lat="45.6174116" lon="9.4328605"><ele>206.0</ele><time>2026-04-21T10:28:52.001Z</time></trkpt><trkpt lat="45.6174849" lon="9.4327335"><ele>206.0</ele><time>2026-04-21T10:28:54.001Z</time></trkpt><trkpt lat="45.6175556" lon="9.4326059"><ele>206.0</ele><time>2026-04-21T10:28:56.001Z</time></trkpt><trkpt lat="45.6176104" lon="9.4324687"><ele>206.0</ele><time>2026-04-21T10:28:58Z</time></trkpt><trkpt lat="45.6176584" lon="9.4323353"><ele>206.0</ele><time>2026-04-21T10:29:00.001Z</time></trkpt><trkpt lat="45.6177091" lon="9.4322005"><ele>206.0</ele><time>2026-04-21T10:29:02.001Z</time></trkpt><trkpt lat="45.6177593" lon="9.4320649"><ele>206.0</ele><time>2026-04-21T10:29:04.001Z</time></trkpt><trkpt lat="45.6178159" lon="9.4319126"><ele>206.0</ele><time>2026-04-21T10:29:06.001Z</time></trkpt><trkpt lat="45.617868" lon="9.4317737"><ele>206.0</ele><time>2026-04-21T10:29:08.001Z</time></trkpt><trkpt lat="45.6179161" lon="9.4316155"><ele>206.0</ele><time>2026-04-21T10:29:10.001Z</time></trkpt><trkpt lat="45.6179641" lon="9.4314605"><ele>206.20000000000002</ele><time>2026-04-21T10:29:12.001Z</time></trkpt><trkpt lat="45.6179903" lon="9.4313683"><ele>206.4</ele><time>2026-04-21T10:29:13.001Z</time></trkpt><trkpt lat="45.6180189" lon="9.4312816"><ele>206.6</ele><time>2026-04-21T10:29:14.001Z</time></trkpt><trkpt lat="45.6180889" lon="9.4311238"><ele>206.8</ele><time>2026-04-21T10:29:16Z</time></trkpt><trkpt lat="45.6181609" lon="9.4309799"><ele>207.0</ele><time>2026-04-21T10:29:18.001Z</time></trkpt><trkpt lat="45.6182358" lon="9.4308578"><ele>207.2</ele><time>2026-04-21T10:29:20.001Z</time></trkpt><trkpt lat="45.6182843" lon="9.4307951"><ele>207.39999999999998</ele><time>2026-04-21T10:29:21.001Z</time></trkpt><trkpt lat="45.6183792" lon="9.4307037"><ele>207.60000000000002</ele><time>2026-04-21T10:29:23.001Z</time></trkpt><trkpt lat="45.6184919" lon="9.4306364"><ele>207.8</ele><time>2026-04-21T10:29:25.001Z</time></trkpt><trkpt lat="45.6185975" lon="9.4305868"><ele>208.0</ele><time>2026-04-21T10:29:27.001Z</time></trkpt><trkpt lat="45.6187103" lon="9.4305355"><ele>208.0</ele><time>2026-04-21T10:29:29.001Z</time></trkpt><trkpt lat="45.6188115" lon="9.4304775"><ele>208.0</ele><time>2026-04-21T10:29:31.001Z</time></trkpt><trkpt lat="45.6189168" lon="9.4304306"><ele>208.0</ele><time>2026-04-21T10:29:33.001Z</time></trkpt><trkpt lat="45.6190199" lon="9.4303835"><ele>208.0</ele><time>2026-04-21T10:29:35.001Z</time></trkpt><trkpt lat="45.6191207" lon="9.4303495"><ele>208.0</ele><time>2026-04-21T10:29:37Z</time></trkpt><trkpt lat="45.6192383" lon="9.4303603"><ele>208.0</ele><time>2026-04-21T10:29:39.001Z</time></trkpt><trkpt lat="45.6193508" lon="9.4303824"><ele>208.0</ele><time>2026-04-21T10:29:41.001Z</time></trkpt><trkpt lat="45.6194668" lon="9.4303953"><ele>208.0</ele><time>2026-04-21T10:29:43.001Z</time></trkpt><trkpt lat="45.6195761" lon="9.4304152"><ele>208.0</ele><time>2026-04-21T10:29:45.001Z</time></trkpt><trkpt lat="45.6196837" lon="9.4304372"><ele>208.0</ele><time>2026-04-21T10:29:47.001Z</time></trkpt><trkpt lat="45.6197914" lon="9.4304598"><ele>208.4</ele><time>2026-04-21T10:29:49.001Z</time></trkpt><trkpt lat="45.6198986" lon="9.4304861"><ele>208.8</ele><time>2026-04-21T10:29:51.001Z</time></trkpt><trkpt lat="45.6200038" lon="9.4305062"><ele>209.2</ele><time>2026-04-21T10:29:53Z</time></trkpt><trkpt lat="45.6201127" lon="9.4305258"><ele>209.6</ele><time>2026-04-21T10:29:55.001Z</time></trkpt><trkpt lat="45.6202189" lon="9.4305457"><ele>210.0</ele><time>2026-04-21T10:29:57.001Z</time></trkpt><trkpt lat="45.6203308" lon="9.4305628"><ele>210.0</ele><time>2026-04-21T10:29:59.001Z</time></trkpt><trkpt lat="45.6204392" lon="9.4305744"><ele>210.0</ele><time>2026-04-21T10:30:01.001Z</time></trkpt><trkpt lat="45.6205354" lon="9.4305911"><ele>210.0</ele><time>2026-04-21T10:30:03Z</time></trkpt><trkpt lat="45.6206405" lon="9.430617"><ele>210.0</ele><time>2026-04-21T10:30:05.001Z</time></trkpt><trkpt lat="45.6207178" lon="9.4306346"><ele>210.0</ele><time>2026-04-21T10:30:07.001Z</time></trkpt><trkpt lat="45.6207915" lon="9.430643"><ele>210.0</ele><time>2026-04-21T10:30:09.001Z</time></trkpt><trkpt lat="45.6208652" lon="9.4306916"><ele>210.0</ele><time>2026-04-21T10:30:11.001Z</time></trkpt><trkpt lat="45.6208844" lon="9.4307997"><ele>210.0</ele><time>2026-04-21T10:30:13Z</time></trkpt><trkpt lat="45.6208659" lon="9.4309233"><ele>210.0</ele><time>2026-04-21T10:30:15.001Z</time></trkpt><trkpt lat="45.6208482" lon="9.4310621"><ele>210.0</ele><time>2026-04-21T10:30:17.001Z</time></trkpt><trkpt lat="45.6208196" lon="9.4311899"><ele>210.0</ele><time>2026-04-21T10:30:19.001Z</time></trkpt><trkpt lat="45.6208083" lon="9.4313261"><ele>210.2</ele><time>2026-04-21T10:30:21.001Z</time></trkpt><trkpt lat="45.620787" lon="9.4314708"><ele>210.4</ele><time>2026-04-21T10:30:23.001Z</time></trkpt><trkpt lat="45.6207671" lon="9.4316315"><ele>210.60000000000002</ele><time>2026-04-21T10:30:25.001Z</time></trkpt><trkpt lat="45.6207471" lon="9.4317813"><ele>210.8</ele><time>2026-04-21T10:30:27.001Z</time></trkpt><trkpt lat="45.6207356" lon="9.4319395"><ele>211.0</ele><time>2026-04-21T10:30:29.001Z</time></trkpt><trkpt lat="45.6207159" lon="9.4320982"><ele>211.20000000000002</ele><time>2026-04-21T10:30:31.001Z</time></trkpt><trkpt lat="45.6206942" lon="9.4322559"><ele>211.4</ele><time>2026-04-21T10:30:33.001Z</time></trkpt><trkpt lat="45.6206727" lon="9.4324015"><ele>211.6</ele><time>2026-04-21T10:30:35.001Z</time></trkpt><trkpt lat="45.6206494" lon="9.4325589"><ele>211.8</ele><time>2026-04-21T10:30:37.001Z</time></trkpt><trkpt lat="45.6206219" lon="9.4327007"><ele>212.0</ele><time>2026-04-21T10:30:39.001Z</time></trkpt><trkpt lat="45.6205969" lon="9.4328384"><ele>211.6</ele><time>2026-04-21T10:30:41.001Z</time></trkpt><trkpt lat="45.6205817" lon="9.4329765"><ele>211.2</ele><time>2026-04-21T10:30:43.001Z</time></trkpt><trkpt lat="45.6205526" lon="9.4331356"><ele>210.8</ele><time>2026-04-21T10:30:45.001Z</time></trkpt><trkpt lat="45.6205265" lon="9.4332881"><ele>210.4</ele><time>2026-04-21T10:30:47.001Z</time></trkpt><trkpt lat="45.6204988" lon="9.4334451"><ele>210.0</ele><time>2026-04-21T10:30:49.001Z</time></trkpt><trkpt lat="45.620472" lon="9.4335956"><ele>210.0</ele><time>2026-04-21T10:30:51.001Z</time></trkpt><trkpt lat="45.6204493" lon="9.4337439"><ele>210.0</ele><time>2026-04-21T10:30:53.001Z</time></trkpt><trkpt lat="45.6204207" lon="9.4338947"><ele>210.0</ele><time>2026-04-21T10:30:55.001Z</time></trkpt><trkpt lat="45.6203987" lon="9.4340313"><ele>210.0</ele><time>2026-04-21T10:30:57.001Z</time></trkpt><trkpt lat="45.6203692" lon="9.4341726"><ele>210.0</ele><time>2026-04-21T10:30:59.001Z</time></trkpt><trkpt lat="45.620345" lon="9.4343154"><ele>209.8</ele><time>2026-04-21T10:31:01.001Z</time></trkpt><trkpt lat="45.6203175" lon="9.4344608"><ele>209.6</ele><time>2026-04-21T10:31:03.001Z</time></trkpt><trkpt lat="45.6203053" lon="9.4346124"><ele>209.39999999999998</ele><time>2026-04-21T10:31:05.001Z</time></trkpt><trkpt lat="45.6203189" lon="9.4347509"><ele>209.2</ele><time>2026-04-21T10:31:07.001Z</time></trkpt><trkpt lat="45.6203717" lon="9.4348627"><ele>209.0</ele><time>2026-04-21T10:31:09.001Z</time></trkpt><trkpt lat="45.6204693" lon="9.4349215"><ele>210.0</ele><time>2026-04-21T10:31:11.001Z</time></trkpt><trkpt lat="45.6205705" lon="9.4349618"><ele>211.0</ele><time>2026-04-21T10:31:13.001Z</time></trkpt><trkpt lat="45.6206799" lon="9.4349942"><ele>211.99999999999997</ele><time>2026-04-21T10:31:15.001Z</time></trkpt><trkpt lat="45.6207872" lon="9.4350221"><ele>213.0</ele><time>2026-04-21T10:31:17.001Z</time></trkpt><trkpt lat="45.6208971" lon="9.4350692"><ele>214.0</ele><time>2026-04-21T10:31:19.001Z</time></trkpt><trkpt lat="45.621004" lon="9.4351154"><ele>214.0</ele><time>2026-04-21T10:31:21Z</time></trkpt><trkpt lat="45.621109" lon="9.4351514"><ele>213.99999999999997</ele><time>2026-04-21T10:31:23.001Z</time></trkpt><trkpt lat="45.6212152" lon="9.4351837"><ele>213.99999999999997</ele><time>2026-04-21T10:31:25.001Z</time></trkpt><trkpt lat="45.62132" lon="9.4352163"><ele>214.0</ele><time>2026-04-21T10:31:27.001Z</time></trkpt><trkpt lat="45.6214242" lon="9.43525"><ele>214.0</ele><time>2026-04-21T10:31:29.001Z</time></trkpt><trkpt lat="45.6215337" lon="9.4352946"><ele>214.0</ele><time>2026-04-21T10:31:31.001Z</time></trkpt><trkpt lat="45.6216434" lon="9.435335"><ele>213.99999999999997</ele><time>2026-04-21T10:31:33.001Z</time></trkpt><trkpt lat="45.6217565" lon="9.4353713"><ele>213.99999999999997</ele><time>2026-04-21T10:31:35.001Z</time></trkpt><trkpt lat="45.6218562" lon="9.4354137"><ele>214.0</ele><time>2026-04-21T10:31:37.001Z</time></trkpt><trkpt lat="45.6219553" lon="9.4354432"><ele>214.0</ele><time>2026-04-21T10:31:39.001Z</time></trkpt><trkpt lat="45.6220452" lon="9.4355071"><ele>214.0</ele><time>2026-04-21T10:31:41.001Z</time></trkpt><trkpt lat="45.6220684" lon="9.4356324"><ele>213.99999999999997</ele><time>2026-04-21T10:31:43Z</time></trkpt><trkpt lat="45.6220516" lon="9.4357732"><ele>213.99999999999997</ele><time>2026-04-21T10:31:45.001Z</time></trkpt><trkpt lat="45.6220306" lon="9.4359137"><ele>214.0</ele><time>2026-04-21T10:31:47.001Z</time></trkpt><trkpt lat="45.6220072" lon="9.4360589"><ele>214.0</ele><time>2026-04-21T10:31:49.001Z</time></trkpt><trkpt lat="45.6219845" lon="9.4362058"><ele>213.0</ele><time>2026-04-21T10:31:51.001Z</time></trkpt><trkpt lat="45.6219566" lon="9.4363542"><ele>211.99999999999997</ele><time>2026-04-21T10:31:53.001Z</time></trkpt><trkpt lat="45.621933" lon="9.4365"><ele>211.0</ele><time>2026-04-21T10:31:55Z</time></trkpt><trkpt lat="45.6219127" lon="9.4366558"><ele>210.0</ele><time>2026-04-21T10:31:57.001Z</time></trkpt><trkpt lat="45.6218921" lon="9.4368099"><ele>209.0</ele><time>2026-04-21T10:31:59.001Z</time></trkpt><trkpt lat="45.621867" lon="9.4369721"><ele>209.0</ele><time>2026-04-21T10:32:01.001Z</time></trkpt><trkpt lat="45.6218435" lon="9.4371307"><ele>209.0</ele><time>2026-04-21T10:32:03.001Z</time></trkpt><trkpt lat="45.6218173" lon="9.4372782"><ele>209.0</ele><time>2026-04-21T10:32:05.001Z</time></trkpt><trkpt lat="45.6217944" lon="9.4374307"><ele>209.0</ele><time>2026-04-21T10:32:07.001Z</time></trkpt><trkpt lat="45.6217693" lon="9.4375833"><ele>209.0</ele><time>2026-04-21T10:32:09.001Z</time></trkpt><trkpt lat="45.6217443" lon="9.4377294"><ele>209.39999999999998</ele><time>2026-04-21T10:32:11.001Z</time></trkpt><trkpt lat="45.6217196" lon="9.4378738"><ele>209.8</ele><time>2026-04-21T10:32:13.001Z</time></trkpt><trkpt lat="45.6216985" lon="9.4380218"><ele>210.2</ele><time>2026-04-21T10:32:15.001Z</time></trkpt><trkpt lat="45.6216733" lon="9.4381722"><ele>210.60000000000002</ele><time>2026-04-21T10:32:17.001Z</time></trkpt><trkpt lat="45.6216483" lon="9.4383229"><ele>211.0</ele><time>2026-04-21T10:32:19.001Z</time></trkpt><trkpt lat="45.6216376" lon="9.4384778"><ele>211.20000000000002</ele><time>2026-04-21T10:32:21.001Z</time></trkpt><trkpt lat="45.6216827" lon="9.4386011"><ele>211.4</ele><time>2026-04-21T10:32:23.001Z</time></trkpt><trkpt lat="45.6216826" lon="9.4387414"><ele>211.6</ele><time>2026-04-21T10:32:25.001Z</time></trkpt><trkpt lat="45.6216446" lon="9.4388758"><ele>211.8</ele><time>2026-04-21T10:32:27.001Z</time></trkpt><trkpt lat="45.6216129" lon="9.4390252"><ele>212.0</ele><time>2026-04-21T10:32:29.001Z</time></trkpt><trkpt lat="45.6215899" lon="9.4391762"><ele>212.0</ele><time>2026-04-21T10:32:31.001Z</time></trkpt><trkpt lat="45.621555" lon="9.439327"><ele>212.0</ele><time>2026-04-21T10:32:33.001Z</time></trkpt><trkpt lat="45.6215265" lon="9.4394649"><ele>212.0</ele><time>2026-04-21T10:32:35.001Z</time></trkpt><trkpt lat="45.6214979" lon="9.4396186"><ele>212.0</ele><time>2026-04-21T10:32:37.001Z</time></trkpt><trkpt lat="45.621473" lon="9.4397817"><ele>212.0</ele><time>2026-04-21T10:32:39.001Z</time></trkpt><trkpt lat="45.6214277" lon="9.439928"><ele>212.0</ele><time>2026-04-21T10:32:41.001Z</time></trkpt><trkpt lat="45.621362" lon="9.4400693"><ele>212.0</ele><time>2026-04-21T10:32:43.001Z</time></trkpt><trkpt lat="45.6213616" lon="9.4402089"><ele>212.0</ele><time>2026-04-21T10:32:45.001Z</time></trkpt><trkpt lat="45.6214473" lon="9.4402746"><ele>212.0</ele><time>2026-04-21T10:32:47.001Z</time></trkpt><trkpt lat="45.6215495" lon="9.4402521"><ele>212.0</ele><time>2026-04-21T10:32:49.001Z</time></trkpt><trkpt lat="45.6216599" lon="9.4402495"><ele>212.0</ele><time>2026-04-21T10:32:51Z</time></trkpt><trkpt lat="45.621769" lon="9.4402775"><ele>212.0</ele><time>2026-04-21T10:32:53.001Z</time></trkpt><trkpt lat="45.6218822" lon="9.4403011"><ele>212.0</ele><time>2026-04-21T10:32:55.001Z</time></trkpt><trkpt lat="45.622002" lon="9.4403365"><ele>212.0</ele><time>2026-04-21T10:32:57.001Z</time></trkpt><trkpt lat="45.6221159" lon="9.4403678"><ele>212.0</ele><time>2026-04-21T10:32:59.001Z</time></trkpt><trkpt lat="45.6222212" lon="9.4404045"><ele>212.0</ele><time>2026-04-21T10:33:01Z</time></trkpt><trkpt lat="45.6223353" lon="9.4404436"><ele>212.0</ele><time>2026-04-21T10:33:03.001Z</time></trkpt><trkpt lat="45.6224371" lon="9.440476"><ele>212.0</ele><time>2026-04-21T10:33:05.001Z</time></trkpt><trkpt lat="45.6225552" lon="9.4405134"><ele>212.0</ele><time>2026-04-21T10:33:07.001Z</time></trkpt><trkpt lat="45.6226605" lon="9.4405504"><ele>212.0</ele><time>2026-04-21T10:33:09.001Z</time></trkpt><trkpt lat="45.6227782" lon="9.4405858"><ele>212.0</ele><time>2026-04-21T10:33:11.001Z</time></trkpt><trkpt lat="45.622891" lon="9.440611"><ele>212.0</ele><time>2026-04-21T10:33:13.001Z</time></trkpt><trkpt lat="45.623004" lon="9.4406493"><ele>212.0</ele><time>2026-04-21T10:33:15.001Z</time></trkpt><trkpt lat="45.6230673" lon="9.4406702"><ele>212.0</ele><time>2026-04-21T10:33:16.001Z</time></trkpt><trkpt lat="45.6231667" lon="9.4407028"><ele>212.0</ele><time>2026-04-21T10:33:18.001Z</time></trkpt><trkpt lat="45.6232631" lon="9.4407405"><ele>212.0</ele><time>2026-04-21T10:33:20.001Z</time></trkpt><trkpt lat="45.6233735" lon="9.4407644"><ele>212.0</ele><time>2026-04-21T10:33:22.001Z</time></trkpt><trkpt lat="45.6234948" lon="9.4407826"><ele>212.0</ele><time>2026-04-21T10:33:24.001Z</time></trkpt><trkpt lat="45.623603" lon="9.4408177"><ele>212.0</ele><time>2026-04-21T10:33:26.001Z</time></trkpt><trkpt lat="45.6237112" lon="9.4408524"><ele>212.0</ele><time>2026-04-21T10:33:28.001Z</time></trkpt><trkpt lat="45.623819" lon="9.4408666"><ele>212.0</ele><time>2026-04-21T10:33:30.001Z</time></trkpt><trkpt lat="45.6239253" lon="9.4409114"><ele>212.0</ele><time>2026-04-21T10:33:32.001Z</time></trkpt><trkpt lat="45.6240351" lon="9.4409453"><ele>212.39999999999998</ele><time>2026-04-21T10:33:34.001Z</time></trkpt><trkpt lat="45.624098" lon="9.4409636"><ele>212.79999999999998</ele><time>2026-04-21T10:33:35.001Z</time></trkpt><trkpt lat="45.6242104" lon="9.4410027"><ele>213.2</ele><time>2026-04-21T10:33:37.001Z</time></trkpt><trkpt lat="45.6243307" lon="9.4410452"><ele>213.6</ele><time>2026-04-21T10:33:39.001Z</time></trkpt><trkpt lat="45.6244464" lon="9.4410914"><ele>214.0</ele><time>2026-04-21T10:33:41.001Z</time></trkpt><trkpt lat="45.6245426" lon="9.441168"><ele>214.25</ele><time>2026-04-21T10:33:43.001Z</time></trkpt><trkpt lat="45.624627" lon="9.4412703"><ele>214.5</ele><time>2026-04-21T10:33:45.001Z</time></trkpt><trkpt lat="45.624709" lon="9.4413941"><ele>214.75</ele><time>2026-04-21T10:33:47.001Z</time></trkpt><trkpt lat="45.6248032" lon="9.4414903"><ele>215.0</ele><time>2026-04-21T10:33:49.001Z</time></trkpt><trkpt lat="45.6249139" lon="9.4415731"><ele>215.2</ele><time>2026-04-21T10:33:51.001Z</time></trkpt><trkpt lat="45.6250224" lon="9.441619"><ele>215.4</ele><time>2026-04-21T10:33:53.001Z</time></trkpt><trkpt lat="45.6251376" lon="9.4416584"><ele>215.60000000000002</ele><time>2026-04-21T10:33:55.001Z</time></trkpt><trkpt lat="45.6252394" lon="9.44169"><ele>215.8</ele><time>2026-04-21T10:33:57.001Z</time></trkpt><trkpt lat="45.6253329" lon="9.4417265"><ele>216.0</ele><time>2026-04-21T10:33:59.001Z</time></trkpt><trkpt lat="45.6253837" lon="9.4418132"><ele>216.20000000000002</ele><time>2026-04-21T10:34:01.001Z</time></trkpt><trkpt lat="45.625378" lon="9.4419415"><ele>216.40000000000003</ele><time>2026-04-21T10:34:03.001Z</time></trkpt><trkpt lat="45.6253434" lon="9.4420648"><ele>216.6</ele><time>2026-04-21T10:34:05.001Z</time></trkpt><trkpt lat="45.6253232" lon="9.4422044"><ele>216.8</ele><time>2026-04-21T10:34:07.001Z</time></trkpt><trkpt lat="45.6253185" lon="9.4423751"><ele>217.0</ele><time>2026-04-21T10:34:09.001Z</time></trkpt><trkpt lat="45.6252949" lon="9.4425186"><ele>216.8</ele><time>2026-04-21T10:34:11.001Z</time></trkpt><trkpt lat="45.6252814" lon="9.4426655"><ele>216.6</ele><time>2026-04-21T10:34:13.001Z</time></trkpt><trkpt lat="45.6252658" lon="9.4428225"><ele>216.40000000000003</ele><time>2026-04-21T10:34:15.001Z</time></trkpt><trkpt lat="45.6252416" lon="9.442975"><ele>216.20000000000002</ele><time>2026-04-21T10:34:17.001Z</time></trkpt><trkpt lat="45.6252183" lon="9.4431318"><ele>216.0</ele><time>2026-04-21T10:34:19.001Z</time></trkpt><trkpt lat="45.6251944" lon="9.4432744"><ele>216.0</ele><time>2026-04-21T10:34:21.001Z</time></trkpt><trkpt lat="45.6252254" lon="9.4434203"><ele>216.00000000000003</ele><time>2026-04-21T10:34:23.001Z</time></trkpt><trkpt lat="45.6252902" lon="9.4435325"><ele>216.00000000000003</ele><time>2026-04-21T10:34:25.001Z</time></trkpt><trkpt lat="45.6253839" lon="9.4435821"><ele>216.0</ele><time>2026-04-21T10:34:27.001Z</time></trkpt><trkpt lat="45.6254988" lon="9.443626"><ele>216.0</ele><time>2026-04-21T10:34:29.001Z</time></trkpt><trkpt lat="45.6255984" lon="9.4436607"><ele>216.20000000000002</ele><time>2026-04-21T10:34:31.001Z</time></trkpt><trkpt lat="45.6256619" lon="9.4436804"><ele>216.40000000000003</ele><time>2026-04-21T10:34:32.001Z</time></trkpt><trkpt lat="45.6257745" lon="9.4437136"><ele>216.6</ele><time>2026-04-21T10:34:34.001Z</time></trkpt><trkpt lat="45.6258956" lon="9.4437394"><ele>216.8</ele><time>2026-04-21T10:34:36.001Z</time></trkpt><trkpt lat="45.6260014" lon="9.4437827"><ele>217.0</ele><time>2026-04-21T10:34:38Z</time></trkpt><trkpt lat="45.6261142" lon="9.4438154"><ele>217.2</ele><time>2026-04-21T10:34:40.001Z</time></trkpt><trkpt lat="45.6262205" lon="9.4438553"><ele>217.39999999999998</ele><time>2026-04-21T10:34:42.001Z</time></trkpt><trkpt lat="45.6263278" lon="9.4438982"><ele>217.60000000000002</ele><time>2026-04-21T10:34:44.001Z</time></trkpt><trkpt lat="45.6264225" lon="9.4439309"><ele>217.8</ele><time>2026-04-21T10:34:46Z</time></trkpt><trkpt lat="45.6264729" lon="9.4440215"><ele>218.0</ele><time>2026-04-21T10:34:48.001Z</time></trkpt><trkpt lat="45.6264674" lon="9.4441522"><ele>218.0</ele><time>2026-04-21T10:34:50.001Z</time></trkpt><trkpt lat="45.6264324" lon="9.4442861"><ele>218.0</ele><time>2026-04-21T10:34:52.001Z</time></trkpt><trkpt lat="45.6264178" lon="9.4444308"><ele>218.0</ele><time>2026-04-21T10:34:54.001Z</time></trkpt><trkpt lat="45.6264022" lon="9.4445764"><ele>218.0</ele><time>2026-04-21T10:34:56.001Z</time></trkpt><trkpt lat="45.6263817" lon="9.4447286"><ele>218.0</ele><time>2026-04-21T10:34:58.001Z</time></trkpt><trkpt lat="45.6263629" lon="9.4448912"><ele>218.0</ele><time>2026-04-21T10:35:00.001Z</time></trkpt><trkpt lat="45.6263465" lon="9.4450691"><ele>218.0</ele><time>2026-04-21T10:35:02.001Z</time></trkpt><trkpt lat="45.6263174" lon="9.4452299"><ele>218.0</ele><time>2026-04-21T10:35:04.001Z</time></trkpt><trkpt lat="45.626299" lon="9.4453877"><ele>218.0</ele><time>2026-04-21T10:35:06.001Z</time></trkpt><trkpt lat="45.6262705" lon="9.445513"><ele>218.0</ele><time>2026-04-21T10:35:08.001Z</time></trkpt><trkpt lat="45.6261921" lon="9.4455308"><ele>217.8</ele><time>2026-04-21T10:35:10.001Z</time></trkpt><trkpt lat="45.6261009" lon="9.4455052"><ele>217.60000000000002</ele><time>2026-04-21T10:35:12.001Z</time></trkpt><trkpt lat="45.6260021" lon="9.4454828"><ele>217.39999999999998</ele><time>2026-04-21T10:35:14.001Z</time></trkpt><trkpt lat="45.6259007" lon="9.4454633"><ele>217.2</ele><time>2026-04-21T10:35:16.001Z</time></trkpt><trkpt lat="45.6257994" lon="9.4454382"><ele>217.0</ele><time>2026-04-21T10:35:18.001Z</time></trkpt><trkpt lat="45.6256968" lon="9.445411"><ele>217.0</ele><time>2026-04-21T10:35:20.001Z</time></trkpt><trkpt lat="45.6255891" lon="9.4454093"><ele>217.0</ele><time>2026-04-21T10:35:22.001Z</time></trkpt><trkpt lat="45.6254959" lon="9.445456"><ele>217.0</ele><time>2026-04-21T10:35:24.001Z</time></trkpt><trkpt lat="45.6254621" lon="9.4455805"><ele>217.0</ele><time>2026-04-21T10:35:26.001Z</time></trkpt><trkpt lat="45.6254413" lon="9.445711"><ele>217.0</ele><time>2026-04-21T10:35:28.001Z</time></trkpt><trkpt lat="45.6254258" lon="9.4458445"><ele>216.8</ele><time>2026-04-21T10:35:30.001Z</time></trkpt><trkpt lat="45.6254203" lon="9.4459872"><ele>216.6</ele><time>2026-04-21T10:35:32.001Z</time></trkpt><trkpt lat="45.6254012" lon="9.4461314"><ele>216.40000000000003</ele><time>2026-04-21T10:35:34.001Z</time></trkpt><trkpt lat="45.6253798" lon="9.4462826"><ele>216.20000000000002</ele><time>2026-04-21T10:35:36.001Z</time></trkpt><trkpt lat="45.6253628" lon="9.446432"><ele>216.0</ele><time>2026-04-21T10:35:38.001Z</time></trkpt><trkpt lat="45.6253527" lon="9.4465845"><ele>215.8</ele><time>2026-04-21T10:35:40.001Z</time></trkpt><trkpt lat="45.6253425" lon="9.4467271"><ele>215.60000000000002</ele><time>2026-04-21T10:35:42.001Z</time></trkpt><trkpt lat="45.6253349" lon="9.4468724"><ele>215.4</ele><time>2026-04-21T10:35:44.001Z</time></trkpt><trkpt lat="45.6253206" lon="9.4470251"><ele>215.2</ele><time>2026-04-21T10:35:46.001Z</time></trkpt><trkpt lat="45.6253121" lon="9.4471724"><ele>215.0</ele><time>2026-04-21T10:35:48.001Z</time></trkpt><trkpt lat="45.6253285" lon="9.4472826"><ele>215.0</ele><time>2026-04-21T10:35:50.001Z</time></trkpt><trkpt lat="45.625326" lon="9.4474174"><ele>215.0</ele><time>2026-04-21T10:35:52.001Z</time></trkpt><trkpt lat="45.6252937" lon="9.4475642"><ele>215.0</ele><time>2026-04-21T10:35:54.001Z</time></trkpt><trkpt lat="45.6252857" lon="9.4476945"><ele>215.0</ele><time>2026-04-21T10:35:56.001Z</time></trkpt><trkpt lat="45.6252748" lon="9.4478347"><ele>215.0</ele><time>2026-04-21T10:35:58.001Z</time></trkpt><trkpt lat="45.6252693" lon="9.4479782"><ele>215.2</ele><time>2026-04-21T10:36:00.001Z</time></trkpt><trkpt lat="45.6252515" lon="9.4481166"><ele>215.4</ele><time>2026-04-21T10:36:02.001Z</time></trkpt><trkpt lat="45.6252404" lon="9.4482471"><ele>215.60000000000002</ele><time>2026-04-21T10:36:04.001Z</time></trkpt><trkpt lat="45.6252318" lon="9.4483724"><ele>215.8</ele><time>2026-04-21T10:36:06.001Z</time></trkpt><trkpt lat="45.6252227" lon="9.4484985"><ele>216.0</ele><time>2026-04-21T10:36:08.001Z</time></trkpt><trkpt lat="45.6252047" lon="9.4486343"><ele>216.0</ele><time>2026-04-21T10:36:10.001Z</time></trkpt><trkpt lat="45.6251883" lon="9.4487445"><ele>216.00000000000003</ele><time>2026-04-21T10:36:12.001Z</time></trkpt><trkpt lat="45.6251626" lon="9.4488772"><ele>216.00000000000003</ele><time>2026-04-21T10:36:14.001Z</time></trkpt><trkpt lat="45.6251334" lon="9.4489635"><ele>216.0</ele><time>2026-04-21T10:36:15Z</time></trkpt><trkpt lat="45.625138" lon="9.4491225"><ele>216.0</ele><time>2026-04-21T10:36:17.001Z</time></trkpt><trkpt lat="45.6251301" lon="9.4492634"><ele>216.0</ele><time>2026-04-21T10:36:19.001Z</time></trkpt><trkpt lat="45.6251262" lon="9.4494105"><ele>216.00000000000003</ele><time>2026-04-21T10:36:21.001Z</time></trkpt><trkpt lat="45.6251237" lon="9.4495618"><ele>216.00000000000003</ele><time>2026-04-21T10:36:23.001Z</time></trkpt><trkpt lat="45.6251172" lon="9.4496988"><ele>216.0</ele><time>2026-04-21T10:36:25.001Z</time></trkpt><trkpt lat="45.6250899" lon="9.4498288"><ele>216.0</ele><time>2026-04-21T10:36:27.001Z</time></trkpt><trkpt lat="45.6250541" lon="9.4499733"><ele>215.60000000000002</ele><time>2026-04-21T10:36:29.001Z</time></trkpt><trkpt lat="45.6250426" lon="9.4501381"><ele>215.20000000000002</ele><time>2026-04-21T10:36:31.001Z</time></trkpt><trkpt lat="45.6250811" lon="9.4502867"><ele>214.79999999999998</ele><time>2026-04-21T10:36:33.001Z</time></trkpt><trkpt lat="45.6251062" lon="9.4504178"><ele>214.39999999999998</ele><time>2026-04-21T10:36:35.001Z</time></trkpt><trkpt lat="45.6251135" lon="9.450544"><ele>214.0</ele><time>2026-04-21T10:36:38.001Z</time></trkpt><trkpt lat="45.6251742" lon="9.4505764"><ele>213.99999999999997</ele><time>2026-04-21T10:36:42.001Z</time></trkpt><trkpt lat="45.6252479" lon="9.4505187"><ele>214.0</ele><time>2026-04-21T10:36:46.001Z</time></trkpt><trkpt lat="45.6253289" lon="9.4504471"><ele>214.0</ele><time>2026-04-21T10:36:49.001Z</time></trkpt><trkpt lat="45.6253877" lon="9.4503913"><ele>214.0</ele><time>2026-04-21T10:36:51.001Z</time></trkpt><trkpt lat="45.6254508" lon="9.4503255"><ele>213.99999999999997</ele><time>2026-04-21T10:36:53.001Z</time></trkpt><trkpt lat="45.6255173" lon="9.4503021"><ele>214.0</ele><time>2026-04-21T10:36:55.001Z</time></trkpt><trkpt lat="45.6255898" lon="9.4502683"><ele>214.0</ele><time>2026-04-21T10:36:57.001Z</time></trkpt><trkpt lat="45.6256611" lon="9.4502451"><ele>213.99999999999997</ele><time>2026-04-21T10:36:59.001Z</time></trkpt><trkpt lat="45.6257488" lon="9.4502543"><ele>213.99999999999997</ele><time>2026-04-21T10:37:01.001Z</time></trkpt><trkpt lat="45.625844" lon="9.4502696"><ele>214.0</ele><time>2026-04-21T10:37:03.001Z</time></trkpt><trkpt lat="45.6259772" lon="9.450274"><ele>214.0</ele><time>2026-04-21T10:37:05.001Z</time></trkpt><trkpt lat="45.6260812" lon="9.4502932"><ele>214.16666666666666</ele><time>2026-04-21T10:37:07.001Z</time></trkpt><trkpt lat="45.6261675" lon="9.4503163"><ele>214.33333333333331</ele><time>2026-04-21T10:37:09.001Z</time></trkpt><trkpt lat="45.6262576" lon="9.4503456"><ele>214.5</ele><time>2026-04-21T10:37:11.001Z</time></trkpt><trkpt lat="45.6263394" lon="9.4503729"><ele>214.66666666666669</ele><time>2026-04-21T10:37:13.001Z</time></trkpt><trkpt lat="45.6264244" lon="9.4503959"><ele>214.83333333333334</ele><time>2026-04-21T10:37:15.001Z</time></trkpt><trkpt lat="45.6265182" lon="9.450428"><ele>215.0</ele><time>2026-04-21T10:37:17.001Z</time></trkpt><trkpt lat="45.6266052" lon="9.450468"><ele>215.00000000000003</ele><time>2026-04-21T10:37:19.001Z</time></trkpt><trkpt lat="45.6266801" lon="9.4504956"><ele>215.0</ele><time>2026-04-21T10:37:21.001Z</time></trkpt><trkpt lat="45.6267553" lon="9.4505096"><ele>215.0</ele><time>2026-04-21T10:37:24Z</time></trkpt><trkpt lat="45.6268205" lon="9.4504202"><ele>215.0</ele><time>2026-04-21T10:37:27.001Z</time></trkpt><trkpt lat="45.6268685" lon="9.450318"><ele>215.00000000000003</ele><time>2026-04-21T10:37:29.001Z</time></trkpt><trkpt lat="45.6269209" lon="9.4501985"><ele>215.0</ele><time>2026-04-21T10:37:31.001Z</time></trkpt><trkpt lat="45.6269529" lon="9.4500606"><ele>215.6</ele><time>2026-04-21T10:37:33.001Z</time></trkpt><trkpt lat="45.6269916" lon="9.4499318"><ele>216.2</ele><time>2026-04-21T10:37:35.001Z</time></trkpt><trkpt lat="45.6270262" lon="9.4497958"><ele>216.8</ele><time>2026-04-21T10:37:37.001Z</time></trkpt><trkpt lat="45.6270596" lon="9.4496526"><ele>217.4</ele><time>2026-04-21T10:37:39.001Z</time></trkpt><trkpt lat="45.6270909" lon="9.4495065"><ele>218.0</ele><time>2026-04-21T10:37:41.001Z</time></trkpt><trkpt lat="45.6271306" lon="9.4493571"><ele>218.0</ele><time>2026-04-21T10:37:43.001Z</time></trkpt><trkpt lat="45.627166" lon="9.4492084"><ele>218.0</ele><time>2026-04-21T10:37:45.001Z</time></trkpt><trkpt lat="45.627207" lon="9.4490621"><ele>218.0</ele><time>2026-04-21T10:37:47.001Z</time></trkpt><trkpt lat="45.6272394" lon="9.4489073"><ele>218.0</ele><time>2026-04-21T10:37:49.001Z</time></trkpt><trkpt lat="45.6272799" lon="9.4487603"><ele>218.0</ele><time>2026-04-21T10:37:51.001Z</time></trkpt><trkpt lat="45.6273189" lon="9.4486091"><ele>218.4</ele><time>2026-04-21T10:37:53.001Z</time></trkpt><trkpt lat="45.6273598" lon="9.4484594"><ele>218.8</ele><time>2026-04-21T10:37:55.001Z</time></trkpt><trkpt lat="45.6273877" lon="9.4483111"><ele>219.2</ele><time>2026-04-21T10:37:57.001Z</time></trkpt><trkpt lat="45.6274194" lon="9.4481523"><ele>219.6</ele><time>2026-04-21T10:37:59.001Z</time></trkpt><trkpt lat="45.6274581" lon="9.4479999"><ele>220.0</ele><time>2026-04-21T10:38:01.001Z</time></trkpt><trkpt lat="45.6275281" lon="9.4478144"><ele>220.0</ele><time>2026-04-21T10:38:03.001Z</time></trkpt><trkpt lat="45.6275509" lon="9.4477293"><ele>220.0</ele><time>2026-04-21T10:38:04.001Z</time></trkpt><trkpt lat="45.627572" lon="9.447593"><ele>220.0</ele><time>2026-04-21T10:38:06.001Z</time></trkpt><trkpt lat="45.6276043" lon="9.4474329"><ele>220.0</ele><time>2026-04-21T10:38:08.001Z</time></trkpt><trkpt lat="45.6276271" lon="9.4473481"><ele>220.0</ele><time>2026-04-21T10:38:09.001Z</time></trkpt><trkpt lat="45.6276553" lon="9.4471869"><ele>220.25</ele><time>2026-04-21T10:38:11.001Z</time></trkpt><trkpt lat="45.6277085" lon="9.447027"><ele>220.5</ele><time>2026-04-21T10:38:13.001Z</time></trkpt><trkpt lat="45.6277424" lon="9.4468846"><ele>220.75</ele><time>2026-04-21T10:38:15.001Z</time></trkpt><trkpt lat="45.6277799" lon="9.4467262"><ele>221.0</ele><time>2026-04-21T10:38:17Z</time></trkpt><trkpt lat="45.6278169" lon="9.4465738"><ele>221.0</ele><time>2026-04-21T10:38:19.001Z</time></trkpt><trkpt lat="45.6278494" lon="9.4464319"><ele>221.00000000000003</ele><time>2026-04-21T10:38:21.001Z</time></trkpt><trkpt lat="45.6278737" lon="9.4462918"><ele>221.00000000000003</ele><time>2026-04-21T10:38:23.001Z</time></trkpt><trkpt lat="45.6279023" lon="9.4461573"><ele>221.0</ele><time>2026-04-21T10:38:25.001Z</time></trkpt><trkpt lat="45.6277904" lon="9.4461095"><ele>221.0</ele><time>2026-04-21T10:38:29.001Z</time></trkpt><trkpt lat="45.6277222" lon="9.4460528"><ele>221.0</ele><time>2026-04-21T10:38:31.001Z</time></trkpt><trkpt lat="45.6276184" lon="9.4460069"><ele>221.00000000000003</ele><time>2026-04-21T10:38:33.001Z</time></trkpt><trkpt lat="45.6275207" lon="9.4459676"><ele>221.00000000000003</ele><time>2026-04-21T10:38:35.001Z</time></trkpt><trkpt lat="45.6274127" lon="9.4459453"><ele>221.0</ele><time>2026-04-21T10:38:37.001Z</time></trkpt><trkpt lat="45.6273017" lon="9.4459075"><ele>221.0</ele><time>2026-04-21T10:38:39.001Z</time></trkpt><trkpt lat="45.6271984" lon="9.4458491"><ele>221.00000000000003</ele><time>2026-04-21T10:38:41.001Z</time></trkpt><trkpt lat="45.6271306" lon="9.4458572"><ele>221.0</ele><time>2026-04-21T10:38:42.001Z</time></trkpt><trkpt lat="45.627007" lon="9.445807"><ele>221.0</ele><time>2026-04-21T10:38:44.001Z</time></trkpt><trkpt lat="45.6269429" lon="9.4457802"><ele>221.0</ele><time>2026-04-21T10:38:45Z</time></trkpt><trkpt lat="45.6268814" lon="9.4457512"><ele>221.00000000000003</ele><time>2026-04-21T10:38:46.001Z</time></trkpt><trkpt lat="45.6267841" lon="9.445736"><ele>221.0</ele><time>2026-04-21T10:38:48.001Z</time></trkpt><trkpt lat="45.6266788" lon="9.4456838"><ele>220.4</ele><time>2026-04-21T10:38:50.001Z</time></trkpt><trkpt lat="45.6266098" lon="9.4456742"><ele>219.8</ele><time>2026-04-21T10:38:51.001Z</time></trkpt><trkpt lat="45.6265067" lon="9.4456491"><ele>219.20000000000002</ele><time>2026-04-21T10:38:53.001Z</time></trkpt><trkpt lat="45.6264058" lon="9.4455976"><ele>218.60000000000002</ele><time>2026-04-21T10:38:55.001Z</time></trkpt><trkpt lat="45.6263418" lon="9.4454863"><ele>218.0</ele><time>2026-04-21T10:38:57.001Z</time></trkpt><trkpt lat="45.6263437" lon="9.4453358"><ele>218.0</ele><time>2026-04-21T10:38:59.001Z</time></trkpt><trkpt lat="45.626367" lon="9.4451922"><ele>218.0</ele><time>2026-04-21T10:39:01.001Z</time></trkpt><trkpt lat="45.6263797" lon="9.4450236"><ele>218.0</ele><time>2026-04-21T10:39:03.001Z</time></trkpt><trkpt lat="45.6263975" lon="9.444862"><ele>218.0</ele><time>2026-04-21T10:39:05.001Z</time></trkpt><trkpt lat="45.6264148" lon="9.4447003"><ele>218.0</ele><time>2026-04-21T10:39:07.001Z</time></trkpt><trkpt lat="45.6264399" lon="9.4445388"><ele>218.0</ele><time>2026-04-21T10:39:09.001Z</time></trkpt><trkpt lat="45.6264539" lon="9.444379"><ele>218.0</ele><time>2026-04-21T10:39:11.001Z</time></trkpt><trkpt lat="45.6264765" lon="9.4442226"><ele>218.0</ele><time>2026-04-21T10:39:13.001Z</time></trkpt><trkpt lat="45.6264936" lon="9.4440888"><ele>218.0</ele><time>2026-04-21T10:39:15.001Z</time></trkpt><trkpt lat="45.6265108" lon="9.4439755"><ele>218.0</ele><time>2026-04-21T10:39:19.001Z</time></trkpt><trkpt lat="45.626461" lon="9.4439156"><ele>218.0</ele><time>2026-04-21T10:39:21.001Z</time></trkpt><trkpt lat="45.6263903" lon="9.4438768"><ele>218.0</ele><time>2026-04-21T10:39:23.001Z</time></trkpt><trkpt lat="45.6263065" lon="9.44383"><ele>218.0</ele><time>2026-04-21T10:39:25.001Z</time></trkpt><trkpt lat="45.6262008" lon="9.4438082"><ele>218.0</ele><time>2026-04-21T10:39:27.001Z</time></trkpt><trkpt lat="45.6260894" lon="9.443777"><ele>218.0</ele><time>2026-04-21T10:39:29.001Z</time></trkpt><trkpt lat="45.6259829" lon="9.4437434"><ele>218.0</ele><time>2026-04-21T10:39:31.001Z</time></trkpt><trkpt lat="45.6258722" lon="9.4436988"><ele>218.0</ele><time>2026-04-21T10:39:33.001Z</time></trkpt><trkpt lat="45.6257611" lon="9.44367"><ele>218.0</ele><time>2026-04-21T10:39:35Z</time></trkpt><trkpt lat="45.6256527" lon="9.4436292"><ele>218.0</ele><time>2026-04-21T10:39:37.001Z</time></trkpt><trkpt lat="45.6255428" lon="9.4435848"><ele>218.0</ele><time>2026-04-21T10:39:39.001Z</time></trkpt><trkpt lat="45.6254776" lon="9.4435494"><ele>218.0</ele><time>2026-04-21T10:39:40.001Z</time></trkpt><trkpt lat="45.6253615" lon="9.4435109"><ele>218.0</ele><time>2026-04-21T10:39:42.001Z</time></trkpt><trkpt lat="45.6252499" lon="9.4434639"><ele>218.0</ele><time>2026-04-21T10:39:44.001Z</time></trkpt><trkpt lat="45.6252132" lon="9.4433393"><ele>218.0</ele><time>2026-04-21T10:39:46.001Z</time></trkpt><trkpt lat="45.6252392" lon="9.4431742"><ele>217.83333333333334</ele><time>2026-04-21T10:39:48.001Z</time></trkpt><trkpt lat="45.625252" lon="9.4430835"><ele>217.66666666666669</ele><time>2026-04-21T10:39:49.001Z</time></trkpt><trkpt lat="45.6252778" lon="9.4429316"><ele>217.5</ele><time>2026-04-21T10:39:51.001Z</time></trkpt><trkpt lat="45.625304" lon="9.4427774"><ele>217.33333333333331</ele><time>2026-04-21T10:39:53.001Z</time></trkpt><trkpt lat="45.6253219" lon="9.4426829"><ele>217.16666666666666</ele><time>2026-04-21T10:39:54.001Z</time></trkpt><trkpt lat="45.6253348" lon="9.4425928"><ele>217.0</ele><time>2026-04-21T10:39:55.001Z</time></trkpt><trkpt lat="45.6253609" lon="9.442434"><ele>217.0</ele><time>2026-04-21T10:39:57.001Z</time></trkpt><trkpt lat="45.6253836" lon="9.442279"><ele>217.0</ele><time>2026-04-21T10:39:59.001Z</time></trkpt><trkpt lat="45.6254015" lon="9.4421178"><ele>217.0</ele><time>2026-04-21T10:40:01Z</time></trkpt><trkpt lat="45.6254165" lon="9.4419802"><ele>217.0</ele><time>2026-04-21T10:40:03.001Z</time></trkpt><trkpt lat="45.6254064" lon="9.4418739"><ele>217.0</ele><time>2026-04-21T10:40:06.001Z</time></trkpt><trkpt lat="45.6253802" lon="9.4417629"><ele>216.8</ele><time>2026-04-21T10:40:08.001Z</time></trkpt><trkpt lat="45.6253005" lon="9.4417207"><ele>216.6</ele><time>2026-04-21T10:40:10.001Z</time></trkpt><trkpt lat="45.6251958" lon="9.4416969"><ele>216.40000000000003</ele><time>2026-04-21T10:40:12.001Z</time></trkpt><trkpt lat="45.6250929" lon="9.4416613"><ele>216.20000000000002</ele><time>2026-04-21T10:40:14.001Z</time></trkpt><trkpt lat="45.6249864" lon="9.4416126"><ele>216.0</ele><time>2026-04-21T10:40:16.001Z</time></trkpt><trkpt lat="45.6249379" lon="9.4415469"><ele>216.0</ele><time>2026-04-21T10:40:17.001Z</time></trkpt><trkpt lat="45.6248783" lon="9.4414944"><ele>216.00000000000003</ele><time>2026-04-21T10:40:18.001Z</time></trkpt><trkpt lat="45.6247957" lon="9.4414388"><ele>216.00000000000003</ele><time>2026-04-21T10:40:20.001Z</time></trkpt><trkpt lat="45.6247063" lon="9.4413368"><ele>216.0</ele><time>2026-04-21T10:40:22.001Z</time></trkpt><trkpt lat="45.6246294" lon="9.4412248"><ele>216.0</ele><time>2026-04-21T10:40:24.001Z</time></trkpt><trkpt lat="45.6245663" lon="9.4411614"><ele>215.60000000000002</ele><time>2026-04-21T10:40:25Z</time></trkpt><trkpt lat="45.6244668" lon="9.4410834"><ele>215.20000000000002</ele><time>2026-04-21T10:40:27.001Z</time></trkpt><trkpt lat="45.6243548" lon="9.4410431"><ele>214.79999999999998</ele><time>2026-04-21T10:40:29.001Z</time></trkpt><trkpt lat="45.6242418" lon="9.4410158"><ele>214.39999999999998</ele><time>2026-04-21T10:40:31.001Z</time></trkpt><trkpt lat="45.6241806" lon="9.4409905"><ele>214.0</ele><time>2026-04-21T10:40:32.001Z</time></trkpt><trkpt lat="45.624068" lon="9.4409501"><ele>214.0</ele><time>2026-04-21T10:40:34.001Z</time></trkpt><trkpt lat="45.6239515" lon="9.4409152"><ele>213.99999999999997</ele><time>2026-04-21T10:40:36.001Z</time></trkpt><trkpt lat="45.6238184" lon="9.4408539"><ele>213.99999999999997</ele><time>2026-04-21T10:40:38.001Z</time></trkpt><trkpt lat="45.6237508" lon="9.4408162"><ele>214.0</ele><time>2026-04-21T10:40:39.001Z</time></trkpt><trkpt lat="45.6236378" lon="9.4408004"><ele>214.0</ele><time>2026-04-21T10:40:41.001Z</time></trkpt><trkpt lat="45.6235187" lon="9.4407528"><ele>213.5</ele><time>2026-04-21T10:40:43.001Z</time></trkpt><trkpt lat="45.6234043" lon="9.4407243"><ele>213.0</ele><time>2026-04-21T10:40:45.001Z</time></trkpt><trkpt lat="45.6232869" lon="9.4407017"><ele>212.5</ele><time>2026-04-21T10:40:47.001Z</time></trkpt><trkpt lat="45.6231774" lon="9.4406761"><ele>212.0</ele><time>2026-04-21T10:40:49.001Z</time></trkpt><trkpt lat="45.6230635" lon="9.4406528"><ele>212.0</ele><time>2026-04-21T10:40:51.001Z</time></trkpt><trkpt lat="45.6229405" lon="9.4406027"><ele>212.0</ele><time>2026-04-21T10:40:53.001Z</time></trkpt><trkpt lat="45.6228166" lon="9.4405695"><ele>212.0</ele><time>2026-04-21T10:40:55.001Z</time></trkpt><trkpt lat="45.6227166" lon="9.4405159"><ele>212.0</ele><time>2026-04-21T10:40:57.001Z</time></trkpt><trkpt lat="45.6226436" lon="9.4405077"><ele>212.0</ele><time>2026-04-21T10:40:58.001Z</time></trkpt><trkpt lat="45.6225788" lon="9.4404901"><ele>212.00000000000003</ele><time>2026-04-21T10:40:59.001Z</time></trkpt><trkpt lat="45.622516" lon="9.440472"><ele>212.0</ele><time>2026-04-21T10:41:00.001Z</time></trkpt><trkpt lat="45.6223985" lon="9.4404355"><ele>212.0</ele><time>2026-04-21T10:41:02.001Z</time></trkpt><trkpt lat="45.6222757" lon="9.4403958"><ele>212.0</ele><time>2026-04-21T10:41:04.001Z</time></trkpt><trkpt lat="45.6222116" lon="9.4403771"><ele>212.00000000000003</ele><time>2026-04-21T10:41:05.001Z</time></trkpt><trkpt lat="45.6221463" lon="9.4403546"><ele>212.0</ele><time>2026-04-21T10:41:06.001Z</time></trkpt><trkpt lat="45.6220885" lon="9.4403188"><ele>212.0</ele><time>2026-04-21T10:41:07.001Z</time></trkpt><trkpt lat="45.6219625" lon="9.4402728"><ele>212.0</ele><time>2026-04-21T10:41:09.001Z</time></trkpt><trkpt lat="45.6218375" lon="9.4402136"><ele>212.0</ele><time>2026-04-21T10:41:11.001Z</time></trkpt><trkpt lat="45.6217734" lon="9.4401998"><ele>212.0</ele><time>2026-04-21T10:41:12.001Z</time></trkpt><trkpt lat="45.621658" lon="9.4401337"><ele>212.0</ele><time>2026-04-21T10:41:14.001Z</time></trkpt><trkpt lat="45.6215432" lon="9.4400855"><ele>212.0</ele><time>2026-04-21T10:41:16Z</time></trkpt><trkpt lat="45.6215067" lon="9.4399962"><ele>212.0</ele><time>2026-04-21T10:41:17.001Z</time></trkpt><trkpt lat="45.6214952" lon="9.4398148"><ele>212.0</ele><time>2026-04-21T10:41:19.001Z</time></trkpt><trkpt lat="45.6215156" lon="9.4397257"><ele>212.0</ele><time>2026-04-21T10:41:20.001Z</time></trkpt><trkpt lat="45.6215481" lon="9.4395716"><ele>212.0</ele><time>2026-04-21T10:41:22.001Z</time></trkpt><trkpt lat="45.6215805" lon="9.4394028"><ele>212.0</ele><time>2026-04-21T10:41:24.001Z</time></trkpt><trkpt lat="45.6215954" lon="9.4393143"><ele>212.0</ele><time>2026-04-21T10:41:25.001Z</time></trkpt><trkpt lat="45.6216203" lon="9.4391391"><ele>212.0</ele><time>2026-04-21T10:41:27.001Z</time></trkpt><trkpt lat="45.6216469" lon="9.4389686"><ele>212.0</ele><time>2026-04-21T10:41:29.001Z</time></trkpt><trkpt lat="45.6216741" lon="9.4388031"><ele>212.00000000000003</ele><time>2026-04-21T10:41:31.001Z</time></trkpt><trkpt lat="45.6217101" lon="9.4386807"><ele>212.0</ele><time>2026-04-21T10:41:33.001Z</time></trkpt><trkpt lat="45.6217348" lon="9.4385955"><ele>212.0</ele><time>2026-04-21T10:41:36.001Z</time></trkpt><trkpt lat="45.6216763" lon="9.4385382"><ele>212.0</ele><time>2026-04-21T10:41:38.001Z</time></trkpt><trkpt lat="45.6216323" lon="9.4384439"><ele>212.00000000000003</ele><time>2026-04-21T10:41:40.001Z</time></trkpt><trkpt lat="45.6216476" lon="9.4383053"><ele>212.0</ele><time>2026-04-21T10:41:42.001Z</time></trkpt><trkpt lat="45.6216688" lon="9.4381693"><ele>212.0</ele><time>2026-04-21T10:41:44.001Z</time></trkpt><trkpt lat="45.6216902" lon="9.4380354"><ele>212.0</ele><time>2026-04-21T10:41:46.001Z</time></trkpt><trkpt lat="45.6217186" lon="9.4378764"><ele>212.0</ele><time>2026-04-21T10:41:48.001Z</time></trkpt><trkpt lat="45.6217507" lon="9.4377155"><ele>212.0</ele><time>2026-04-21T10:41:50.001Z</time></trkpt><trkpt lat="45.6217755" lon="9.437556"><ele>212.0</ele><time>2026-04-21T10:41:52.001Z</time></trkpt><trkpt lat="45.6217879" lon="9.4374652"><ele>211.8</ele><time>2026-04-21T10:41:53.001Z</time></trkpt><trkpt lat="45.6218157" lon="9.4373017"><ele>211.6</ele><time>2026-04-21T10:41:55.001Z</time></trkpt><trkpt lat="45.621845" lon="9.4371336"><ele>211.4</ele><time>2026-04-21T10:41:57.001Z</time></trkpt><trkpt lat="45.6218629" lon="9.4369697"><ele>211.20000000000002</ele><time>2026-04-21T10:41:59.001Z</time></trkpt><trkpt lat="45.6218723" lon="9.4368749"><ele>211.0</ele><time>2026-04-21T10:42:00.001Z</time></trkpt><trkpt lat="45.6218897" lon="9.4367836"><ele>211.0</ele><time>2026-04-21T10:42:01.001Z</time></trkpt><trkpt lat="45.6219165" lon="9.4366085"><ele>211.0</ele><time>2026-04-21T10:42:03.001Z</time></trkpt><trkpt lat="45.6219434" lon="9.4364325"><ele>211.0</ele><time>2026-04-21T10:42:05.001Z</time></trkpt><trkpt lat="45.6219633" lon="9.4362655"><ele>211.0</ele><time>2026-04-21T10:42:07.001Z</time></trkpt><trkpt lat="45.62199" lon="9.4360983"><ele>211.60000000000002</ele><time>2026-04-21T10:42:09.001Z</time></trkpt><trkpt lat="45.6220049" lon="9.436003"><ele>212.2</ele><time>2026-04-21T10:42:10.001Z</time></trkpt><trkpt lat="45.6220274" lon="9.4358376"><ele>212.79999999999998</ele><time>2026-04-21T10:42:12.001Z</time></trkpt><trkpt lat="45.6220402" lon="9.4357483"><ele>213.39999999999998</ele><time>2026-04-21T10:42:13.001Z</time></trkpt><trkpt lat="45.6220442" lon="9.4355899"><ele>214.0</ele><time>2026-04-21T10:42:15.001Z</time></trkpt><trkpt lat="45.6219956" lon="9.4354735"><ele>213.39999999999998</ele><time>2026-04-21T10:42:17.001Z</time></trkpt><trkpt lat="45.6218939" lon="9.435427"><ele>212.79999999999998</ele><time>2026-04-21T10:42:19.001Z</time></trkpt><trkpt lat="45.6217909" lon="9.4353994"><ele>212.2</ele><time>2026-04-21T10:42:21.001Z</time></trkpt><trkpt lat="45.6216741" lon="9.4353629"><ele>211.60000000000002</ele><time>2026-04-21T10:42:23.001Z</time></trkpt><trkpt lat="45.6215631" lon="9.435331"><ele>211.0</ele><time>2026-04-21T10:42:25.001Z</time></trkpt><trkpt lat="45.6214483" lon="9.435268"><ele>211.0</ele><time>2026-04-21T10:42:27.001Z</time></trkpt><trkpt lat="45.6213381" lon="9.4352345"><ele>211.0</ele><time>2026-04-21T10:42:29.001Z</time></trkpt><trkpt lat="45.6212234" lon="9.4351973"><ele>211.0</ele><time>2026-04-21T10:42:31.001Z</time></trkpt><trkpt lat="45.6211089" lon="9.4351506"><ele>211.0</ele><time>2026-04-21T10:42:33.001Z</time></trkpt><trkpt lat="45.6210419" lon="9.4351368"><ele>211.0</ele><time>2026-04-21T10:42:34.001Z</time></trkpt><trkpt lat="45.6209762" lon="9.4351216"><ele>211.49999999999997</ele><time>2026-04-21T10:42:35.001Z</time></trkpt><trkpt lat="45.6209108" lon="9.4351024"><ele>212.0</ele><time>2026-04-21T10:42:36.001Z</time></trkpt><trkpt lat="45.6207906" lon="9.4350582"><ele>212.5</ele><time>2026-04-21T10:42:38.001Z</time></trkpt><trkpt lat="45.6207284" lon="9.4350398"><ele>213.0</ele><time>2026-04-21T10:42:39.001Z</time></trkpt><trkpt lat="45.6206152" lon="9.4349968"><ele>213.49999999999997</ele><time>2026-04-21T10:42:41.001Z</time></trkpt><trkpt lat="45.6205465" lon="9.4349756"><ele>214.0</ele><time>2026-04-21T10:42:42.001Z</time></trkpt><trkpt lat="45.6204401" lon="9.4349259"><ele>214.0</ele><time>2026-04-21T10:42:44.001Z</time></trkpt><trkpt lat="45.6203526" lon="9.434846"><ele>213.99999999999997</ele><time>2026-04-21T10:42:46.001Z</time></trkpt><trkpt lat="45.6202971" lon="9.4347132"><ele>213.99999999999997</ele><time>2026-04-21T10:42:48.001Z</time></trkpt><trkpt lat="45.6202909" lon="9.4345451"><ele>214.0</ele><time>2026-04-21T10:42:50.001Z</time></trkpt><trkpt lat="45.6203119" lon="9.4344572"><ele>214.0</ele><time>2026-04-21T10:42:51.001Z</time></trkpt><trkpt lat="45.6203494" lon="9.4342878"><ele>213.6</ele><time>2026-04-21T10:42:53.001Z</time></trkpt><trkpt lat="45.6203758" lon="9.4341174"><ele>213.2</ele><time>2026-04-21T10:42:55.001Z</time></trkpt><trkpt lat="45.6203949" lon="9.4340298"><ele>212.79999999999998</ele><time>2026-04-21T10:42:56.001Z</time></trkpt><trkpt lat="45.620421" lon="9.4338679"><ele>212.39999999999998</ele><time>2026-04-21T10:42:58.001Z</time></trkpt><trkpt lat="45.6204396" lon="9.4337699"><ele>212.0</ele><time>2026-04-21T10:42:59.001Z</time></trkpt><trkpt lat="45.6204727" lon="9.4335949"><ele>212.0</ele><time>2026-04-21T10:43:01.001Z</time></trkpt><trkpt lat="45.6204839" lon="9.433501"><ele>212.0</ele><time>2026-04-21T10:43:02.001Z</time></trkpt><trkpt lat="45.6205192" lon="9.4333269"><ele>212.0</ele><time>2026-04-21T10:43:04.001Z</time></trkpt><trkpt lat="45.6205369" lon="9.4332323"><ele>212.0</ele><time>2026-04-21T10:43:05.001Z</time></trkpt><trkpt lat="45.6205539" lon="9.4331456"><ele>212.0</ele><time>2026-04-21T10:43:06.001Z</time></trkpt><trkpt lat="45.6205817" lon="9.4329665"><ele>212.00000000000003</ele><time>2026-04-21T10:43:08.001Z</time></trkpt><trkpt lat="45.6206066" lon="9.4327927"><ele>212.0</ele><time>2026-04-21T10:43:10.001Z</time></trkpt><trkpt lat="45.6206234" lon="9.4327"><ele>212.0</ele><time>2026-04-21T10:43:11.001Z</time></trkpt><trkpt lat="45.6206372" lon="9.432604"><ele>212.0</ele><time>2026-04-21T10:43:12.001Z</time></trkpt><trkpt lat="45.6206509" lon="9.4325096"><ele>212.00000000000003</ele><time>2026-04-21T10:43:13.001Z</time></trkpt><trkpt lat="45.6206672" lon="9.4324191"><ele>212.0</ele><time>2026-04-21T10:43:14.001Z</time></trkpt><trkpt lat="45.6206847" lon="9.4323319"><ele>212.00000000000003</ele><time>2026-04-21T10:43:15.001Z</time></trkpt><trkpt lat="45.6207118" lon="9.4321546"><ele>212.0</ele><time>2026-04-21T10:43:17.001Z</time></trkpt><trkpt lat="45.62073" lon="9.4320642"><ele>212.0</ele><time>2026-04-21T10:43:18.001Z</time></trkpt><trkpt lat="45.6207426" lon="9.4319644"><ele>212.0</ele><time>2026-04-21T10:43:18.999Z</time></trkpt><trkpt lat="45.620754" lon="9.4318711"><ele>212.00000000000003</ele><time>2026-04-21T10:43:20.001Z</time></trkpt><trkpt lat="45.6207631" lon="9.4317743"><ele>212.0</ele><time>2026-04-21T10:43:21.001Z</time></trkpt><trkpt lat="45.6207716" lon="9.431677"><ele>211.8</ele><time>2026-04-21T10:43:22.001Z</time></trkpt><trkpt lat="45.6207871" lon="9.4315765"><ele>211.6</ele><time>2026-04-21T10:43:23.001Z</time></trkpt><trkpt lat="45.6208131" lon="9.4314064"><ele>211.4</ele><time>2026-04-21T10:43:25.001Z</time></trkpt><trkpt lat="45.6208347" lon="9.4312407"><ele>211.20000000000002</ele><time>2026-04-21T10:43:27.001Z</time></trkpt><trkpt lat="45.6208456" lon="9.4311449"><ele>211.0</ele><time>2026-04-21T10:43:28.001Z</time></trkpt><trkpt lat="45.6208533" lon="9.4310325"><ele>210.8</ele><time>2026-04-21T10:43:30.001Z</time></trkpt><trkpt lat="45.6208711" lon="9.4308731"><ele>210.60000000000002</ele><time>2026-04-21T10:43:32.001Z</time></trkpt><trkpt lat="45.6208373" lon="9.4307237"><ele>210.4</ele><time>2026-04-21T10:43:34.001Z</time></trkpt><trkpt lat="45.6207497" lon="9.4306742"><ele>210.2</ele><time>2026-04-21T10:43:36.001Z</time></trkpt><trkpt lat="45.6206427" lon="9.4306237"><ele>210.0</ele><time>2026-04-21T10:43:38.001Z</time></trkpt><trkpt lat="45.6205419" lon="9.4305912"><ele>210.0</ele><time>2026-04-21T10:43:40.001Z</time></trkpt><trkpt lat="45.6204777" lon="9.4305854"><ele>210.0</ele><time>2026-04-21T10:43:41.001Z</time></trkpt><trkpt lat="45.6204146" lon="9.4305756"><ele>210.0</ele><time>2026-04-21T10:43:42.001Z</time></trkpt><trkpt lat="45.6203508" lon="9.4305764"><ele>210.0</ele><time>2026-04-21T10:43:43.001Z</time></trkpt><trkpt lat="45.6202863" lon="9.4305664"><ele>210.0</ele><time>2026-04-21T10:43:44.001Z</time></trkpt><trkpt lat="45.6201707" lon="9.4305399"><ele>210.0</ele><time>2026-04-21T10:43:46.001Z</time></trkpt><trkpt lat="45.6200497" lon="9.4305061"><ele>210.0</ele><time>2026-04-21T10:43:48.001Z</time></trkpt><trkpt lat="45.6199864" lon="9.4304995"><ele>210.0</ele><time>2026-04-21T10:43:49.001Z</time></trkpt><trkpt lat="45.6198657" lon="9.4304704"><ele>210.0</ele><time>2026-04-21T10:43:51.001Z</time></trkpt><trkpt lat="45.619751" lon="9.4304527"><ele>210.0</ele><time>2026-04-21T10:43:53.001Z</time></trkpt><trkpt lat="45.619688" lon="9.4304487"><ele>210.0</ele><time>2026-04-21T10:43:54.001Z</time></trkpt><trkpt lat="45.6196248" lon="9.4304402"><ele>210.0</ele><time>2026-04-21T10:43:55Z</time></trkpt><trkpt lat="45.619498" lon="9.4304263"><ele>210.0</ele><time>2026-04-21T10:43:57.001Z</time></trkpt><trkpt lat="45.6193972" lon="9.4303858"><ele>210.0</ele><time>2026-04-21T10:43:59.001Z</time></trkpt><trkpt lat="45.6193164" lon="9.4303213"><ele>210.0</ele><time>2026-04-21T10:44:01.001Z</time></trkpt><trkpt lat="45.619355" lon="9.4302222"><ele>210.0</ele><time>2026-04-21T10:44:03.001Z</time></trkpt><trkpt lat="45.6194509" lon="9.4301699"><ele>210.0</ele><time>2026-04-21T10:44:05.001Z</time></trkpt><trkpt lat="45.6195413" lon="9.43011"><ele>210.0</ele><time>2026-04-21T10:44:07.001Z</time></trkpt><trkpt lat="45.6196294" lon="9.4300321"><ele>210.0</ele><time>2026-04-21T10:44:09.001Z</time></trkpt><trkpt lat="45.6196948" lon="9.4299013"><ele>210.0</ele><time>2026-04-21T10:44:11.001Z</time></trkpt><trkpt lat="45.6197445" lon="9.4297664"><ele>210.0</ele><time>2026-04-21T10:44:13.001Z</time></trkpt><trkpt lat="45.6197597" lon="9.4296789"><ele>210.0</ele><time>2026-04-21T10:44:14.001Z</time></trkpt><trkpt lat="45.6197761" lon="9.4295886"><ele>209.6</ele><time>2026-04-21T10:44:15.001Z</time></trkpt><trkpt lat="45.6198014" lon="9.4294357"><ele>209.2</ele><time>2026-04-21T10:44:17.001Z</time></trkpt><trkpt lat="45.6198202" lon="9.4293453"><ele>208.8</ele><time>2026-04-21T10:44:18.001Z</time></trkpt><trkpt lat="45.6198405" lon="9.4292583"><ele>208.4</ele><time>2026-04-21T10:44:19Z</time></trkpt><trkpt lat="45.6198736" lon="9.4290918"><ele>208.0</ele><time>2026-04-21T10:44:21.001Z</time></trkpt><trkpt lat="45.61991" lon="9.4289213"><ele>208.0</ele><time>2026-04-21T10:44:23.001Z</time></trkpt><trkpt lat="45.6199331" lon="9.4287544"><ele>208.0</ele><time>2026-04-21T10:44:25.001Z</time></trkpt><trkpt lat="45.6199444" lon="9.4286611"><ele>208.0</ele><time>2026-04-21T10:44:26.001Z</time></trkpt><trkpt lat="45.6199494" lon="9.4285672"><ele>208.0</ele><time>2026-04-21T10:44:27.001Z</time></trkpt><trkpt lat="45.6199257" lon="9.4284037"><ele>208.0</ele><time>2026-04-21T10:44:29.001Z</time></trkpt><trkpt lat="45.6198833" lon="9.4282847"><ele>208.0</ele><time>2026-04-21T10:44:31.001Z</time></trkpt><trkpt lat="45.6198407" lon="9.4282089"><ele>208.0</ele><time>2026-04-21T10:44:32.001Z</time></trkpt><trkpt lat="45.6197586" lon="9.4280656"><ele>208.0</ele><time>2026-04-21T10:44:34.001Z</time></trkpt><trkpt lat="45.6197054" lon="9.4280005"><ele>208.0</ele><time>2026-04-21T10:44:35.001Z</time></trkpt><trkpt lat="45.6196259" lon="9.4278653"><ele>208.0</ele><time>2026-04-21T10:44:37.001Z</time></trkpt><trkpt lat="45.6195359" lon="9.4277376"><ele>208.2</ele><time>2026-04-21T10:44:39.001Z</time></trkpt><trkpt lat="45.6194658" lon="9.4276343"><ele>208.4</ele><time>2026-04-21T10:44:41Z</time></trkpt><trkpt lat="45.6194236" lon="9.4274937"><ele>208.6</ele><time>2026-04-21T10:44:43.001Z</time></trkpt><trkpt lat="45.6194018" lon="9.4273374"><ele>208.79999999999998</ele><time>2026-04-21T10:44:45.001Z</time></trkpt><trkpt lat="45.6194021" lon="9.4272375"><ele>209.0</ele><time>2026-04-21T10:44:46.001Z</time></trkpt><trkpt lat="45.6194023" lon="9.4271461"><ele>209.00000000000003</ele><time>2026-04-21T10:44:47.001Z</time></trkpt><trkpt lat="45.6194003" lon="9.4270517"><ele>209.0</ele><time>2026-04-21T10:44:48.001Z</time></trkpt><trkpt lat="45.6194041" lon="9.426945"><ele>209.0</ele><time>2026-04-21T10:44:49.001Z</time></trkpt><trkpt lat="45.6194025" lon="9.426847"><ele>209.0</ele><time>2026-04-21T10:44:50.001Z</time></trkpt><trkpt lat="45.6194021" lon="9.4267468"><ele>209.00000000000003</ele><time>2026-04-21T10:44:51.001Z</time></trkpt><trkpt lat="45.6194106" lon="9.4265768"><ele>209.0</ele><time>2026-04-21T10:44:53.001Z</time></trkpt><trkpt lat="45.6194134" lon="9.426477"><ele>209.0</ele><time>2026-04-21T10:44:54.001Z</time></trkpt><trkpt lat="45.6194231" lon="9.4263103"><ele>209.0</ele><time>2026-04-21T10:44:56.001Z</time></trkpt><trkpt lat="45.6194306" lon="9.4261434"><ele>209.0</ele><time>2026-04-21T10:44:58.001Z</time></trkpt><trkpt lat="45.6194396" lon="9.4260312"><ele>209.0</ele><time>2026-04-21T10:45:00Z</time></trkpt><trkpt lat="45.6194571" lon="9.4258945"><ele>209.0</ele><time>2026-04-21T10:45:02.001Z</time></trkpt><trkpt lat="45.6194574" lon="9.4257395"><ele>209.0</ele><time>2026-04-21T10:45:04.001Z</time></trkpt><trkpt lat="45.6194505" lon="9.4255914"><ele>209.0</ele><time>2026-04-21T10:45:06.001Z</time></trkpt><trkpt lat="45.6194457" lon="9.4254244"><ele>209.0</ele><time>2026-04-21T10:45:08.001Z</time></trkpt><trkpt lat="45.6194449" lon="9.4252559"><ele>209.0</ele><time>2026-04-21T10:45:10.001Z</time></trkpt><trkpt lat="45.6194621" lon="9.4250911"><ele>209.0</ele><time>2026-04-21T10:45:12.001Z</time></trkpt><trkpt lat="45.6194767" lon="9.424918"><ele>209.0</ele><time>2026-04-21T10:45:14Z</time></trkpt><trkpt lat="45.6194874" lon="9.4247416"><ele>209.0</ele><time>2026-04-21T10:45:16.001Z</time></trkpt><trkpt lat="45.6194932" lon="9.42465"><ele>209.0</ele><time>2026-04-21T10:45:17.001Z</time></trkpt><trkpt lat="45.6194935" lon="9.4244642"><ele>209.0</ele><time>2026-04-21T10:45:19.001Z</time></trkpt><trkpt lat="45.6194974" lon="9.4243666"><ele>209.00000000000003</ele><time>2026-04-21T10:45:20.001Z</time></trkpt><trkpt lat="45.6195013" lon="9.4242647"><ele>209.0</ele><time>2026-04-21T10:45:21.001Z</time></trkpt><trkpt lat="45.6195144" lon="9.4240834"><ele>209.0</ele><time>2026-04-21T10:45:23.001Z</time></trkpt><trkpt lat="45.6195188" lon="9.4239898"><ele>209.0</ele><time>2026-04-21T10:45:24.001Z</time></trkpt><trkpt lat="45.619521" lon="9.4238482"><ele>209.00000000000003</ele><time>2026-04-21T10:45:26.001Z</time></trkpt><trkpt lat="45.6195356" lon="9.4237359"><ele>209.0</ele><time>2026-04-21T10:45:27.001Z</time></trkpt><trkpt lat="45.6194772" lon="9.4236655"><ele>209.2</ele><time>2026-04-21T10:45:53.001Z</time></trkpt><trkpt lat="45.6195068" lon="9.423579"><ele>209.39999999999998</ele><time>2026-04-21T10:45:55.001Z</time></trkpt><trkpt lat="45.6196213" lon="9.4234664"><ele>209.6</ele><time>2026-04-21T10:45:57.001Z</time></trkpt><trkpt lat="45.6196818" lon="9.4234384"><ele>209.8</ele><time>2026-04-21T10:45:58.001Z</time></trkpt><trkpt lat="45.6197982" lon="9.4234119"><ele>210.0</ele><time>2026-04-21T10:46:00.001Z</time></trkpt><trkpt lat="45.6198613" lon="9.4233954"><ele>210.0</ele><time>2026-04-21T10:46:01.001Z</time></trkpt><trkpt lat="45.6199226" lon="9.4233724"><ele>210.0</ele><time>2026-04-21T10:46:02.001Z</time></trkpt><trkpt lat="45.6200397" lon="9.4233401"><ele>210.0</ele><time>2026-04-21T10:46:04.001Z</time></trkpt><trkpt lat="45.620156" lon="9.4233126"><ele>210.0</ele><time>2026-04-21T10:46:06.001Z</time></trkpt><trkpt lat="45.6202715" lon="9.4232853"><ele>210.0</ele><time>2026-04-21T10:46:08.001Z</time></trkpt><trkpt lat="45.6203802" lon="9.423244"><ele>210.2</ele><time>2026-04-21T10:46:10.001Z</time></trkpt><trkpt lat="45.6204979" lon="9.4231971"><ele>210.4</ele><time>2026-04-21T10:46:12.001Z</time></trkpt><trkpt lat="45.6206069" lon="9.4231557"><ele>210.60000000000002</ele><time>2026-04-21T10:46:14.001Z</time></trkpt><trkpt lat="45.620715" lon="9.4230973"><ele>210.8</ele><time>2026-04-21T10:46:16Z</time></trkpt><trkpt lat="45.6207921" lon="9.4230855"><ele>211.0</ele><time>2026-04-21T10:46:17.001Z</time></trkpt><trkpt lat="45.6208932" lon="9.4230057"><ele>211.0</ele><time>2026-04-21T10:46:19.001Z</time></trkpt><trkpt lat="45.6209639" lon="9.4229644"><ele>211.0</ele><time>2026-04-21T10:46:20.001Z</time></trkpt><trkpt lat="45.6210744" lon="9.4228978"><ele>211.0</ele><time>2026-04-21T10:46:22.001Z</time></trkpt><trkpt lat="45.6211293" lon="9.4228487"><ele>211.0</ele><time>2026-04-21T10:46:23.001Z</time></trkpt><trkpt lat="45.6212298" lon="9.4227818"><ele>211.0</ele><time>2026-04-21T10:46:25.001Z</time></trkpt><trkpt lat="45.6213281" lon="9.4227048"><ele>211.0</ele><time>2026-04-21T10:46:27.001Z</time></trkpt><trkpt lat="45.6214336" lon="9.4226086"><ele>211.0</ele><time>2026-04-21T10:46:29.001Z</time></trkpt><trkpt lat="45.6214924" lon="9.4225614"><ele>211.0</ele><time>2026-04-21T10:46:30.001Z</time></trkpt><trkpt lat="45.6215988" lon="9.4224638"><ele>211.0</ele><time>2026-04-21T10:46:32.001Z</time></trkpt><trkpt lat="45.6216605" lon="9.422407"><ele>211.0</ele><time>2026-04-21T10:46:33.001Z</time></trkpt><trkpt lat="45.6217714" lon="9.4223013"><ele>211.0</ele><time>2026-04-21T10:46:35.001Z</time></trkpt><trkpt lat="45.6218276" lon="9.422251"><ele>211.0</ele><time>2026-04-21T10:46:36.001Z</time></trkpt><trkpt lat="45.6218831" lon="9.4221988"><ele>211.0</ele><time>2026-04-21T10:46:37.001Z</time></trkpt><trkpt lat="45.6219432" lon="9.4221446"><ele>211.0</ele><time>2026-04-21T10:46:38.001Z</time></trkpt><trkpt lat="45.6220012" lon="9.4220912"><ele>211.0</ele><time>2026-04-21T10:46:39.001Z</time></trkpt><trkpt lat="45.6220562" lon="9.4220359"><ele>211.0</ele><time>2026-04-21T10:46:40.001Z</time></trkpt><trkpt lat="45.6221115" lon="9.421976"><ele>211.0</ele><time>2026-04-21T10:46:41.001Z</time></trkpt><trkpt lat="45.6221673" lon="9.4219162"><ele>211.0</ele><time>2026-04-21T10:46:42Z</time></trkpt><trkpt lat="45.622215" lon="9.4218482"><ele>211.0</ele><time>2026-04-21T10:46:43.001Z</time></trkpt><trkpt lat="45.6222674" lon="9.4217851"><ele>211.0</ele><time>2026-04-21T10:46:44.001Z</time></trkpt><trkpt lat="45.6223189" lon="9.4217177"><ele>211.0</ele><time>2026-04-21T10:46:45.001Z</time></trkpt><trkpt lat="45.6223705" lon="9.4216474"><ele>211.0</ele><time>2026-04-21T10:46:46.001Z</time></trkpt><trkpt lat="45.6224213" lon="9.4215804"><ele>211.0</ele><time>2026-04-21T10:46:47.001Z</time></trkpt><trkpt lat="45.622476" lon="9.4215136"><ele>211.0</ele><time>2026-04-21T10:46:48.001Z</time></trkpt><trkpt lat="45.6225194" lon="9.4214464"><ele>211.0</ele><time>2026-04-21T10:46:49.001Z</time></trkpt><trkpt lat="45.6225648" lon="9.421376"><ele>211.0</ele><time>2026-04-21T10:46:50.001Z</time></trkpt><trkpt lat="45.6226123" lon="9.421292"><ele>211.0</ele><time>2026-04-21T10:46:51.001Z</time></trkpt><trkpt lat="45.6226622" lon="9.4212323"><ele>211.0</ele><time>2026-04-21T10:46:52.001Z</time></trkpt><trkpt lat="45.6227001" lon="9.4211592"><ele>211.0</ele><time>2026-04-21T10:46:53.001Z</time></trkpt><trkpt lat="45.6227482" lon="9.4210872"><ele>211.0</ele><time>2026-04-21T10:46:54.001Z</time></trkpt><trkpt lat="45.6227928" lon="9.4210177"><ele>211.0</ele><time>2026-04-21T10:46:55.001Z</time></trkpt><trkpt lat="45.6228419" lon="9.4209578"><ele>210.83333333333331</ele><time>2026-04-21T10:46:56.001Z</time></trkpt><trkpt lat="45.622934" lon="9.4208274"><ele>210.66666666666666</ele><time>2026-04-21T10:46:58.001Z</time></trkpt><trkpt lat="45.6229875" lon="9.4207426"><ele>210.5</ele><time>2026-04-21T10:46:59.001Z</time></trkpt><trkpt lat="45.6230348" lon="9.4206602"><ele>210.33333333333331</ele><time>2026-04-21T10:47:00.001Z</time></trkpt><trkpt lat="45.6230744" lon="9.4205847"><ele>210.16666666666666</ele><time>2026-04-21T10:47:01.001Z</time></trkpt><trkpt lat="45.6231265" lon="9.4205199"><ele>210.0</ele><time>2026-04-21T10:47:02.001Z</time></trkpt><trkpt lat="45.6231761" lon="9.420446"><ele>210.42857142857142</ele><time>2026-04-21T10:47:03.001Z</time></trkpt><trkpt lat="45.6232315" lon="9.4203739"><ele>210.85714285714286</ele><time>2026-04-21T10:47:04.001Z</time></trkpt><trkpt lat="45.6232782" lon="9.4202964"><ele>211.28571428571428</ele><time>2026-04-21T10:47:05.001Z</time></trkpt><trkpt lat="45.6233226" lon="9.4202221"><ele>211.71428571428572</ele><time>2026-04-21T10:47:06.001Z</time></trkpt><trkpt lat="45.6233688" lon="9.4201508"><ele>212.14285714285714</ele><time>2026-04-21T10:47:07Z</time></trkpt><trkpt lat="45.6234155" lon="9.4200765"><ele>212.57142857142856</ele><time>2026-04-21T10:47:08.001Z</time></trkpt><trkpt lat="45.6234593" lon="9.4200053"><ele>213.0</ele><time>2026-04-21T10:47:09.001Z</time></trkpt><trkpt lat="45.623503" lon="9.4199363"><ele>212.99999999999997</ele><time>2026-04-21T10:47:10.001Z</time></trkpt><trkpt lat="45.6235467" lon="9.4198711"><ele>213.0</ele><time>2026-04-21T10:47:11.001Z</time></trkpt><trkpt lat="45.6235962" lon="9.419795"><ele>213.0</ele><time>2026-04-21T10:47:12.001Z</time></trkpt><trkpt lat="45.6236462" lon="9.4197284"><ele>213.0</ele><time>2026-04-21T10:47:13.001Z</time></trkpt><trkpt lat="45.6237011" lon="9.4196675"><ele>213.0</ele><time>2026-04-21T10:47:14.001Z</time></trkpt><trkpt lat="45.623752" lon="9.4196012"><ele>212.99999999999997</ele><time>2026-04-21T10:47:15.001Z</time></trkpt><trkpt lat="45.6238006" lon="9.4195273"><ele>213.0</ele><time>2026-04-21T10:47:16.001Z</time></trkpt><trkpt lat="45.623847" lon="9.4194583"><ele>213.85714285714283</ele><time>2026-04-21T10:47:17.001Z</time></trkpt><trkpt lat="45.623892" lon="9.4193899"><ele>214.71428571428572</ele><time>2026-04-21T10:47:18.001Z</time></trkpt><trkpt lat="45.6239394" lon="9.4193192"><ele>215.57142857142856</ele><time>2026-04-21T10:47:19.001Z</time></trkpt><trkpt lat="45.6239871" lon="9.4192465"><ele>216.42857142857142</ele><time>2026-04-21T10:47:20.001Z</time></trkpt><trkpt lat="45.624032" lon="9.4191794"><ele>217.28571428571428</ele><time>2026-04-21T10:47:21.001Z</time></trkpt><trkpt lat="45.6240903" lon="9.4191046"><ele>218.14285714285714</ele><time>2026-04-21T10:47:22.001Z</time></trkpt><trkpt lat="45.6241332" lon="9.4190322"><ele>219.0</ele><time>2026-04-21T10:47:23.001Z</time></trkpt><trkpt lat="45.6241752" lon="9.4189632"><ele>219.0</ele><time>2026-04-21T10:47:24.001Z</time></trkpt><trkpt lat="45.6242239" lon="9.4188924"><ele>219.0</ele><time>2026-04-21T10:47:25.001Z</time></trkpt><trkpt lat="45.6242688" lon="9.4188161"><ele>219.0</ele><time>2026-04-21T10:47:26.001Z</time></trkpt><trkpt lat="45.6243079" lon="9.4187435"><ele>219.0</ele><time>2026-04-21T10:47:27.001Z</time></trkpt><trkpt lat="45.6243551" lon="9.4186781"><ele>219.0</ele><time>2026-04-21T10:47:28.001Z</time></trkpt><trkpt lat="45.6244007" lon="9.4186134"><ele>219.0</ele><time>2026-04-21T10:47:29.001Z</time></trkpt><trkpt lat="45.6244605" lon="9.4185391"><ele>219.0</ele><time>2026-04-21T10:47:30.001Z</time></trkpt><trkpt lat="45.6245107" lon="9.4184663"><ele>218.57142857142858</ele><time>2026-04-21T10:47:31.001Z</time></trkpt><trkpt lat="45.6245615" lon="9.4183962"><ele>218.14285714285714</ele><time>2026-04-21T10:47:32.001Z</time></trkpt><trkpt lat="45.6246122" lon="9.4183248"><ele>217.71428571428572</ele><time>2026-04-21T10:47:33.001Z</time></trkpt><trkpt lat="45.6246562" lon="9.4182501"><ele>217.28571428571428</ele><time>2026-04-21T10:47:34.001Z</time></trkpt><trkpt lat="45.6247087" lon="9.4181787"><ele>216.85714285714283</ele><time>2026-04-21T10:47:35.001Z</time></trkpt><trkpt lat="45.6247605" lon="9.4181135"><ele>216.42857142857142</ele><time>2026-04-21T10:47:36.001Z</time></trkpt><trkpt lat="45.6248065" lon="9.418046"><ele>216.0</ele><time>2026-04-21T10:47:37.001Z</time></trkpt><trkpt lat="45.6248523" lon="9.417981"><ele>216.0</ele><time>2026-04-21T10:47:38.001Z</time></trkpt><trkpt lat="45.6249057" lon="9.4179294"><ele>216.0</ele><time>2026-04-21T10:47:39Z</time></trkpt><trkpt lat="45.6249718" lon="9.4179048"><ele>216.0</ele><time>2026-04-21T10:47:40.001Z</time></trkpt><trkpt lat="45.62508" lon="9.4179305"><ele>216.0</ele><time>2026-04-21T10:47:42.001Z</time></trkpt><trkpt lat="45.6251408" lon="9.4179761"><ele>216.0</ele><time>2026-04-21T10:47:43.001Z</time></trkpt><trkpt lat="45.6251996" lon="9.4180223"><ele>216.0</ele><time>2026-04-21T10:47:44Z</time></trkpt><trkpt lat="45.6253109" lon="9.4181021"><ele>215.60000000000002</ele><time>2026-04-21T10:47:46.001Z</time></trkpt><trkpt lat="45.6254308" lon="9.4181533"><ele>215.20000000000002</ele><time>2026-04-21T10:47:48.001Z</time></trkpt><trkpt lat="45.6255445" lon="9.4181874"><ele>214.79999999999998</ele><time>2026-04-21T10:47:50.001Z</time></trkpt><trkpt lat="45.6256139" lon="9.4181983"><ele>214.39999999999998</ele><time>2026-04-21T10:47:51.001Z</time></trkpt><trkpt lat="45.6257414" lon="9.4182085"><ele>214.0</ele><time>2026-04-21T10:47:53.001Z</time></trkpt><trkpt lat="45.6258666" lon="9.4182279"><ele>214.0</ele><time>2026-04-21T10:47:55.001Z</time></trkpt><trkpt lat="45.6259927" lon="9.4182499"><ele>214.0</ele><time>2026-04-21T10:47:57.001Z</time></trkpt><trkpt lat="45.6261125" lon="9.4182807"><ele>214.0</ele><time>2026-04-21T10:47:59Z</time></trkpt><trkpt lat="45.6262332" lon="9.4183005"><ele>214.0</ele><time>2026-04-21T10:48:01.001Z</time></trkpt><trkpt lat="45.6263521" lon="9.4183138"><ele>214.39999999999998</ele><time>2026-04-21T10:48:03.001Z</time></trkpt><trkpt lat="45.626465" lon="9.4183164"><ele>214.79999999999998</ele><time>2026-04-21T10:48:05.001Z</time></trkpt><trkpt lat="45.626586" lon="9.41833"><ele>215.20000000000002</ele><time>2026-04-21T10:48:07.001Z</time></trkpt><trkpt lat="45.6266494" lon="9.4183276"><ele>215.60000000000002</ele><time>2026-04-21T10:48:08Z</time></trkpt><trkpt lat="45.6267136" lon="9.4183308"><ele>216.0</ele><time>2026-04-21T10:48:09.001Z</time></trkpt><trkpt lat="45.6268376" lon="9.4183474"><ele>216.0</ele><time>2026-04-21T10:48:11.001Z</time></trkpt><trkpt lat="45.6269601" lon="9.4183578"><ele>216.00000000000003</ele><time>2026-04-21T10:48:13.001Z</time></trkpt><trkpt lat="45.6270233" lon="9.4183631"><ele>216.00000000000003</ele><time>2026-04-21T10:48:14.001Z</time></trkpt><trkpt lat="45.627154" lon="9.4183744"><ele>216.0</ele><time>2026-04-21T10:48:16.001Z</time></trkpt><trkpt lat="45.6272264" lon="9.4183739"><ele>216.0</ele><time>2026-04-21T10:48:17.001Z</time></trkpt><trkpt lat="45.6273422" lon="9.4183643"><ele>215.83333333333334</ele><time>2026-04-21T10:48:19.001Z</time></trkpt><trkpt lat="45.6274096" lon="9.4183649"><ele>215.66666666666669</ele><time>2026-04-21T10:48:20.001Z</time></trkpt><trkpt lat="45.627476" lon="9.4183738"><ele>215.5</ele><time>2026-04-21T10:48:21.001Z</time></trkpt><trkpt lat="45.6275434" lon="9.4183772"><ele>215.33333333333334</ele><time>2026-04-21T10:48:22.001Z</time></trkpt><trkpt lat="45.6276067" lon="9.4183829"><ele>215.16666666666669</ele><time>2026-04-21T10:48:23.001Z</time></trkpt><trkpt lat="45.627727" lon="9.4184018"><ele>215.0</ele><time>2026-04-21T10:48:25.001Z</time></trkpt><trkpt lat="45.6278448" lon="9.4184095"><ele>215.0</ele><time>2026-04-21T10:48:27.001Z</time></trkpt><trkpt lat="45.62791" lon="9.418413"><ele>215.0</ele><time>2026-04-21T10:48:28.001Z</time></trkpt><trkpt lat="45.6280233" lon="9.4184123"><ele>215.0</ele><time>2026-04-21T10:48:30.001Z</time></trkpt><trkpt lat="45.6281449" lon="9.4184325"><ele>215.0</ele><time>2026-04-21T10:48:32.001Z</time></trkpt><trkpt lat="45.6282638" lon="9.418433"><ele>215.0</ele><time>2026-04-21T10:48:34.001Z</time></trkpt><trkpt lat="45.6283898" lon="9.4184456"><ele>215.00000000000003</ele><time>2026-04-21T10:48:36.001Z</time></trkpt><trkpt lat="45.6285142" lon="9.4184442"><ele>215.0</ele><time>2026-04-21T10:48:38.001Z</time></trkpt><trkpt lat="45.62858" lon="9.418436"><ele>215.0</ele><time>2026-04-21T10:48:39.001Z</time></trkpt><trkpt lat="45.6286455" lon="9.4184327"><ele>215.0</ele><time>2026-04-21T10:48:40.001Z</time></trkpt><trkpt lat="45.6287089" lon="9.4184389"><ele>215.00000000000003</ele><time>2026-04-21T10:48:41.001Z</time></trkpt><trkpt lat="45.6287758" lon="9.4184291"><ele>215.0</ele><time>2026-04-21T10:48:42.001Z</time></trkpt><trkpt lat="45.6288388" lon="9.4184196"><ele>215.66666666666669</ele><time>2026-04-21T10:48:43.001Z</time></trkpt><trkpt lat="45.6289626" lon="9.4184113"><ele>216.33333333333334</ele><time>2026-04-21T10:48:45.001Z</time></trkpt><trkpt lat="45.6290813" lon="9.4183879"><ele>217.0</ele><time>2026-04-21T10:48:47.001Z</time></trkpt><trkpt lat="45.6291458" lon="9.4183801"><ele>217.66666666666669</ele><time>2026-04-21T10:48:48.001Z</time></trkpt><trkpt lat="45.6292144" lon="9.4183638"><ele>218.33333333333334</ele><time>2026-04-21T10:48:49.001Z</time></trkpt><trkpt lat="45.6292775" lon="9.4183547"><ele>219.0</ele><time>2026-04-21T10:48:50.001Z</time></trkpt><trkpt lat="45.6293408" lon="9.4183434"><ele>219.0</ele><time>2026-04-21T10:48:51.001Z</time></trkpt><trkpt lat="45.6294685" lon="9.4183266"><ele>218.99999999999997</ele><time>2026-04-21T10:48:53.001Z</time></trkpt><trkpt lat="45.6295946" lon="9.418323"><ele>218.99999999999997</ele><time>2026-04-21T10:48:55.001Z</time></trkpt><trkpt lat="45.6297098" lon="9.4183431"><ele>219.0</ele><time>2026-04-21T10:48:57.001Z</time></trkpt><trkpt lat="45.6297727" lon="9.4183471"><ele>219.0</ele><time>2026-04-21T10:48:58Z</time></trkpt><trkpt lat="45.6298973" lon="9.4183077"><ele>219.39999999999998</ele><time>2026-04-21T10:49:00.001Z</time></trkpt><trkpt lat="45.630009" lon="9.4182377"><ele>219.79999999999998</ele><time>2026-04-21T10:49:02.001Z</time></trkpt><trkpt lat="45.6300684" lon="9.4181998"><ele>220.20000000000002</ele><time>2026-04-21T10:49:03.001Z</time></trkpt><trkpt lat="45.6301308" lon="9.4181835"><ele>220.60000000000002</ele><time>2026-04-21T10:49:04.001Z</time></trkpt><trkpt lat="45.63026" lon="9.4181648"><ele>221.0</ele><time>2026-04-21T10:49:06.001Z</time></trkpt><trkpt lat="45.6303893" lon="9.4181489"><ele>221.66666666666669</ele><time>2026-04-21T10:49:08.001Z</time></trkpt><trkpt lat="45.6305141" lon="9.4181221"><ele>222.33333333333334</ele><time>2026-04-21T10:49:10.001Z</time></trkpt><trkpt lat="45.6305791" lon="9.4181122"><ele>223.0</ele><time>2026-04-21T10:49:11.001Z</time></trkpt><trkpt lat="45.6306907" lon="9.4181048"><ele>223.66666666666669</ele><time>2026-04-21T10:49:13.001Z</time></trkpt><trkpt lat="45.6307531" lon="9.4180734"><ele>224.33333333333334</ele><time>2026-04-21T10:49:14.001Z</time></trkpt><trkpt lat="45.6308281" lon="9.4180844"><ele>225.0</ele><time>2026-04-21T10:49:15.001Z</time></trkpt><trkpt lat="45.6309014" lon="9.4180815"><ele>225.0</ele><time>2026-04-21T10:49:16.001Z</time></trkpt><trkpt lat="45.6310208" lon="9.4180825"><ele>225.0</ele><time>2026-04-21T10:49:18.001Z</time></trkpt><trkpt lat="45.6310898" lon="9.4181012"><ele>225.0</ele><time>2026-04-21T10:49:19.001Z</time></trkpt><trkpt lat="45.6312134" lon="9.4181067"><ele>225.0</ele><time>2026-04-21T10:49:21.001Z</time></trkpt><trkpt lat="45.6313348" lon="9.4181176"><ele>225.0</ele><time>2026-04-21T10:49:23.001Z</time></trkpt><trkpt lat="45.6314484" lon="9.4181158"><ele>224.6</ele><time>2026-04-21T10:49:25.001Z</time></trkpt><trkpt lat="45.6315335" lon="9.4181457"><ele>224.2</ele><time>2026-04-21T10:49:26.001Z</time></trkpt><trkpt lat="45.6316008" lon="9.4181597"><ele>223.8</ele><time>2026-04-21T10:49:27.001Z</time></trkpt><trkpt lat="45.631671" lon="9.4181711"><ele>223.4</ele><time>2026-04-21T10:49:28.001Z</time></trkpt><trkpt lat="45.6318109" lon="9.4181921"><ele>223.0</ele><time>2026-04-21T10:49:30.001Z</time></trkpt><trkpt lat="45.6319325" lon="9.4182247"><ele>223.2</ele><time>2026-04-21T10:49:32.001Z</time></trkpt><trkpt lat="45.6320652" lon="9.4182505"><ele>223.4</ele><time>2026-04-21T10:49:34.001Z</time></trkpt><trkpt lat="45.6321816" lon="9.4182976"><ele>223.59999999999997</ele><time>2026-04-21T10:49:36.001Z</time></trkpt><trkpt lat="45.632246" lon="9.4183139"><ele>223.79999999999998</ele><time>2026-04-21T10:49:37.001Z</time></trkpt><trkpt lat="45.6323095" lon="9.4183179"><ele>224.0</ele><time>2026-04-21T10:49:38.001Z</time></trkpt><trkpt lat="45.6323802" lon="9.4183311"><ele>224.0</ele><time>2026-04-21T10:49:39.001Z</time></trkpt><trkpt lat="45.6325076" lon="9.4183645"><ele>224.0</ele><time>2026-04-21T10:49:41.001Z</time></trkpt><trkpt lat="45.6326358" lon="9.4183972"><ele>224.0</ele><time>2026-04-21T10:49:43.001Z</time></trkpt><trkpt lat="45.6327572" lon="9.4184328"><ele>224.0</ele><time>2026-04-21T10:49:45.001Z</time></trkpt><trkpt lat="45.6328758" lon="9.418462"><ele>223.75</ele><time>2026-04-21T10:49:47.001Z</time></trkpt><trkpt lat="45.6329944" lon="9.4184754"><ele>223.5</ele><time>2026-04-21T10:49:49.001Z</time></trkpt><trkpt lat="45.6331094" lon="9.4184962"><ele>223.25</ele><time>2026-04-21T10:49:51.001Z</time></trkpt><trkpt lat="45.6332289" lon="9.4184843"><ele>223.0</ele><time>2026-04-21T10:49:53.001Z</time></trkpt><trkpt lat="45.6333413" lon="9.4184778"><ele>223.0</ele><time>2026-04-21T10:49:55.001Z</time></trkpt><trkpt lat="45.6334581" lon="9.4184961"><ele>223.0</ele><time>2026-04-21T10:49:57.001Z</time></trkpt><trkpt lat="45.6335232" lon="9.4185032"><ele>223.0</ele><time>2026-04-21T10:49:58.001Z</time></trkpt><trkpt lat="45.6336289" lon="9.4185253"><ele>223.0</ele><time>2026-04-21T10:50:00.001Z</time></trkpt><trkpt lat="45.633733" lon="9.4185595"><ele>223.0</ele><time>2026-04-21T10:50:02.001Z</time></trkpt><trkpt lat="45.6338401" lon="9.4185936"><ele>223.25</ele><time>2026-04-21T10:50:04.001Z</time></trkpt><trkpt lat="45.6339535" lon="9.4186237"><ele>223.5</ele><time>2026-04-21T10:50:06.001Z</time></trkpt><trkpt lat="45.63407" lon="9.4186697"><ele>223.75</ele><time>2026-04-21T10:50:08.001Z</time></trkpt><trkpt lat="45.6341835" lon="9.4187144"><ele>224.0</ele><time>2026-04-21T10:50:10.001Z</time></trkpt><trkpt lat="45.6342945" lon="9.4187518"><ele>224.00000000000003</ele><time>2026-04-21T10:50:12.001Z</time></trkpt><trkpt lat="45.6344097" lon="9.4187924"><ele>224.0</ele><time>2026-04-21T10:50:14.001Z</time></trkpt><trkpt lat="45.6345175" lon="9.4188398"><ele>224.0</ele><time>2026-04-21T10:50:16.001Z</time></trkpt><trkpt lat="45.6345764" lon="9.4188718"><ele>224.0</ele><time>2026-04-21T10:50:17.001Z</time></trkpt><trkpt lat="45.6346362" lon="9.4189068"><ele>224.00000000000003</ele><time>2026-04-21T10:50:18.001Z</time></trkpt><trkpt lat="45.6347017" lon="9.4189524"><ele>224.0</ele><time>2026-04-21T10:50:19.001Z</time></trkpt><trkpt lat="45.6348037" lon="9.4190032"><ele>225.25</ele><time>2026-04-21T10:50:21.001Z</time></trkpt><trkpt lat="45.6349043" lon="9.4190795"><ele>226.5</ele><time>2026-04-21T10:50:23.001Z</time></trkpt><trkpt lat="45.6350066" lon="9.4191506"><ele>227.75</ele><time>2026-04-21T10:50:25.001Z</time></trkpt><trkpt lat="45.6351001" lon="9.4192222"><ele>229.0</ele><time>2026-04-21T10:50:27Z</time></trkpt><trkpt lat="45.6352101" lon="9.4192816"><ele>228.99999999999997</ele><time>2026-04-21T10:50:29.001Z</time></trkpt><trkpt lat="45.6352798" lon="9.4193106"><ele>229.0</ele><time>2026-04-21T10:50:30.001Z</time></trkpt><trkpt lat="45.635376" lon="9.4193875"><ele>229.0</ele><time>2026-04-21T10:50:32.001Z</time></trkpt><trkpt lat="45.6354665" lon="9.4194509"><ele>229.0</ele><time>2026-04-21T10:50:34.001Z</time></trkpt><trkpt lat="45.6355296" lon="9.4193515"><ele>228.99999999999997</ele><time>2026-04-21T10:50:39.001Z</time></trkpt><trkpt lat="45.6355522" lon="9.4192583"><ele>229.0</ele><time>2026-04-21T10:50:41.001Z</time></trkpt><trkpt lat="45.6355769" lon="9.4191514"><ele>228.66666666666666</ele><time>2026-04-21T10:50:43.001Z</time></trkpt><trkpt lat="45.6356482" lon="9.4190654"><ele>228.33333333333331</ele><time>2026-04-21T10:50:45.001Z</time></trkpt><trkpt lat="45.635676" lon="9.4189647"><ele>228.0</ele><time>2026-04-21T10:50:46.001Z</time></trkpt><trkpt lat="45.6357089" lon="9.4188742"><ele>227.66666666666669</ele><time>2026-04-21T10:50:47.001Z</time></trkpt><trkpt lat="45.6358055" lon="9.4187487"><ele>227.33333333333334</ele><time>2026-04-21T10:50:49.001Z</time></trkpt><trkpt lat="45.6358587" lon="9.4186895"><ele>227.0</ele><time>2026-04-21T10:50:50.001Z</time></trkpt><trkpt lat="45.6359106" lon="9.4185457"><ele>226.5</ele><time>2026-04-21T10:50:52.001Z</time></trkpt><trkpt lat="45.6359386" lon="9.4184212"><ele>226.0</ele><time>2026-04-21T10:50:54.001Z</time></trkpt><trkpt lat="45.6359993" lon="9.4182932"><ele>225.5</ele><time>2026-04-21T10:50:56.001Z</time></trkpt><trkpt lat="45.6360559" lon="9.4181377"><ele>225.0</ele><time>2026-04-21T10:50:58.001Z</time></trkpt><trkpt lat="45.6361235" lon="9.4179821"><ele>224.6</ele><time>2026-04-21T10:51:00.001Z</time></trkpt><trkpt lat="45.6361843" lon="9.4178258"><ele>224.2</ele><time>2026-04-21T10:51:02.001Z</time></trkpt><trkpt lat="45.6362165" lon="9.4177383"><ele>223.8</ele><time>2026-04-21T10:51:03.001Z</time></trkpt><trkpt lat="45.6362749" lon="9.4175999"><ele>223.4</ele><time>2026-04-21T10:51:05.001Z</time></trkpt><trkpt lat="45.6363387" lon="9.4175171"><ele>223.0</ele><time>2026-04-21T10:51:07.001Z</time></trkpt><trkpt lat="45.6364285" lon="9.4175295"><ele>223.0</ele><time>2026-04-21T10:51:09.001Z</time></trkpt><trkpt lat="45.6365234" lon="9.4175551"><ele>223.0</ele><time>2026-04-21T10:51:11.001Z</time></trkpt><trkpt lat="45.636621" lon="9.4176003"><ele>223.0</ele><time>2026-04-21T10:51:13.001Z</time></trkpt><trkpt lat="45.6367092" lon="9.4176824"><ele>223.0</ele><time>2026-04-21T10:51:15.001Z</time></trkpt><trkpt lat="45.636812" lon="9.41776"><ele>223.0</ele><time>2026-04-21T10:51:17.001Z</time></trkpt><trkpt lat="45.6369088" lon="9.4178321"><ele>223.2</ele><time>2026-04-21T10:51:19.001Z</time></trkpt><trkpt lat="45.637012" lon="9.4178785"><ele>223.4</ele><time>2026-04-21T10:51:21.001Z</time></trkpt><trkpt lat="45.6371228" lon="9.4179206"><ele>223.59999999999997</ele><time>2026-04-21T10:51:23Z</time></trkpt><trkpt lat="45.6372297" lon="9.4179322"><ele>223.79999999999998</ele><time>2026-04-21T10:51:25.001Z</time></trkpt><trkpt lat="45.6373452" lon="9.4179518"><ele>224.0</ele><time>2026-04-21T10:51:27.001Z</time></trkpt><trkpt lat="45.6374491" lon="9.4179742"><ele>224.0</ele><time>2026-04-21T10:51:29.001Z</time></trkpt><trkpt lat="45.6375588" lon="9.4180153"><ele>224.0</ele><time>2026-04-21T10:51:31.001Z</time></trkpt><trkpt lat="45.6376709" lon="9.4180509"><ele>224.0</ele><time>2026-04-21T10:51:33.001Z</time></trkpt><trkpt lat="45.6377854" lon="9.4180841"><ele>224.0</ele><time>2026-04-21T10:51:35.001Z</time></trkpt><trkpt lat="45.6379003" lon="9.4181119"><ele>223.75</ele><time>2026-04-21T10:51:37.001Z</time></trkpt><trkpt lat="45.6380226" lon="9.4181339"><ele>223.5</ele><time>2026-04-21T10:51:39.001Z</time></trkpt><trkpt lat="45.6381464" lon="9.4181556"><ele>223.25</ele><time>2026-04-21T10:51:41.001Z</time></trkpt><trkpt lat="45.6382672" lon="9.4181724"><ele>223.0</ele><time>2026-04-21T10:51:43.001Z</time></trkpt><trkpt lat="45.6383799" lon="9.418207"><ele>223.0</ele><time>2026-04-21T10:51:45.001Z</time></trkpt><trkpt lat="45.6384776" lon="9.4181651"><ele>223.0</ele><time>2026-04-21T10:51:47.001Z</time></trkpt><trkpt lat="45.6385409" lon="9.4180376"><ele>223.0</ele><time>2026-04-21T10:51:49.001Z</time></trkpt><trkpt lat="45.6386372" lon="9.4179679"><ele>223.0</ele><time>2026-04-21T10:51:51Z</time></trkpt><trkpt lat="45.6387483" lon="9.4179765"><ele>223.0</ele><time>2026-04-21T10:51:53.001Z</time></trkpt><trkpt lat="45.6388662" lon="9.4180065"><ele>224.0</ele><time>2026-04-21T10:51:55.001Z</time></trkpt><trkpt lat="45.6389797" lon="9.4180413"><ele>225.0</ele><time>2026-04-21T10:51:57.001Z</time></trkpt><trkpt lat="45.6390938" lon="9.4180739"><ele>226.0</ele><time>2026-04-21T10:51:59.001Z</time></trkpt><trkpt lat="45.639218" lon="9.4180943"><ele>227.0</ele><time>2026-04-21T10:52:01.001Z</time></trkpt><trkpt lat="45.6393238" lon="9.4181181"><ele>227.0</ele><time>2026-04-21T10:52:03.001Z</time></trkpt><trkpt lat="45.6394363" lon="9.4181397"><ele>227.0</ele><time>2026-04-21T10:52:05.001Z</time></trkpt><trkpt lat="45.6395349" lon="9.4181661"><ele>227.0</ele><time>2026-04-21T10:52:07.001Z</time></trkpt><trkpt lat="45.6396342" lon="9.4182011"><ele>227.0</ele><time>2026-04-21T10:52:09.001Z</time></trkpt><trkpt lat="45.6397514" lon="9.4182283"><ele>227.0</ele><time>2026-04-21T10:52:11.001Z</time></trkpt><trkpt lat="45.6398622" lon="9.4182625"><ele>227.39999999999998</ele><time>2026-04-21T10:52:13.001Z</time></trkpt><trkpt lat="45.6399588" lon="9.4182638"><ele>227.79999999999998</ele><time>2026-04-21T10:52:15.001Z</time></trkpt><trkpt lat="45.6400755" lon="9.4182782"><ele>228.2</ele><time>2026-04-21T10:52:17.001Z</time></trkpt><trkpt lat="45.6401875" lon="9.418268"><ele>228.6</ele><time>2026-04-21T10:52:19.001Z</time></trkpt><trkpt lat="45.6402989" lon="9.4182361"><ele>229.0</ele><time>2026-04-21T10:52:21.001Z</time></trkpt><trkpt lat="45.6403878" lon="9.4181735"><ele>229.0</ele><time>2026-04-21T10:52:23.001Z</time></trkpt><trkpt lat="45.640481" lon="9.4180863"><ele>228.99999999999997</ele><time>2026-04-21T10:52:25.001Z</time></trkpt><trkpt lat="45.6405791" lon="9.4179796"><ele>228.99999999999997</ele><time>2026-04-21T10:52:27.001Z</time></trkpt><trkpt lat="45.6406715" lon="9.4178628"><ele>229.0</ele><time>2026-04-21T10:52:29.001Z</time></trkpt><trkpt lat="45.6407101" lon="9.4177901"><ele>229.0</ele><time>2026-04-21T10:52:30.001Z</time></trkpt><trkpt lat="45.6407515" lon="9.4177128"><ele>228.99999999999997</ele><time>2026-04-21T10:52:31.001Z</time></trkpt><trkpt lat="45.6407801" lon="9.4176308"><ele>229.0</ele><time>2026-04-21T10:52:32.001Z</time></trkpt><trkpt lat="45.6408042" lon="9.4175456"><ele>229.0</ele><time>2026-04-21T10:52:33.001Z</time></trkpt><trkpt lat="45.6408701" lon="9.4173852"><ele>229.0</ele><time>2026-04-21T10:52:35.001Z</time></trkpt><trkpt lat="45.6409003" lon="9.4173008"><ele>228.99999999999997</ele><time>2026-04-21T10:52:36.001Z</time></trkpt><trkpt lat="45.6409598" lon="9.4171786"><ele>229.0</ele><time>2026-04-21T10:52:38.001Z</time></trkpt><trkpt lat="45.640996" lon="9.4170839"><ele>229.0</ele><time>2026-04-21T10:52:39.001Z</time></trkpt><trkpt lat="45.6410427" lon="9.4169931"><ele>229.0</ele><time>2026-04-21T10:52:40.001Z</time></trkpt><trkpt lat="45.6410743" lon="9.4169078"><ele>229.0</ele><time>2026-04-21T10:52:41.001Z</time></trkpt><trkpt lat="45.6411005" lon="9.4168129"><ele>229.0</ele><time>2026-04-21T10:52:42.001Z</time></trkpt><trkpt lat="45.6411325" lon="9.4167301"><ele>229.0</ele><time>2026-04-21T10:52:43.001Z</time></trkpt><trkpt lat="45.6411599" lon="9.416637"><ele>229.0</ele><time>2026-04-21T10:52:44.001Z</time></trkpt><trkpt lat="45.6411885" lon="9.416556"><ele>229.0</ele><time>2026-04-21T10:52:45.001Z</time></trkpt><trkpt lat="45.641218" lon="9.4164705"><ele>229.0</ele><time>2026-04-21T10:52:46.001Z</time></trkpt><trkpt lat="45.6412443" lon="9.4163882"><ele>228.99999999999997</ele><time>2026-04-21T10:52:47.001Z</time></trkpt><trkpt lat="45.6413219" lon="9.4163148"><ele>228.99999999999997</ele><time>2026-04-21T10:52:49.001Z</time></trkpt><trkpt lat="45.6414281" lon="9.4163471"><ele>229.0</ele><time>2026-04-21T10:52:51.001Z</time></trkpt><trkpt lat="45.6415279" lon="9.4164098"><ele>229.0</ele><time>2026-04-21T10:52:53.001Z</time></trkpt><trkpt lat="45.6416375" lon="9.4164719"><ele>229.0</ele><time>2026-04-21T10:52:55.001Z</time></trkpt><trkpt lat="45.6417406" lon="9.4165349"><ele>229.0</ele><time>2026-04-21T10:52:57.001Z</time></trkpt><trkpt lat="45.6418505" lon="9.4166107"><ele>229.0</ele><time>2026-04-21T10:52:59.001Z</time></trkpt><trkpt lat="45.6419685" lon="9.4166733"><ele>229.0</ele><time>2026-04-21T10:53:01.001Z</time></trkpt><trkpt lat="45.6420794" lon="9.41675"><ele>229.0</ele><time>2026-04-21T10:53:03.001Z</time></trkpt><trkpt lat="45.64219" lon="9.4168215"><ele>228.99999999999997</ele><time>2026-04-21T10:53:05.001Z</time></trkpt><trkpt lat="45.6422974" lon="9.4169009"><ele>228.99999999999997</ele><time>2026-04-21T10:53:07.001Z</time></trkpt><trkpt lat="45.6424088" lon="9.4169682"><ele>229.0</ele><time>2026-04-21T10:53:09.001Z</time></trkpt><trkpt lat="45.6424676" lon="9.4170082"><ele>229.0</ele><time>2026-04-21T10:53:10.001Z</time></trkpt><trkpt lat="45.6425248" lon="9.4170466"><ele>229.0</ele><time>2026-04-21T10:53:11.001Z</time></trkpt><trkpt lat="45.642585" lon="9.4170895"><ele>228.99999999999997</ele><time>2026-04-21T10:53:12.001Z</time></trkpt><trkpt lat="45.6426446" lon="9.4171314"><ele>228.99999999999997</ele><time>2026-04-21T10:53:13.001Z</time></trkpt><trkpt lat="45.6427502" lon="9.4172019"><ele>229.0</ele><time>2026-04-21T10:53:15.001Z</time></trkpt><trkpt lat="45.6428657" lon="9.4172686"><ele>229.0</ele><time>2026-04-21T10:53:17.001Z</time></trkpt><trkpt lat="45.6429797" lon="9.4173331"><ele>229.0</ele><time>2026-04-21T10:53:19.001Z</time></trkpt><trkpt lat="45.6430878" lon="9.4174128"><ele>228.99999999999997</ele><time>2026-04-21T10:53:21.001Z</time></trkpt><trkpt lat="45.6431922" lon="9.4174827"><ele>228.99999999999997</ele><time>2026-04-21T10:53:23.001Z</time></trkpt><trkpt lat="45.6432471" lon="9.4175282"><ele>229.0</ele><time>2026-04-21T10:53:24.001Z</time></trkpt><trkpt lat="45.6433539" lon="9.4176191"><ele>229.0</ele><time>2026-04-21T10:53:26.001Z</time></trkpt><trkpt lat="45.6434116" lon="9.4176566"><ele>229.0</ele><time>2026-04-21T10:53:27.001Z</time></trkpt><trkpt lat="45.6434832" lon="9.4176996"><ele>228.99999999999997</ele><time>2026-04-21T10:53:28.001Z</time></trkpt><trkpt lat="45.643588" lon="9.4177752"><ele>228.99999999999997</ele><time>2026-04-21T10:53:30.001Z</time></trkpt><trkpt lat="45.6437009" lon="9.4178446"><ele>229.0</ele><time>2026-04-21T10:53:32.001Z</time></trkpt><trkpt lat="45.6438163" lon="9.4179157"><ele>229.0</ele><time>2026-04-21T10:53:34.001Z</time></trkpt><trkpt lat="45.6439355" lon="9.41799"><ele>228.79999999999998</ele><time>2026-04-21T10:53:36.001Z</time></trkpt><trkpt lat="45.6440487" lon="9.4180723"><ele>228.59999999999997</ele><time>2026-04-21T10:53:38.001Z</time></trkpt><trkpt lat="45.6440981" lon="9.4181439"><ele>228.4</ele><time>2026-04-21T10:53:39.001Z</time></trkpt><trkpt lat="45.6441662" lon="9.4183039"><ele>228.2</ele><time>2026-04-21T10:53:41.001Z</time></trkpt><trkpt lat="45.644195" lon="9.418389"><ele>228.0</ele><time>2026-04-21T10:53:42.001Z</time></trkpt><trkpt lat="45.6442503" lon="9.4185521"><ele>228.0</ele><time>2026-04-21T10:53:44.001Z</time></trkpt><trkpt lat="45.644285" lon="9.4186418"><ele>228.0</ele><time>2026-04-21T10:53:45.001Z</time></trkpt><trkpt lat="45.6443134" lon="9.4187317"><ele>228.0</ele><time>2026-04-21T10:53:46.001Z</time></trkpt><trkpt lat="45.6443426" lon="9.4188155"><ele>228.0</ele><time>2026-04-21T10:53:47.001Z</time></trkpt><trkpt lat="45.6443921" lon="9.4189623"><ele>228.0</ele><time>2026-04-21T10:53:49.001Z</time></trkpt><trkpt lat="45.6444543" lon="9.4191228"><ele>228.0</ele><time>2026-04-21T10:53:51.001Z</time></trkpt><trkpt lat="45.6445186" lon="9.4192924"><ele>227.8</ele><time>2026-04-21T10:53:53.001Z</time></trkpt><trkpt lat="45.6445674" lon="9.4194341"><ele>227.60000000000002</ele><time>2026-04-21T10:53:55.001Z</time></trkpt><trkpt lat="45.6446132" lon="9.4195895"><ele>227.39999999999998</ele><time>2026-04-21T10:53:57.001Z</time></trkpt><trkpt lat="45.6446645" lon="9.4197272"><ele>227.2</ele><time>2026-04-21T10:53:59.001Z</time></trkpt><trkpt lat="45.6447105" lon="9.419869"><ele>227.0</ele><time>2026-04-21T10:54:01.001Z</time></trkpt><trkpt lat="45.6447384" lon="9.4199508"><ele>228.2</ele><time>2026-04-21T10:54:02.001Z</time></trkpt><trkpt lat="45.6447871" lon="9.4200794"><ele>229.39999999999998</ele><time>2026-04-21T10:54:04.001Z</time></trkpt><trkpt lat="45.6448329" lon="9.4202147"><ele>230.60000000000002</ele><time>2026-04-21T10:54:06.001Z</time></trkpt><trkpt lat="45.6448698" lon="9.4203205"><ele>231.8</ele><time>2026-04-21T10:54:08.001Z</time></trkpt><trkpt lat="45.6449204" lon="9.4204736"><ele>233.0</ele><time>2026-04-21T10:54:11.001Z</time></trkpt><trkpt lat="45.6449576" lon="9.4205692"><ele>233.66666666666669</ele><time>2026-04-21T10:54:13.001Z</time></trkpt><trkpt lat="45.6449657" lon="9.4206734"><ele>234.33333333333334</ele><time>2026-04-21T10:54:15.001Z</time></trkpt><trkpt lat="45.6450226" lon="9.4207926"><ele>235.0</ele><time>2026-04-21T10:54:17.001Z</time></trkpt><trkpt lat="45.6450641" lon="9.4208771"><ele>235.66666666666669</ele><time>2026-04-21T10:54:19.001Z</time></trkpt><trkpt lat="45.6451029" lon="9.420967"><ele>236.33333333333334</ele><time>2026-04-21T10:54:21Z</time></trkpt><trkpt lat="45.6451411" lon="9.4210466"><ele>237.0</ele><time>2026-04-21T10:54:23.001Z</time></trkpt><trkpt lat="45.6451864" lon="9.4211502"><ele>237.0</ele><time>2026-04-21T10:54:26Z</time></trkpt><trkpt lat="45.645216" lon="9.4212379"><ele>237.0</ele><time>2026-04-21T10:54:28.001Z</time></trkpt><trkpt lat="45.6452501" lon="9.4213319"><ele>237.0</ele><time>2026-04-21T10:54:30.001Z</time></trkpt><trkpt lat="45.6452914" lon="9.4214333"><ele>237.0</ele><time>2026-04-21T10:54:32.001Z</time></trkpt><trkpt lat="45.645331" lon="9.4215385"><ele>237.0</ele><time>2026-04-21T10:54:34.001Z</time></trkpt><trkpt lat="45.6453665" lon="9.4216458"><ele>237.0</ele><time>2026-04-21T10:54:36.001Z</time></trkpt><trkpt lat="45.6454102" lon="9.4217549"><ele>236.66666666666666</ele><time>2026-04-21T10:54:38.001Z</time></trkpt><trkpt lat="45.6454523" lon="9.4218552"><ele>236.33333333333331</ele><time>2026-04-21T10:54:40.001Z</time></trkpt><trkpt lat="45.6455022" lon="9.4219545"><ele>236.0</ele><time>2026-04-21T10:54:42.001Z</time></trkpt><trkpt lat="45.6455621" lon="9.4220537"><ele>235.66666666666666</ele><time>2026-04-21T10:54:44.001Z</time></trkpt><trkpt lat="45.6456299" lon="9.4221472"><ele>235.33333333333331</ele><time>2026-04-21T10:54:46.001Z</time></trkpt><trkpt lat="45.6456991" lon="9.4222317"><ele>235.0</ele><time>2026-04-21T10:54:48.001Z</time></trkpt><trkpt lat="45.6457748" lon="9.422281"><ele>235.0</ele><time>2026-04-21T10:54:51.001Z</time></trkpt><trkpt lat="45.6458737" lon="9.4223471"><ele>235.0</ele><time>2026-04-21T10:54:54.001Z</time></trkpt><trkpt lat="45.6459268" lon="9.4224001"><ele>235.0</ele><time>2026-04-21T10:54:55.001Z</time></trkpt><trkpt lat="45.6460243" lon="9.4224916"><ele>235.0</ele><time>2026-04-21T10:54:57.001Z</time></trkpt><trkpt lat="45.6461204" lon="9.4225779"><ele>235.0</ele><time>2026-04-21T10:54:59.001Z</time></trkpt><trkpt lat="45.6462208" lon="9.4226516"><ele>235.0</ele><time>2026-04-21T10:55:01.001Z</time></trkpt><trkpt lat="45.6463121" lon="9.4227411"><ele>235.0</ele><time>2026-04-21T10:55:03.001Z</time></trkpt><trkpt lat="45.6464071" lon="9.4228291"><ele>235.0</ele><time>2026-04-21T10:55:05.001Z</time></trkpt><trkpt lat="45.646503" lon="9.422911"><ele>235.0</ele><time>2026-04-21T10:55:07.001Z</time></trkpt><trkpt lat="45.6465899" lon="9.4229869"><ele>235.0</ele><time>2026-04-21T10:55:09.001Z</time></trkpt><trkpt lat="45.6466856" lon="9.4230706"><ele>235.75</ele><time>2026-04-21T10:55:11.001Z</time></trkpt><trkpt lat="45.6467851" lon="9.4231692"><ele>236.5</ele><time>2026-04-21T10:55:13.001Z</time></trkpt><trkpt lat="45.6468943" lon="9.4232592"><ele>237.25</ele><time>2026-04-21T10:55:15.001Z</time></trkpt><trkpt lat="45.6470007" lon="9.4233488"><ele>238.0</ele><time>2026-04-21T10:55:17.001Z</time></trkpt><trkpt lat="45.647073" lon="9.4234322"><ele>237.99999999999997</ele><time>2026-04-21T10:55:18.001Z</time></trkpt><trkpt lat="45.6471807" lon="9.4234973"><ele>238.0</ele><time>2026-04-21T10:55:20.001Z</time></trkpt><trkpt lat="45.6472464" lon="9.4235181"><ele>238.0</ele><time>2026-04-21T10:55:21.001Z</time></trkpt><trkpt lat="45.64731" lon="9.4235252"><ele>238.0</ele><time>2026-04-21T10:55:22.001Z</time></trkpt><trkpt lat="45.6474304" lon="9.4235275"><ele>237.99999999999997</ele><time>2026-04-21T10:55:24Z</time></trkpt><trkpt lat="45.6475" lon="9.4235303"><ele>238.0</ele><time>2026-04-21T10:55:25.001Z</time></trkpt><trkpt lat="45.6475674" lon="9.4235252"><ele>237.99999999999997</ele><time>2026-04-21T10:55:26.001Z</time></trkpt><trkpt lat="45.6476339" lon="9.4235118"><ele>238.0</ele><time>2026-04-21T10:55:27.001Z</time></trkpt><trkpt lat="45.6477008" lon="9.4235004"><ele>238.0</ele><time>2026-04-21T10:55:28.001Z</time></trkpt><trkpt lat="45.6478416" lon="9.4234944"><ele>238.0</ele><time>2026-04-21T10:55:30.001Z</time></trkpt><trkpt lat="45.6479075" lon="9.4234878"><ele>237.99999999999997</ele><time>2026-04-21T10:55:31.001Z</time></trkpt><trkpt lat="45.6479779" lon="9.4234785"><ele>238.0</ele><time>2026-04-21T10:55:32.001Z</time></trkpt><trkpt lat="45.6480464" lon="9.4234811"><ele>237.85714285714286</ele><time>2026-04-21T10:55:33.001Z</time></trkpt><trkpt lat="45.6481208" lon="9.423481"><ele>237.71428571428572</ele><time>2026-04-21T10:55:34.001Z</time></trkpt><trkpt lat="45.6481933" lon="9.4234775"><ele>237.57142857142856</ele><time>2026-04-21T10:55:35.001Z</time></trkpt><trkpt lat="45.64826" lon="9.4234722"><ele>237.42857142857142</ele><time>2026-04-21T10:55:36.001Z</time></trkpt><trkpt lat="45.6483249" lon="9.4234608"><ele>237.28571428571428</ele><time>2026-04-21T10:55:37.001Z</time></trkpt><trkpt lat="45.6483926" lon="9.4234553"><ele>237.1428571428571</ele><time>2026-04-21T10:55:38.001Z</time></trkpt><trkpt lat="45.6484611" lon="9.423459"><ele>236.99999999999997</ele><time>2026-04-21T10:55:39.001Z</time></trkpt><trkpt lat="45.6485279" lon="9.42346"><ele>237.0</ele><time>2026-04-21T10:55:40.001Z</time></trkpt><trkpt lat="45.6486535" lon="9.4234334"><ele>237.0</ele><time>2026-04-21T10:55:42.001Z</time></trkpt><trkpt lat="45.6487757" lon="9.4234056"><ele>237.0</ele><time>2026-04-21T10:55:44.001Z</time></trkpt><trkpt lat="45.6488765" lon="9.4234014"><ele>237.0</ele><time>2026-04-21T10:55:46.001Z</time></trkpt><trkpt lat="45.6489556" lon="9.4233281"><ele>237.0</ele><time>2026-04-21T10:55:48.001Z</time></trkpt><trkpt lat="45.6489421" lon="9.4231479"><ele>236.99999999999997</ele><time>2026-04-21T10:55:50.001Z</time></trkpt><trkpt lat="45.6489366" lon="9.4230486"><ele>237.0</ele><time>2026-04-21T10:55:51.001Z</time></trkpt><trkpt lat="45.6489301" lon="9.4229469"><ele>236.99999999999997</ele><time>2026-04-21T10:55:52.001Z</time></trkpt><trkpt lat="45.6489352" lon="9.4228518"><ele>236.99999999999997</ele><time>2026-04-21T10:55:53.001Z</time></trkpt><trkpt lat="45.6489344" lon="9.4227513"><ele>237.0</ele><time>2026-04-21T10:55:54.001Z</time></trkpt><trkpt lat="45.6489248" lon="9.4226535"><ele>236.99999999999997</ele><time>2026-04-21T10:55:55.001Z</time></trkpt><trkpt lat="45.6489263" lon="9.4225507"><ele>236.99999999999997</ele><time>2026-04-21T10:55:56.001Z</time></trkpt><trkpt lat="45.6489311" lon="9.4223745"><ele>236.0</ele><time>2026-04-21T10:55:58.001Z</time></trkpt><trkpt lat="45.6489637" lon="9.4222627"><ele>235.0</ele><time>2026-04-21T10:56:00.001Z</time></trkpt><trkpt lat="45.6490598" lon="9.4222334"><ele>234.0</ele><time>2026-04-21T10:56:02.001Z</time></trkpt><trkpt lat="45.6491617" lon="9.4222471"><ele>233.0</ele><time>2026-04-21T10:56:04.001Z</time></trkpt><trkpt lat="45.6492645" lon="9.422256"><ele>232.0</ele><time>2026-04-21T10:56:06.001Z</time></trkpt><trkpt lat="45.6493591" lon="9.4222671"><ele>232.5</ele><time>2026-04-21T10:56:08.001Z</time></trkpt><trkpt lat="45.6494703" lon="9.4222736"><ele>233.0</ele><time>2026-04-21T10:56:10.001Z</time></trkpt><trkpt lat="45.6495848" lon="9.4222848"><ele>233.5</ele><time>2026-04-21T10:56:12.001Z</time></trkpt><trkpt lat="45.6496983" lon="9.4223079"><ele>234.0</ele><time>2026-04-21T10:56:14.001Z</time></trkpt><trkpt lat="45.6498078" lon="9.4223463"><ele>234.0</ele><time>2026-04-21T10:56:16.001Z</time></trkpt><trkpt lat="45.6499059" lon="9.4223664"><ele>233.99999999999997</ele><time>2026-04-21T10:56:18.001Z</time></trkpt><trkpt lat="45.6500048" lon="9.4223999"><ele>233.99999999999997</ele><time>2026-04-21T10:56:20.001Z</time></trkpt><trkpt lat="45.6501015" lon="9.4224215"><ele>234.0</ele><time>2026-04-21T10:56:22.001Z</time></trkpt><trkpt lat="45.6501916" lon="9.4224267"><ele>234.0</ele><time>2026-04-21T10:56:24.001Z</time></trkpt><trkpt lat="45.6502939" lon="9.4223936"><ele>233.85714285714286</ele><time>2026-04-21T10:56:26.001Z</time></trkpt><trkpt lat="45.650359" lon="9.4223551"><ele>233.71428571428572</ele><time>2026-04-21T10:56:27.001Z</time></trkpt><trkpt lat="45.6504468" lon="9.4223607"><ele>233.57142857142858</ele><time>2026-04-21T10:56:28.001Z</time></trkpt><trkpt lat="45.6505105" lon="9.4223787"><ele>233.42857142857144</ele><time>2026-04-21T10:56:29.001Z</time></trkpt><trkpt lat="45.6505785" lon="9.4223932"><ele>233.28571428571428</ele><time>2026-04-21T10:56:30.001Z</time></trkpt><trkpt lat="45.6506503" lon="9.4224093"><ele>233.14285714285717</ele><time>2026-04-21T10:56:31.001Z</time></trkpt><trkpt lat="45.6507153" lon="9.4224307"><ele>233.0</ele><time>2026-04-21T10:56:32.001Z</time></trkpt><trkpt lat="45.6507792" lon="9.4224492"><ele>233.00000000000003</ele><time>2026-04-21T10:56:33.001Z</time></trkpt><trkpt lat="45.6508436" lon="9.4224624"><ele>233.0</ele><time>2026-04-21T10:56:34.001Z</time></trkpt><trkpt lat="45.6509092" lon="9.4224741"><ele>233.0</ele><time>2026-04-21T10:56:35.001Z</time></trkpt><trkpt lat="45.6509719" lon="9.4224858"><ele>233.0</ele><time>2026-04-21T10:56:36.001Z</time></trkpt><trkpt lat="45.6510351" lon="9.4224941"><ele>233.00000000000003</ele><time>2026-04-21T10:56:37.001Z</time></trkpt><trkpt lat="45.6511489" lon="9.4225124"><ele>233.0</ele><time>2026-04-21T10:56:39Z</time></trkpt><trkpt lat="45.6512591" lon="9.4225537"><ele>232.8</ele><time>2026-04-21T10:56:41.001Z</time></trkpt><trkpt lat="45.6513309" lon="9.4225511"><ele>232.60000000000002</ele><time>2026-04-21T10:56:43.001Z</time></trkpt><trkpt lat="45.6514778" lon="9.4223474"><ele>232.39999999999998</ele><time>2026-04-21T10:56:48.001Z</time></trkpt><trkpt lat="45.6514958" lon="9.4222403"><ele>232.2</ele><time>2026-04-21T10:56:50Z</time></trkpt><trkpt lat="45.6515028" lon="9.4221456"><ele>232.0</ele><time>2026-04-21T10:56:51.001Z</time></trkpt><trkpt lat="45.6515393" lon="9.4219816"><ele>232.8</ele><time>2026-04-21T10:56:53.001Z</time></trkpt><trkpt lat="45.6515697" lon="9.4219"><ele>233.6</ele><time>2026-04-21T10:56:54.001Z</time></trkpt><trkpt lat="45.6515845" lon="9.4217458"><ele>234.40000000000003</ele><time>2026-04-21T10:56:56.001Z</time></trkpt><trkpt lat="45.6516244" lon="9.4216327"><ele>235.20000000000002</ele><time>2026-04-21T10:56:58.001Z</time></trkpt><trkpt lat="45.6517529" lon="9.4216203"><ele>236.0</ele><time>2026-04-21T10:57:03.001Z</time></trkpt><trkpt lat="45.6518171" lon="9.4216339"><ele>236.0</ele><time>2026-04-21T10:57:05.001Z</time></trkpt><trkpt lat="45.6519397" lon="9.4216502"><ele>236.00000000000003</ele><time>2026-04-21T10:57:08.001Z</time></trkpt><trkpt lat="45.6520362" lon="9.4216971"><ele>236.00000000000003</ele><time>2026-04-21T10:57:11.001Z</time></trkpt><trkpt lat="45.6521147" lon="9.4217174"><ele>236.0</ele><time>2026-04-21T10:57:13.001Z</time></trkpt><trkpt lat="45.6522007" lon="9.4217511"><ele>236.0</ele><time>2026-04-21T10:57:15.001Z</time></trkpt><trkpt lat="45.6523145" lon="9.4217667"><ele>236.20000000000002</ele><time>2026-04-21T10:57:17.001Z</time></trkpt><trkpt lat="45.6524571" lon="9.4218152"><ele>236.40000000000003</ele><time>2026-04-21T10:57:20.001Z</time></trkpt><trkpt lat="45.6525504" lon="9.4218335"><ele>236.6</ele><time>2026-04-21T10:57:23.001Z</time></trkpt><trkpt lat="45.6526311" lon="9.421853"><ele>236.8</ele><time>2026-04-21T10:57:25.001Z</time></trkpt><trkpt lat="45.6526941" lon="9.4218489"><ele>237.0</ele><time>2026-04-21T10:57:26.001Z</time></trkpt><trkpt lat="45.6529665" lon="9.4218829"><ele>237.0</ele><time>2026-04-21T10:57:31.001Z</time></trkpt><trkpt lat="45.6530309" lon="9.4218762"><ele>237.0</ele><time>2026-04-21T10:57:32.001Z</time></trkpt><trkpt lat="45.6530988" lon="9.4218767"><ele>237.0</ele><time>2026-04-21T10:57:33.001Z</time></trkpt><trkpt lat="45.6532087" lon="9.4218551"><ele>237.0</ele><time>2026-04-21T10:57:35.001Z</time></trkpt><trkpt lat="45.6533267" lon="9.4218418"><ele>237.0</ele><time>2026-04-21T10:57:37.001Z</time></trkpt><trkpt lat="45.6534284" lon="9.4218602"><ele>237.0</ele><time>2026-04-21T10:57:39.001Z</time></trkpt><trkpt lat="45.653532" lon="9.4218696"><ele>237.0</ele><time>2026-04-21T10:57:41.001Z</time></trkpt><trkpt lat="45.6536189" lon="9.4218768"><ele>237.0</ele><time>2026-04-21T10:57:42Z</time></trkpt><trkpt lat="45.6536995" lon="9.4218569"><ele>237.0</ele><time>2026-04-21T10:57:43Z</time></trkpt><trkpt lat="45.6537953" lon="9.4218815"><ele>237.0</ele><time>2026-04-21T10:57:44.001Z</time></trkpt><trkpt lat="45.6539986" lon="9.4218134"><ele>236.83333333333334</ele><time>2026-04-21T10:57:49.001Z</time></trkpt><trkpt lat="45.6540764" lon="9.4217994"><ele>236.66666666666669</ele><time>2026-04-21T10:57:51.001Z</time></trkpt><trkpt lat="45.6541466" lon="9.4217563"><ele>236.5</ele><time>2026-04-21T10:57:53.001Z</time></trkpt><trkpt lat="45.6542203" lon="9.421703"><ele>236.33333333333334</ele><time>2026-04-21T10:57:54.001Z</time></trkpt><trkpt lat="45.6542971" lon="9.4217301"><ele>236.16666666666669</ele><time>2026-04-21T10:57:55.001Z</time></trkpt><trkpt lat="45.654403" lon="9.4216938"><ele>236.0</ele><time>2026-04-21T10:57:57.001Z</time></trkpt><trkpt lat="45.6544724" lon="9.421658"><ele>236.0</ele><time>2026-04-21T10:58:00.001Z</time></trkpt><trkpt lat="45.6545353" lon="9.4216395"><ele>236.00000000000003</ele><time>2026-04-21T10:58:01.001Z</time></trkpt><trkpt lat="45.6546262" lon="9.4216351"><ele>236.00000000000003</ele><time>2026-04-21T10:58:03.001Z</time></trkpt><trkpt lat="45.654762" lon="9.4216783"><ele>236.0</ele><time>2026-04-21T10:58:05.001Z</time></trkpt><trkpt lat="45.6548942" lon="9.4216882"><ele>236.0</ele><time>2026-04-21T10:58:07.001Z</time></trkpt><trkpt lat="45.6550011" lon="9.421721"><ele>236.00000000000003</ele><time>2026-04-21T10:58:09.001Z</time></trkpt><trkpt lat="45.6551029" lon="9.4217569"><ele>236.0</ele><time>2026-04-21T10:58:11.001Z</time></trkpt><trkpt lat="45.6551689" lon="9.4217865"><ele>236.0</ele><time>2026-04-21T10:58:12.001Z</time></trkpt><trkpt lat="45.6552375" lon="9.42182"><ele>236.0</ele><time>2026-04-21T10:58:13.001Z</time></trkpt><trkpt lat="45.6553015" lon="9.4218651"><ele>236.00000000000003</ele><time>2026-04-21T10:58:14.001Z</time></trkpt><trkpt lat="45.6554028" lon="9.4219569"><ele>236.0</ele><time>2026-04-21T10:58:16.001Z</time></trkpt><trkpt lat="45.6554693" lon="9.4219789"><ele>235.8</ele><time>2026-04-21T10:58:17.001Z</time></trkpt><trkpt lat="45.6555224" lon="9.4220354"><ele>235.60000000000002</ele><time>2026-04-21T10:58:18.001Z</time></trkpt><trkpt lat="45.6555918" lon="9.422091"><ele>235.4</ele><time>2026-04-21T10:58:19.001Z</time></trkpt><trkpt lat="45.6556583" lon="9.422121"><ele>235.2</ele><time>2026-04-21T10:58:20.001Z</time></trkpt><trkpt lat="45.6557698" lon="9.4222168"><ele>235.0</ele><time>2026-04-21T10:58:22.001Z</time></trkpt><trkpt lat="45.6558672" lon="9.4222728"><ele>235.0</ele><time>2026-04-21T10:58:24.001Z</time></trkpt><trkpt lat="45.6559281" lon="9.4223059"><ele>234.99999999999997</ele><time>2026-04-21T10:58:25.001Z</time></trkpt><trkpt lat="45.6559946" lon="9.4223376"><ele>235.0</ele><time>2026-04-21T10:58:26.001Z</time></trkpt><trkpt lat="45.6560587" lon="9.4223641"><ele>235.0</ele><time>2026-04-21T10:58:27.001Z</time></trkpt><trkpt lat="45.6561189" lon="9.4223966"><ele>234.99999999999997</ele><time>2026-04-21T10:58:28.001Z</time></trkpt><trkpt lat="45.6561796" lon="9.4224235"><ele>235.0</ele><time>2026-04-21T10:58:29.001Z</time></trkpt><trkpt lat="45.6562407" lon="9.4224552"><ele>235.0</ele><time>2026-04-21T10:58:30.001Z</time></trkpt><trkpt lat="45.6563496" lon="9.4225048"><ele>235.16666666666666</ele><time>2026-04-21T10:58:32.001Z</time></trkpt><trkpt lat="45.656468" lon="9.4225529"><ele>235.33333333333331</ele><time>2026-04-21T10:58:34.001Z</time></trkpt><trkpt lat="45.65653" lon="9.4225824"><ele>235.5</ele><time>2026-04-21T10:58:35.001Z</time></trkpt><trkpt lat="45.6565879" lon="9.422619"><ele>235.66666666666669</ele><time>2026-04-21T10:58:36.001Z</time></trkpt><trkpt lat="45.6566549" lon="9.4226394"><ele>235.83333333333334</ele><time>2026-04-21T10:58:37.001Z</time></trkpt><trkpt lat="45.6567526" lon="9.4227084"><ele>236.0</ele><time>2026-04-21T10:58:39.001Z</time></trkpt><trkpt lat="45.656856" lon="9.4227449"><ele>236.20000000000002</ele><time>2026-04-21T10:58:41.001Z</time></trkpt><trkpt lat="45.6569747" lon="9.4227904"><ele>236.40000000000003</ele><time>2026-04-21T10:58:43.001Z</time></trkpt><trkpt lat="45.6570832" lon="9.4228184"><ele>236.6</ele><time>2026-04-21T10:58:45.001Z</time></trkpt><trkpt lat="45.6572067" lon="9.4228636"><ele>236.8</ele><time>2026-04-21T10:58:47.001Z</time></trkpt><trkpt lat="45.6572694" lon="9.4229004"><ele>237.0</ele><time>2026-04-21T10:58:48.001Z</time></trkpt><trkpt lat="45.6573328" lon="9.4229317"><ele>237.0</ele><time>2026-04-21T10:58:49.001Z</time></trkpt><trkpt lat="45.6574478" lon="9.4229598"><ele>237.0</ele><time>2026-04-21T10:58:51.001Z</time></trkpt><trkpt lat="45.6575804" lon="9.4229765"><ele>237.0</ele><time>2026-04-21T10:58:53.001Z</time></trkpt><trkpt lat="45.6577062" lon="9.4229952"><ele>237.0</ele><time>2026-04-21T10:58:55.001Z</time></trkpt><trkpt lat="45.6578218" lon="9.4229873"><ele>236.6</ele><time>2026-04-21T10:58:57.001Z</time></trkpt><trkpt lat="45.6579502" lon="9.4230256"><ele>236.2</ele><time>2026-04-21T10:58:59.001Z</time></trkpt><trkpt lat="45.6580509" lon="9.4230926"><ele>235.8</ele><time>2026-04-21T10:59:01.001Z</time></trkpt><trkpt lat="45.6581646" lon="9.4231626"><ele>235.4</ele><time>2026-04-21T10:59:03.001Z</time></trkpt><trkpt lat="45.6582266" lon="9.4232072"><ele>235.0</ele><time>2026-04-21T10:59:04.001Z</time></trkpt><trkpt lat="45.6582795" lon="9.4232579"><ele>235.0</ele><time>2026-04-21T10:59:05.001Z</time></trkpt><trkpt lat="45.658336" lon="9.4233057"><ele>235.0</ele><time>2026-04-21T10:59:06.001Z</time></trkpt><trkpt lat="45.6584356" lon="9.4233878"><ele>235.0</ele><time>2026-04-21T10:59:08.001Z</time></trkpt><trkpt lat="45.6585402" lon="9.4234866"><ele>235.0</ele><time>2026-04-21T10:59:10.001Z</time></trkpt><trkpt lat="45.6585939" lon="9.4235346"><ele>235.0</ele><time>2026-04-21T10:59:11.001Z</time></trkpt><trkpt lat="45.6587004" lon="9.4236228"><ele>235.0</ele><time>2026-04-21T10:59:13.001Z</time></trkpt><trkpt lat="45.6587599" lon="9.4236735"><ele>235.0</ele><time>2026-04-21T10:59:14Z</time></trkpt><trkpt lat="45.6588611" lon="9.4237547"><ele>235.0</ele><time>2026-04-21T10:59:16.001Z</time></trkpt><trkpt lat="45.6589652" lon="9.4238593"><ele>235.0</ele><time>2026-04-21T10:59:18.001Z</time></trkpt><trkpt lat="45.659016" lon="9.4239152"><ele>235.0</ele><time>2026-04-21T10:59:19.001Z</time></trkpt><trkpt lat="45.6590919" lon="9.4240238"><ele>234.99999999999997</ele><time>2026-04-21T10:59:21.001Z</time></trkpt><trkpt lat="45.6591315" lon="9.4241346"><ele>235.0</ele><time>2026-04-21T10:59:23.001Z</time></trkpt><trkpt lat="45.6591258" lon="9.4242447"><ele>235.0</ele><time>2026-04-21T10:59:25.001Z</time></trkpt><trkpt lat="45.6590954" lon="9.4243847"><ele>235.0</ele><time>2026-04-21T10:59:27.001Z</time></trkpt><trkpt lat="45.6591074" lon="9.4245124"><ele>234.99999999999997</ele><time>2026-04-21T10:59:29.001Z</time></trkpt><trkpt lat="45.6591584" lon="9.42461"><ele>235.0</ele><time>2026-04-21T10:59:31.001Z</time></trkpt><trkpt lat="45.6592326" lon="9.4246877"><ele>234.8</ele><time>2026-04-21T10:59:33.001Z</time></trkpt><trkpt lat="45.6593022" lon="9.4247963"><ele>234.6</ele><time>2026-04-21T10:59:35.001Z</time></trkpt><trkpt lat="45.6593915" lon="9.4249057"><ele>234.39999999999998</ele><time>2026-04-21T10:59:37.001Z</time></trkpt><trkpt lat="45.6594753" lon="9.4249937"><ele>234.2</ele><time>2026-04-21T10:59:39.001Z</time></trkpt><trkpt lat="45.6595607" lon="9.4250938"><ele>234.0</ele><time>2026-04-21T10:59:41.001Z</time></trkpt><trkpt lat="45.6596628" lon="9.4251787"><ele>234.39999999999998</ele><time>2026-04-21T10:59:43.001Z</time></trkpt><trkpt lat="45.6597536" lon="9.4252554"><ele>234.79999999999998</ele><time>2026-04-21T10:59:45.001Z</time></trkpt><trkpt lat="45.6598569" lon="9.4253368"><ele>235.20000000000002</ele><time>2026-04-21T10:59:47.001Z</time></trkpt><trkpt lat="45.6599386" lon="9.4253931"><ele>235.60000000000002</ele><time>2026-04-21T10:59:49.001Z</time></trkpt><trkpt lat="45.6600345" lon="9.4254838"><ele>236.0</ele><time>2026-04-21T10:59:51.001Z</time></trkpt><trkpt lat="45.6601351" lon="9.4255578"><ele>236.0</ele><time>2026-04-21T10:59:53.001Z</time></trkpt><trkpt lat="45.6601902" lon="9.4256052"><ele>236.00000000000003</ele><time>2026-04-21T10:59:54.001Z</time></trkpt><trkpt lat="45.6602473" lon="9.4256609"><ele>236.00000000000003</ele><time>2026-04-21T10:59:55.001Z</time></trkpt><trkpt lat="45.6603322" lon="9.425743"><ele>236.0</ele><time>2026-04-21T10:59:57.001Z</time></trkpt><trkpt lat="45.6604229" lon="9.4258367"><ele>236.0</ele><time>2026-04-21T10:59:59.001Z</time></trkpt><trkpt lat="45.6605206" lon="9.4259454"><ele>236.0</ele><time>2026-04-21T11:00:01.001Z</time></trkpt><trkpt lat="45.66061" lon="9.4260435"><ele>236.0</ele><time>2026-04-21T11:00:03.001Z</time></trkpt><trkpt lat="45.6607024" lon="9.4261521"><ele>236.0</ele><time>2026-04-21T11:00:05.001Z</time></trkpt><trkpt lat="45.6607991" lon="9.4262547"><ele>236.0</ele><time>2026-04-21T11:00:07.001Z</time></trkpt><trkpt lat="45.6608836" lon="9.4263564"><ele>236.0</ele><time>2026-04-21T11:00:09.001Z</time></trkpt><trkpt lat="45.6609787" lon="9.4264636"><ele>236.00000000000003</ele><time>2026-04-21T11:00:11.001Z</time></trkpt><trkpt lat="45.6610626" lon="9.4265483"><ele>236.00000000000003</ele><time>2026-04-21T11:00:13.001Z</time></trkpt><trkpt lat="45.661145" lon="9.4266291"><ele>236.0</ele><time>2026-04-21T11:00:15.001Z</time></trkpt><trkpt lat="45.6612334" lon="9.4267227"><ele>236.0</ele><time>2026-04-21T11:00:17.001Z</time></trkpt><trkpt lat="45.6613264" lon="9.4268095"><ele>236.20000000000002</ele><time>2026-04-21T11:00:19.001Z</time></trkpt><trkpt lat="45.6614307" lon="9.4268761"><ele>236.40000000000003</ele><time>2026-04-21T11:00:21.001Z</time></trkpt><trkpt lat="45.661533" lon="9.4269389"><ele>236.6</ele><time>2026-04-21T11:00:23.001Z</time></trkpt><trkpt lat="45.6616182" lon="9.4270169"><ele>236.8</ele><time>2026-04-21T11:00:25.001Z</time></trkpt><trkpt lat="45.6617061" lon="9.4270722"><ele>237.0</ele><time>2026-04-21T11:00:27.001Z</time></trkpt><trkpt lat="45.6618069" lon="9.4271745"><ele>237.0</ele><time>2026-04-21T11:00:29.001Z</time></trkpt><trkpt lat="45.6619015" lon="9.427271"><ele>237.0</ele><time>2026-04-21T11:00:31.001Z</time></trkpt><trkpt lat="45.6619949" lon="9.4273578"><ele>237.0</ele><time>2026-04-21T11:00:33.001Z</time></trkpt><trkpt lat="45.6620825" lon="9.4274655"><ele>237.0</ele><time>2026-04-21T11:00:35Z</time></trkpt><trkpt lat="45.6621586" lon="9.4275556"><ele>237.0</ele><time>2026-04-21T11:00:37.001Z</time></trkpt><trkpt lat="45.662205" lon="9.4276207"><ele>237.0</ele><time>2026-04-21T11:00:38.001Z</time></trkpt><trkpt lat="45.6622891" lon="9.427716"><ele>237.0</ele><time>2026-04-21T11:00:40.001Z</time></trkpt><trkpt lat="45.6623802" lon="9.4278008"><ele>237.0</ele><time>2026-04-21T11:00:42.001Z</time></trkpt><trkpt lat="45.6624809" lon="9.4279075"><ele>237.0</ele><time>2026-04-21T11:00:44.001Z</time></trkpt><trkpt lat="45.6625729" lon="9.4279825"><ele>237.0</ele><time>2026-04-21T11:00:46.001Z</time></trkpt><trkpt lat="45.6626603" lon="9.4280626"><ele>237.39999999999998</ele><time>2026-04-21T11:00:48.001Z</time></trkpt><trkpt lat="45.6627614" lon="9.4281487"><ele>237.79999999999998</ele><time>2026-04-21T11:00:50.001Z</time></trkpt><trkpt lat="45.6628519" lon="9.4282208"><ele>238.2</ele><time>2026-04-21T11:00:52.001Z</time></trkpt><trkpt lat="45.6629502" lon="9.4283033"><ele>238.6</ele><time>2026-04-21T11:00:54.001Z</time></trkpt><trkpt lat="45.6630079" lon="9.4284296"><ele>239.0</ele><time>2026-04-21T11:00:56.001Z</time></trkpt><trkpt lat="45.6630453" lon="9.4285899"><ele>239.0</ele><time>2026-04-21T11:00:58.001Z</time></trkpt><trkpt lat="45.6631353" lon="9.4286695"><ele>238.99999999999997</ele><time>2026-04-21T11:01:00.001Z</time></trkpt><trkpt lat="45.6632361" lon="9.4286977"><ele>238.99999999999997</ele><time>2026-04-21T11:01:02.001Z</time></trkpt><trkpt lat="45.6633148" lon="9.4287307"><ele>239.0</ele><time>2026-04-21T11:01:03Z</time></trkpt><trkpt lat="45.6634272" lon="9.428807"><ele>239.0</ele><time>2026-04-21T11:01:05.001Z</time></trkpt><trkpt lat="45.6634853" lon="9.4288452"><ele>239.16666666666669</ele><time>2026-04-21T11:01:06.001Z</time></trkpt><trkpt lat="45.6635431" lon="9.4288911"><ele>239.33333333333334</ele><time>2026-04-21T11:01:07.001Z</time></trkpt><trkpt lat="45.6636007" lon="9.4289606"><ele>239.5</ele><time>2026-04-21T11:01:08.001Z</time></trkpt><trkpt lat="45.6637012" lon="9.4290452"><ele>239.66666666666669</ele><time>2026-04-21T11:01:10.001Z</time></trkpt><trkpt lat="45.6637559" lon="9.4291011"><ele>239.83333333333334</ele><time>2026-04-21T11:01:11.001Z</time></trkpt><trkpt lat="45.6638096" lon="9.429149"><ele>240.0</ele><time>2026-04-21T11:01:12.001Z</time></trkpt><trkpt lat="45.6638606" lon="9.4292025"><ele>240.2</ele><time>2026-04-21T11:01:13.001Z</time></trkpt><trkpt lat="45.6639704" lon="9.4293108"><ele>240.4</ele><time>2026-04-21T11:01:15.001Z</time></trkpt><trkpt lat="45.6640724" lon="9.4294069"><ele>240.60000000000002</ele><time>2026-04-21T11:01:17.001Z</time></trkpt><trkpt lat="45.6641345" lon="9.4294683"><ele>240.8</ele><time>2026-04-21T11:01:18.001Z</time></trkpt><trkpt lat="45.6642316" lon="9.4295524"><ele>241.0</ele><time>2026-04-21T11:01:20.001Z</time></trkpt><trkpt lat="45.664308" lon="9.4296987"><ele>241.0</ele><time>2026-04-21T11:01:22.001Z</time></trkpt><trkpt lat="45.6644184" lon="9.4297749"><ele>241.0</ele><time>2026-04-21T11:01:24.001Z</time></trkpt><trkpt lat="45.6645211" lon="9.4298838"><ele>241.0</ele><time>2026-04-21T11:01:26.001Z</time></trkpt><trkpt lat="45.6646177" lon="9.4299664"><ele>241.0</ele><time>2026-04-21T11:01:28Z</time></trkpt><trkpt lat="45.6647228" lon="9.430055"><ele>241.0</ele><time>2026-04-21T11:01:30.001Z</time></trkpt><trkpt lat="45.6648148" lon="9.4301526"><ele>241.00000000000003</ele><time>2026-04-21T11:01:32.001Z</time></trkpt><trkpt lat="45.6648782" lon="9.4302118"><ele>241.00000000000003</ele><time>2026-04-21T11:01:33.001Z</time></trkpt><trkpt lat="45.6649831" lon="9.4303205"><ele>241.0</ele><time>2026-04-21T11:01:35.001Z</time></trkpt><trkpt lat="45.6650368" lon="9.430375"><ele>241.0</ele><time>2026-04-21T11:01:36.001Z</time></trkpt><trkpt lat="45.6651041" lon="9.4304412"><ele>241.20000000000002</ele><time>2026-04-21T11:01:38.001Z</time></trkpt><trkpt lat="45.6652094" lon="9.4305259"><ele>241.40000000000003</ele><time>2026-04-21T11:01:40.001Z</time></trkpt><trkpt lat="45.6652639" lon="9.4305801"><ele>241.6</ele><time>2026-04-21T11:01:41.001Z</time></trkpt><trkpt lat="45.665327" lon="9.4306478"><ele>241.8</ele><time>2026-04-21T11:01:42.001Z</time></trkpt><trkpt lat="45.6654235" lon="9.4307451"><ele>242.0</ele><time>2026-04-21T11:01:44.001Z</time></trkpt><trkpt lat="45.6654915" lon="9.4307937"><ele>242.00000000000003</ele><time>2026-04-21T11:01:45.001Z</time></trkpt><trkpt lat="45.6655432" lon="9.430846"><ele>242.0</ele><time>2026-04-21T11:01:46.001Z</time></trkpt><trkpt lat="45.6655984" lon="9.4309117"><ele>242.0</ele><time>2026-04-21T11:01:47.001Z</time></trkpt><trkpt lat="45.6656684" lon="9.4309695"><ele>242.0</ele><time>2026-04-21T11:01:48.001Z</time></trkpt><trkpt lat="45.6657313" lon="9.4310354"><ele>242.00000000000003</ele><time>2026-04-21T11:01:49.001Z</time></trkpt><trkpt lat="45.6658349" lon="9.4311409"><ele>242.0</ele><time>2026-04-21T11:01:51Z</time></trkpt><trkpt lat="45.6659335" lon="9.4312188"><ele>242.00000000000003</ele><time>2026-04-21T11:01:53.001Z</time></trkpt><trkpt lat="45.6659804" lon="9.431283"><ele>242.0</ele><time>2026-04-21T11:01:54.001Z</time></trkpt><trkpt lat="45.6660635" lon="9.4313876"><ele>242.0</ele><time>2026-04-21T11:01:56Z</time></trkpt><trkpt lat="45.6661174" lon="9.4314382"><ele>242.0</ele><time>2026-04-21T11:01:57.001Z</time></trkpt><trkpt lat="45.6661682" lon="9.431492"><ele>242.00000000000003</ele><time>2026-04-21T11:01:58.001Z</time></trkpt><trkpt lat="45.6662163" lon="9.4315507"><ele>242.0</ele><time>2026-04-21T11:01:59.001Z</time></trkpt><trkpt lat="45.6663219" lon="9.4316372"><ele>241.83333333333334</ele><time>2026-04-21T11:02:01.001Z</time></trkpt><trkpt lat="45.6663743" lon="9.4316956"><ele>241.66666666666669</ele><time>2026-04-21T11:02:02.001Z</time></trkpt><trkpt lat="45.6664561" lon="9.4317674"><ele>241.5</ele><time>2026-04-21T11:02:04.001Z</time></trkpt><trkpt lat="45.6665163" lon="9.4318312"><ele>241.33333333333331</ele><time>2026-04-21T11:02:05.001Z</time></trkpt><trkpt lat="45.6665731" lon="9.4318846"><ele>241.16666666666666</ele><time>2026-04-21T11:02:06.001Z</time></trkpt><trkpt lat="45.6666735" lon="9.4319943"><ele>241.0</ele><time>2026-04-21T11:02:08.001Z</time></trkpt><trkpt lat="45.6667754" lon="9.43213"><ele>241.4</ele><time>2026-04-21T11:02:10.001Z</time></trkpt><trkpt lat="45.6668668" lon="9.4322332"><ele>241.8</ele><time>2026-04-21T11:02:12.001Z</time></trkpt><trkpt lat="45.6669722" lon="9.4323321"><ele>242.20000000000002</ele><time>2026-04-21T11:02:14.001Z</time></trkpt><trkpt lat="45.6670228" lon="9.4323893"><ele>242.60000000000002</ele><time>2026-04-21T11:02:15.001Z</time></trkpt><trkpt lat="45.6671221" lon="9.4324613"><ele>243.0</ele><time>2026-04-21T11:02:17.001Z</time></trkpt><trkpt lat="45.6672194" lon="9.4325493"><ele>243.0</ele><time>2026-04-21T11:02:19.001Z</time></trkpt><trkpt lat="45.6672725" lon="9.4326001"><ele>243.0</ele><time>2026-04-21T11:02:20.001Z</time></trkpt><trkpt lat="45.6673837" lon="9.4327171"><ele>243.0</ele><time>2026-04-21T11:02:22.001Z</time></trkpt><trkpt lat="45.6674659" lon="9.4328043"><ele>243.0</ele><time>2026-04-21T11:02:24.001Z</time></trkpt><trkpt lat="45.667563" lon="9.4329068"><ele>243.0</ele><time>2026-04-21T11:02:26.001Z</time></trkpt><trkpt lat="45.6676725" lon="9.4329983"><ele>243.4</ele><time>2026-04-21T11:02:28.001Z</time></trkpt><trkpt lat="45.6677766" lon="9.4330998"><ele>243.8</ele><time>2026-04-21T11:02:30.001Z</time></trkpt><trkpt lat="45.6678332" lon="9.43316"><ele>244.2</ele><time>2026-04-21T11:02:31.001Z</time></trkpt><trkpt lat="45.6679386" lon="9.433249"><ele>244.6</ele><time>2026-04-21T11:02:33.001Z</time></trkpt><trkpt lat="45.6680388" lon="9.4333326"><ele>245.0</ele><time>2026-04-21T11:02:35.001Z</time></trkpt><trkpt lat="45.6681319" lon="9.4334371"><ele>245.2</ele><time>2026-04-21T11:02:37.001Z</time></trkpt><trkpt lat="45.6682403" lon="9.4335398"><ele>245.4</ele><time>2026-04-21T11:02:39.001Z</time></trkpt><trkpt lat="45.6682973" lon="9.4336047"><ele>245.60000000000002</ele><time>2026-04-21T11:02:40.001Z</time></trkpt><trkpt lat="45.6683941" lon="9.4336949"><ele>245.8</ele><time>2026-04-21T11:02:42.001Z</time></trkpt><trkpt lat="45.6684784" lon="9.4337594"><ele>246.0</ele><time>2026-04-21T11:02:44.001Z</time></trkpt><trkpt lat="45.6685936" lon="9.4338499"><ele>245.66666666666666</ele><time>2026-04-21T11:02:46.001Z</time></trkpt><trkpt lat="45.6686534" lon="9.4339031"><ele>245.33333333333331</ele><time>2026-04-21T11:02:47.001Z</time></trkpt><trkpt lat="45.6687113" lon="9.4339508"><ele>245.0</ele><time>2026-04-21T11:02:48.001Z</time></trkpt><trkpt lat="45.6687643" lon="9.4340052"><ele>244.66666666666666</ele><time>2026-04-21T11:02:49.001Z</time></trkpt><trkpt lat="45.6688518" lon="9.4340958"><ele>244.33333333333331</ele><time>2026-04-21T11:02:51.001Z</time></trkpt><trkpt lat="45.6689551" lon="9.4341806"><ele>244.0</ele><time>2026-04-21T11:02:53.001Z</time></trkpt><trkpt lat="45.6690145" lon="9.4342363"><ele>244.0</ele><time>2026-04-21T11:02:54.001Z</time></trkpt><trkpt lat="45.6691202" lon="9.4343425"><ele>243.99999999999997</ele><time>2026-04-21T11:02:56.001Z</time></trkpt><trkpt lat="45.6692185" lon="9.4344483"><ele>243.99999999999997</ele><time>2026-04-21T11:02:58.001Z</time></trkpt><trkpt lat="45.6692735" lon="9.4345106"><ele>244.0</ele><time>2026-04-21T11:02:59.001Z</time></trkpt><trkpt lat="45.6693266" lon="9.4345659"><ele>244.0</ele><time>2026-04-21T11:03:00.001Z</time></trkpt><trkpt lat="45.6693774" lon="9.4346196"><ele>244.2</ele><time>2026-04-21T11:03:01.001Z</time></trkpt><trkpt lat="45.6694317" lon="9.4346788"><ele>244.39999999999998</ele><time>2026-04-21T11:03:02.001Z</time></trkpt><trkpt lat="45.669483" lon="9.4347451"><ele>244.6</ele><time>2026-04-21T11:03:03.001Z</time></trkpt><trkpt lat="45.6695668" lon="9.4348485"><ele>244.8</ele><time>2026-04-21T11:03:05.001Z</time></trkpt><trkpt lat="45.6696724" lon="9.4349535"><ele>245.0</ele><time>2026-04-21T11:03:07.001Z</time></trkpt><trkpt lat="45.6697648" lon="9.4350708"><ele>245.2</ele><time>2026-04-21T11:03:09Z</time></trkpt><trkpt lat="45.6698555" lon="9.4351698"><ele>245.4</ele><time>2026-04-21T11:03:11.001Z</time></trkpt><trkpt lat="45.6698938" lon="9.4352417"><ele>245.60000000000002</ele><time>2026-04-21T11:03:12.001Z</time></trkpt><trkpt lat="45.6699851" lon="9.4352986"><ele>245.8</ele><time>2026-04-21T11:03:14.001Z</time></trkpt><trkpt lat="45.6700819" lon="9.4353946"><ele>246.0</ele><time>2026-04-21T11:03:16.001Z</time></trkpt><trkpt lat="45.6701752" lon="9.435489"><ele>246.20000000000002</ele><time>2026-04-21T11:03:18.001Z</time></trkpt><trkpt lat="45.6702595" lon="9.4356098"><ele>246.40000000000003</ele><time>2026-04-21T11:03:20.001Z</time></trkpt><trkpt lat="45.6703436" lon="9.4357181"><ele>246.6</ele><time>2026-04-21T11:03:22.001Z</time></trkpt><trkpt lat="45.6704123" lon="9.4358309"><ele>246.8</ele><time>2026-04-21T11:03:24.001Z</time></trkpt><trkpt lat="45.6704686" lon="9.4359049"><ele>247.0</ele><time>2026-04-21T11:03:26.001Z</time></trkpt><trkpt lat="45.6704416" lon="9.4360047"><ele>247.2</ele><time>2026-04-21T11:03:29.001Z</time></trkpt><trkpt lat="45.6704089" lon="9.4361265"><ele>247.39999999999998</ele><time>2026-04-21T11:03:31.001Z</time></trkpt><trkpt lat="45.6703669" lon="9.4362843"><ele>247.60000000000002</ele><time>2026-04-21T11:03:33.001Z</time></trkpt><trkpt lat="45.6703089" lon="9.4364093"><ele>247.8</ele><time>2026-04-21T11:03:35.001Z</time></trkpt><trkpt lat="45.6702513" lon="9.4365377"><ele>248.0</ele><time>2026-04-21T11:03:37.001Z</time></trkpt><trkpt lat="45.6702048" lon="9.4366844"><ele>248.0</ele><time>2026-04-21T11:03:39.001Z</time></trkpt><trkpt lat="45.6701383" lon="9.4368158"><ele>248.0</ele><time>2026-04-21T11:03:41.001Z</time></trkpt><trkpt lat="45.670093" lon="9.4369653"><ele>248.0</ele><time>2026-04-21T11:03:43.001Z</time></trkpt><trkpt lat="45.6700303" lon="9.4370871"><ele>248.0</ele><time>2026-04-21T11:03:45.001Z</time></trkpt><trkpt lat="45.6699779" lon="9.4372135"><ele>248.0</ele><time>2026-04-21T11:03:47.001Z</time></trkpt><trkpt lat="45.6699179" lon="9.4373391"><ele>248.0</ele><time>2026-04-21T11:03:49.001Z</time></trkpt><trkpt lat="45.6698767" lon="9.4374116"><ele>248.0</ele><time>2026-04-21T11:03:50.001Z</time></trkpt><trkpt lat="45.6697952" lon="9.4375317"><ele>248.0</ele><time>2026-04-21T11:03:52.001Z</time></trkpt><trkpt lat="45.6697494" lon="9.4376505"><ele>248.0</ele><time>2026-04-21T11:03:54.001Z</time></trkpt><trkpt lat="45.6697095" lon="9.4377228"><ele>248.0</ele><time>2026-04-21T11:03:55.001Z</time></trkpt><trkpt lat="45.6696433" lon="9.4378474"><ele>248.4</ele><time>2026-04-21T11:03:57.001Z</time></trkpt><trkpt lat="45.6696356" lon="9.4379707"><ele>248.8</ele><time>2026-04-21T11:03:59.001Z</time></trkpt><trkpt lat="45.6696909" lon="9.4380721"><ele>249.2</ele><time>2026-04-21T11:04:01.001Z</time></trkpt><trkpt lat="45.6697439" lon="9.4381876"><ele>249.6</ele><time>2026-04-21T11:04:03.001Z</time></trkpt><trkpt lat="45.6698302" lon="9.4383057"><ele>250.0</ele><time>2026-04-21T11:04:05.001Z</time></trkpt><trkpt lat="45.6699219" lon="9.438378"><ele>249.99999999999997</ele><time>2026-04-21T11:04:07.001Z</time></trkpt><trkpt lat="45.6699752" lon="9.4384352"><ele>250.0</ele><time>2026-04-21T11:04:08.001Z</time></trkpt><trkpt lat="45.6700882" lon="9.4385471"><ele>250.0</ele><time>2026-04-21T11:04:10.001Z</time></trkpt><trkpt lat="45.6701439" lon="9.4385975"><ele>250.0</ele><time>2026-04-21T11:04:11.001Z</time></trkpt><trkpt lat="45.6701964" lon="9.4386519"><ele>249.99999999999997</ele><time>2026-04-21T11:04:12.001Z</time></trkpt><trkpt lat="45.6702813" lon="9.4387555"><ele>250.0</ele><time>2026-04-21T11:04:14.001Z</time></trkpt><trkpt lat="45.6703782" lon="9.4388361"><ele>250.49999999999997</ele><time>2026-04-21T11:04:16.001Z</time></trkpt><trkpt lat="45.670436" lon="9.4389115"><ele>251.0</ele><time>2026-04-21T11:04:17.001Z</time></trkpt><trkpt lat="45.670497" lon="9.4389516"><ele>251.5</ele><time>2026-04-21T11:04:18.001Z</time></trkpt><trkpt lat="45.6705493" lon="9.4390018"><ele>252.0</ele><time>2026-04-21T11:04:19.001Z</time></trkpt><trkpt lat="45.6706123" lon="9.4390575"><ele>252.49999999999997</ele><time>2026-04-21T11:04:20.001Z</time></trkpt><trkpt lat="45.6706692" lon="9.4391217"><ele>253.0</ele><time>2026-04-21T11:04:21.001Z</time></trkpt><trkpt lat="45.6707836" lon="9.4392056"><ele>252.99999999999997</ele><time>2026-04-21T11:04:23.001Z</time></trkpt><trkpt lat="45.6708584" lon="9.4392794"><ele>253.0</ele><time>2026-04-21T11:04:25.001Z</time></trkpt><trkpt lat="45.670908" lon="9.4393354"><ele>253.0</ele><time>2026-04-21T11:04:26.001Z</time></trkpt><trkpt lat="45.6709618" lon="9.4393885"><ele>253.0</ele><time>2026-04-21T11:04:27.001Z</time></trkpt><trkpt lat="45.6710132" lon="9.4394523"><ele>252.99999999999997</ele><time>2026-04-21T11:04:28.001Z</time></trkpt><trkpt lat="45.6711164" lon="9.4395398"><ele>253.0</ele><time>2026-04-21T11:04:30.001Z</time></trkpt><trkpt lat="45.6711992" lon="9.439622"><ele>253.33333333333331</ele><time>2026-04-21T11:04:32.001Z</time></trkpt><trkpt lat="45.6712566" lon="9.439675"><ele>253.66666666666666</ele><time>2026-04-21T11:04:33.001Z</time></trkpt><trkpt lat="45.6713537" lon="9.4397509"><ele>254.0</ele><time>2026-04-21T11:04:35.001Z</time></trkpt><trkpt lat="45.6714095" lon="9.4398043"><ele>254.33333333333331</ele><time>2026-04-21T11:04:36.001Z</time></trkpt><trkpt lat="45.6714625" lon="9.4398591"><ele>254.66666666666666</ele><time>2026-04-21T11:04:37.001Z</time></trkpt><trkpt lat="45.6715223" lon="9.4399176"><ele>255.0</ele><time>2026-04-21T11:04:38.001Z</time></trkpt><trkpt lat="45.6715771" lon="9.4399734"><ele>255.0</ele><time>2026-04-21T11:04:39.001Z</time></trkpt><trkpt lat="45.6716716" lon="9.4400564"><ele>255.0</ele><time>2026-04-21T11:04:41.001Z</time></trkpt><trkpt lat="45.6717757" lon="9.4401613"><ele>255.0</ele><time>2026-04-21T11:04:43.001Z</time></trkpt><trkpt lat="45.6718276" lon="9.4402337"><ele>255.0</ele><time>2026-04-21T11:04:44.001Z</time></trkpt><trkpt lat="45.6719395" lon="9.4402851"><ele>255.0</ele><time>2026-04-21T11:04:46.001Z</time></trkpt><trkpt lat="45.6720254" lon="9.4403952"><ele>255.5</ele><time>2026-04-21T11:04:48.001Z</time></trkpt><trkpt lat="45.6721263" lon="9.4404498"><ele>256.0</ele><time>2026-04-21T11:04:50.001Z</time></trkpt><trkpt lat="45.6722352" lon="9.4405744"><ele>256.5</ele><time>2026-04-21T11:04:52.001Z</time></trkpt><trkpt lat="45.6722931" lon="9.4406585"><ele>257.0</ele><time>2026-04-21T11:04:53.001Z</time></trkpt><trkpt lat="45.6723977" lon="9.44075"><ele>257.0</ele><time>2026-04-21T11:04:55.001Z</time></trkpt><trkpt lat="45.6724959" lon="9.4408544"><ele>257.0</ele><time>2026-04-21T11:04:57.001Z</time></trkpt><trkpt lat="45.6725502" lon="9.4409097"><ele>257.0</ele><time>2026-04-21T11:04:58.001Z</time></trkpt><trkpt lat="45.6726021" lon="9.4409666"><ele>257.0</ele><time>2026-04-21T11:04:59.001Z</time></trkpt><trkpt lat="45.6726913" lon="9.4410684"><ele>257.0</ele><time>2026-04-21T11:05:01.001Z</time></trkpt><trkpt lat="45.6727754" lon="9.4411786"><ele>256.5</ele><time>2026-04-21T11:05:03.001Z</time></trkpt><trkpt lat="45.6728188" lon="9.4412455"><ele>256.0</ele><time>2026-04-21T11:05:04.001Z</time></trkpt><trkpt lat="45.6728763" lon="9.4413373"><ele>255.5</ele><time>2026-04-21T11:05:06.001Z</time></trkpt><trkpt lat="45.6729509" lon="9.4414327"><ele>255.0</ele><time>2026-04-21T11:05:08.001Z</time></trkpt><trkpt lat="45.6730023" lon="9.441522"><ele>254.50000000000003</ele><time>2026-04-21T11:05:10.001Z</time></trkpt><trkpt lat="45.6730614" lon="9.4415948"><ele>254.0</ele><time>2026-04-21T11:05:12.001Z</time></trkpt><trkpt lat="45.6731201" lon="9.4416882"><ele>255.2</ele><time>2026-04-21T11:05:14.001Z</time></trkpt><trkpt lat="45.6731771" lon="9.4417898"><ele>256.4</ele><time>2026-04-21T11:05:17.001Z</time></trkpt><trkpt lat="45.673261" lon="9.4418999"><ele>257.6</ele><time>2026-04-21T11:05:19.001Z</time></trkpt><trkpt lat="45.6733283" lon="9.4420022"><ele>258.8</ele><time>2026-04-21T11:05:21.001Z</time></trkpt><trkpt lat="45.6733943" lon="9.4420925"><ele>260.0</ele><time>2026-04-21T11:05:23.001Z</time></trkpt><trkpt lat="45.6734443" lon="9.4421902"><ele>260.1666666666667</ele><time>2026-04-21T11:05:25.001Z</time></trkpt><trkpt lat="45.6735011" lon="9.4423001"><ele>260.33333333333337</ele><time>2026-04-21T11:05:27.001Z</time></trkpt><trkpt lat="45.673557" lon="9.4423877"><ele>260.5</ele><time>2026-04-21T11:05:29.001Z</time></trkpt><trkpt lat="45.6736182" lon="9.4424844"><ele>260.6666666666667</ele><time>2026-04-21T11:05:31.001Z</time></trkpt><trkpt lat="45.6736765" lon="9.4425708"><ele>260.8333333333333</ele><time>2026-04-21T11:05:33.001Z</time></trkpt><trkpt lat="45.673735" lon="9.4426458"><ele>261.0</ele><time>2026-04-21T11:05:35.001Z</time></trkpt><trkpt lat="45.67378" lon="9.4427344"><ele>261.0</ele><time>2026-04-21T11:05:37.001Z</time></trkpt><trkpt lat="45.6738271" lon="9.4428382"><ele>261.0</ele><time>2026-04-21T11:05:39.001Z</time></trkpt><trkpt lat="45.673881" lon="9.4429625"><ele>261.0</ele><time>2026-04-21T11:05:41.001Z</time></trkpt><trkpt lat="45.6739589" lon="9.4430738"><ele>261.0</ele><time>2026-04-21T11:05:43.001Z</time></trkpt><trkpt lat="45.6740312" lon="9.443177"><ele>261.0</ele><time>2026-04-21T11:05:45.001Z</time></trkpt><trkpt lat="45.6740888" lon="9.4432837"><ele>261.0</ele><time>2026-04-21T11:05:47.001Z</time></trkpt><trkpt lat="45.674149" lon="9.4434079"><ele>261.0</ele><time>2026-04-21T11:05:49.001Z</time></trkpt><trkpt lat="45.6741816" lon="9.443491"><ele>261.0</ele><time>2026-04-21T11:05:50.001Z</time></trkpt><trkpt lat="45.6742491" lon="9.4436189"><ele>261.0</ele><time>2026-04-21T11:05:52.001Z</time></trkpt><trkpt lat="45.6743207" lon="9.4437516"><ele>261.0</ele><time>2026-04-21T11:05:54.001Z</time></trkpt><trkpt lat="45.6743963" lon="9.4438867"><ele>261.6</ele><time>2026-04-21T11:05:56.001Z</time></trkpt><trkpt lat="45.6744674" lon="9.4440228"><ele>262.20000000000005</ele><time>2026-04-21T11:05:58.001Z</time></trkpt><trkpt lat="45.6745017" lon="9.4441034"><ele>262.79999999999995</ele><time>2026-04-21T11:05:59.001Z</time></trkpt><trkpt lat="45.6745727" lon="9.4442432"><ele>263.4</ele><time>2026-04-21T11:06:01.001Z</time></trkpt><trkpt lat="45.6746365" lon="9.4443845"><ele>264.0</ele><time>2026-04-21T11:06:03.001Z</time></trkpt><trkpt lat="45.6746815" lon="9.4445"><ele>264.0</ele><time>2026-04-21T11:06:04.001Z</time></trkpt><trkpt lat="45.6747488" lon="9.4446274"><ele>264.0</ele><time>2026-04-21T11:06:06.001Z</time></trkpt><trkpt lat="45.6748107" lon="9.4447664"><ele>264.0</ele><time>2026-04-21T11:06:08.001Z</time></trkpt><trkpt lat="45.6748898" lon="9.4448995"><ele>264.0</ele><time>2026-04-21T11:06:10.001Z</time></trkpt><trkpt lat="45.6749383" lon="9.4450033"><ele>264.0</ele><time>2026-04-21T11:06:12.001Z</time></trkpt><trkpt lat="45.6749933" lon="9.4451396"><ele>263.59999999999997</ele><time>2026-04-21T11:06:14.001Z</time></trkpt><trkpt lat="45.6750609" lon="9.4452607"><ele>263.2</ele><time>2026-04-21T11:06:16.001Z</time></trkpt><trkpt lat="45.6751425" lon="9.4453845"><ele>262.79999999999995</ele><time>2026-04-21T11:06:18Z</time></trkpt><trkpt lat="45.6751901" lon="9.4454537"><ele>262.4</ele><time>2026-04-21T11:06:19.001Z</time></trkpt><trkpt lat="45.6752449" lon="9.4455807"><ele>262.0</ele><time>2026-04-21T11:06:21.001Z</time></trkpt><trkpt lat="45.6753036" lon="9.4457084"><ele>262.0</ele><time>2026-04-21T11:06:23.001Z</time></trkpt><trkpt lat="45.6753688" lon="9.4458419"><ele>262.0</ele><time>2026-04-21T11:06:25.001Z</time></trkpt><trkpt lat="45.6754299" lon="9.4459802"><ele>262.0</ele><time>2026-04-21T11:06:27.001Z</time></trkpt><trkpt lat="45.6755004" lon="9.4461074"><ele>262.0</ele><time>2026-04-21T11:06:29.001Z</time></trkpt><trkpt lat="45.6755617" lon="9.4462191"><ele>262.0</ele><time>2026-04-21T11:06:31.001Z</time></trkpt><trkpt lat="45.67562" lon="9.4463346"><ele>262.3333333333333</ele><time>2026-04-21T11:06:33.001Z</time></trkpt><trkpt lat="45.6756597" lon="9.4464187"><ele>262.66666666666663</ele><time>2026-04-21T11:06:35.001Z</time></trkpt><trkpt lat="45.6757095" lon="9.446532"><ele>263.0</ele><time>2026-04-21T11:06:48.001Z</time></trkpt><trkpt lat="45.6757532" lon="9.4466291"><ele>263.3333333333333</ele><time>2026-04-21T11:06:50.001Z</time></trkpt><trkpt lat="45.67581" lon="9.4466835"><ele>263.6666666666667</ele><time>2026-04-21T11:06:51.001Z</time></trkpt><trkpt lat="45.6758732" lon="9.4468103"><ele>264.0</ele><time>2026-04-21T11:06:53Z</time></trkpt><trkpt lat="45.6759324" lon="9.4469094"><ele>264.0</ele><time>2026-04-21T11:06:55.001Z</time></trkpt><trkpt lat="45.6759806" lon="9.4470585"><ele>264.0</ele><time>2026-04-21T11:06:57.001Z</time></trkpt><trkpt lat="45.676048" lon="9.4471942"><ele>264.0</ele><time>2026-04-21T11:06:59.001Z</time></trkpt><trkpt lat="45.6761209" lon="9.4473471"><ele>264.0</ele><time>2026-04-21T11:07:01.001Z</time></trkpt><trkpt lat="45.6761808" lon="9.4474779"><ele>264.0</ele><time>2026-04-21T11:07:03.001Z</time></trkpt><trkpt lat="45.6762583" lon="9.4476121"><ele>264.0</ele><time>2026-04-21T11:07:05.001Z</time></trkpt><trkpt lat="45.6763234" lon="9.4477402"><ele>264.0</ele><time>2026-04-21T11:07:07.001Z</time></trkpt><trkpt lat="45.6763886" lon="9.4478884"><ele>264.0</ele><time>2026-04-21T11:07:09.001Z</time></trkpt><trkpt lat="45.676455" lon="9.4480235"><ele>264.25</ele><time>2026-04-21T11:07:11.001Z</time></trkpt><trkpt lat="45.6765361" lon="9.4481793"><ele>264.5</ele><time>2026-04-21T11:07:13.001Z</time></trkpt><trkpt lat="45.6766087" lon="9.4483343"><ele>264.75</ele><time>2026-04-21T11:07:15.001Z</time></trkpt><trkpt lat="45.6766781" lon="9.448484"><ele>265.0</ele><time>2026-04-21T11:07:17Z</time></trkpt><trkpt lat="45.676716" lon="9.4485566"><ele>265.0</ele><time>2026-04-21T11:07:18.001Z</time></trkpt><trkpt lat="45.6767587" lon="9.4486266"><ele>265.0</ele><time>2026-04-21T11:07:19.001Z</time></trkpt><trkpt lat="45.6768306" lon="9.4487714"><ele>265.0</ele><time>2026-04-21T11:07:21.001Z</time></trkpt><trkpt lat="45.6768998" lon="9.4489153"><ele>265.0</ele><time>2026-04-21T11:07:23.001Z</time></trkpt><trkpt lat="45.6769357" lon="9.44899"><ele>265.0</ele><time>2026-04-21T11:07:24.001Z</time></trkpt><trkpt lat="45.6769788" lon="9.4490669"><ele>265.0</ele><time>2026-04-21T11:07:25.001Z</time></trkpt><trkpt lat="45.6770277" lon="9.4491457"><ele>264.3333333333333</ele><time>2026-04-21T11:07:26.001Z</time></trkpt><trkpt lat="45.6770709" lon="9.4492279"><ele>263.66666666666663</ele><time>2026-04-21T11:07:27Z</time></trkpt><trkpt lat="45.6771165" lon="9.4493117"><ele>263.0</ele><time>2026-04-21T11:07:28.001Z</time></trkpt><trkpt lat="45.6771656" lon="9.4494106"><ele>262.3333333333333</ele><time>2026-04-21T11:07:29.001Z</time></trkpt><trkpt lat="45.6772065" lon="9.4494964"><ele>261.6666666666667</ele><time>2026-04-21T11:07:30.001Z</time></trkpt><trkpt lat="45.6772567" lon="9.4495958"><ele>261.0</ele><time>2026-04-21T11:07:31.001Z</time></trkpt><trkpt lat="45.6773063" lon="9.4496876"><ele>260.8333333333333</ele><time>2026-04-21T11:07:32.001Z</time></trkpt><trkpt lat="45.677355" lon="9.4497781"><ele>260.6666666666667</ele><time>2026-04-21T11:07:33.001Z</time></trkpt><trkpt lat="45.6773965" lon="9.4498778"><ele>260.5</ele><time>2026-04-21T11:07:34.001Z</time></trkpt><trkpt lat="45.6774381" lon="9.4499676"><ele>260.33333333333337</ele><time>2026-04-21T11:07:35.001Z</time></trkpt><trkpt lat="45.677488" lon="9.4500555"><ele>260.1666666666667</ele><time>2026-04-21T11:07:36.001Z</time></trkpt><trkpt lat="45.6775382" lon="9.4501432"><ele>260.0</ele><time>2026-04-21T11:07:37.001Z</time></trkpt><trkpt lat="45.6775772" lon="9.4502547"><ele>260.0</ele><time>2026-04-21T11:07:38.001Z</time></trkpt><trkpt lat="45.6776259" lon="9.4503563"><ele>260.0</ele><time>2026-04-21T11:07:39.001Z</time></trkpt><trkpt lat="45.6776819" lon="9.4504719"><ele>260.0</ele><time>2026-04-21T11:07:40.001Z</time></trkpt><trkpt lat="45.6777312" lon="9.4505399"><ele>260.0</ele><time>2026-04-21T11:07:41.001Z</time></trkpt><trkpt lat="45.6777893" lon="9.450636"><ele>260.0</ele><time>2026-04-21T11:07:42.001Z</time></trkpt><trkpt lat="45.6778562" lon="9.4507111"><ele>260.0</ele><time>2026-04-21T11:07:43.001Z</time></trkpt><trkpt lat="45.6779587" lon="9.4508192"><ele>260.0</ele><time>2026-04-21T11:07:45.001Z</time></trkpt><trkpt lat="45.6780203" lon="9.4509184"><ele>260.0</ele><time>2026-04-21T11:07:46.001Z</time></trkpt><trkpt lat="45.6780841" lon="9.4509697"><ele>260.0</ele><time>2026-04-21T11:07:47.001Z</time></trkpt><trkpt lat="45.6781431" lon="9.4510137"><ele>260.0</ele><time>2026-04-21T11:07:48.001Z</time></trkpt><trkpt lat="45.6782526" lon="9.4510593"><ele>260.0</ele><time>2026-04-21T11:07:50.001Z</time></trkpt><trkpt lat="45.6783374" lon="9.4511382"><ele>260.0</ele><time>2026-04-21T11:07:51.001Z</time></trkpt><trkpt lat="45.6784002" lon="9.4511996"><ele>260.0</ele><time>2026-04-21T11:07:52.001Z</time></trkpt><trkpt lat="45.6784762" lon="9.4512653"><ele>260.0</ele><time>2026-04-21T11:07:53.001Z</time></trkpt><trkpt lat="45.6785449" lon="9.4513005"><ele>260.0</ele><time>2026-04-21T11:07:54.001Z</time></trkpt><trkpt lat="45.6786159" lon="9.4513485"><ele>260.0</ele><time>2026-04-21T11:07:55.001Z</time></trkpt><trkpt lat="45.6786844" lon="9.4513763"><ele>260.0</ele><time>2026-04-21T11:07:56.001Z</time></trkpt><trkpt lat="45.6787576" lon="9.4513981"><ele>260.0</ele><time>2026-04-21T11:07:57.001Z</time></trkpt><trkpt lat="45.6788315" lon="9.4514183"><ele>259.6666666666667</ele><time>2026-04-21T11:07:58Z</time></trkpt><trkpt lat="45.6789048" lon="9.4514305"><ele>259.33333333333337</ele><time>2026-04-21T11:07:59.001Z</time></trkpt><trkpt lat="45.6789819" lon="9.4514358"><ele>259.0</ele><time>2026-04-21T11:08:00.001Z</time></trkpt><trkpt lat="45.6790593" lon="9.4514428"><ele>258.6666666666667</ele><time>2026-04-21T11:08:01.001Z</time></trkpt><trkpt lat="45.6791326" lon="9.4514429"><ele>258.3333333333333</ele><time>2026-04-21T11:08:02.001Z</time></trkpt><trkpt lat="45.6792157" lon="9.4514509"><ele>258.0</ele><time>2026-04-21T11:08:03.001Z</time></trkpt><trkpt lat="45.6792925" lon="9.4514536"><ele>258.0</ele><time>2026-04-21T11:08:04.001Z</time></trkpt><trkpt lat="45.6793695" lon="9.4514622"><ele>258.0</ele><time>2026-04-21T11:08:05.001Z</time></trkpt><trkpt lat="45.6794513" lon="9.4514676"><ele>258.0</ele><time>2026-04-21T11:08:06.001Z</time></trkpt><trkpt lat="45.6795251" lon="9.4514649"><ele>258.0</ele><time>2026-04-21T11:08:07.001Z</time></trkpt><trkpt lat="45.6795981" lon="9.4514689"><ele>258.0</ele><time>2026-04-21T11:08:08.001Z</time></trkpt><trkpt lat="45.6796656" lon="9.4514819"><ele>258.0</ele><time>2026-04-21T11:08:09.001Z</time></trkpt><trkpt lat="45.6797522" lon="9.4514797"><ele>258.5</ele><time>2026-04-21T11:08:10.001Z</time></trkpt><trkpt lat="45.6798341" lon="9.4514896"><ele>259.0</ele><time>2026-04-21T11:08:11.001Z</time></trkpt><trkpt lat="45.6799073" lon="9.4514768"><ele>259.5</ele><time>2026-04-21T11:08:12.001Z</time></trkpt><trkpt lat="45.6799828" lon="9.4514642"><ele>260.0</ele><time>2026-04-21T11:08:13.001Z</time></trkpt><trkpt lat="45.6800639" lon="9.4514705"><ele>260.5</ele><time>2026-04-21T11:08:14.001Z</time></trkpt><trkpt lat="45.6801434" lon="9.4514672"><ele>261.0</ele><time>2026-04-21T11:08:15.001Z</time></trkpt><trkpt lat="45.6802301" lon="9.451476"><ele>261.3333333333333</ele><time>2026-04-21T11:08:16.001Z</time></trkpt><trkpt lat="45.6803087" lon="9.451485"><ele>261.6666666666667</ele><time>2026-04-21T11:08:17Z</time></trkpt><trkpt lat="45.6803877" lon="9.4514871"><ele>262.0</ele><time>2026-04-21T11:08:18.001Z</time></trkpt><trkpt lat="45.6804591" lon="9.4514911"><ele>262.33333333333337</ele><time>2026-04-21T11:08:19.001Z</time></trkpt><trkpt lat="45.6805405" lon="9.4514867"><ele>262.6666666666667</ele><time>2026-04-21T11:08:20.001Z</time></trkpt><trkpt lat="45.6806145" lon="9.4514853"><ele>263.0</ele><time>2026-04-21T11:08:21.001Z</time></trkpt><trkpt lat="45.680697" lon="9.4514747"><ele>263.0</ele><time>2026-04-21T11:08:22.001Z</time></trkpt><trkpt lat="45.6807795" lon="9.451457"><ele>263.0</ele><time>2026-04-21T11:08:23.001Z</time></trkpt><trkpt lat="45.6808446" lon="9.4514834"><ele>263.0</ele><time>2026-04-21T11:08:24.001Z</time></trkpt><trkpt lat="45.6809121" lon="9.4514685"><ele>263.0</ele><time>2026-04-21T11:08:25.001Z</time></trkpt><trkpt lat="45.6810379" lon="9.4514519"><ele>263.0</ele><time>2026-04-21T11:08:27.001Z</time></trkpt><trkpt lat="45.681101" lon="9.4514517"><ele>263.0</ele><time>2026-04-21T11:08:28Z</time></trkpt><trkpt lat="45.6811759" lon="9.4514739"><ele>262.0</ele><time>2026-04-21T11:08:29.001Z</time></trkpt><trkpt lat="45.6812692" lon="9.4514674"><ele>261.0</ele><time>2026-04-21T11:08:31.001Z</time></trkpt><trkpt lat="45.6813842" lon="9.4514646"><ele>260.0</ele><time>2026-04-21T11:08:33.001Z</time></trkpt><trkpt lat="45.6814571" lon="9.4513682"><ele>259.0</ele><time>2026-04-21T11:08:35.001Z</time></trkpt><trkpt lat="45.6815578" lon="9.4512646"><ele>258.0</ele><time>2026-04-21T11:08:37.001Z</time></trkpt><trkpt lat="45.6816445" lon="9.4511458"><ele>257.99999999999994</ele><time>2026-04-21T11:08:39.001Z</time></trkpt><trkpt lat="45.6816887" lon="9.451077"><ele>258.0</ele><time>2026-04-21T11:08:40.001Z</time></trkpt><trkpt lat="45.6817364" lon="9.4510055"><ele>258.0</ele><time>2026-04-21T11:08:41.001Z</time></trkpt><trkpt lat="45.6817781" lon="9.4509348"><ele>258.0</ele><time>2026-04-21T11:08:42.001Z</time></trkpt><trkpt lat="45.6818154" lon="9.4508405"><ele>258.0</ele><time>2026-04-21T11:08:43.001Z</time></trkpt><trkpt lat="45.6818516" lon="9.4507642"><ele>257.99999999999994</ele><time>2026-04-21T11:08:44.001Z</time></trkpt><trkpt lat="45.681903" lon="9.4506921"><ele>258.0</ele><time>2026-04-21T11:08:45.001Z</time></trkpt><trkpt lat="45.6819412" lon="9.4506125"><ele>257.1428571428571</ele><time>2026-04-21T11:08:46.001Z</time></trkpt><trkpt lat="45.6819773" lon="9.4505254"><ele>256.2857142857143</ele><time>2026-04-21T11:08:47.001Z</time></trkpt><trkpt lat="45.6820134" lon="9.4504419"><ele>255.42857142857142</ele><time>2026-04-21T11:08:48.001Z</time></trkpt><trkpt lat="45.6820503" lon="9.4503567"><ele>254.57142857142856</ele><time>2026-04-21T11:08:49.001Z</time></trkpt><trkpt lat="45.682128" lon="9.4502578"><ele>253.71428571428572</ele><time>2026-04-21T11:08:51.001Z</time></trkpt><trkpt lat="45.6821907" lon="9.450225"><ele>252.85714285714286</ele><time>2026-04-21T11:08:52.001Z</time></trkpt><trkpt lat="45.6822523" lon="9.4501822"><ele>252.0</ele><time>2026-04-21T11:08:53.001Z</time></trkpt><trkpt lat="45.6823136" lon="9.4501317"><ele>252.0</ele><time>2026-04-21T11:08:54.001Z</time></trkpt><trkpt lat="45.682418" lon="9.4500394"><ele>252.0</ele><time>2026-04-21T11:08:56.001Z</time></trkpt><trkpt lat="45.6824812" lon="9.4500041"><ele>252.0</ele><time>2026-04-21T11:08:57.001Z</time></trkpt><trkpt lat="45.6826204" lon="9.4499568"><ele>252.0</ele><time>2026-04-21T11:08:59.001Z</time></trkpt><trkpt lat="45.6826898" lon="9.4499311"><ele>252.0</ele><time>2026-04-21T11:09:00.001Z</time></trkpt><trkpt lat="45.6827575" lon="9.4499019"><ele>247.0</ele><time>2026-04-21T11:09:01.001Z</time></trkpt><trkpt lat="45.6828306" lon="9.4498684"><ele>242.0</ele><time>2026-04-21T11:09:02.001Z</time></trkpt><trkpt lat="45.6829048" lon="9.4498265"><ele>237.0</ele><time>2026-04-21T11:09:03.001Z</time></trkpt><trkpt lat="45.6829813" lon="9.4497895"><ele>232.0</ele><time>2026-04-21T11:09:04.001Z</time></trkpt><trkpt lat="45.6830658" lon="9.4497571"><ele>227.0</ele><time>2026-04-21T11:09:05.001Z</time></trkpt><trkpt lat="45.6831335" lon="9.4497274"><ele>222.0</ele><time>2026-04-21T11:09:06.001Z</time></trkpt><trkpt lat="45.6832551" lon="9.4496715"><ele>222.0</ele><time>2026-04-21T11:09:08.001Z</time></trkpt><trkpt lat="45.6833305" lon="9.4496373"><ele>222.0</ele><time>2026-04-21T11:09:09.001Z</time></trkpt><trkpt lat="45.6834101" lon="9.4495939"><ele>222.0</ele><time>2026-04-21T11:09:10Z</time></trkpt><trkpt lat="45.6834818" lon="9.4495735"><ele>222.0</ele><time>2026-04-21T11:09:11.001Z</time></trkpt><trkpt lat="45.6835488" lon="9.4495506"><ele>222.0</ele><time>2026-04-21T11:09:12.001Z</time></trkpt><trkpt lat="45.6836308" lon="9.4495414"><ele>222.0</ele><time>2026-04-21T11:09:13.001Z</time></trkpt><trkpt lat="45.6837011" lon="9.4495339"><ele>219.25</ele><time>2026-04-21T11:09:14.001Z</time></trkpt><trkpt lat="45.683819" lon="9.4495458"><ele>216.5</ele><time>2026-04-21T11:09:16.001Z</time></trkpt><trkpt lat="45.6839437" lon="9.4495847"><ele>213.75</ele><time>2026-04-21T11:09:18.001Z</time></trkpt><trkpt lat="45.6840596" lon="9.4496026"><ele>211.0</ele><time>2026-04-21T11:09:20.001Z</time></trkpt><trkpt lat="45.6841939" lon="9.4496281"><ele>210.99999999999997</ele><time>2026-04-21T11:09:22.001Z</time></trkpt><trkpt lat="45.6842606" lon="9.4496433"><ele>211.0</ele><time>2026-04-21T11:09:23.001Z</time></trkpt><trkpt lat="45.6843373" lon="9.449649"><ele>211.0</ele><time>2026-04-21T11:09:24.001Z</time></trkpt><trkpt lat="45.6844254" lon="9.4496308"><ele>211.0</ele><time>2026-04-21T11:09:25.001Z</time></trkpt><trkpt lat="45.6845063" lon="9.4496177"><ele>210.99999999999997</ele><time>2026-04-21T11:09:26.001Z</time></trkpt><trkpt lat="45.6845837" lon="9.4496024"><ele>211.0</ele><time>2026-04-21T11:09:27.001Z</time></trkpt><trkpt lat="45.6846526" lon="9.449578"><ele>210.85714285714286</ele><time>2026-04-21T11:09:28.001Z</time></trkpt><trkpt lat="45.6847244" lon="9.4495677"><ele>210.71428571428572</ele><time>2026-04-21T11:09:29.001Z</time></trkpt><trkpt lat="45.6847895" lon="9.4495559"><ele>210.57142857142856</ele><time>2026-04-21T11:09:30.001Z</time></trkpt><trkpt lat="45.6848617" lon="9.4495628"><ele>210.42857142857144</ele><time>2026-04-21T11:09:31.001Z</time></trkpt><trkpt lat="45.6849341" lon="9.4495867"><ele>210.28571428571428</ele><time>2026-04-21T11:09:32.001Z</time></trkpt><trkpt lat="45.6849942" lon="9.4496268"><ele>210.14285714285714</ele><time>2026-04-21T11:09:33.001Z</time></trkpt><trkpt lat="45.6850521" lon="9.4496687"><ele>210.0</ele><time>2026-04-21T11:09:34.001Z</time></trkpt><trkpt lat="45.6851116" lon="9.44972"><ele>210.0</ele><time>2026-04-21T11:09:35.001Z</time></trkpt><trkpt lat="45.6851739" lon="9.4497618"><ele>210.0</ele><time>2026-04-21T11:09:36.001Z</time></trkpt><trkpt lat="45.6852358" lon="9.449798"><ele>210.0</ele><time>2026-04-21T11:09:37.001Z</time></trkpt><trkpt lat="45.6853109" lon="9.4498289"><ele>210.0</ele><time>2026-04-21T11:09:38.001Z</time></trkpt><trkpt lat="45.685383" lon="9.4498502"><ele>210.0</ele><time>2026-04-21T11:09:39.001Z</time></trkpt><trkpt lat="45.6854503" lon="9.4498684"><ele>210.0</ele><time>2026-04-21T11:09:40Z</time></trkpt><trkpt lat="45.6855271" lon="9.4498945"><ele>210.0</ele><time>2026-04-21T11:09:41.001Z</time></trkpt><trkpt lat="45.6855961" lon="9.4499111"><ele>210.16666666666666</ele><time>2026-04-21T11:09:42.001Z</time></trkpt><trkpt lat="45.6856703" lon="9.4499504"><ele>210.33333333333331</ele><time>2026-04-21T11:09:43.001Z</time></trkpt><trkpt lat="45.6857409" lon="9.4499682"><ele>210.5</ele><time>2026-04-21T11:09:44.001Z</time></trkpt><trkpt lat="45.6858626" lon="9.4500415"><ele>210.66666666666666</ele><time>2026-04-21T11:09:46.001Z</time></trkpt><trkpt lat="45.685918" lon="9.4500845"><ele>210.83333333333331</ele><time>2026-04-21T11:09:47.001Z</time></trkpt><trkpt lat="45.6859851" lon="9.4501317"><ele>211.0</ele><time>2026-04-21T11:09:48.001Z</time></trkpt><trkpt lat="45.6860484" lon="9.4502057"><ele>213.20000000000002</ele><time>2026-04-21T11:09:49.001Z</time></trkpt><trkpt lat="45.6861098" lon="9.4502614"><ele>215.4</ele><time>2026-04-21T11:09:50.001Z</time></trkpt><trkpt lat="45.686224" lon="9.4503425"><ele>217.6</ele><time>2026-04-21T11:09:52.001Z</time></trkpt><trkpt lat="45.6863187" lon="9.4504297"><ele>219.8</ele><time>2026-04-21T11:09:54.001Z</time></trkpt><trkpt lat="45.6863762" lon="9.4504894"><ele>222.0</ele><time>2026-04-21T11:09:56.001Z</time></trkpt><trkpt lat="45.6863899" lon="9.4506083"><ele>217.5</ele><time>2026-04-21T11:09:59.001Z</time></trkpt><trkpt lat="45.68637" lon="9.450709"><ele>213.0</ele><time>2026-04-21T11:10:01Z</time></trkpt><trkpt lat="45.6862898" lon="9.4507138"><ele>208.5</ele><time>2026-04-21T11:10:04.001Z</time></trkpt><trkpt lat="45.6862131" lon="9.4506614"><ele>204.0</ele><time>2026-04-21T11:10:06.001Z</time></trkpt><trkpt lat="45.686136" lon="9.4506039"><ele>199.5</ele><time>2026-04-21T11:10:08.001Z</time></trkpt><trkpt lat="45.6860736" lon="9.4505654"><ele>195.0</ele><time>2026-04-21T11:10:10.001Z</time></trkpt><trkpt lat="45.6860129" lon="9.4505278"><ele>193.4</ele><time>2026-04-21T11:10:13.001Z</time></trkpt><trkpt lat="45.6859394" lon="9.4505086"><ele>191.8</ele><time>2026-04-21T11:10:15.001Z</time></trkpt><trkpt lat="45.6858467" lon="9.4505052"><ele>190.2</ele><time>2026-04-21T11:10:17.001Z</time></trkpt><trkpt lat="45.6857327" lon="9.4504998"><ele>188.6</ele><time>2026-04-21T11:10:19.001Z</time></trkpt><trkpt lat="45.6856061" lon="9.4504968"><ele>187.0</ele><time>2026-04-21T11:10:21.001Z</time></trkpt><trkpt lat="45.6855409" lon="9.4504925"><ele>187.0</ele><time>2026-04-21T11:10:22.001Z</time></trkpt><trkpt lat="45.6854693" lon="9.4504906"><ele>187.0</ele><time>2026-04-21T11:10:23.001Z</time></trkpt><trkpt lat="45.6853997" lon="9.4504976"><ele>187.0</ele><time>2026-04-21T11:10:24.001Z</time></trkpt><trkpt lat="45.6853257" lon="9.4504894"><ele>187.0</ele><time>2026-04-21T11:10:25.001Z</time></trkpt><trkpt lat="45.6852515" lon="9.450487"><ele>187.0</ele><time>2026-04-21T11:10:26.001Z</time></trkpt><trkpt lat="45.6851791" lon="9.4504954"><ele>187.0</ele><time>2026-04-21T11:10:27.001Z</time></trkpt><trkpt lat="45.6851056" lon="9.4505072"><ele>187.0</ele><time>2026-04-21T11:10:28.001Z</time></trkpt><trkpt lat="45.6850309" lon="9.4505147"><ele>187.6</ele><time>2026-04-21T11:10:29.001Z</time></trkpt><trkpt lat="45.6849569" lon="9.450526"><ele>188.2</ele><time>2026-04-21T11:10:30.001Z</time></trkpt><trkpt lat="45.6848691" lon="9.4505207"><ele>188.8</ele><time>2026-04-21T11:10:31.001Z</time></trkpt><trkpt lat="45.6847427" lon="9.4504952"><ele>189.4</ele><time>2026-04-21T11:10:33.001Z</time></trkpt><trkpt lat="45.6846468" lon="9.4504645"><ele>190.0</ele><time>2026-04-21T11:10:35.001Z</time></trkpt><trkpt lat="45.6845274" lon="9.4504436"><ele>194.0</ele><time>2026-04-21T11:10:37.001Z</time></trkpt><trkpt lat="45.6844642" lon="9.4504216"><ele>198.0</ele><time>2026-04-21T11:10:38.001Z</time></trkpt><trkpt lat="45.6843269" lon="9.4503962"><ele>202.0</ele><time>2026-04-21T11:10:40.001Z</time></trkpt><trkpt lat="45.6842097" lon="9.450402"><ele>206.0</ele><time>2026-04-21T11:10:42.001Z</time></trkpt><trkpt lat="45.6840933" lon="9.4504281"><ele>210.0</ele><time>2026-04-21T11:10:44.001Z</time></trkpt><trkpt lat="45.6839795" lon="9.4504558"><ele>207.8</ele><time>2026-04-21T11:10:46.001Z</time></trkpt><trkpt lat="45.6838521" lon="9.4504939"><ele>205.6</ele><time>2026-04-21T11:10:48.001Z</time></trkpt><trkpt lat="45.6837926" lon="9.4505425"><ele>203.39999999999998</ele><time>2026-04-21T11:10:49.001Z</time></trkpt><trkpt lat="45.6836677" lon="9.4505848"><ele>201.2</ele><time>2026-04-21T11:10:51Z</time></trkpt><trkpt lat="45.683577" lon="9.4506329"><ele>199.0</ele><time>2026-04-21T11:10:53.001Z</time></trkpt><trkpt lat="45.6835144" lon="9.4506727"><ele>199.0</ele><time>2026-04-21T11:10:54.001Z</time></trkpt><trkpt lat="45.6834537" lon="9.4507083"><ele>199.0</ele><time>2026-04-21T11:10:55.001Z</time></trkpt><trkpt lat="45.6833988" lon="9.4507588"><ele>199.0</ele><time>2026-04-21T11:10:56.001Z</time></trkpt><trkpt lat="45.6832839" lon="9.4508515"><ele>199.0</ele><time>2026-04-21T11:10:58.001Z</time></trkpt><trkpt lat="45.6831703" lon="9.4509527"><ele>199.0</ele><time>2026-04-21T11:11:00.001Z</time></trkpt><trkpt lat="45.6830717" lon="9.4510203"><ele>198.99999999999997</ele><time>2026-04-21T11:11:02.001Z</time></trkpt><trkpt lat="45.6830136" lon="9.4510741"><ele>199.0</ele><time>2026-04-21T11:11:03.001Z</time></trkpt><trkpt lat="45.6829505" lon="9.451115"><ele>199.0</ele><time>2026-04-21T11:11:04.001Z</time></trkpt><trkpt lat="45.6828604" lon="9.4511616"><ele>199.0</ele><time>2026-04-21T11:11:05.001Z</time></trkpt><trkpt lat="45.6827622" lon="9.4512732"><ele>198.99999999999997</ele><time>2026-04-21T11:11:07.001Z</time></trkpt><trkpt lat="45.6827191" lon="9.4513405"><ele>199.0</ele><time>2026-04-21T11:11:08.001Z</time></trkpt><trkpt lat="45.6826719" lon="9.4514221"><ele>195.66666666666666</ele><time>2026-04-21T11:11:09.001Z</time></trkpt><trkpt lat="45.6826162" lon="9.4515007"><ele>192.33333333333331</ele><time>2026-04-21T11:11:10.001Z</time></trkpt><trkpt lat="45.6825679" lon="9.4515644"><ele>189.0</ele><time>2026-04-21T11:11:11.001Z</time></trkpt><trkpt lat="45.6825202" lon="9.4516248"><ele>185.66666666666666</ele><time>2026-04-21T11:11:12.001Z</time></trkpt><trkpt lat="45.6824681" lon="9.4517435"><ele>182.33333333333331</ele><time>2026-04-21T11:11:14.001Z</time></trkpt><trkpt lat="45.6824288" lon="9.451824"><ele>179.0</ele><time>2026-04-21T11:11:15.001Z</time></trkpt><trkpt lat="45.6823657" lon="9.4518957"><ele>179.0</ele><time>2026-04-21T11:11:16.001Z</time></trkpt><trkpt lat="45.6823548" lon="9.4519927"><ele>179.0</ele><time>2026-04-21T11:11:17.001Z</time></trkpt><trkpt lat="45.6822836" lon="9.4520725"><ele>179.0</ele><time>2026-04-21T11:11:18.001Z</time></trkpt><trkpt lat="45.6822033" lon="9.4521975"><ele>179.0</ele><time>2026-04-21T11:11:20.001Z</time></trkpt><trkpt lat="45.6821426" lon="9.4523467"><ele>179.0</ele><time>2026-04-21T11:11:22.001Z</time></trkpt><trkpt lat="45.6820732" lon="9.4525194"><ele>180.33333333333331</ele><time>2026-04-21T11:11:24.001Z</time></trkpt><trkpt lat="45.6820631" lon="9.4526087"><ele>181.66666666666666</ele><time>2026-04-21T11:11:25.001Z</time></trkpt><trkpt lat="45.6819543" lon="9.4526346"><ele>183.0</ele><time>2026-04-21T11:11:27.001Z</time></trkpt><trkpt lat="45.6819109" lon="9.4527146"><ele>184.33333333333334</ele><time>2026-04-21T11:11:28.001Z</time></trkpt><trkpt lat="45.6818646" lon="9.4527982"><ele>185.66666666666669</ele><time>2026-04-21T11:11:29.001Z</time></trkpt><trkpt lat="45.681784" lon="9.4528991"><ele>187.0</ele><time>2026-04-21T11:11:31.001Z</time></trkpt><trkpt lat="45.6817055" lon="9.4530405"><ele>191.0</ele><time>2026-04-21T11:11:33.001Z</time></trkpt><trkpt lat="45.6816598" lon="9.4531176"><ele>195.0</ele><time>2026-04-21T11:11:34.001Z</time></trkpt><trkpt lat="45.6816223" lon="9.45322"><ele>199.0</ele><time>2026-04-21T11:11:35.001Z</time></trkpt><trkpt lat="45.6815691" lon="9.4532968"><ele>203.0</ele><time>2026-04-21T11:11:36.001Z</time></trkpt><trkpt lat="45.6814627" lon="9.4534113"><ele>206.99999999999997</ele><time>2026-04-21T11:11:38.001Z</time></trkpt><trkpt lat="45.6814061" lon="9.4534723"><ele>211.0</ele><time>2026-04-21T11:11:39.001Z</time></trkpt><trkpt lat="45.6813676" lon="9.4535512"><ele>211.0</ele><time>2026-04-21T11:11:40.001Z</time></trkpt><trkpt lat="45.681291" lon="9.4536866"><ele>211.0</ele><time>2026-04-21T11:11:42.001Z</time></trkpt><trkpt lat="45.681206" lon="9.4538127"><ele>211.0</ele><time>2026-04-21T11:11:44.001Z</time></trkpt><trkpt lat="45.6811668" lon="9.4538912"><ele>211.0</ele><time>2026-04-21T11:11:45.001Z</time></trkpt><trkpt lat="45.6811228" lon="9.4539689"><ele>211.0</ele><time>2026-04-21T11:11:46.001Z</time></trkpt><trkpt lat="45.6810694" lon="9.4540493"><ele>213.75</ele><time>2026-04-21T11:11:47.001Z</time></trkpt><trkpt lat="45.6809753" lon="9.4542051"><ele>216.5</ele><time>2026-04-21T11:11:49.001Z</time></trkpt><trkpt lat="45.6809217" lon="9.4542883"><ele>219.25</ele><time>2026-04-21T11:11:50.001Z</time></trkpt><trkpt lat="45.6808545" lon="9.4544364"><ele>222.0</ele><time>2026-04-21T11:11:52.001Z</time></trkpt><trkpt lat="45.6807996" lon="9.4545797"><ele>217.66666666666666</ele><time>2026-04-21T11:11:54.001Z</time></trkpt><trkpt lat="45.6807688" lon="9.4547353"><ele>213.33333333333331</ele><time>2026-04-21T11:11:56.001Z</time></trkpt><trkpt lat="45.6807392" lon="9.4548264"><ele>209.0</ele><time>2026-04-21T11:11:57.001Z</time></trkpt><trkpt lat="45.6807052" lon="9.4549179"><ele>204.66666666666666</ele><time>2026-04-21T11:11:58.001Z</time></trkpt><trkpt lat="45.680675" lon="9.455007"><ele>200.33333333333331</ele><time>2026-04-21T11:11:59.001Z</time></trkpt><trkpt lat="45.6806488" lon="9.4550939"><ele>196.0</ele><time>2026-04-21T11:12:00.001Z</time></trkpt><trkpt lat="45.680605" lon="9.4552491"><ele>196.0</ele><time>2026-04-21T11:12:02.001Z</time></trkpt><trkpt lat="45.6805741" lon="9.4553838"><ele>196.0</ele><time>2026-04-21T11:12:04.001Z</time></trkpt><trkpt lat="45.6805299" lon="9.4555346"><ele>196.0</ele><time>2026-04-21T11:12:06.001Z</time></trkpt><trkpt lat="45.6804838" lon="9.4556934"><ele>196.0</ele><time>2026-04-21T11:12:08.001Z</time></trkpt><trkpt lat="45.6804426" lon="9.455844"><ele>196.0</ele><time>2026-04-21T11:12:10.001Z</time></trkpt><trkpt lat="45.6804059" lon="9.4560118"><ele>195.33333333333331</ele><time>2026-04-21T11:12:12.001Z</time></trkpt><trkpt lat="45.6803844" lon="9.456101"><ele>194.66666666666666</ele><time>2026-04-21T11:12:13.001Z</time></trkpt><trkpt lat="45.6803328" lon="9.45625"><ele>194.0</ele><time>2026-04-21T11:12:15.001Z</time></trkpt><trkpt lat="45.6803098" lon="9.4563366"><ele>193.33333333333331</ele><time>2026-04-21T11:12:16.001Z</time></trkpt><trkpt lat="45.6802879" lon="9.4564275"><ele>192.66666666666666</ele><time>2026-04-21T11:12:17.001Z</time></trkpt><trkpt lat="45.6802603" lon="9.4565807"><ele>192.0</ele><time>2026-04-21T11:12:19.001Z</time></trkpt><trkpt lat="45.6802251" lon="9.456726"><ele>192.0</ele><time>2026-04-21T11:12:21.001Z</time></trkpt><trkpt lat="45.6801669" lon="9.4568312"><ele>192.0</ele><time>2026-04-21T11:12:23.001Z</time></trkpt><trkpt lat="45.6801057" lon="9.4569165"><ele>192.0</ele><time>2026-04-21T11:12:25.001Z</time></trkpt><trkpt lat="45.6800698" lon="9.4570186"><ele>192.0</ele><time>2026-04-21T11:12:28.001Z</time></trkpt><trkpt lat="45.6800984" lon="9.4571177"><ele>192.0</ele><time>2026-04-21T11:12:31.001Z</time></trkpt><trkpt lat="45.6800793" lon="9.457207"><ele>192.0</ele><time>2026-04-21T11:12:34.001Z</time></trkpt><trkpt lat="45.6800189" lon="9.4572532"><ele>192.0</ele><time>2026-04-21T11:12:37.001Z</time></trkpt><trkpt lat="45.6799966" lon="9.4571323"><ele>192.0</ele><time>2026-04-21T11:12:45.001Z</time></trkpt><trkpt lat="45.679934" lon="9.4570816"><ele>192.0</ele><time>2026-04-21T11:12:48.001Z</time></trkpt><trkpt lat="45.6798409" lon="9.4571345"><ele>192.0</ele><time>2026-04-21T11:12:51.001Z</time></trkpt><trkpt lat="45.6797558" lon="9.4572073"><ele>192.0</ele><time>2026-04-21T11:12:53.001Z</time></trkpt><trkpt lat="45.6796819" lon="9.4572761"><ele>192.0</ele><time>2026-04-21T11:12:55.001Z</time></trkpt><trkpt lat="45.6796065" lon="9.4573718"><ele>190.6</ele><time>2026-04-21T11:12:57.001Z</time></trkpt><trkpt lat="45.6795432" lon="9.4574928"><ele>189.2</ele><time>2026-04-21T11:12:59.001Z</time></trkpt><trkpt lat="45.6794781" lon="9.4576266"><ele>187.8</ele><time>2026-04-21T11:13:01.001Z</time></trkpt><trkpt lat="45.679426" lon="9.4577245"><ele>186.4</ele><time>2026-04-21T11:13:03.001Z</time></trkpt><trkpt lat="45.67939" lon="9.4578076"><ele>185.0</ele><time>2026-04-21T11:13:05.001Z</time></trkpt><trkpt lat="45.6793479" lon="9.4579025"><ele>186.66666666666666</ele><time>2026-04-21T11:13:07.001Z</time></trkpt><trkpt lat="45.6793083" lon="9.457981"><ele>188.33333333333331</ele><time>2026-04-21T11:13:09.001Z</time></trkpt><trkpt lat="45.679272" lon="9.4580749"><ele>190.0</ele><time>2026-04-21T11:13:13.001Z</time></trkpt><trkpt lat="45.6792398" lon="9.4581575"><ele>191.66666666666666</ele><time>2026-04-21T11:13:16.001Z</time></trkpt><trkpt lat="45.6791953" lon="9.458263"><ele>193.33333333333334</ele><time>2026-04-21T11:13:19.001Z</time></trkpt><trkpt lat="45.6791595" lon="9.4583479"><ele>195.0</ele><time>2026-04-21T11:13:22.001Z</time></trkpt><trkpt lat="45.6791028" lon="9.45845"><ele>195.0</ele><time>2026-04-21T11:13:25.001Z</time></trkpt><trkpt lat="45.6790616" lon="9.4585247"><ele>195.0</ele><time>2026-04-21T11:13:27.001Z</time></trkpt><trkpt lat="45.6790135" lon="9.4586061"><ele>195.0</ele><time>2026-04-21T11:13:29.001Z</time></trkpt><trkpt lat="45.6789653" lon="9.458682"><ele>195.0</ele><time>2026-04-21T11:13:31.001Z</time></trkpt><trkpt lat="45.6789215" lon="9.4587743"><ele>195.0</ele><time>2026-04-21T11:13:34.001Z</time></trkpt><trkpt lat="45.6788672" lon="9.4588376"><ele>195.0</ele><time>2026-04-21T11:13:37.001Z</time></trkpt><trkpt lat="45.6788047" lon="9.4588795"><ele>195.0</ele><time>2026-04-21T11:13:41.001Z</time></trkpt><trkpt lat="45.6787356" lon="9.4588155"><ele>195.0</ele><time>2026-04-21T11:13:45.001Z</time></trkpt><trkpt lat="45.6787114" lon="9.4587039"><ele>195.0</ele><time>2026-04-21T11:13:49.001Z</time></trkpt><trkpt lat="45.6787214" lon="9.4586053"><ele>195.0</ele><time>2026-04-21T11:13:53.001Z</time></trkpt><trkpt lat="45.6787654" lon="9.4585234"><ele>195.0</ele><time>2026-04-21T11:13:58.001Z</time></trkpt><trkpt lat="45.678799" lon="9.4584324"><ele>195.0</ele><time>2026-04-21T11:14:02.001Z</time></trkpt><trkpt lat="45.6787943" lon="9.4583339"><ele>195.0</ele><time>2026-04-21T11:14:08.001Z</time></trkpt><trkpt lat="45.6788289" lon="9.4582474"><ele>195.0</ele><time>2026-04-21T11:14:13.001Z</time></trkpt><trkpt lat="45.678851" lon="9.4581629"><ele>195.0</ele><time>2026-04-21T11:14:17Z</time></trkpt><trkpt lat="45.678865" lon="9.4580715"><ele>195.0</ele><time>2026-04-21T11:14:21.001Z</time></trkpt><trkpt lat="45.6788715" lon="9.4579701"><ele>195.0</ele><time>2026-04-21T11:14:24.001Z</time></trkpt><trkpt lat="45.6788912" lon="9.4578614"><ele>195.0</ele><time>2026-04-21T11:14:27.001Z</time></trkpt><trkpt lat="45.6789042" lon="9.457755"><ele>195.0</ele><time>2026-04-21T11:14:31.001Z</time></trkpt><trkpt lat="45.678913" lon="9.4576497"><ele>195.0</ele><time>2026-04-21T11:14:35.001Z</time></trkpt><trkpt lat="45.6788845" lon="9.457565"><ele>195.0</ele><time>2026-04-21T11:14:39.001Z</time></trkpt><trkpt lat="45.6788956" lon="9.4574685"><ele>197.33333333333334</ele><time>2026-04-21T11:14:41.001Z</time></trkpt><trkpt lat="45.6788212" lon="9.4575184"><ele>199.66666666666669</ele><time>2026-04-21T11:14:50.001Z</time></trkpt><trkpt lat="45.678777" lon="9.457404"><ele>202.0</ele><time>2026-04-21T11:14:53.001Z</time></trkpt><trkpt lat="45.6787204" lon="9.4574928"><ele>204.33333333333334</ele><time>2026-04-21T11:15:03.001Z</time></trkpt><trkpt lat="45.678663" lon="9.4575364"><ele>206.66666666666669</ele><time>2026-04-21T11:15:11.001Z</time></trkpt><trkpt lat="45.6786066" lon="9.4576559"><ele>209.0</ele><time>2026-04-21T11:15:14.001Z</time></trkpt><trkpt lat="45.6785747" lon="9.4577491"><ele>214.50000000000003</ele><time>2026-04-21T11:15:16.001Z</time></trkpt><trkpt lat="45.6785367" lon="9.4578585"><ele>220.0</ele><time>2026-04-21T11:15:19Z</time></trkpt><trkpt lat="45.6784583" lon="9.4578961"><ele>225.5</ele><time>2026-04-21T11:15:22.001Z</time></trkpt><trkpt lat="45.6784126" lon="9.457798"><ele>231.0</ele><time>2026-04-21T11:15:26.001Z</time></trkpt><trkpt lat="45.6784154" lon="9.457702"><ele>236.50000000000003</ele><time>2026-04-21T11:15:34.001Z</time></trkpt><trkpt lat="45.6784125" lon="9.4576086"><ele>242.0</ele><time>2026-04-21T11:15:44.001Z</time></trkpt><trkpt lat="45.6783738" lon="9.4575111"><ele>242.0</ele><time>2026-04-21T11:15:52.001Z</time></trkpt><trkpt lat="45.6783754" lon="9.457415"><ele>241.99999999999997</ele><time>2026-04-21T11:15:55.001Z</time></trkpt><trkpt lat="45.6783756" lon="9.4573176"><ele>242.0</ele><time>2026-04-21T11:16:00.001Z</time></trkpt><trkpt lat="45.6784042" lon="9.4572179"><ele>242.0</ele><time>2026-04-21T11:16:08.001Z</time></trkpt><trkpt lat="45.6784614" lon="9.457144"><ele>241.99999999999997</ele><time>2026-04-21T11:16:12.001Z</time></trkpt><trkpt lat="45.6785119" lon="9.4570614"><ele>242.0</ele><time>2026-04-21T11:16:16.001Z</time></trkpt><trkpt lat="45.6785661" lon="9.4569726"><ele>242.0</ele><time>2026-04-21T11:16:22.001Z</time></trkpt><trkpt lat="45.6786076" lon="9.4569034"><ele>242.85714285714283</ele><time>2026-04-21T11:16:26.001Z</time></trkpt><trkpt lat="45.678625" lon="9.4568146"><ele>243.7142857142857</ele><time>2026-04-21T11:16:30.001Z</time></trkpt><trkpt lat="45.6786429" lon="9.4566999"><ele>244.57142857142856</ele><time>2026-04-21T11:16:35.001Z</time></trkpt><trkpt lat="45.6786688" lon="9.4566095"><ele>245.42857142857144</ele><time>2026-04-21T11:16:39.001Z</time></trkpt><trkpt lat="45.6786929" lon="9.456501"><ele>246.2857142857143</ele><time>2026-04-21T11:16:42.001Z</time></trkpt><trkpt lat="45.6787197" lon="9.456414"><ele>247.14285714285717</ele><time>2026-04-21T11:16:45.001Z</time></trkpt><trkpt lat="45.6787705" lon="9.456353"><ele>248.0</ele><time>2026-04-21T11:16:50.001Z</time></trkpt><trkpt lat="45.6788089" lon="9.4562467"><ele>248.00000000000003</ele><time>2026-04-21T11:16:54.001Z</time></trkpt><trkpt lat="45.6788435" lon="9.4561503"><ele>248.0</ele><time>2026-04-21T11:16:58.001Z</time></trkpt><trkpt lat="45.6789121" lon="9.4560992"><ele>248.0</ele><time>2026-04-21T11:17:03.001Z</time></trkpt><trkpt lat="45.6789538" lon="9.4560128"><ele>248.0</ele><time>2026-04-21T11:17:07.001Z</time></trkpt><trkpt lat="45.6790157" lon="9.4559432"><ele>248.00000000000003</ele><time>2026-04-21T11:17:11.001Z</time></trkpt><trkpt lat="45.6790796" lon="9.4558816"><ele>248.0</ele><time>2026-04-21T11:17:15.001Z</time></trkpt><trkpt lat="45.6791363" lon="9.4558029"><ele>248.00000000000003</ele><time>2026-04-21T11:17:20.001Z</time></trkpt><trkpt lat="45.6791907" lon="9.4557061"><ele>248.0</ele><time>2026-04-21T11:17:24.001Z</time></trkpt><trkpt lat="45.6792266" lon="9.4556273"><ele>248.0</ele><time>2026-04-21T11:17:27.001Z</time></trkpt><trkpt lat="45.6792748" lon="9.4555412"><ele>248.0</ele><time>2026-04-21T11:17:30.001Z</time></trkpt><trkpt lat="45.6793065" lon="9.4554306"><ele>248.00000000000003</ele><time>2026-04-21T11:17:33.001Z</time></trkpt><trkpt lat="45.6793734" lon="9.4553298"><ele>248.0</ele><time>2026-04-21T11:17:36.001Z</time></trkpt><trkpt lat="45.6794313" lon="9.4552638"><ele>246.50000000000003</ele><time>2026-04-21T11:17:38.001Z</time></trkpt><trkpt lat="45.679491" lon="9.4551916"><ele>245.0</ele><time>2026-04-21T11:17:40.001Z</time></trkpt><trkpt lat="45.6795485" lon="9.4551162"><ele>243.5</ele><time>2026-04-21T11:17:42.001Z</time></trkpt><trkpt lat="45.6796084" lon="9.4550476"><ele>242.0</ele><time>2026-04-21T11:17:44.001Z</time></trkpt><trkpt lat="45.6796715" lon="9.4549837"><ele>240.50000000000003</ele><time>2026-04-21T11:17:46.001Z</time></trkpt><trkpt lat="45.6797384" lon="9.4549186"><ele>239.0</ele><time>2026-04-21T11:17:48.001Z</time></trkpt><trkpt lat="45.6798218" lon="9.4548286"><ele>239.00000000000003</ele><time>2026-04-21T11:17:50.001Z</time></trkpt><trkpt lat="45.6798671" lon="9.4547321"><ele>239.0</ele><time>2026-04-21T11:17:52.001Z</time></trkpt><trkpt lat="45.6799069" lon="9.4546288"><ele>239.0</ele><time>2026-04-21T11:17:54.001Z</time></trkpt><trkpt lat="45.6799427" lon="9.4545129"><ele>239.0</ele><time>2026-04-21T11:17:56.001Z</time></trkpt><trkpt lat="45.6799783" lon="9.4543863"><ele>239.00000000000003</ele><time>2026-04-21T11:17:58.001Z</time></trkpt><trkpt lat="45.6800207" lon="9.4542621"><ele>239.0</ele><time>2026-04-21T11:18:00Z</time></trkpt><trkpt lat="45.6800711" lon="9.4541428"><ele>240.0</ele><time>2026-04-21T11:18:02.001Z</time></trkpt><trkpt lat="45.6801286" lon="9.4540216"><ele>240.99999999999997</ele><time>2026-04-21T11:18:04.001Z</time></trkpt><trkpt lat="45.6801858" lon="9.4539194"><ele>241.99999999999997</ele><time>2026-04-21T11:18:06.001Z</time></trkpt><trkpt lat="45.6802343" lon="9.453821"><ele>243.0</ele><time>2026-04-21T11:18:08.001Z</time></trkpt><trkpt lat="45.680293" lon="9.45373"><ele>244.0</ele><time>2026-04-21T11:18:10.001Z</time></trkpt><trkpt lat="45.6803526" lon="9.4536194"><ele>243.99999999999997</ele><time>2026-04-21T11:18:12.001Z</time></trkpt><trkpt lat="45.6803887" lon="9.4535409"><ele>244.0</ele><time>2026-04-21T11:18:13.001Z</time></trkpt><trkpt lat="45.6804436" lon="9.4534088"><ele>244.0</ele><time>2026-04-21T11:18:15.001Z</time></trkpt><trkpt lat="45.6804959" lon="9.4533266"><ele>244.0</ele><time>2026-04-21T11:18:20.001Z</time></trkpt><trkpt lat="45.6805172" lon="9.4532217"><ele>243.99999999999997</ele><time>2026-04-21T11:18:23.001Z</time></trkpt><trkpt lat="45.6805822" lon="9.4531095"><ele>244.0</ele><time>2026-04-21T11:18:26.001Z</time></trkpt><trkpt lat="45.6806446" lon="9.4529898"><ele>247.75</ele><time>2026-04-21T11:18:28.001Z</time></trkpt><trkpt lat="45.6807082" lon="9.4528507"><ele>251.5</ele><time>2026-04-21T11:18:30.001Z</time></trkpt><trkpt lat="45.680777" lon="9.4527127"><ele>255.25</ele><time>2026-04-21T11:18:32.001Z</time></trkpt><trkpt lat="45.680847" lon="9.4525847"><ele>259.0</ele><time>2026-04-21T11:18:34.001Z</time></trkpt><trkpt lat="45.6809209" lon="9.4524578"><ele>259.0</ele><time>2026-04-21T11:18:36.001Z</time></trkpt><trkpt lat="45.6809888" lon="9.4523373"><ele>259.0</ele><time>2026-04-21T11:18:38.001Z</time></trkpt><trkpt lat="45.6810541" lon="9.4522089"><ele>259.0</ele><time>2026-04-21T11:18:40.001Z</time></trkpt><trkpt lat="45.6811118" lon="9.4520769"><ele>259.0</ele><time>2026-04-21T11:18:42.001Z</time></trkpt><trkpt lat="45.6811687" lon="9.4519607"><ele>259.0</ele><time>2026-04-21T11:18:44.001Z</time></trkpt><trkpt lat="45.681227" lon="9.4518488"><ele>257.16666666666663</ele><time>2026-04-21T11:18:46.001Z</time></trkpt><trkpt lat="45.6812726" lon="9.4517416"><ele>255.33333333333331</ele><time>2026-04-21T11:18:48.001Z</time></trkpt><trkpt lat="45.6813068" lon="9.4516409"><ele>253.5</ele><time>2026-04-21T11:18:50.001Z</time></trkpt><trkpt lat="45.6813643" lon="9.4515479"><ele>251.66666666666669</ele><time>2026-04-21T11:18:52.001Z</time></trkpt><trkpt lat="45.681429" lon="9.4514628"><ele>249.83333333333334</ele><time>2026-04-21T11:18:54.001Z</time></trkpt><trkpt lat="45.681481" lon="9.4513817"><ele>248.0</ele><time>2026-04-21T11:18:57.001Z</time></trkpt><trkpt lat="45.6815279" lon="9.4512964"><ele>250.0</ele><time>2026-04-21T11:19:00.001Z</time></trkpt><trkpt lat="45.6815675" lon="9.451176"><ele>252.0</ele><time>2026-04-21T11:19:04.001Z</time></trkpt><trkpt lat="45.6816076" lon="9.4510813"><ele>254.0</ele><time>2026-04-21T11:19:06.001Z</time></trkpt><trkpt lat="45.6817263" lon="9.4509046"><ele>256.0</ele><time>2026-04-21T11:19:08.001Z</time></trkpt><trkpt lat="45.6817946" lon="9.4507914"><ele>258.0</ele><time>2026-04-21T11:19:10.001Z</time></trkpt><trkpt lat="45.6818612" lon="9.450679"><ele>256.5</ele><time>2026-04-21T11:19:12.001Z</time></trkpt><trkpt lat="45.6819457" lon="9.4505561"><ele>255.0</ele><time>2026-04-21T11:19:14.001Z</time></trkpt><trkpt lat="45.6820087" lon="9.4504338"><ele>253.5</ele><time>2026-04-21T11:19:16.001Z</time></trkpt><trkpt lat="45.6820633" lon="9.4502912"><ele>252.0</ele><time>2026-04-21T11:19:18.001Z</time></trkpt><trkpt lat="45.6821109" lon="9.4501427"><ele>252.0</ele><time>2026-04-21T11:19:20.001Z</time></trkpt><trkpt lat="45.6821625" lon="9.4499981"><ele>252.0</ele><time>2026-04-21T11:19:22.001Z</time></trkpt><trkpt lat="45.6822171" lon="9.4498368"><ele>252.0</ele><time>2026-04-21T11:19:24.001Z</time></trkpt><trkpt lat="45.6822679" lon="9.4497122"><ele>252.0</ele><time>2026-04-21T11:19:26.001Z</time></trkpt><trkpt lat="45.6823152" lon="9.4495622"><ele>254.6</ele><time>2026-04-21T11:19:28.001Z</time></trkpt><trkpt lat="45.6823598" lon="9.4494189"><ele>257.2</ele><time>2026-04-21T11:19:30.001Z</time></trkpt><trkpt lat="45.6824056" lon="9.449274"><ele>259.8</ele><time>2026-04-21T11:19:32Z</time></trkpt><trkpt lat="45.6824388" lon="9.4491385"><ele>262.4</ele><time>2026-04-21T11:19:34.001Z</time></trkpt><trkpt lat="45.6824766" lon="9.4489852"><ele>265.0</ele><time>2026-04-21T11:19:36.001Z</time></trkpt><trkpt lat="45.6825091" lon="9.4488369"><ele>264.8</ele><time>2026-04-21T11:19:38.001Z</time></trkpt><trkpt lat="45.6825626" lon="9.448669"><ele>264.6</ele><time>2026-04-21T11:19:40.001Z</time></trkpt><trkpt lat="45.6826031" lon="9.448535"><ele>264.4</ele><time>2026-04-21T11:19:42.001Z</time></trkpt><trkpt lat="45.6826254" lon="9.4484364"><ele>264.2</ele><time>2026-04-21T11:19:43.001Z</time></trkpt><trkpt lat="45.6826707" lon="9.448304"><ele>264.0</ele><time>2026-04-21T11:19:45.001Z</time></trkpt><trkpt lat="45.6826926" lon="9.4482164"><ele>264.0</ele><time>2026-04-21T11:19:46.001Z</time></trkpt><trkpt lat="45.6827154" lon="9.4480659"><ele>264.0</ele><time>2026-04-21T11:19:48.001Z</time></trkpt><trkpt lat="45.6827711" lon="9.4478946"><ele>264.0</ele><time>2026-04-21T11:19:50.001Z</time></trkpt><trkpt lat="45.6828047" lon="9.4477935"><ele>264.0</ele><time>2026-04-21T11:19:51.001Z</time></trkpt><trkpt lat="45.6828048" lon="9.4476947"><ele>264.0</ele><time>2026-04-21T11:19:52.001Z</time></trkpt><trkpt lat="45.6828424" lon="9.4475756"><ele>264.3333333333333</ele><time>2026-04-21T11:19:54.001Z</time></trkpt><trkpt lat="45.6828972" lon="9.4474316"><ele>264.6666666666667</ele><time>2026-04-21T11:19:56.001Z</time></trkpt><trkpt lat="45.6829343" lon="9.4473299"><ele>265.0</ele><time>2026-04-21T11:19:58.001Z</time></trkpt><trkpt lat="45.6829394" lon="9.4472237"><ele>265.33333333333337</ele><time>2026-04-21T11:19:59.001Z</time></trkpt><trkpt lat="45.682976" lon="9.4471104"><ele>265.6666666666667</ele><time>2026-04-21T11:20:00.001Z</time></trkpt><trkpt lat="45.6829727" lon="9.4469794"><ele>266.0</ele><time>2026-04-21T11:20:02.001Z</time></trkpt><trkpt lat="45.6829837" lon="9.4468669"><ele>266.0</ele><time>2026-04-21T11:20:03.001Z</time></trkpt><trkpt lat="45.682977" lon="9.446752"><ele>266.0</ele><time>2026-04-21T11:20:05.001Z</time></trkpt><trkpt lat="45.6829821" lon="9.4465964"><ele>266.0</ele><time>2026-04-21T11:20:07.001Z</time></trkpt><trkpt lat="45.6829845" lon="9.4464799"><ele>266.0</ele><time>2026-04-21T11:20:09.001Z</time></trkpt><trkpt lat="45.6829914" lon="9.4463204"><ele>266.0</ele><time>2026-04-21T11:20:11.001Z</time></trkpt><trkpt lat="45.6829992" lon="9.4461776"><ele>266.6</ele><time>2026-04-21T11:20:13.001Z</time></trkpt><trkpt lat="45.6830149" lon="9.4460257"><ele>267.20000000000005</ele><time>2026-04-21T11:20:15.001Z</time></trkpt><trkpt lat="45.6830268" lon="9.4458972"><ele>267.79999999999995</ele><time>2026-04-21T11:20:17.001Z</time></trkpt><trkpt lat="45.6830316" lon="9.4457488"><ele>268.4</ele><time>2026-04-21T11:20:19.001Z</time></trkpt><trkpt lat="45.683043" lon="9.4456263"><ele>269.0</ele><time>2026-04-21T11:20:21.001Z</time></trkpt><trkpt lat="45.6830615" lon="9.4455329"><ele>269.59999999999997</ele><time>2026-04-21T11:20:22.001Z</time></trkpt><trkpt lat="45.6830667" lon="9.4453846"><ele>270.2</ele><time>2026-04-21T11:20:24.001Z</time></trkpt><trkpt lat="45.6830667" lon="9.445238"><ele>270.79999999999995</ele><time>2026-04-21T11:20:26.001Z</time></trkpt><trkpt lat="45.6830727" lon="9.4450768"><ele>271.4</ele><time>2026-04-21T11:20:28.001Z</time></trkpt><trkpt lat="45.6830577" lon="9.4449429"><ele>272.0</ele><time>2026-04-21T11:20:30.001Z</time></trkpt><trkpt lat="45.6830627" lon="9.4448348"><ele>272.0</ele><time>2026-04-21T11:20:32.001Z</time></trkpt><trkpt lat="45.6830751" lon="9.4447204"><ele>272.0</ele><time>2026-04-21T11:20:34.001Z</time></trkpt><trkpt lat="45.6831499" lon="9.4446356"><ele>272.0</ele><time>2026-04-21T11:20:36.001Z</time></trkpt><trkpt lat="45.6832438" lon="9.4446322"><ele>272.0</ele><time>2026-04-21T11:20:38.001Z</time></trkpt><trkpt lat="45.6833253" lon="9.4446712"><ele>272.0</ele><time>2026-04-21T11:20:40.001Z</time></trkpt><trkpt lat="45.6834224" lon="9.4446438"><ele>272.0</ele><time>2026-04-21T11:20:42.001Z</time></trkpt><trkpt lat="45.6835194" lon="9.4446344"><ele>272.0</ele><time>2026-04-21T11:20:44.001Z</time></trkpt><trkpt lat="45.6836137" lon="9.4446357"><ele>272.0</ele><time>2026-04-21T11:20:47.001Z</time></trkpt><trkpt lat="45.6837289" lon="9.4447049"><ele>272.0</ele><time>2026-04-21T11:20:49.001Z</time></trkpt><trkpt lat="45.6837086" lon="9.4448687"><ele>272.0</ele><time>2026-04-21T11:20:51.001Z</time></trkpt><trkpt lat="45.6837059" lon="9.4449627"><ele>272.0</ele><time>2026-04-21T11:20:52.001Z</time></trkpt><trkpt lat="45.683725" lon="9.4451353"><ele>272.0</ele><time>2026-04-21T11:20:54.001Z</time></trkpt><trkpt lat="45.6837495" lon="9.44529"><ele>272.0</ele><time>2026-04-21T11:20:56.001Z</time></trkpt><trkpt lat="45.68375" lon="9.4454336"><ele>272.0</ele><time>2026-04-21T11:20:58.001Z</time></trkpt><trkpt lat="45.6837354" lon="9.445585"><ele>272.0</ele><time>2026-04-21T11:21:00.001Z</time></trkpt><trkpt lat="45.6837211" lon="9.4457096"><ele>271.5</ele><time>2026-04-21T11:21:01.001Z</time></trkpt><trkpt lat="45.6837284" lon="9.4458377"><ele>271.0</ele><time>2026-04-21T11:21:03.001Z</time></trkpt><trkpt lat="45.6837229" lon="9.4459769"><ele>270.5</ele><time>2026-04-21T11:21:05.001Z</time></trkpt><trkpt lat="45.683753" lon="9.4460761"><ele>270.0</ele><time>2026-04-21T11:21:07.001Z</time></trkpt><trkpt lat="45.6838236" lon="9.4460771"><ele>269.5</ele><time>2026-04-21T11:21:08.001Z</time></trkpt><trkpt lat="45.6839202" lon="9.4460887"><ele>269.0</ele><time>2026-04-21T11:21:10.001Z</time></trkpt><trkpt lat="45.6840065" lon="9.4461118"><ele>269.0</ele><time>2026-04-21T11:21:12.001Z</time></trkpt><trkpt lat="45.6841033" lon="9.4461412"><ele>269.0</ele><time>2026-04-21T11:21:14.001Z</time></trkpt><trkpt lat="45.6842079" lon="9.446165"><ele>269.0</ele><time>2026-04-21T11:21:16.001Z</time></trkpt><trkpt lat="45.6843132" lon="9.4461758"><ele>269.0</ele><time>2026-04-21T11:21:18.001Z</time></trkpt><trkpt lat="45.6844085" lon="9.4461344"><ele>269.0</ele><time>2026-04-21T11:21:20.001Z</time></trkpt><trkpt lat="45.6845016" lon="9.4461058"><ele>269.0</ele><time>2026-04-21T11:21:22.001Z</time></trkpt><trkpt lat="45.6845704" lon="9.4460767"><ele>269.0</ele><time>2026-04-21T11:21:23.001Z</time></trkpt><trkpt lat="45.6846116" lon="9.4459545"><ele>269.0</ele><time>2026-04-21T11:21:25.001Z</time></trkpt><trkpt lat="45.6846751" lon="9.4458426"><ele>269.0</ele><time>2026-04-21T11:21:27.001Z</time></trkpt><trkpt lat="45.6847006" lon="9.4457122"><ele>269.0</ele><time>2026-04-21T11:21:29.001Z</time></trkpt><trkpt lat="45.6847018" lon="9.445568"><ele>269.6666666666667</ele><time>2026-04-21T11:21:31.001Z</time></trkpt><trkpt lat="45.6846912" lon="9.4454583"><ele>270.33333333333337</ele><time>2026-04-21T11:21:33.001Z</time></trkpt><trkpt lat="45.6846961" lon="9.4453543"><ele>271.0</ele><time>2026-04-21T11:21:35.001Z</time></trkpt><trkpt lat="45.6846782" lon="9.4452211"><ele>271.6666666666667</ele><time>2026-04-21T11:21:37.001Z</time></trkpt><trkpt lat="45.6846662" lon="9.4450969"><ele>272.3333333333333</ele><time>2026-04-21T11:21:39.001Z</time></trkpt><trkpt lat="45.684649" lon="9.4449857"><ele>273.0</ele><time>2026-04-21T11:21:41.001Z</time></trkpt><trkpt lat="45.6846828" lon="9.4448662"><ele>273.0</ele><time>2026-04-21T11:21:43.001Z</time></trkpt><trkpt lat="45.6847913" lon="9.4448495"><ele>273.0</ele><time>2026-04-21T11:21:45.001Z</time></trkpt><trkpt lat="45.6848857" lon="9.4448836"><ele>273.0</ele><time>2026-04-21T11:21:47.001Z</time></trkpt><trkpt lat="45.6849776" lon="9.4448958"><ele>273.0</ele><time>2026-04-21T11:21:49.001Z</time></trkpt><trkpt lat="45.685079" lon="9.4449279"><ele>273.0</ele><time>2026-04-21T11:21:51.001Z</time></trkpt><trkpt lat="45.6851718" lon="9.4449356"><ele>272.8</ele><time>2026-04-21T11:21:53.001Z</time></trkpt><trkpt lat="45.6852831" lon="9.44499"><ele>272.6</ele><time>2026-04-21T11:21:55.001Z</time></trkpt><trkpt lat="45.6853779" lon="9.4450019"><ele>272.4</ele><time>2026-04-21T11:21:57.001Z</time></trkpt><trkpt lat="45.6854757" lon="9.4450374"><ele>272.2</ele><time>2026-04-21T11:21:59.001Z</time></trkpt><trkpt lat="45.6855825" lon="9.4450512"><ele>272.0</ele><time>2026-04-21T11:22:01.001Z</time></trkpt><trkpt lat="45.6856456" lon="9.4450765"><ele>272.0</ele><time>2026-04-21T11:22:02.001Z</time></trkpt><trkpt lat="45.6857523" lon="9.4451147"><ele>272.0</ele><time>2026-04-21T11:22:04.001Z</time></trkpt><trkpt lat="45.6858665" lon="9.4451254"><ele>272.0</ele><time>2026-04-21T11:22:06.001Z</time></trkpt><trkpt lat="45.685975" lon="9.4451539"><ele>272.0</ele><time>2026-04-21T11:22:08.001Z</time></trkpt><trkpt lat="45.6860371" lon="9.4451808"><ele>272.0</ele><time>2026-04-21T11:22:09.001Z</time></trkpt><trkpt lat="45.6861543" lon="9.4452113"><ele>272.4</ele><time>2026-04-21T11:22:11.001Z</time></trkpt><trkpt lat="45.6862707" lon="9.4452437"><ele>272.79999999999995</ele><time>2026-04-21T11:22:13.001Z</time></trkpt><trkpt lat="45.6863808" lon="9.4452706"><ele>273.2</ele><time>2026-04-21T11:22:15.001Z</time></trkpt><trkpt lat="45.6864528" lon="9.4452796"><ele>273.59999999999997</ele><time>2026-04-21T11:22:16.001Z</time></trkpt><trkpt lat="45.6865172" lon="9.4453054"><ele>274.0</ele><time>2026-04-21T11:22:17.001Z</time></trkpt><trkpt lat="45.6866313" lon="9.4452841"><ele>274.0</ele><time>2026-04-21T11:22:19.001Z</time></trkpt><trkpt lat="45.68675" lon="9.4452915"><ele>274.0</ele><time>2026-04-21T11:22:21.001Z</time></trkpt><trkpt lat="45.686866" lon="9.4452627"><ele>274.0</ele><time>2026-04-21T11:22:23.001Z</time></trkpt><trkpt lat="45.6869647" lon="9.4451817"><ele>274.0</ele><time>2026-04-21T11:22:25.001Z</time></trkpt><trkpt lat="45.6870311" lon="9.445169"><ele>274.0</ele><time>2026-04-21T11:22:26.001Z</time></trkpt><trkpt lat="45.6871396" lon="9.4451267"><ele>274.16666666666663</ele><time>2026-04-21T11:22:28.001Z</time></trkpt><trkpt lat="45.687228" lon="9.4451024"><ele>274.3333333333333</ele><time>2026-04-21T11:22:29.001Z</time></trkpt><trkpt lat="45.6872995" lon="9.4450897"><ele>274.5</ele><time>2026-04-21T11:22:30.001Z</time></trkpt><trkpt lat="45.6873857" lon="9.4450819"><ele>274.6666666666667</ele><time>2026-04-21T11:22:31.001Z</time></trkpt><trkpt lat="45.687454" lon="9.4449461"><ele>274.83333333333337</ele><time>2026-04-21T11:22:33.001Z</time></trkpt><trkpt lat="45.6875285" lon="9.4449333"><ele>275.0</ele><time>2026-04-21T11:22:34.001Z</time></trkpt><trkpt lat="45.6876357" lon="9.4448472"><ele>275.0</ele><time>2026-04-21T11:22:36.001Z</time></trkpt><trkpt lat="45.6876772" lon="9.4447634"><ele>275.0</ele><time>2026-04-21T11:22:37.001Z</time></trkpt><trkpt lat="45.6877994" lon="9.4446891"><ele>275.0</ele><time>2026-04-21T11:22:39.001Z</time></trkpt><trkpt lat="45.6878547" lon="9.4446419"><ele>275.0</ele><time>2026-04-21T11:22:40.001Z</time></trkpt><trkpt lat="45.6879607" lon="9.4445657"><ele>275.0</ele><time>2026-04-21T11:22:42.001Z</time></trkpt><trkpt lat="45.6880168" lon="9.4445167"><ele>275.2</ele><time>2026-04-21T11:22:43.001Z</time></trkpt><trkpt lat="45.6880765" lon="9.444478"><ele>275.4</ele><time>2026-04-21T11:22:44.001Z</time></trkpt><trkpt lat="45.68816" lon="9.4443819"><ele>275.6</ele><time>2026-04-21T11:22:46.001Z</time></trkpt><trkpt lat="45.688218" lon="9.4443389"><ele>275.8</ele><time>2026-04-21T11:22:47.001Z</time></trkpt><trkpt lat="45.6883497" lon="9.4442539"><ele>276.0</ele><time>2026-04-21T11:22:49.001Z</time></trkpt><trkpt lat="45.6883875" lon="9.4441651"><ele>276.0</ele><time>2026-04-21T11:22:50.001Z</time></trkpt><trkpt lat="45.6885011" lon="9.4440895"><ele>276.0</ele><time>2026-04-21T11:22:52.001Z</time></trkpt><trkpt lat="45.6885554" lon="9.444035"><ele>276.0</ele><time>2026-04-21T11:22:53.001Z</time></trkpt><trkpt lat="45.6886039" lon="9.4439764"><ele>276.0</ele><time>2026-04-21T11:22:54.001Z</time></trkpt><trkpt lat="45.6886612" lon="9.4439261"><ele>276.0</ele><time>2026-04-21T11:22:55.001Z</time></trkpt><trkpt lat="45.6887827" lon="9.4438346"><ele>275.8571428571429</ele><time>2026-04-21T11:22:57.001Z</time></trkpt><trkpt lat="45.6888418" lon="9.4437957"><ele>275.7142857142857</ele><time>2026-04-21T11:22:58.001Z</time></trkpt><trkpt lat="45.6889104" lon="9.4437431"><ele>275.57142857142856</ele><time>2026-04-21T11:22:59.001Z</time></trkpt><trkpt lat="45.6889695" lon="9.4436917"><ele>275.42857142857144</ele><time>2026-04-21T11:23:00.001Z</time></trkpt><trkpt lat="45.6890218" lon="9.4436407"><ele>275.2857142857143</ele><time>2026-04-21T11:23:01.001Z</time></trkpt><trkpt lat="45.6890735" lon="9.4435886"><ele>275.14285714285717</ele><time>2026-04-21T11:23:02.001Z</time></trkpt><trkpt lat="45.6891335" lon="9.4435428"><ele>275.0</ele><time>2026-04-21T11:23:03.001Z</time></trkpt><trkpt lat="45.6891919" lon="9.4434917"><ele>275.0</ele><time>2026-04-21T11:23:04.001Z</time></trkpt><trkpt lat="45.689255" lon="9.4434555"><ele>275.0</ele><time>2026-04-21T11:23:05.001Z</time></trkpt><trkpt lat="45.6893192" lon="9.4434176"><ele>275.0</ele><time>2026-04-21T11:23:06.001Z</time></trkpt><trkpt lat="45.6893818" lon="9.4433646"><ele>275.0</ele><time>2026-04-21T11:23:07.001Z</time></trkpt><trkpt lat="45.6894375" lon="9.4433158"><ele>275.0</ele><time>2026-04-21T11:23:08.001Z</time></trkpt><trkpt lat="45.6894962" lon="9.4432669"><ele>275.0</ele><time>2026-04-21T11:23:09.001Z</time></trkpt><trkpt lat="45.6895643" lon="9.4432306"><ele>275.0</ele><time>2026-04-21T11:23:10.001Z</time></trkpt><trkpt lat="45.6896259" lon="9.4431819"><ele>275.4</ele><time>2026-04-21T11:23:11.001Z</time></trkpt><trkpt lat="45.6897365" lon="9.4430925"><ele>275.8</ele><time>2026-04-21T11:23:13.001Z</time></trkpt><trkpt lat="45.6897929" lon="9.4430407"><ele>276.2</ele><time>2026-04-21T11:23:14.001Z</time></trkpt><trkpt lat="45.6898893" lon="9.4429151"><ele>276.6</ele><time>2026-04-21T11:23:16.001Z</time></trkpt><trkpt lat="45.6899843" lon="9.4428168"><ele>277.0</ele><time>2026-04-21T11:23:18.001Z</time></trkpt><trkpt lat="45.6900553" lon="9.4427444"><ele>277.16666666666663</ele><time>2026-04-21T11:23:20.001Z</time></trkpt><trkpt lat="45.6901349" lon="9.4426857"><ele>277.3333333333333</ele><time>2026-04-21T11:23:21.001Z</time></trkpt><trkpt lat="45.690228" lon="9.4426075"><ele>277.5</ele><time>2026-04-21T11:23:23.001Z</time></trkpt><trkpt lat="45.6902732" lon="9.4425436"><ele>277.6666666666667</ele><time>2026-04-21T11:23:24.001Z</time></trkpt><trkpt lat="45.6903412" lon="9.442491"><ele>277.83333333333337</ele><time>2026-04-21T11:23:25.001Z</time></trkpt><trkpt lat="45.6904442" lon="9.4424507"><ele>278.0</ele><time>2026-04-21T11:23:27.001Z</time></trkpt><trkpt lat="45.6905562" lon="9.4423787"><ele>278.0</ele><time>2026-04-21T11:23:29.001Z</time></trkpt><trkpt lat="45.6906259" lon="9.442346"><ele>278.0</ele><time>2026-04-21T11:23:30.001Z</time></trkpt><trkpt lat="45.6906718" lon="9.4422795"><ele>278.0</ele><time>2026-04-21T11:23:31.001Z</time></trkpt><trkpt lat="45.6907398" lon="9.4422514"><ele>278.0</ele><time>2026-04-21T11:23:32.001Z</time></trkpt><trkpt lat="45.6908116" lon="9.4422039"><ele>278.0</ele><time>2026-04-21T11:23:33.001Z</time></trkpt><trkpt lat="45.6908824" lon="9.4421479"><ele>278.0</ele><time>2026-04-21T11:23:34.001Z</time></trkpt><trkpt lat="45.6909453" lon="9.4421082"><ele>278.0</ele><time>2026-04-21T11:23:35.001Z</time></trkpt><trkpt lat="45.6910227" lon="9.4421045"><ele>277.1666666666667</ele><time>2026-04-21T11:23:36.001Z</time></trkpt><trkpt lat="45.6911018" lon="9.442072"><ele>276.33333333333337</ele><time>2026-04-21T11:23:37.001Z</time></trkpt><trkpt lat="45.6911805" lon="9.4420577"><ele>275.5</ele><time>2026-04-21T11:23:38.001Z</time></trkpt><trkpt lat="45.6912505" lon="9.4420471"><ele>274.6666666666667</ele><time>2026-04-21T11:23:39.001Z</time></trkpt><trkpt lat="45.691314" lon="9.4420499"><ele>273.8333333333333</ele><time>2026-04-21T11:23:40.001Z</time></trkpt><trkpt lat="45.6913831" lon="9.4420274"><ele>273.0</ele><time>2026-04-21T11:23:42.001Z</time></trkpt><trkpt lat="45.6914478" lon="9.4418957"><ele>273.0</ele><time>2026-04-21T11:23:44.001Z</time></trkpt><trkpt lat="45.6915149" lon="9.4418056"><ele>273.0</ele><time>2026-04-21T11:23:46.001Z</time></trkpt><trkpt lat="45.6915947" lon="9.4417217"><ele>273.0</ele><time>2026-04-21T11:23:48.001Z</time></trkpt><trkpt lat="45.6916684" lon="9.4417304"><ele>273.0</ele><time>2026-04-21T11:23:49.001Z</time></trkpt><trkpt lat="45.6917858" lon="9.4417552"><ele>273.0</ele><time>2026-04-21T11:23:51.001Z</time></trkpt><trkpt lat="45.6918496" lon="9.4417607"><ele>273.0</ele><time>2026-04-21T11:23:52.001Z</time></trkpt><trkpt lat="45.6919671" lon="9.4417755"><ele>273.3333333333333</ele><time>2026-04-21T11:23:54.001Z</time></trkpt><trkpt lat="45.6920807" lon="9.4417767"><ele>273.6666666666667</ele><time>2026-04-21T11:23:56.001Z</time></trkpt><trkpt lat="45.6921497" lon="9.4417869"><ele>274.0</ele><time>2026-04-21T11:23:57.001Z</time></trkpt><trkpt lat="45.6922152" lon="9.4417854"><ele>274.33333333333337</ele><time>2026-04-21T11:23:58.001Z</time></trkpt><trkpt lat="45.6923304" lon="9.4417702"><ele>274.6666666666667</ele><time>2026-04-21T11:24:00.001Z</time></trkpt><trkpt lat="45.6923942" lon="9.4417657"><ele>275.0</ele><time>2026-04-21T11:24:01.001Z</time></trkpt><trkpt lat="45.6924595" lon="9.4417969"><ele>275.0</ele><time>2026-04-21T11:24:02.001Z</time></trkpt><trkpt lat="45.6925633" lon="9.4418014"><ele>275.0</ele><time>2026-04-21T11:24:04.001Z</time></trkpt><trkpt lat="45.6926784" lon="9.4417661"><ele>275.0</ele><time>2026-04-21T11:24:06.001Z</time></trkpt><trkpt lat="45.6927693" lon="9.4417939"><ele>275.0</ele><time>2026-04-21T11:24:07.001Z</time></trkpt><trkpt lat="45.6928801" lon="9.4417499"><ele>275.0</ele><time>2026-04-21T11:24:09.001Z</time></trkpt><trkpt lat="45.6930117" lon="9.4417535"><ele>276.2</ele><time>2026-04-21T11:24:11.001Z</time></trkpt><trkpt lat="45.6931206" lon="9.4417005"><ele>277.4</ele><time>2026-04-21T11:24:13.001Z</time></trkpt><trkpt lat="45.6932153" lon="9.441666"><ele>278.6</ele><time>2026-04-21T11:24:15.001Z</time></trkpt><trkpt lat="45.6933192" lon="9.4416245"><ele>279.8</ele><time>2026-04-21T11:24:17.001Z</time></trkpt><trkpt lat="45.6934174" lon="9.4415728"><ele>281.0</ele><time>2026-04-21T11:24:19.001Z</time></trkpt><trkpt lat="45.6935042" lon="9.4415368"><ele>281.40000000000003</ele><time>2026-04-21T11:24:21.001Z</time></trkpt><trkpt lat="45.6936009" lon="9.4415103"><ele>281.8</ele><time>2026-04-21T11:24:23.001Z</time></trkpt><trkpt lat="45.6936974" lon="9.4414799"><ele>282.20000000000005</ele><time>2026-04-21T11:24:25.001Z</time></trkpt><trkpt lat="45.69379" lon="9.4413996"><ele>282.6</ele><time>2026-04-21T11:24:28.001Z</time></trkpt><trkpt lat="45.6939133" lon="9.441391"><ele>283.0</ele><time>2026-04-21T11:24:30.001Z</time></trkpt><trkpt lat="45.693992" lon="9.4413185"><ele>282.8</ele><time>2026-04-21T11:24:32.001Z</time></trkpt><trkpt lat="45.6940643" lon="9.4412842"><ele>282.6</ele><time>2026-04-21T11:24:33.001Z</time></trkpt><trkpt lat="45.6941482" lon="9.4412317"><ele>282.4</ele><time>2026-04-21T11:24:35.001Z</time></trkpt><trkpt lat="45.6942209" lon="9.4411725"><ele>282.2</ele><time>2026-04-21T11:24:37.001Z</time></trkpt><trkpt lat="45.6943332" lon="9.4411177"><ele>282.0</ele><time>2026-04-21T11:24:39.001Z</time></trkpt><trkpt lat="45.6944371" lon="9.4410654"><ele>282.6666666666667</ele><time>2026-04-21T11:24:41.001Z</time></trkpt><trkpt lat="45.6944996" lon="9.4410511"><ele>283.3333333333333</ele><time>2026-04-21T11:24:42.001Z</time></trkpt><trkpt lat="45.6945993" lon="9.441001"><ele>284.0</ele><time>2026-04-21T11:24:44Z</time></trkpt><trkpt lat="45.6946973" lon="9.4409367"><ele>284.66666666666663</ele><time>2026-04-21T11:24:46.001Z</time></trkpt><trkpt lat="45.6947862" lon="9.4408616"><ele>285.3333333333333</ele><time>2026-04-21T11:24:48.001Z</time></trkpt><trkpt lat="45.6948482" lon="9.4408453"><ele>286.0</ele><time>2026-04-21T11:24:49.001Z</time></trkpt><trkpt lat="45.6950455" lon="9.4408353"><ele>286.0</ele><time>2026-04-21T11:24:53.001Z</time></trkpt><trkpt lat="45.6951817" lon="9.4408527"><ele>286.0</ele><time>2026-04-21T11:24:56.001Z</time></trkpt><trkpt lat="45.6952708" lon="9.4408924"><ele>286.0</ele><time>2026-04-21T11:24:58.001Z</time></trkpt><trkpt lat="45.6953585" lon="9.4409164"><ele>286.0</ele><time>2026-04-21T11:25:00.001Z</time></trkpt><trkpt lat="45.6954629" lon="9.440946"><ele>286.0</ele><time>2026-04-21T11:25:03.001Z</time></trkpt><trkpt lat="45.6955961" lon="9.4409362"><ele>288.0</ele><time>2026-04-21T11:25:07.001Z</time></trkpt><trkpt lat="45.6957903" lon="9.4409454"><ele>290.0</ele><time>2026-04-21T11:25:12.001Z</time></trkpt><trkpt lat="45.6959039" lon="9.4409611"><ele>292.0</ele><time>2026-04-21T11:25:14.001Z</time></trkpt><trkpt lat="45.6960679" lon="9.4409521"><ele>292.66666666666663</ele><time>2026-04-21T11:25:18.001Z</time></trkpt><trkpt lat="45.6961361" lon="9.4409389"><ele>293.3333333333333</ele><time>2026-04-21T11:25:20.001Z</time></trkpt><trkpt lat="45.6962103" lon="9.4409433"><ele>294.0</ele><time>2026-04-21T11:25:26.001Z</time></trkpt><trkpt lat="45.6962853" lon="9.4409497"><ele>294.6666666666667</ele><time>2026-04-21T11:25:28.943Z</time></trkpt><trkpt lat="45.6963709" lon="9.4409369"><ele>295.33333333333337</ele><time>2026-04-21T11:25:31.704Z</time></trkpt><trkpt lat="45.6964514" lon="9.4409291"><ele>296.0</ele><time>2026-04-21T11:25:34.866Z</time></trkpt><trkpt lat="45.6965244" lon="9.4409186"><ele>296.0</ele><time>2026-04-21T11:25:38.001Z</time></trkpt><trkpt lat="45.6965962" lon="9.440898"><ele>296.0</ele><time>2026-04-21T11:25:42.001Z</time></trkpt><trkpt lat="45.6966649" lon="9.4408738"><ele>296.0</ele><time>2026-04-21T11:25:46.001Z</time></trkpt><trkpt lat="45.697072" lon="9.4408299"><ele>297.5</ele><time>2026-04-21T11:25:50.001Z</time></trkpt><trkpt lat="45.69717" lon="9.4408169"><ele>299.0</ele><time>2026-04-21T11:25:51.043Z</time></trkpt><trkpt lat="45.6972625" lon="9.440787"><ele>300.5</ele><time>2026-04-21T11:25:53.001Z</time></trkpt><trkpt lat="45.6973326" lon="9.440764"><ele>302.0</ele><time>2026-04-21T11:25:54.989Z</time></trkpt><trkpt lat="45.6973918" lon="9.4407145"><ele>303.5</ele><time>2026-04-21T11:25:56.863Z</time></trkpt><trkpt lat="45.6974685" lon="9.4406955"><ele>305.0</ele><time>2026-04-21T11:25:59.963Z</time></trkpt><trkpt lat="45.6975392" lon="9.4406806"><ele>305.0</ele><time>2026-04-21T11:26:02.001Z</time></trkpt><trkpt lat="45.6976266" lon="9.4406269"><ele>305.0</ele><time>2026-04-21T11:26:05.001Z</time></trkpt><trkpt lat="45.6976933" lon="9.440598"><ele>305.0</ele><time>2026-04-21T11:26:07.001Z</time></trkpt><trkpt lat="45.6977751" lon="9.4405855"><ele>305.0</ele><time>2026-04-21T11:26:09.001Z</time></trkpt><trkpt lat="45.6978644" lon="9.4405658"><ele>305.0</ele><time>2026-04-21T11:26:11.001Z</time></trkpt><trkpt lat="45.6980638" lon="9.4405097"><ele>306.6666666666667</ele><time>2026-04-21T11:26:12Z</time></trkpt><trkpt lat="45.6981409" lon="9.4404647"><ele>308.33333333333337</ele><time>2026-04-21T11:26:14.001Z</time></trkpt><trkpt lat="45.6982193" lon="9.4404088"><ele>310.0</ele><time>2026-04-21T11:26:16.001Z</time></trkpt><trkpt lat="45.6982984" lon="9.4403584"><ele>311.6666666666667</ele><time>2026-04-21T11:26:18Z</time></trkpt><trkpt lat="45.6983738" lon="9.4403293"><ele>313.3333333333333</ele><time>2026-04-21T11:26:20.001Z</time></trkpt><trkpt lat="45.6984442" lon="9.4402655"><ele>315.0</ele><time>2026-04-21T11:26:22.001Z</time></trkpt><trkpt lat="45.6985021" lon="9.440147"><ele>315.0</ele><time>2026-04-21T11:26:24.001Z</time></trkpt><trkpt lat="45.6985673" lon="9.4400444"><ele>315.0</ele><time>2026-04-21T11:26:26.001Z</time></trkpt><trkpt lat="45.6986248" lon="9.4399289"><ele>315.0</ele><time>2026-04-21T11:26:28Z</time></trkpt><trkpt lat="45.698691" lon="9.4398227"><ele>315.0</ele><time>2026-04-21T11:26:30.001Z</time></trkpt><trkpt lat="45.6987463" lon="9.439714"><ele>315.0</ele><time>2026-04-21T11:26:32.001Z</time></trkpt><trkpt lat="45.6987884" lon="9.4395717"><ele>313.4</ele><time>2026-04-21T11:26:34.001Z</time></trkpt><trkpt lat="45.6988397" lon="9.4394415"><ele>311.8</ele><time>2026-04-21T11:26:36.001Z</time></trkpt><trkpt lat="45.698896" lon="9.4393266"><ele>310.2</ele><time>2026-04-21T11:26:38.001Z</time></trkpt><trkpt lat="45.6989579" lon="9.4392086"><ele>308.6</ele><time>2026-04-21T11:26:40.001Z</time></trkpt><trkpt lat="45.6990205" lon="9.4390774"><ele>307.0</ele><time>2026-04-21T11:26:42.001Z</time></trkpt><trkpt lat="45.6990835" lon="9.4389337"><ele>307.0</ele><time>2026-04-21T11:26:44.001Z</time></trkpt><trkpt lat="45.6990906" lon="9.4388063"><ele>307.0</ele><time>2026-04-21T11:26:45.001Z</time></trkpt><trkpt lat="45.6991736" lon="9.438719"><ele>307.0</ele><time>2026-04-21T11:26:47.001Z</time></trkpt><trkpt lat="45.6992365" lon="9.4386231"><ele>307.0</ele><time>2026-04-21T11:26:49.001Z</time></trkpt><trkpt lat="45.6993032" lon="9.4385282"><ele>307.0</ele><time>2026-04-21T11:26:51.001Z</time></trkpt><trkpt lat="45.69938" lon="9.4384522"><ele>307.16666666666663</ele><time>2026-04-21T11:26:53.001Z</time></trkpt><trkpt lat="45.699412" lon="9.4383581"><ele>307.3333333333333</ele><time>2026-04-21T11:26:54.001Z</time></trkpt><trkpt lat="45.6994775" lon="9.4383336"><ele>307.5</ele><time>2026-04-21T11:26:55.001Z</time></trkpt><trkpt lat="45.6995387" lon="9.4382883"><ele>307.6666666666667</ele><time>2026-04-21T11:26:56.001Z</time></trkpt><trkpt lat="45.6996076" lon="9.4382569"><ele>307.83333333333337</ele><time>2026-04-21T11:26:57.001Z</time></trkpt><trkpt lat="45.6996662" lon="9.4382134"><ele>308.0</ele><time>2026-04-21T11:26:58.001Z</time></trkpt><trkpt lat="45.699811" lon="9.4382344"><ele>308.0</ele><time>2026-04-21T11:27:01.001Z</time></trkpt><trkpt lat="45.6999067" lon="9.438208"><ele>308.0</ele><time>2026-04-21T11:27:03.001Z</time></trkpt><trkpt lat="45.7000053" lon="9.4381242"><ele>308.0</ele><time>2026-04-21T11:27:05.001Z</time></trkpt><trkpt lat="45.700139" lon="9.4380521"><ele>308.0</ele><time>2026-04-21T11:27:07Z</time></trkpt><trkpt lat="45.700235" lon="9.4379478"><ele>307.2</ele><time>2026-04-21T11:27:09.001Z</time></trkpt><trkpt lat="45.7002942" lon="9.4378931"><ele>306.4</ele><time>2026-04-21T11:27:10.001Z</time></trkpt><trkpt lat="45.7004024" lon="9.4377996"><ele>305.59999999999997</ele><time>2026-04-21T11:27:12.001Z</time></trkpt><trkpt lat="45.7005198" lon="9.4377856"><ele>304.8</ele><time>2026-04-21T11:27:14.001Z</time></trkpt><trkpt lat="45.7005848" lon="9.4377938"><ele>304.0</ele><time>2026-04-21T11:27:15.001Z</time></trkpt><trkpt lat="45.7006948" lon="9.4377673"><ele>304.0</ele><time>2026-04-21T11:27:17.001Z</time></trkpt><trkpt lat="45.7007922" lon="9.437745"><ele>304.0</ele><time>2026-04-21T11:27:19.001Z</time></trkpt><trkpt lat="45.7008731" lon="9.4377459"><ele>304.0</ele><time>2026-04-21T11:27:21.001Z</time></trkpt><trkpt lat="45.7009681" lon="9.4377443"><ele>304.0</ele><time>2026-04-21T11:27:23.001Z</time></trkpt><trkpt lat="45.7010467" lon="9.4376534"><ele>304.0</ele><time>2026-04-21T11:27:25.001Z</time></trkpt><trkpt lat="45.7011" lon="9.4375182"><ele>304.25</ele><time>2026-04-21T11:27:27.001Z</time></trkpt><trkpt lat="45.7011634" lon="9.4373927"><ele>304.5</ele><time>2026-04-21T11:27:29.001Z</time></trkpt><trkpt lat="45.7012394" lon="9.4372659"><ele>304.75</ele><time>2026-04-21T11:27:31.001Z</time></trkpt><trkpt lat="45.7013199" lon="9.4371331"><ele>305.0</ele><time>2026-04-21T11:27:33.001Z</time></trkpt><trkpt lat="45.7013692" lon="9.4369899"><ele>305.0</ele><time>2026-04-21T11:27:35.001Z</time></trkpt><trkpt lat="45.7014185" lon="9.436844"><ele>305.0</ele><time>2026-04-21T11:27:37.001Z</time></trkpt><trkpt lat="45.7014806" lon="9.4367112"><ele>305.0</ele><time>2026-04-21T11:27:39.001Z</time></trkpt><trkpt lat="45.7015467" lon="9.4365826"><ele>305.0</ele><time>2026-04-21T11:27:41.001Z</time></trkpt><trkpt lat="45.7016137" lon="9.4364573"><ele>305.0</ele><time>2026-04-21T11:27:43.001Z</time></trkpt><trkpt lat="45.7016752" lon="9.4363246"><ele>305.2</ele><time>2026-04-21T11:27:45.001Z</time></trkpt><trkpt lat="45.7017466" lon="9.4361978"><ele>305.4</ele><time>2026-04-21T11:27:47.001Z</time></trkpt><trkpt lat="45.7018135" lon="9.4360937"><ele>305.6</ele><time>2026-04-21T11:27:49.001Z</time></trkpt><trkpt lat="45.7018804" lon="9.4359959"><ele>305.8</ele><time>2026-04-21T11:27:51.001Z</time></trkpt><trkpt lat="45.7019457" lon="9.4359076"><ele>306.0</ele><time>2026-04-21T11:27:53Z</time></trkpt><trkpt lat="45.7019851" lon="9.4357927"><ele>306.0</ele><time>2026-04-21T11:27:55.001Z</time></trkpt><trkpt lat="45.7020182" lon="9.4356512"><ele>306.0</ele><time>2026-04-21T11:27:57.001Z</time></trkpt><trkpt lat="45.7020584" lon="9.4355214"><ele>306.0</ele><time>2026-04-21T11:27:59.001Z</time></trkpt><trkpt lat="45.702093" lon="9.4353973"><ele>306.0</ele><time>2026-04-21T11:28:01.001Z</time></trkpt><trkpt lat="45.7021296" lon="9.4352803"><ele>306.0</ele><time>2026-04-21T11:28:03.001Z</time></trkpt><trkpt lat="45.702161" lon="9.4351442"><ele>306.0</ele><time>2026-04-21T11:28:05.001Z</time></trkpt><trkpt lat="45.7022108" lon="9.435012"><ele>306.0</ele><time>2026-04-21T11:28:07.001Z</time></trkpt><trkpt lat="45.7022926" lon="9.4348691"><ele>306.0</ele><time>2026-04-21T11:28:09.001Z</time></trkpt><trkpt lat="45.7023579" lon="9.4347381"><ele>306.0</ele><time>2026-04-21T11:28:11.001Z</time></trkpt><trkpt lat="45.7024139" lon="9.4346091"><ele>305.5</ele><time>2026-04-21T11:28:13.001Z</time></trkpt><trkpt lat="45.7024804" lon="9.4344973"><ele>305.0</ele><time>2026-04-21T11:28:15.001Z</time></trkpt><trkpt lat="45.7025909" lon="9.4343344"><ele>304.5</ele><time>2026-04-21T11:28:18.001Z</time></trkpt><trkpt lat="45.7026696" lon="9.4342202"><ele>304.0</ele><time>2026-04-21T11:28:20.001Z</time></trkpt><trkpt lat="45.7027408" lon="9.4340972"><ele>304.4</ele><time>2026-04-21T11:28:22.001Z</time></trkpt><trkpt lat="45.7028032" lon="9.4339614"><ele>304.79999999999995</ele><time>2026-04-21T11:28:24.001Z</time></trkpt><trkpt lat="45.70287" lon="9.4338472"><ele>305.20000000000005</ele><time>2026-04-21T11:28:26.001Z</time></trkpt><trkpt lat="45.7029285" lon="9.4337467"><ele>305.6</ele><time>2026-04-21T11:28:28.001Z</time></trkpt><trkpt lat="45.7029684" lon="9.433644"><ele>306.0</ele><time>2026-04-21T11:28:30.001Z</time></trkpt><trkpt lat="45.7030322" lon="9.4335499"><ele>306.0</ele><time>2026-04-21T11:28:32.001Z</time></trkpt><trkpt lat="45.7030898" lon="9.4334965"><ele>306.0</ele><time>2026-04-21T11:28:34.001Z</time></trkpt><trkpt lat="45.7031427" lon="9.4334319"><ele>306.0</ele><time>2026-04-21T11:28:37.001Z</time></trkpt><trkpt lat="45.7031845" lon="9.4333495"><ele>306.0</ele><time>2026-04-21T11:28:39Z</time></trkpt><trkpt lat="45.7032236" lon="9.4332521"><ele>306.0</ele><time>2026-04-21T11:28:41.001Z</time></trkpt><trkpt lat="45.7032729" lon="9.4331509"><ele>306.0</ele><time>2026-04-21T11:28:43.001Z</time></trkpt><trkpt lat="45.703341" lon="9.4330826"><ele>306.0</ele><time>2026-04-21T11:28:45.001Z</time></trkpt><trkpt lat="45.7034258" lon="9.4330468"><ele>306.0</ele><time>2026-04-21T11:28:47.001Z</time></trkpt><trkpt lat="45.7035156" lon="9.4330105"><ele>306.0</ele><time>2026-04-21T11:28:49.001Z</time></trkpt><trkpt lat="45.7036131" lon="9.4329643"><ele>306.0</ele><time>2026-04-21T11:28:51.001Z</time></trkpt><trkpt lat="45.7036893" lon="9.4329047"><ele>306.0</ele><time>2026-04-21T11:28:53.001Z</time></trkpt><trkpt lat="45.7037636" lon="9.4328495"><ele>306.6666666666667</ele><time>2026-04-21T11:28:55.001Z</time></trkpt><trkpt lat="45.7038399" lon="9.4328122"><ele>307.3333333333333</ele><time>2026-04-21T11:28:57.001Z</time></trkpt><trkpt lat="45.7039076" lon="9.4327714"><ele>308.0</ele><time>2026-04-21T11:28:59.001Z</time></trkpt><trkpt lat="45.7039799" lon="9.4327516"><ele>308.66666666666663</ele><time>2026-04-21T11:29:01.001Z</time></trkpt><trkpt lat="45.7040505" lon="9.4327413"><ele>309.3333333333333</ele><time>2026-04-21T11:29:03.001Z</time></trkpt><trkpt lat="45.7041298" lon="9.4327282"><ele>310.0</ele><time>2026-04-21T11:29:05.001Z</time></trkpt><trkpt lat="45.7042055" lon="9.4327128"><ele>310.0</ele><time>2026-04-21T11:29:07.001Z</time></trkpt><trkpt lat="45.7042934" lon="9.4326984"><ele>310.0</ele><time>2026-04-21T11:29:09.001Z</time></trkpt><trkpt lat="45.7043749" lon="9.4326534"><ele>310.0</ele><time>2026-04-21T11:29:11.001Z</time></trkpt><trkpt lat="45.7044365" lon="9.4326245"><ele>310.0</ele><time>2026-04-21T11:29:13.001Z</time></trkpt><trkpt lat="45.7045023" lon="9.4325375"><ele>310.0</ele><time>2026-04-21T11:29:16.001Z</time></trkpt><trkpt lat="45.7045667" lon="9.4325075"><ele>310.0</ele><time>2026-04-21T11:29:19.001Z</time></trkpt><trkpt lat="45.7046314" lon="9.4324695"><ele>310.42857142857144</ele><time>2026-04-21T11:29:21.001Z</time></trkpt><trkpt lat="45.7046968" lon="9.4324244"><ele>310.85714285714283</ele><time>2026-04-21T11:29:23.001Z</time></trkpt><trkpt lat="45.7047666" lon="9.432368"><ele>311.2857142857143</ele><time>2026-04-21T11:29:25.001Z</time></trkpt><trkpt lat="45.7048242" lon="9.4322932"><ele>311.7142857142857</ele><time>2026-04-21T11:29:27.001Z</time></trkpt><trkpt lat="45.7048794" lon="9.4322253"><ele>312.14285714285717</ele><time>2026-04-21T11:29:29Z</time></trkpt><trkpt lat="45.7049332" lon="9.4321721"><ele>312.57142857142856</ele><time>2026-04-21T11:29:31.001Z</time></trkpt><trkpt lat="45.7049938" lon="9.4321126"><ele>313.0</ele><time>2026-04-21T11:29:33.001Z</time></trkpt><trkpt lat="45.7050527" lon="9.4320493"><ele>313.42857142857144</ele><time>2026-04-21T11:29:35.001Z</time></trkpt><trkpt lat="45.705115" lon="9.4320117"><ele>313.8571428571429</ele><time>2026-04-21T11:29:37.001Z</time></trkpt><trkpt lat="45.7051755" lon="9.4319223"><ele>314.28571428571433</ele><time>2026-04-21T11:29:40.001Z</time></trkpt><trkpt lat="45.7052262" lon="9.4318426"><ele>314.7142857142857</ele><time>2026-04-21T11:29:43Z</time></trkpt><trkpt lat="45.7052542" lon="9.4317591"><ele>315.14285714285717</ele><time>2026-04-21T11:29:46.001Z</time></trkpt><trkpt lat="45.7052895" lon="9.4316769"><ele>315.5714285714286</ele><time>2026-04-21T11:29:48.001Z</time></trkpt><trkpt lat="45.7053501" lon="9.4316076"><ele>316.0</ele><time>2026-04-21T11:29:50.001Z</time></trkpt><trkpt lat="45.7054274" lon="9.4315418"><ele>316.0</ele><time>2026-04-21T11:29:53.001Z</time></trkpt><trkpt lat="45.7054874" lon="9.4314118"><ele>316.0</ele><time>2026-04-21T11:29:56.001Z</time></trkpt><trkpt lat="45.7055544" lon="9.431308"><ele>316.0</ele><time>2026-04-21T11:29:58.001Z</time></trkpt><trkpt lat="45.7055755" lon="9.43122"><ele>316.0</ele><time>2026-04-21T11:30:01.001Z</time></trkpt><trkpt lat="45.7056087" lon="9.4311383"><ele>316.0</ele><time>2026-04-21T11:30:03.001Z</time></trkpt><trkpt lat="45.7056833" lon="9.4310829"><ele>316.0</ele><time>2026-04-21T11:30:06.001Z</time></trkpt><trkpt lat="45.7057558" lon="9.4309836"><ele>316.3333333333333</ele><time>2026-04-21T11:30:09.001Z</time></trkpt><trkpt lat="45.7058305" lon="9.4309038"><ele>316.66666666666663</ele><time>2026-04-21T11:30:11.001Z</time></trkpt><trkpt lat="45.7058793" lon="9.4308027"><ele>317.0</ele><time>2026-04-21T11:30:14.001Z</time></trkpt><trkpt lat="45.7059526" lon="9.4307393"><ele>317.3333333333333</ele><time>2026-04-21T11:30:17.001Z</time></trkpt><trkpt lat="45.7060122" lon="9.4306491"><ele>317.6666666666667</ele><time>2026-04-21T11:30:21.001Z</time></trkpt><trkpt lat="45.7060658" lon="9.4305883"><ele>318.0</ele><time>2026-04-21T11:30:23.001Z</time></trkpt><trkpt lat="45.7061444" lon="9.4304963"><ele>320.0</ele><time>2026-04-21T11:30:25.001Z</time></trkpt><trkpt lat="45.706232" lon="9.4304328"><ele>322.0</ele><time>2026-04-21T11:30:27.001Z</time></trkpt><trkpt lat="45.7063098" lon="9.4303872"><ele>324.0</ele><time>2026-04-21T11:30:28.001Z</time></trkpt><trkpt lat="45.7064196" lon="9.4303445"><ele>326.0</ele><time>2026-04-21T11:30:30.001Z</time></trkpt><trkpt lat="45.7065281" lon="9.4302999"><ele>328.0</ele><time>2026-04-21T11:30:32.001Z</time></trkpt><trkpt lat="45.7065945" lon="9.4302682"><ele>328.0</ele><time>2026-04-21T11:30:33.001Z</time></trkpt><trkpt lat="45.706686" lon="9.4302306"><ele>328.0</ele><time>2026-04-21T11:30:34.001Z</time></trkpt><trkpt lat="45.7068088" lon="9.43015"><ele>328.0</ele><time>2026-04-21T11:30:36.001Z</time></trkpt><trkpt lat="45.7068651" lon="9.4301053"><ele>328.0</ele><time>2026-04-21T11:30:37.001Z</time></trkpt><trkpt lat="45.7069285" lon="9.4300723"><ele>328.0</ele><time>2026-04-21T11:30:38.001Z</time></trkpt><trkpt lat="45.7070067" lon="9.4300383"><ele>328.0</ele><time>2026-04-21T11:30:39.001Z</time></trkpt><trkpt lat="45.707065" lon="9.4299499"><ele>327.3333333333333</ele><time>2026-04-21T11:30:40.001Z</time></trkpt><trkpt lat="45.7071229" lon="9.4298812"><ele>326.66666666666663</ele><time>2026-04-21T11:30:41.001Z</time></trkpt><trkpt lat="45.7072008" lon="9.4297918"><ele>326.0</ele><time>2026-04-21T11:30:42.001Z</time></trkpt><trkpt lat="45.7072752" lon="9.4298085"><ele>325.3333333333333</ele><time>2026-04-21T11:30:43.001Z</time></trkpt><trkpt lat="45.7073186" lon="9.4297363"><ele>324.6666666666667</ele><time>2026-04-21T11:30:44.001Z</time></trkpt><trkpt lat="45.7073871" lon="9.4296059"><ele>324.0</ele><time>2026-04-21T11:30:46.001Z</time></trkpt><trkpt lat="45.7074715" lon="9.429538"><ele>324.0</ele><time>2026-04-21T11:30:48.001Z</time></trkpt><trkpt lat="45.707541" lon="9.429471"><ele>324.0</ele><time>2026-04-21T11:30:50.001Z</time></trkpt><trkpt lat="45.7075974" lon="9.4293697"><ele>324.0</ele><time>2026-04-21T11:30:53.001Z</time></trkpt><trkpt lat="45.7076165" lon="9.4292792"><ele>324.0</ele><time>2026-04-21T11:30:55.001Z</time></trkpt><trkpt lat="45.7076545" lon="9.4292012"><ele>324.0</ele><time>2026-04-21T11:30:58.001Z</time></trkpt><trkpt lat="45.7077082" lon="9.4290906"><ele>324.0</ele><time>2026-04-21T11:31:02.001Z</time></trkpt><trkpt lat="45.7077197" lon="9.4289784"><ele>324.0</ele><time>2026-04-21T11:31:04.001Z</time></trkpt><trkpt lat="45.7077378" lon="9.4288577"><ele>324.0</ele><time>2026-04-21T11:31:06.001Z</time></trkpt><trkpt lat="45.7077617" lon="9.4287344"><ele>324.0</ele><time>2026-04-21T11:31:08.001Z</time></trkpt><trkpt lat="45.7077948" lon="9.4286343"><ele>324.0</ele><time>2026-04-21T11:31:10.001Z</time></trkpt><trkpt lat="45.70782" lon="9.4285226"><ele>324.0</ele><time>2026-04-21T11:31:12.001Z</time></trkpt><trkpt lat="45.7078438" lon="9.4284378"><ele>324.0</ele><time>2026-04-21T11:31:14.001Z</time></trkpt><trkpt lat="45.7078591" lon="9.4283484"><ele>323.5</ele><time>2026-04-21T11:31:16.001Z</time></trkpt><trkpt lat="45.7078083" lon="9.4282486"><ele>323.0</ele><time>2026-04-21T11:31:18.001Z</time></trkpt><trkpt lat="45.7077365" lon="9.4281944"><ele>322.5</ele><time>2026-04-21T11:31:20.001Z</time></trkpt><trkpt lat="45.7076736" lon="9.4281563"><ele>322.0</ele><time>2026-04-21T11:31:22.001Z</time></trkpt><trkpt lat="45.7075827" lon="9.4281375"><ele>321.5</ele><time>2026-04-21T11:31:25.001Z</time></trkpt><trkpt lat="45.7074897" lon="9.4281084"><ele>321.0</ele><time>2026-04-21T11:31:28.001Z</time></trkpt><trkpt lat="45.7074239" lon="9.4280579"><ele>322.20000000000005</ele><time>2026-04-21T11:31:30.001Z</time></trkpt><trkpt lat="45.7073867" lon="9.427967"><ele>323.40000000000003</ele><time>2026-04-21T11:31:33.001Z</time></trkpt><trkpt lat="45.7074967" lon="9.4278386"><ele>324.6</ele><time>2026-04-21T11:31:35.001Z</time></trkpt><trkpt lat="45.7075634" lon="9.4277275"><ele>325.8</ele><time>2026-04-21T11:31:37.001Z</time></trkpt><trkpt lat="45.7076108" lon="9.4276134"><ele>327.0</ele><time>2026-04-21T11:31:39.001Z</time></trkpt><trkpt lat="45.707628" lon="9.4275146"><ele>327.0</ele><time>2026-04-21T11:31:40.001Z</time></trkpt><trkpt lat="45.7076358" lon="9.4273782"><ele>327.0</ele><time>2026-04-21T11:31:42.001Z</time></trkpt><trkpt lat="45.7076041" lon="9.4272408"><ele>327.0</ele><time>2026-04-21T11:31:44.001Z</time></trkpt><trkpt lat="45.70757" lon="9.4271039"><ele>327.0</ele><time>2026-04-21T11:31:46.001Z</time></trkpt><trkpt lat="45.7075308" lon="9.4269794"><ele>327.0</ele><time>2026-04-21T11:31:48.001Z</time></trkpt><trkpt lat="45.7074819" lon="9.4268465"><ele>326.6</ele><time>2026-04-21T11:31:50.001Z</time></trkpt><trkpt lat="45.7074441" lon="9.4267412"><ele>326.20000000000005</ele><time>2026-04-21T11:31:52.001Z</time></trkpt><trkpt lat="45.7074632" lon="9.4266187"><ele>325.8</ele><time>2026-04-21T11:31:53.001Z</time></trkpt><trkpt lat="45.7075309" lon="9.4264734"><ele>325.4</ele><time>2026-04-21T11:31:55.001Z</time></trkpt><trkpt lat="45.7075584" lon="9.4263811"><ele>325.0</ele><time>2026-04-21T11:31:56.001Z</time></trkpt><trkpt lat="45.7075537" lon="9.4262443"><ele>325.0</ele><time>2026-04-21T11:31:58.001Z</time></trkpt><trkpt lat="45.7075383" lon="9.4260954"><ele>325.0</ele><time>2026-04-21T11:32:00.001Z</time></trkpt><trkpt lat="45.7074779" lon="9.426003"><ele>325.0</ele><time>2026-04-21T11:32:02.001Z</time></trkpt><trkpt lat="45.7074258" lon="9.4258754"><ele>325.0</ele><time>2026-04-21T11:32:04.001Z</time></trkpt><trkpt lat="45.7073632" lon="9.425766"><ele>325.0</ele><time>2026-04-21T11:32:06.001Z</time></trkpt><trkpt lat="45.7073266" lon="9.4256699"><ele>325.0</ele><time>2026-04-21T11:32:08.001Z</time></trkpt><trkpt lat="45.7072624" lon="9.4255527"><ele>325.0</ele><time>2026-04-21T11:32:10.001Z</time></trkpt><trkpt lat="45.7072588" lon="9.4254195"><ele>325.0</ele><time>2026-04-21T11:32:12.001Z</time></trkpt><trkpt lat="45.7072235" lon="9.4252925"><ele>325.0</ele><time>2026-04-21T11:32:14.001Z</time></trkpt><trkpt lat="45.7071544" lon="9.4251555"><ele>325.0</ele><time>2026-04-21T11:32:16.001Z</time></trkpt><trkpt lat="45.7070672" lon="9.4250822"><ele>325.0</ele><time>2026-04-21T11:32:18.001Z</time></trkpt><trkpt lat="45.7070047" lon="9.4249955"><ele>325.0</ele><time>2026-04-21T11:32:20.001Z</time></trkpt><trkpt lat="45.7069447" lon="9.4249043"><ele>325.0</ele><time>2026-04-21T11:32:22.001Z</time></trkpt><trkpt lat="45.7069224" lon="9.4248121"><ele>325.0</ele><time>2026-04-21T11:32:24.001Z</time></trkpt><trkpt lat="45.7069271" lon="9.4247091"><ele>325.0</ele><time>2026-04-21T11:32:26.001Z</time></trkpt><trkpt lat="45.7069563" lon="9.4246024"><ele>325.0</ele><time>2026-04-21T11:32:28Z</time></trkpt><trkpt lat="45.7069804" lon="9.4244745"><ele>325.5</ele><time>2026-04-21T11:32:30.001Z</time></trkpt><trkpt lat="45.7070031" lon="9.4243832"><ele>326.0</ele><time>2026-04-21T11:32:31.001Z</time></trkpt><trkpt lat="45.7070527" lon="9.4242433"><ele>326.5</ele><time>2026-04-21T11:32:33.001Z</time></trkpt><trkpt lat="45.7070771" lon="9.4241065"><ele>327.0</ele><time>2026-04-21T11:32:35.001Z</time></trkpt><trkpt lat="45.7070903" lon="9.4239801"><ele>327.5</ele><time>2026-04-21T11:32:37.001Z</time></trkpt><trkpt lat="45.7070885" lon="9.4238757"><ele>328.0</ele><time>2026-04-21T11:32:39.001Z</time></trkpt><trkpt lat="45.707055" lon="9.423791"><ele>328.99999999999994</ele><time>2026-04-21T11:32:41.001Z</time></trkpt><trkpt lat="45.7069606" lon="9.4237612"><ele>330.0</ele><time>2026-04-21T11:32:44.001Z</time></trkpt><trkpt lat="45.706906" lon="9.4237119"><ele>331.0</ele><time>2026-04-21T11:32:46.001Z</time></trkpt><trkpt lat="45.7068516" lon="9.4236659"><ele>332.0</ele><time>2026-04-21T11:32:48.001Z</time></trkpt><trkpt lat="45.706765" lon="9.4236145"><ele>333.0</ele><time>2026-04-21T11:32:51.001Z</time></trkpt><trkpt lat="45.7067076" lon="9.4235767"><ele>333.99999999999994</ele><time>2026-04-21T11:32:53.001Z</time></trkpt><trkpt lat="45.7066497" lon="9.4235373"><ele>335.0</ele><time>2026-04-21T11:32:55.001Z</time></trkpt><trkpt lat="45.7065927" lon="9.4234878"><ele>336.33333333333337</ele><time>2026-04-21T11:32:57.001Z</time></trkpt><trkpt lat="45.7065146" lon="9.4234924"><ele>337.6666666666667</ele><time>2026-04-21T11:33:01.001Z</time></trkpt><trkpt lat="45.706446" lon="9.4235361"><ele>339.0</ele><time>2026-04-21T11:33:05.001Z</time></trkpt><trkpt lat="45.7063813" lon="9.4235565"><ele>340.3333333333333</ele><time>2026-04-21T11:33:07.001Z</time></trkpt><trkpt lat="45.7062972" lon="9.423543"><ele>341.66666666666663</ele><time>2026-04-21T11:33:09.001Z</time></trkpt><trkpt lat="45.7062175" lon="9.4235061"><ele>343.0</ele><time>2026-04-21T11:33:11.001Z</time></trkpt><trkpt lat="45.7061566" lon="9.4234528"><ele>343.0</ele><time>2026-04-21T11:33:13.001Z</time></trkpt><trkpt lat="45.7061001" lon="9.4234043"><ele>343.0</ele><time>2026-04-21T11:33:15.001Z</time></trkpt><trkpt lat="45.7060553" lon="9.4233353"><ele>343.0</ele><time>2026-04-21T11:33:18.001Z</time></trkpt><trkpt lat="45.7059991" lon="9.4232591"><ele>343.0</ele><time>2026-04-21T11:33:21.001Z</time></trkpt><trkpt lat="45.7059418" lon="9.4231958"><ele>343.0</ele><time>2026-04-21T11:33:24.001Z</time></trkpt><trkpt lat="45.705873" lon="9.4231501"><ele>343.0</ele><time>2026-04-21T11:33:26.001Z</time></trkpt><trkpt lat="45.7058122" lon="9.4231134"><ele>343.0</ele><time>2026-04-21T11:33:28.001Z</time></trkpt><trkpt lat="45.7057289" lon="9.4230775"><ele>343.0</ele><time>2026-04-21T11:33:31.001Z</time></trkpt><trkpt lat="45.7056639" lon="9.4230489"><ele>343.0</ele><time>2026-04-21T11:33:34.001Z</time></trkpt><trkpt lat="45.7055933" lon="9.4229749"><ele>343.0</ele><time>2026-04-21T11:33:37.001Z</time></trkpt><trkpt lat="45.7054952" lon="9.4229329"><ele>343.0</ele><time>2026-04-21T11:33:39.001Z</time></trkpt><trkpt lat="45.7054006" lon="9.4229075"><ele>343.0</ele><time>2026-04-21T11:33:41.001Z</time></trkpt><trkpt lat="45.705324" lon="9.4228992"><ele>343.0</ele><time>2026-04-21T11:33:42.001Z</time></trkpt><trkpt lat="45.7052504" lon="9.4228716"><ele>344.0</ele><time>2026-04-21T11:33:43.001Z</time></trkpt><trkpt lat="45.7051439" lon="9.4228605"><ele>345.0</ele><time>2026-04-21T11:33:45.001Z</time></trkpt><trkpt lat="45.705069" lon="9.4228482"><ele>346.0</ele><time>2026-04-21T11:33:46.001Z</time></trkpt><trkpt lat="45.7049977" lon="9.4228422"><ele>347.0</ele><time>2026-04-21T11:33:47.001Z</time></trkpt><trkpt lat="45.7049217" lon="9.4228349"><ele>348.0</ele><time>2026-04-21T11:33:48.001Z</time></trkpt><trkpt lat="45.7048471" lon="9.4228458"><ele>349.0</ele><time>2026-04-21T11:33:49.001Z</time></trkpt><trkpt lat="45.704725" lon="9.422841"><ele>349.0</ele><time>2026-04-21T11:33:51.001Z</time></trkpt><trkpt lat="45.7046336" lon="9.4228532"><ele>349.0</ele><time>2026-04-21T11:33:53.001Z</time></trkpt><trkpt lat="45.7045131" lon="9.4228475"><ele>349.0</ele><time>2026-04-21T11:33:55.001Z</time></trkpt><trkpt lat="45.70445" lon="9.422857"><ele>349.0</ele><time>2026-04-21T11:33:56.001Z</time></trkpt><trkpt lat="45.7043374" lon="9.422843"><ele>349.0</ele><time>2026-04-21T11:33:58.001Z</time></trkpt><trkpt lat="45.7042553" lon="9.4228317"><ele>348.0</ele><time>2026-04-21T11:34:01.001Z</time></trkpt><trkpt lat="45.7041884" lon="9.4227893"><ele>347.0</ele><time>2026-04-21T11:34:06.001Z</time></trkpt><trkpt lat="45.7039971" lon="9.4226159"><ele>346.0</ele><time>2026-04-21T11:34:09.995Z</time></trkpt><trkpt lat="45.703871" lon="9.4225509"><ele>345.0</ele><time>2026-04-21T11:34:10.994Z</time></trkpt><trkpt lat="45.703789" lon="9.4224895"><ele>345.0</ele><time>2026-04-21T11:34:11.997Z</time></trkpt><trkpt lat="45.7037114" lon="9.4224478"><ele>345.0</ele><time>2026-04-21T11:34:12.996Z</time></trkpt><trkpt lat="45.7036028" lon="9.4223979"><ele>345.0</ele><time>2026-04-21T11:34:14.992Z</time></trkpt><trkpt lat="45.7035069" lon="9.4223642"><ele>345.0</ele><time>2026-04-21T11:34:16.992Z</time></trkpt><trkpt lat="45.7034135" lon="9.4223425"><ele>345.0</ele><time>2026-04-21T11:34:18.992Z</time></trkpt><trkpt lat="45.7033346" lon="9.4222522"><ele>342.0</ele><time>2026-04-21T11:34:20.992Z</time></trkpt><trkpt lat="45.7032871" lon="9.4221603"><ele>339.0</ele><time>2026-04-21T11:34:23.992Z</time></trkpt><trkpt lat="45.7030779" lon="9.421963"><ele>336.0</ele><time>2026-04-21T11:34:30.992Z</time></trkpt><trkpt lat="45.702987" lon="9.4218273"><ele>335.4</ele><time>2026-04-21T11:34:32.992Z</time></trkpt><trkpt lat="45.7028923" lon="9.4217903"><ele>334.8</ele><time>2026-04-21T11:34:34.992Z</time></trkpt><trkpt lat="45.7028174" lon="9.4217521"><ele>334.2</ele><time>2026-04-21T11:34:36.992Z</time></trkpt><trkpt lat="45.7026764" lon="9.4217373"><ele>333.59999999999997</ele><time>2026-04-21T11:34:38.992Z</time></trkpt><trkpt lat="45.7026097" lon="9.4217319"><ele>333.0</ele><time>2026-04-21T11:34:39.992Z</time></trkpt><trkpt lat="45.7025044" lon="9.4216849"><ele>331.3333333333333</ele><time>2026-04-21T11:34:41.992Z</time></trkpt><trkpt lat="45.7024412" lon="9.4216575"><ele>329.6666666666667</ele><time>2026-04-21T11:34:43.992Z</time></trkpt><trkpt lat="45.7023659" lon="9.4216582"><ele>328.0</ele><time>2026-04-21T11:34:46.992Z</time></trkpt><trkpt lat="45.7023868" lon="9.4217658"><ele>326.33333333333337</ele><time>2026-04-21T11:34:50.992Z</time></trkpt><trkpt lat="45.7024134" lon="9.4218882"><ele>324.6666666666667</ele><time>2026-04-21T11:34:52.992Z</time></trkpt><trkpt lat="45.7024532" lon="9.4219867"><ele>323.0</ele><time>2026-04-21T11:34:54.992Z</time></trkpt><trkpt lat="45.7023922" lon="9.4219614"><ele>323.0</ele><time>2026-04-21T11:34:55.992Z</time></trkpt><trkpt lat="45.7024409" lon="9.4220432"><ele>323.0</ele><time>2026-04-21T11:34:56.992Z</time></trkpt><trkpt lat="45.7024741" lon="9.4221246"><ele>323.0</ele><time>2026-04-21T11:34:57.992Z</time></trkpt><trkpt lat="45.7025282" lon="9.4222785"><ele>323.0</ele><time>2026-04-21T11:34:59.992Z</time></trkpt><trkpt lat="45.7025873" lon="9.4223664"><ele>323.0</ele><time>2026-04-21T11:35:01.992Z</time></trkpt><trkpt lat="45.7026628" lon="9.4225068"><ele>323.0</ele><time>2026-04-21T11:35:03.992Z</time></trkpt><trkpt lat="45.7026912" lon="9.4225933"><ele>323.0</ele><time>2026-04-21T11:35:04.992Z</time></trkpt><trkpt lat="45.70272" lon="9.4226762"><ele>323.0</ele><time>2026-04-21T11:35:05.992Z</time></trkpt><trkpt lat="45.7027472" lon="9.4228368"><ele>323.0</ele><time>2026-04-21T11:35:07.992Z</time></trkpt><trkpt lat="45.7027425" lon="9.422986"><ele>323.0</ele><time>2026-04-21T11:35:09.992Z</time></trkpt><trkpt lat="45.7027006" lon="9.4231394"><ele>322.79999999999995</ele><time>2026-04-21T11:35:11.992Z</time></trkpt><trkpt lat="45.7026755" lon="9.4233054"><ele>322.6</ele><time>2026-04-21T11:35:13.992Z</time></trkpt><trkpt lat="45.7026408" lon="9.4234645"><ele>322.4</ele><time>2026-04-21T11:35:15.992Z</time></trkpt><trkpt lat="45.7026079" lon="9.4236185"><ele>322.20000000000005</ele><time>2026-04-21T11:35:17.992Z</time></trkpt><trkpt lat="45.7025924" lon="9.4237602"><ele>322.0</ele><time>2026-04-21T11:35:19.992Z</time></trkpt><trkpt lat="45.7025936" lon="9.4239103"><ele>322.0</ele><time>2026-04-21T11:35:21.992Z</time></trkpt><trkpt lat="45.7026028" lon="9.4240574"><ele>322.0</ele><time>2026-04-21T11:35:23.992Z</time></trkpt><trkpt lat="45.7026135" lon="9.4241997"><ele>322.0</ele><time>2026-04-21T11:35:25.992Z</time></trkpt><trkpt lat="45.7026376" lon="9.4243259"><ele>322.0</ele><time>2026-04-21T11:35:27.991Z</time></trkpt><trkpt lat="45.7026779" lon="9.4244495"><ele>322.0</ele><time>2026-04-21T11:35:29.992Z</time></trkpt><trkpt lat="45.7027438" lon="9.4245713"><ele>323.3333333333333</ele><time>2026-04-21T11:35:31.992Z</time></trkpt><trkpt lat="45.702815" lon="9.4246696"><ele>324.66666666666663</ele><time>2026-04-21T11:35:33.992Z</time></trkpt><trkpt lat="45.7028922" lon="9.4247308"><ele>326.0</ele><time>2026-04-21T11:35:35.991Z</time></trkpt><trkpt lat="45.7029747" lon="9.424759"><ele>327.3333333333333</ele><time>2026-04-21T11:35:37.992Z</time></trkpt><trkpt lat="45.7030529" lon="9.4247834"><ele>328.6666666666667</ele><time>2026-04-21T11:35:39.992Z</time></trkpt><trkpt lat="45.7031277" lon="9.4248094"><ele>330.0</ele><time>2026-04-21T11:35:41.992Z</time></trkpt><trkpt lat="45.7032028" lon="9.4248265"><ele>330.0</ele><time>2026-04-21T11:35:43.992Z</time></trkpt><trkpt lat="45.7032783" lon="9.424841"><ele>330.0</ele><time>2026-04-21T11:35:45.992Z</time></trkpt><trkpt lat="45.7033551" lon="9.4248445"><ele>330.0</ele><time>2026-04-21T11:35:47.992Z</time></trkpt><trkpt lat="45.703438" lon="9.4248589"><ele>330.0</ele><time>2026-04-21T11:35:49.992Z</time></trkpt><trkpt lat="45.7035246" lon="9.4248748"><ele>330.0</ele><time>2026-04-21T11:35:51.991Z</time></trkpt><trkpt lat="45.7036121" lon="9.4249041"><ele>330.0</ele><time>2026-04-21T11:35:53.992Z</time></trkpt><trkpt lat="45.7036999" lon="9.4249314"><ele>331.0</ele><time>2026-04-21T11:35:55.992Z</time></trkpt><trkpt lat="45.7037884" lon="9.4249614"><ele>332.0</ele><time>2026-04-21T11:35:57.992Z</time></trkpt><trkpt lat="45.7038789" lon="9.4250001"><ele>333.0</ele><time>2026-04-21T11:35:59.992Z</time></trkpt><trkpt lat="45.7039659" lon="9.4250495"><ele>334.0</ele><time>2026-04-21T11:36:01.992Z</time></trkpt><trkpt lat="45.7040542" lon="9.4251264"><ele>335.0</ele><time>2026-04-21T11:36:03.992Z</time></trkpt><trkpt lat="45.7041497" lon="9.4252066"><ele>335.0</ele><time>2026-04-21T11:36:05.992Z</time></trkpt><trkpt lat="45.7042489" lon="9.4252981"><ele>335.0</ele><time>2026-04-21T11:36:07.992Z</time></trkpt><trkpt lat="45.7043489" lon="9.4254002"><ele>335.0</ele><time>2026-04-21T11:36:09.992Z</time></trkpt><trkpt lat="45.7044399" lon="9.4255148"><ele>335.0</ele><time>2026-04-21T11:36:11.992Z</time></trkpt><trkpt lat="45.7045028" lon="9.4256816"><ele>335.0</ele><time>2026-04-21T11:36:13.992Z</time></trkpt><trkpt lat="45.704552" lon="9.4258402"><ele>335.0</ele><time>2026-04-21T11:36:15.992Z</time></trkpt><trkpt lat="45.7045787" lon="9.4260042"><ele>335.0</ele><time>2026-04-21T11:36:17.992Z</time></trkpt><trkpt lat="45.7046171" lon="9.4261606"><ele>335.0</ele><time>2026-04-21T11:36:19.992Z</time></trkpt><trkpt lat="45.7046591" lon="9.4263217"><ele>334.2</ele><time>2026-04-21T11:36:21.992Z</time></trkpt><trkpt lat="45.7046984" lon="9.4264796"><ele>333.4</ele><time>2026-04-21T11:36:23.992Z</time></trkpt><trkpt lat="45.7047358" lon="9.4266192"><ele>332.6</ele><time>2026-04-21T11:36:25.992Z</time></trkpt><trkpt lat="45.7047749" lon="9.4267757"><ele>331.8</ele><time>2026-04-21T11:36:27.992Z</time></trkpt><trkpt lat="45.7048011" lon="9.4268701"><ele>331.0</ele><time>2026-04-21T11:36:28.992Z</time></trkpt><trkpt lat="45.7048277" lon="9.426965"><ele>331.0</ele><time>2026-04-21T11:36:29.992Z</time></trkpt><trkpt lat="45.7049242" lon="9.4270867"><ele>331.0</ele><time>2026-04-21T11:36:31.992Z</time></trkpt><trkpt lat="45.7050406" lon="9.4271556"><ele>331.0</ele><time>2026-04-21T11:36:33.992Z</time></trkpt><trkpt lat="45.7051596" lon="9.4272526"><ele>331.0</ele><time>2026-04-21T11:36:35.992Z</time></trkpt><trkpt lat="45.7052174" lon="9.4273054"><ele>330.3333333333333</ele><time>2026-04-21T11:36:36.992Z</time></trkpt><trkpt lat="45.7052917" lon="9.4273625"><ele>329.66666666666663</ele><time>2026-04-21T11:36:37.992Z</time></trkpt><trkpt lat="45.7053711" lon="9.42742"><ele>329.0</ele><time>2026-04-21T11:36:38.992Z</time></trkpt><trkpt lat="45.7054576" lon="9.4274645"><ele>328.3333333333333</ele><time>2026-04-21T11:36:39.992Z</time></trkpt><trkpt lat="45.7055358" lon="9.4275092"><ele>327.6666666666667</ele><time>2026-04-21T11:36:40.992Z</time></trkpt><trkpt lat="45.7055957" lon="9.4275528"><ele>327.0</ele><time>2026-04-21T11:36:41.992Z</time></trkpt><trkpt lat="45.705668" lon="9.427584"><ele>327.0</ele><time>2026-04-21T11:36:42.992Z</time></trkpt><trkpt lat="45.7057388" lon="9.427614"><ele>327.0</ele><time>2026-04-21T11:36:43.992Z</time></trkpt><trkpt lat="45.7058096" lon="9.4276318"><ele>327.0</ele><time>2026-04-21T11:36:44.992Z</time></trkpt><trkpt lat="45.7058846" lon="9.4276559"><ele>327.0</ele><time>2026-04-21T11:36:45.992Z</time></trkpt><trkpt lat="45.7059593" lon="9.4276666"><ele>327.0</ele><time>2026-04-21T11:36:46.992Z</time></trkpt><trkpt lat="45.706048" lon="9.427685"><ele>327.0</ele><time>2026-04-21T11:36:47.992Z</time></trkpt><trkpt lat="45.7061743" lon="9.4277243"><ele>327.3333333333333</ele><time>2026-04-21T11:36:49.992Z</time></trkpt><trkpt lat="45.7062422" lon="9.4277548"><ele>327.6666666666667</ele><time>2026-04-21T11:36:50.992Z</time></trkpt><trkpt lat="45.7063113" lon="9.4277682"><ele>328.0</ele><time>2026-04-21T11:36:51.992Z</time></trkpt><trkpt lat="45.7063773" lon="9.4277926"><ele>328.33333333333337</ele><time>2026-04-21T11:36:52.992Z</time></trkpt><trkpt lat="45.7064439" lon="9.4278132"><ele>328.6666666666667</ele><time>2026-04-21T11:36:53.992Z</time></trkpt><trkpt lat="45.7065694" lon="9.4278441"><ele>329.0</ele><time>2026-04-21T11:36:55.992Z</time></trkpt><trkpt lat="45.7066928" lon="9.4278702"><ele>329.0</ele><time>2026-04-21T11:36:57.992Z</time></trkpt><trkpt lat="45.706757" lon="9.4278917"><ele>329.0</ele><time>2026-04-21T11:36:58.992Z</time></trkpt><trkpt lat="45.7068218" lon="9.4279115"><ele>329.0</ele><time>2026-04-21T11:36:59.992Z</time></trkpt><trkpt lat="45.7068858" lon="9.4279271"><ele>329.0</ele><time>2026-04-21T11:37:00.991Z</time></trkpt><trkpt lat="45.706961" lon="9.4279528"><ele>329.0</ele><time>2026-04-21T11:37:01.992Z</time></trkpt><trkpt lat="45.7070257" lon="9.4279733"><ele>329.0</ele><time>2026-04-21T11:37:02.991Z</time></trkpt><trkpt lat="45.707154" lon="9.4280014"><ele>328.83333333333337</ele><time>2026-04-21T11:37:04.992Z</time></trkpt><trkpt lat="45.7072159" lon="9.4280214"><ele>328.6666666666667</ele><time>2026-04-21T11:37:05.992Z</time></trkpt><trkpt lat="45.7072825" lon="9.4280458"><ele>328.5</ele><time>2026-04-21T11:37:06.992Z</time></trkpt><trkpt lat="45.7073576" lon="9.4280679"><ele>328.3333333333333</ele><time>2026-04-21T11:37:07.992Z</time></trkpt><trkpt lat="45.7074311" lon="9.4281187"><ele>328.16666666666663</ele><time>2026-04-21T11:37:08.992Z</time></trkpt><trkpt lat="45.7075581" lon="9.4281197"><ele>328.0</ele><time>2026-04-21T11:37:10.992Z</time></trkpt><trkpt lat="45.7076633" lon="9.428128"><ele>328.0</ele><time>2026-04-21T11:37:12.992Z</time></trkpt><trkpt lat="45.7077582" lon="9.4281826"><ele>328.0</ele><time>2026-04-21T11:37:14.992Z</time></trkpt><trkpt lat="45.7078087" lon="9.4283303"><ele>328.0</ele><time>2026-04-21T11:37:16.992Z</time></trkpt><trkpt lat="45.7078028" lon="9.4284386"><ele>328.0</ele><time>2026-04-21T11:37:17.992Z</time></trkpt><trkpt lat="45.7077893" lon="9.428539"><ele>328.0</ele><time>2026-04-21T11:37:18.992Z</time></trkpt><trkpt lat="45.707761" lon="9.4286364"><ele>328.0</ele><time>2026-04-21T11:37:19.992Z</time></trkpt><trkpt lat="45.7077369" lon="9.4287488"><ele>327.3333333333333</ele><time>2026-04-21T11:37:20.992Z</time></trkpt><trkpt lat="45.7077268" lon="9.4288485"><ele>326.66666666666663</ele><time>2026-04-21T11:37:21.992Z</time></trkpt><trkpt lat="45.7077075" lon="9.4289633"><ele>326.0</ele><time>2026-04-21T11:37:22.992Z</time></trkpt><trkpt lat="45.7076893" lon="9.4290831"><ele>325.3333333333333</ele><time>2026-04-21T11:37:23.992Z</time></trkpt><trkpt lat="45.7076663" lon="9.4291753"><ele>324.6666666666667</ele><time>2026-04-21T11:37:24.992Z</time></trkpt><trkpt lat="45.7076664" lon="9.4292848"><ele>324.0</ele><time>2026-04-21T11:37:25.992Z</time></trkpt><trkpt lat="45.7076992" lon="9.4294608"><ele>324.0</ele><time>2026-04-21T11:37:27.992Z</time></trkpt><trkpt lat="45.7077361" lon="9.4295531"><ele>324.0</ele><time>2026-04-21T11:37:28.992Z</time></trkpt><trkpt lat="45.7078003" lon="9.4296242"><ele>324.0</ele><time>2026-04-21T11:37:29.992Z</time></trkpt><trkpt lat="45.7078683" lon="9.4297278"><ele>324.0</ele><time>2026-04-21T11:37:30.992Z</time></trkpt><trkpt lat="45.7079229" lon="9.4298297"><ele>324.0</ele><time>2026-04-21T11:37:31.992Z</time></trkpt><trkpt lat="45.7079612" lon="9.4299413"><ele>324.0</ele><time>2026-04-21T11:37:32.992Z</time></trkpt><trkpt lat="45.708007" lon="9.4300395"><ele>323.3333333333333</ele><time>2026-04-21T11:37:33.992Z</time></trkpt><trkpt lat="45.7080216" lon="9.4301545"><ele>322.6666666666667</ele><time>2026-04-21T11:37:34.992Z</time></trkpt><trkpt lat="45.7080398" lon="9.4302439"><ele>322.0</ele><time>2026-04-21T11:37:35.992Z</time></trkpt><trkpt lat="45.7080683" lon="9.4303523"><ele>321.33333333333337</ele><time>2026-04-21T11:37:36.992Z</time></trkpt><trkpt lat="45.7080842" lon="9.4304556"><ele>320.6666666666667</ele><time>2026-04-21T11:37:37.992Z</time></trkpt><trkpt lat="45.708136" lon="9.4306368"><ele>320.0</ele><time>2026-04-21T11:37:39.992Z</time></trkpt><trkpt lat="45.7081509" lon="9.4307371"><ele>320.0</ele><time>2026-04-21T11:37:40.992Z</time></trkpt><trkpt lat="45.7081844" lon="9.4308731"><ele>320.0</ele><time>2026-04-21T11:37:42.992Z</time></trkpt><trkpt lat="45.7082277" lon="9.4309483"><ele>320.0</ele><time>2026-04-21T11:37:43.992Z</time></trkpt><trkpt lat="45.7082768" lon="9.4310095"><ele>320.0</ele><time>2026-04-21T11:37:44.992Z</time></trkpt><trkpt lat="45.7083508" lon="9.4310798"><ele>320.0</ele><time>2026-04-21T11:37:46.992Z</time></trkpt><trkpt lat="45.7084054" lon="9.4311372"><ele>320.0</ele><time>2026-04-21T11:37:47.992Z</time></trkpt><trkpt lat="45.7084866" lon="9.4312816"><ele>319.4</ele><time>2026-04-21T11:37:49.992Z</time></trkpt><trkpt lat="45.7085487" lon="9.4313514"><ele>318.8</ele><time>2026-04-21T11:37:50.992Z</time></trkpt><trkpt lat="45.7085922" lon="9.4314811"><ele>318.2</ele><time>2026-04-21T11:37:51.992Z</time></trkpt><trkpt lat="45.7086457" lon="9.4315773"><ele>317.6</ele><time>2026-04-21T11:37:52.992Z</time></trkpt><trkpt lat="45.7087049" lon="9.431713"><ele>317.0</ele><time>2026-04-21T11:37:53.992Z</time></trkpt><trkpt lat="45.7087452" lon="9.4318744"><ele>316.4</ele><time>2026-04-21T11:37:54.992Z</time></trkpt><trkpt lat="45.7088029" lon="9.4320052"><ele>315.79999999999995</ele><time>2026-04-21T11:37:55.992Z</time></trkpt><trkpt lat="45.7088637" lon="9.4321429"><ele>315.2</ele><time>2026-04-21T11:37:56.992Z</time></trkpt><trkpt lat="45.70889" lon="9.4322661"><ele>314.59999999999997</ele><time>2026-04-21T11:37:57.992Z</time></trkpt><trkpt lat="45.7089211" lon="9.4323909"><ele>314.0</ele><time>2026-04-21T11:37:58.992Z</time></trkpt><trkpt lat="45.7089503" lon="9.4325039"><ele>313.6666666666667</ele><time>2026-04-21T11:37:59.992Z</time></trkpt><trkpt lat="45.7089762" lon="9.4326093"><ele>313.33333333333337</ele><time>2026-04-21T11:38:00.992Z</time></trkpt><trkpt lat="45.7090044" lon="9.4327168"><ele>313.0</ele><time>2026-04-21T11:38:01.992Z</time></trkpt><trkpt lat="45.7090271" lon="9.4328076"><ele>312.6666666666667</ele><time>2026-04-21T11:38:02.992Z</time></trkpt><trkpt lat="45.7090409" lon="9.4329034"><ele>312.3333333333333</ele><time>2026-04-21T11:38:03.992Z</time></trkpt><trkpt lat="45.7090851" lon="9.4330899"><ele>312.0</ele><time>2026-04-21T11:38:05.992Z</time></trkpt><trkpt lat="45.7091064" lon="9.4331767"><ele>312.0</ele><time>2026-04-21T11:38:06.992Z</time></trkpt><trkpt lat="45.709121" lon="9.4332757"><ele>312.0</ele><time>2026-04-21T11:38:07.992Z</time></trkpt><trkpt lat="45.7091495" lon="9.433437"><ele>312.0</ele><time>2026-04-21T11:38:09.992Z</time></trkpt><trkpt lat="45.7091842" lon="9.4336088"><ele>312.0</ele><time>2026-04-21T11:38:11.992Z</time></trkpt><trkpt lat="45.7092218" lon="9.4337473"><ele>312.0</ele><time>2026-04-21T11:38:13.992Z</time></trkpt><trkpt lat="45.7092625" lon="9.4338923"><ele>312.0</ele><time>2026-04-21T11:38:15.992Z</time></trkpt><trkpt lat="45.7092943" lon="9.4339702"><ele>312.0</ele><time>2026-04-21T11:38:16.992Z</time></trkpt><trkpt lat="45.7093522" lon="9.4340843"><ele>312.0</ele><time>2026-04-21T11:38:18.992Z</time></trkpt><trkpt lat="45.7094137" lon="9.4341929"><ele>312.0</ele><time>2026-04-21T11:38:20.992Z</time></trkpt><trkpt lat="45.7094808" lon="9.4342741"><ele>312.0</ele><time>2026-04-21T11:38:22.992Z</time></trkpt><trkpt lat="45.7095481" lon="9.4343881"><ele>312.0</ele><time>2026-04-21T11:38:24.992Z</time></trkpt><trkpt lat="45.7096201" lon="9.4344836"><ele>312.0</ele><time>2026-04-21T11:38:26.992Z</time></trkpt><trkpt lat="45.7097041" lon="9.4345683"><ele>312.0</ele><time>2026-04-21T11:38:28.992Z</time></trkpt><trkpt lat="45.7097837" lon="9.4346824"><ele>312.0</ele><time>2026-04-21T11:38:30.992Z</time></trkpt><trkpt lat="45.7098652" lon="9.4348038"><ele>312.0</ele><time>2026-04-21T11:38:32.992Z</time></trkpt><trkpt lat="45.7099459" lon="9.4349251"><ele>312.5</ele><time>2026-04-21T11:38:34.992Z</time></trkpt><trkpt lat="45.709981" lon="9.4350045"><ele>313.0</ele><time>2026-04-21T11:38:35.992Z</time></trkpt><trkpt lat="45.7100688" lon="9.4351148"><ele>313.5</ele><time>2026-04-21T11:38:37.992Z</time></trkpt><trkpt lat="45.7101171" lon="9.4351853"><ele>314.0</ele><time>2026-04-21T11:38:38.992Z</time></trkpt><trkpt lat="45.7101881" lon="9.4353161"><ele>314.5</ele><time>2026-04-21T11:38:40.991Z</time></trkpt><trkpt lat="45.7102249" lon="9.4354031"><ele>315.0</ele><time>2026-04-21T11:38:41.992Z</time></trkpt><trkpt lat="45.7102866" lon="9.4355446"><ele>315.0</ele><time>2026-04-21T11:38:43.992Z</time></trkpt><trkpt lat="45.7103594" lon="9.4356723"><ele>315.0</ele><time>2026-04-21T11:38:45.992Z</time></trkpt><trkpt lat="45.7103943" lon="9.4357714"><ele>315.0</ele><time>2026-04-21T11:38:46.992Z</time></trkpt><trkpt lat="45.7104505" lon="9.4359526"><ele>315.0</ele><time>2026-04-21T11:38:48.992Z</time></trkpt><trkpt lat="45.7104908" lon="9.4361255"><ele>315.0</ele><time>2026-04-21T11:38:50.992Z</time></trkpt><trkpt lat="45.7104989" lon="9.4362164"><ele>315.0</ele><time>2026-04-21T11:38:51.992Z</time></trkpt><trkpt lat="45.7104992" lon="9.4363082"><ele>315.0</ele><time>2026-04-21T11:38:52.992Z</time></trkpt><trkpt lat="45.7104865" lon="9.4364687"><ele>315.0</ele><time>2026-04-21T11:38:54.992Z</time></trkpt><trkpt lat="45.7104662" lon="9.4365995"><ele>315.0</ele><time>2026-04-21T11:38:56.992Z</time></trkpt><trkpt lat="45.7104384" lon="9.436732"><ele>315.0</ele><time>2026-04-21T11:38:58.992Z</time></trkpt><trkpt lat="45.7104165" lon="9.4368176"><ele>315.4</ele><time>2026-04-21T11:38:59.992Z</time></trkpt><trkpt lat="45.7103937" lon="9.4369555"><ele>315.8</ele><time>2026-04-21T11:39:01.992Z</time></trkpt><trkpt lat="45.7103663" lon="9.4370895"><ele>316.2</ele><time>2026-04-21T11:39:03.992Z</time></trkpt><trkpt lat="45.7103443" lon="9.4372488"><ele>316.6</ele><time>2026-04-21T11:39:05.992Z</time></trkpt><trkpt lat="45.7103181" lon="9.4374135"><ele>317.0</ele><time>2026-04-21T11:39:07.992Z</time></trkpt><trkpt lat="45.7102969" lon="9.437569"><ele>317.0</ele><time>2026-04-21T11:39:09.992Z</time></trkpt><trkpt lat="45.7102822" lon="9.4377432"><ele>317.0</ele><time>2026-04-21T11:39:11.992Z</time></trkpt><trkpt lat="45.7102673" lon="9.4378917"><ele>317.0</ele><time>2026-04-21T11:39:13.992Z</time></trkpt><trkpt lat="45.7102568" lon="9.4379959"><ele>317.0</ele><time>2026-04-21T11:39:14.992Z</time></trkpt><trkpt lat="45.7102693" lon="9.4380852"><ele>317.0</ele><time>2026-04-21T11:39:15.992Z</time></trkpt><trkpt lat="45.7102803" lon="9.4382592"><ele>317.33333333333337</ele><time>2026-04-21T11:39:17.992Z</time></trkpt><trkpt lat="45.7102924" lon="9.4383477"><ele>317.6666666666667</ele><time>2026-04-21T11:39:18.992Z</time></trkpt><trkpt lat="45.7102844" lon="9.4384442"><ele>318.0</ele><time>2026-04-21T11:39:19.992Z</time></trkpt><trkpt lat="45.7103112" lon="9.4385288"><ele>318.3333333333333</ele><time>2026-04-21T11:39:20.992Z</time></trkpt><trkpt lat="45.710328" lon="9.4386191"><ele>318.66666666666663</ele><time>2026-04-21T11:39:21.992Z</time></trkpt><trkpt lat="45.7103615" lon="9.438774"><ele>319.0</ele><time>2026-04-21T11:39:23.992Z</time></trkpt><trkpt lat="45.7103932" lon="9.4389217"><ele>320.0</ele><time>2026-04-21T11:39:25.992Z</time></trkpt><trkpt lat="45.7104338" lon="9.43907"><ele>321.0</ele><time>2026-04-21T11:39:27.992Z</time></trkpt><trkpt lat="45.710481" lon="9.439202"><ele>322.0</ele><time>2026-04-21T11:39:29.992Z</time></trkpt><trkpt lat="45.7105382" lon="9.439289"><ele>323.0</ele><time>2026-04-21T11:39:31.992Z</time></trkpt><trkpt lat="45.7106212" lon="9.4393368"><ele>324.0</ele><time>2026-04-21T11:39:33.992Z</time></trkpt><trkpt lat="45.7107252" lon="9.439371"><ele>324.0</ele><time>2026-04-21T11:39:35.992Z</time></trkpt><trkpt lat="45.7108138" lon="9.4394534"><ele>324.0</ele><time>2026-04-21T11:39:37.992Z</time></trkpt><trkpt lat="45.7109002" lon="9.4395463"><ele>324.0</ele><time>2026-04-21T11:39:39.992Z</time></trkpt><trkpt lat="45.7109803" lon="9.4396374"><ele>324.0</ele><time>2026-04-21T11:39:41.992Z</time></trkpt><trkpt lat="45.7110625" lon="9.4397328"><ele>324.0</ele><time>2026-04-21T11:39:43.992Z</time></trkpt><trkpt lat="45.7111557" lon="9.4397882"><ele>324.75</ele><time>2026-04-21T11:39:45.992Z</time></trkpt><trkpt lat="45.7112411" lon="9.4398993"><ele>325.5</ele><time>2026-04-21T11:39:47.992Z</time></trkpt><trkpt lat="45.7113324" lon="9.440026"><ele>326.25</ele><time>2026-04-21T11:39:49.992Z</time></trkpt><trkpt lat="45.7114183" lon="9.4401299"><ele>327.0</ele><time>2026-04-21T11:39:51.992Z</time></trkpt><trkpt lat="45.7115162" lon="9.4402324"><ele>327.0</ele><time>2026-04-21T11:39:53.992Z</time></trkpt><trkpt lat="45.7115936" lon="9.4403568"><ele>327.0</ele><time>2026-04-21T11:39:55.992Z</time></trkpt><trkpt lat="45.7116739" lon="9.4404133"><ele>327.0</ele><time>2026-04-21T11:39:56.992Z</time></trkpt><trkpt lat="45.7117381" lon="9.4404809"><ele>327.0</ele><time>2026-04-21T11:39:57.992Z</time></trkpt><trkpt lat="45.7117915" lon="9.4405463"><ele>327.0</ele><time>2026-04-21T11:39:58.992Z</time></trkpt><trkpt lat="45.7118579" lon="9.4406161"><ele>327.0</ele><time>2026-04-21T11:39:59.992Z</time></trkpt><trkpt lat="45.7119234" lon="9.4407651"><ele>328.0</ele><time>2026-04-21T11:40:01.992Z</time></trkpt><trkpt lat="45.7119849" lon="9.4408911"><ele>329.0</ele><time>2026-04-21T11:40:03.992Z</time></trkpt><trkpt lat="45.7119643" lon="9.4409803"><ele>330.0</ele><time>2026-04-21T11:40:04.992Z</time></trkpt><trkpt lat="45.7119607" lon="9.441098"><ele>331.0</ele><time>2026-04-21T11:40:05.992Z</time></trkpt><trkpt lat="45.7119268" lon="9.4412481"><ele>332.0</ele><time>2026-04-21T11:40:07.992Z</time></trkpt><trkpt lat="45.7118706" lon="9.4414263"><ele>329.0</ele><time>2026-04-21T11:40:09.992Z</time></trkpt><trkpt lat="45.7118348" lon="9.4415055"><ele>326.0</ele><time>2026-04-21T11:40:10.992Z</time></trkpt><trkpt lat="45.711738" lon="9.4416421"><ele>323.0</ele><time>2026-04-21T11:40:12.992Z</time></trkpt><trkpt lat="45.711687" lon="9.4417263"><ele>320.0</ele><time>2026-04-21T11:40:13.991Z</time></trkpt><trkpt lat="45.7116328" lon="9.4417799"><ele>317.0</ele><time>2026-04-21T11:40:14.992Z</time></trkpt><trkpt lat="45.7115219" lon="9.4418763"><ele>317.0</ele><time>2026-04-21T11:40:16.992Z</time></trkpt><trkpt lat="45.7114414" lon="9.4419096"><ele>317.0</ele><time>2026-04-21T11:40:17.992Z</time></trkpt><trkpt lat="45.7113483" lon="9.4419374"><ele>317.0</ele><time>2026-04-21T11:40:18.992Z</time></trkpt><trkpt lat="45.7112807" lon="9.4419757"><ele>317.0</ele><time>2026-04-21T11:40:19.992Z</time></trkpt><trkpt lat="45.7111937" lon="9.4419996"><ele>317.0</ele><time>2026-04-21T11:40:20.992Z</time></trkpt><trkpt lat="45.7110576" lon="9.4420044"><ele>314.0</ele><time>2026-04-21T11:40:22.992Z</time></trkpt><trkpt lat="45.7109451" lon="9.4420146"><ele>311.0</ele><time>2026-04-21T11:40:23.992Z</time></trkpt><trkpt lat="45.7108746" lon="9.4420157"><ele>308.0</ele><time>2026-04-21T11:40:24.992Z</time></trkpt><trkpt lat="45.7107625" lon="9.4420365"><ele>305.0</ele><time>2026-04-21T11:40:25.992Z</time></trkpt><trkpt lat="45.7106558" lon="9.4420497"><ele>302.0</ele><time>2026-04-21T11:40:26.992Z</time></trkpt><trkpt lat="45.7105616" lon="9.4420649"><ele>302.0</ele><time>2026-04-21T11:40:27.992Z</time></trkpt><trkpt lat="45.7104729" lon="9.4420697"><ele>302.0</ele><time>2026-04-21T11:40:28.992Z</time></trkpt><trkpt lat="45.7103522" lon="9.4420705"><ele>302.0</ele><time>2026-04-21T11:40:29.992Z</time></trkpt><trkpt lat="45.7102168" lon="9.4420885"><ele>302.0</ele><time>2026-04-21T11:40:31.992Z</time></trkpt><trkpt lat="45.7101395" lon="9.4420894"><ele>302.0</ele><time>2026-04-21T11:40:32.992Z</time></trkpt><trkpt lat="45.7100535" lon="9.4421006"><ele>301.2</ele><time>2026-04-21T11:40:33.992Z</time></trkpt><trkpt lat="45.7099541" lon="9.4421004"><ele>300.4</ele><time>2026-04-21T11:40:34.992Z</time></trkpt><trkpt lat="45.7098663" lon="9.4421111"><ele>299.6</ele><time>2026-04-21T11:40:35.992Z</time></trkpt><trkpt lat="45.7097756" lon="9.4421256"><ele>298.8</ele><time>2026-04-21T11:40:36.992Z</time></trkpt><trkpt lat="45.7096811" lon="9.4421364"><ele>298.0</ele><time>2026-04-21T11:40:37.992Z</time></trkpt><trkpt lat="45.7096037" lon="9.4421869"><ele>297.6</ele><time>2026-04-21T11:40:38.992Z</time></trkpt><trkpt lat="45.709543" lon="9.4422248"><ele>297.20000000000005</ele><time>2026-04-21T11:40:39.992Z</time></trkpt><trkpt lat="45.7094347" lon="9.4422661"><ele>296.8</ele><time>2026-04-21T11:40:40.992Z</time></trkpt><trkpt lat="45.709341" lon="9.4423212"><ele>296.40000000000003</ele><time>2026-04-21T11:40:41.992Z</time></trkpt><trkpt lat="45.7092585" lon="9.4423679"><ele>296.0</ele><time>2026-04-21T11:40:42.992Z</time></trkpt><trkpt lat="45.7091679" lon="9.4424346"><ele>295.2</ele><time>2026-04-21T11:40:43.992Z</time></trkpt><trkpt lat="45.7090885" lon="9.4424981"><ele>294.40000000000003</ele><time>2026-04-21T11:40:44.992Z</time></trkpt><trkpt lat="45.7089832" lon="9.4425785"><ele>293.6</ele><time>2026-04-21T11:40:45.992Z</time></trkpt><trkpt lat="45.7088887" lon="9.4426703"><ele>292.8</ele><time>2026-04-21T11:40:46.992Z</time></trkpt><trkpt lat="45.708818" lon="9.4427387"><ele>292.0</ele><time>2026-04-21T11:40:47.992Z</time></trkpt><trkpt lat="45.7087354" lon="9.4428044"><ele>292.0</ele><time>2026-04-21T11:40:48.992Z</time></trkpt><trkpt lat="45.7086383" lon="9.4428914"><ele>292.0</ele><time>2026-04-21T11:40:49.992Z</time></trkpt><trkpt lat="45.7085186" lon="9.4430097"><ele>292.0</ele><time>2026-04-21T11:40:50.992Z</time></trkpt><trkpt lat="45.7084245" lon="9.4431322"><ele>292.0</ele><time>2026-04-21T11:40:51.992Z</time></trkpt><trkpt lat="45.7083311" lon="9.4432204"><ele>289.2</ele><time>2026-04-21T11:40:52.992Z</time></trkpt><trkpt lat="45.7082719" lon="9.4433366"><ele>286.4</ele><time>2026-04-21T11:40:53.992Z</time></trkpt><trkpt lat="45.708209" lon="9.4433998"><ele>283.6</ele><time>2026-04-21T11:40:54.992Z</time></trkpt><trkpt lat="45.7081284" lon="9.4434482"><ele>280.8</ele><time>2026-04-21T11:40:55.992Z</time></trkpt><trkpt lat="45.7080361" lon="9.4435205"><ele>278.0</ele><time>2026-04-21T11:40:56.992Z</time></trkpt><trkpt lat="45.7079475" lon="9.4435434"><ele>278.0</ele><time>2026-04-21T11:40:57.992Z</time></trkpt><trkpt lat="45.7078504" lon="9.4435503"><ele>278.0</ele><time>2026-04-21T11:40:58.992Z</time></trkpt><trkpt lat="45.7077436" lon="9.4435363"><ele>278.0</ele><time>2026-04-21T11:40:59.992Z</time></trkpt><trkpt lat="45.707647" lon="9.4435255"><ele>278.0</ele><time>2026-04-21T11:41:00.992Z</time></trkpt><trkpt lat="45.7075503" lon="9.4434854"><ele>278.0</ele><time>2026-04-21T11:41:01.992Z</time></trkpt><trkpt lat="45.7074502" lon="9.443467"><ele>276.0</ele><time>2026-04-21T11:41:02.992Z</time></trkpt><trkpt lat="45.7073316" lon="9.4434888"><ele>274.0</ele><time>2026-04-21T11:41:03.992Z</time></trkpt><trkpt lat="45.707219" lon="9.4435013"><ele>272.0</ele><time>2026-04-21T11:41:04.992Z</time></trkpt><trkpt lat="45.7070904" lon="9.4435371"><ele>270.0</ele><time>2026-04-21T11:41:05.992Z</time></trkpt><trkpt lat="45.7069896" lon="9.4435435"><ele>270.0</ele><time>2026-04-21T11:41:06.992Z</time></trkpt><trkpt lat="45.7068916" lon="9.443547"><ele>270.0</ele><time>2026-04-21T11:41:07.992Z</time></trkpt><trkpt lat="45.7067963" lon="9.443559"><ele>270.0</ele><time>2026-04-21T11:41:08.991Z</time></trkpt><trkpt lat="45.7067259" lon="9.4435489"><ele>270.0</ele><time>2026-04-21T11:41:09.992Z</time></trkpt><trkpt lat="45.7066414" lon="9.4435384"><ele>270.0</ele><time>2026-04-21T11:41:10.992Z</time></trkpt><trkpt lat="45.7065399" lon="9.4435407"><ele>270.0</ele><time>2026-04-21T11:41:11.992Z</time></trkpt><trkpt lat="45.7064627" lon="9.443555"><ele>270.0</ele><time>2026-04-21T11:41:12.992Z</time></trkpt><trkpt lat="45.7063787" lon="9.4435668"><ele>270.0</ele><time>2026-04-21T11:41:13.992Z</time></trkpt><trkpt lat="45.7062723" lon="9.4435872"><ele>270.0</ele><time>2026-04-21T11:41:14.992Z</time></trkpt><trkpt lat="45.706193" lon="9.4436203"><ele>270.0</ele><time>2026-04-21T11:41:15.992Z</time></trkpt><trkpt lat="45.7061134" lon="9.4436371"><ele>270.0</ele><time>2026-04-21T11:41:16.992Z</time></trkpt><trkpt lat="45.7060326" lon="9.4436916"><ele>270.2</ele><time>2026-04-21T11:41:17.992Z</time></trkpt><trkpt lat="45.7059759" lon="9.4437398"><ele>270.4</ele><time>2026-04-21T11:41:18.992Z</time></trkpt><trkpt lat="45.7058918" lon="9.4439049"><ele>270.6</ele><time>2026-04-21T11:41:20.992Z</time></trkpt><trkpt lat="45.7058381" lon="9.4440249"><ele>270.8</ele><time>2026-04-21T11:41:21.992Z</time></trkpt><trkpt lat="45.7057799" lon="9.4441133"><ele>271.0</ele><time>2026-04-21T11:41:22.992Z</time></trkpt><trkpt lat="45.7057319" lon="9.444234"><ele>269.3333333333333</ele><time>2026-04-21T11:41:23.992Z</time></trkpt><trkpt lat="45.7057237" lon="9.4443584"><ele>267.66666666666663</ele><time>2026-04-21T11:41:24.992Z</time></trkpt><trkpt lat="45.7057442" lon="9.4444672"><ele>266.0</ele><time>2026-04-21T11:41:25.992Z</time></trkpt><trkpt lat="45.705741" lon="9.444581"><ele>264.3333333333333</ele><time>2026-04-21T11:41:26.992Z</time></trkpt><trkpt lat="45.7057643" lon="9.444678"><ele>262.6666666666667</ele><time>2026-04-21T11:41:27.991Z</time></trkpt><trkpt lat="45.7057729" lon="9.4447907"><ele>261.0</ele><time>2026-04-21T11:41:28.992Z</time></trkpt><trkpt lat="45.7057692" lon="9.4449179"><ele>260.7142857142857</ele><time>2026-04-21T11:41:29.992Z</time></trkpt><trkpt lat="45.7057567" lon="9.445021"><ele>260.42857142857144</ele><time>2026-04-21T11:41:30.992Z</time></trkpt><trkpt lat="45.7057566" lon="9.4451113"><ele>260.1428571428571</ele><time>2026-04-21T11:41:31.992Z</time></trkpt><trkpt lat="45.7057635" lon="9.4452205"><ele>259.8571428571429</ele><time>2026-04-21T11:41:32.992Z</time></trkpt><trkpt lat="45.7057734" lon="9.4453197"><ele>259.57142857142856</ele><time>2026-04-21T11:41:33.992Z</time></trkpt><trkpt lat="45.7057815" lon="9.4454157"><ele>259.2857142857143</ele><time>2026-04-21T11:41:34.992Z</time></trkpt><trkpt lat="45.7057894" lon="9.4455178"><ele>259.0</ele><time>2026-04-21T11:41:35.992Z</time></trkpt><trkpt lat="45.7057953" lon="9.4456337"><ele>258.0</ele><time>2026-04-21T11:41:36.992Z</time></trkpt><trkpt lat="45.7057975" lon="9.4457537"><ele>257.0</ele><time>2026-04-21T11:41:38.992Z</time></trkpt><trkpt lat="45.7057692" lon="9.4458758"><ele>256.0</ele><time>2026-04-21T11:41:41.992Z</time></trkpt><trkpt lat="45.7056993" lon="9.4458862"><ele>255.0</ele><time>2026-04-21T11:41:43.992Z</time></trkpt><trkpt lat="45.7056147" lon="9.4458775"><ele>253.99999999999997</ele><time>2026-04-21T11:41:44.992Z</time></trkpt><trkpt lat="45.7055211" lon="9.4458561"><ele>253.0</ele><time>2026-04-21T11:41:46.992Z</time></trkpt><trkpt lat="45.7054102" lon="9.4458536"><ele>253.0</ele><time>2026-04-21T11:41:48.992Z</time></trkpt><trkpt lat="45.7052998" lon="9.4458179"><ele>253.0</ele><time>2026-04-21T11:41:50.992Z</time></trkpt><trkpt lat="45.7052325" lon="9.4457995"><ele>253.0</ele><time>2026-04-21T11:41:51.992Z</time></trkpt><trkpt lat="45.705111" lon="9.4457209"><ele>253.0</ele><time>2026-04-21T11:41:54.991Z</time></trkpt><trkpt lat="45.7050525" lon="9.4456793"><ele>253.0</ele><time>2026-04-21T11:41:55.992Z</time></trkpt><trkpt lat="45.7049534" lon="9.4456704"><ele>253.0</ele><time>2026-04-21T11:41:56.992Z</time></trkpt><trkpt lat="45.7049321" lon="9.4455512"><ele>253.0</ele><time>2026-04-21T11:41:58.992Z</time></trkpt><trkpt lat="45.7048563" lon="9.4454259"><ele>253.0</ele><time>2026-04-21T11:42:00.992Z</time></trkpt><trkpt lat="45.7047763" lon="9.4453119"><ele>253.0</ele><time>2026-04-21T11:42:02.992Z</time></trkpt><trkpt lat="45.7047078" lon="9.4451895"><ele>253.0</ele><time>2026-04-21T11:42:04.992Z</time></trkpt><trkpt lat="45.7046364" lon="9.445045"><ele>253.0</ele><time>2026-04-21T11:42:06.992Z</time></trkpt><trkpt lat="45.7045531" lon="9.444943"><ele>253.0</ele><time>2026-04-21T11:42:08.992Z</time></trkpt><trkpt lat="45.7044563" lon="9.4448541"><ele>253.0</ele><time>2026-04-21T11:42:10.992Z</time></trkpt><trkpt lat="45.7043645" lon="9.444783"><ele>253.0</ele><time>2026-04-21T11:42:12.992Z</time></trkpt><trkpt lat="45.7042519" lon="9.4447304"><ele>253.0</ele><time>2026-04-21T11:42:14.992Z</time></trkpt><trkpt lat="45.7041516" lon="9.4446832"><ele>253.0</ele><time>2026-04-21T11:42:16.992Z</time></trkpt><trkpt lat="45.704063" lon="9.4446336"><ele>253.0</ele><time>2026-04-21T11:42:18.992Z</time></trkpt><trkpt lat="45.703953" lon="9.4446044"><ele>253.0</ele><time>2026-04-21T11:42:20.992Z</time></trkpt><trkpt lat="45.7038457" lon="9.4445654"><ele>253.0</ele><time>2026-04-21T11:42:22.992Z</time></trkpt><trkpt lat="45.7037547" lon="9.444515"><ele>253.0</ele><time>2026-04-21T11:42:24.992Z</time></trkpt><trkpt lat="45.703666" lon="9.4444799"><ele>253.60000000000002</ele><time>2026-04-21T11:42:26.992Z</time></trkpt><trkpt lat="45.7036277" lon="9.4443703"><ele>254.20000000000002</ele><time>2026-04-21T11:42:27.992Z</time></trkpt><trkpt lat="45.7036232" lon="9.4442121"><ele>254.8</ele><time>2026-04-21T11:42:29.992Z</time></trkpt><trkpt lat="45.7036293" lon="9.4440497"><ele>255.4</ele><time>2026-04-21T11:42:31.992Z</time></trkpt><trkpt lat="45.7036236" lon="9.4439435"><ele>256.0</ele><time>2026-04-21T11:42:33.992Z</time></trkpt><trkpt lat="45.7036165" lon="9.4438501"><ele>256.0</ele><time>2026-04-21T11:42:35.992Z</time></trkpt><trkpt lat="45.7035903" lon="9.4439456"><ele>256.0</ele><time>2026-04-21T11:42:36.992Z</time></trkpt><trkpt lat="45.7036042" lon="9.4438189"><ele>256.0</ele><time>2026-04-21T11:42:38.992Z</time></trkpt><trkpt lat="45.7036173" lon="9.4436667"><ele>256.0</ele><time>2026-04-21T11:42:40.992Z</time></trkpt><trkpt lat="45.703617" lon="9.4434848"><ele>256.0</ele><time>2026-04-21T11:42:42.992Z</time></trkpt><trkpt lat="45.7036331" lon="9.4433515"><ele>256.3333333333333</ele><time>2026-04-21T11:42:44.992Z</time></trkpt><trkpt lat="45.7036636" lon="9.4432261"><ele>256.66666666666663</ele><time>2026-04-21T11:42:46.992Z</time></trkpt><trkpt lat="45.7037011" lon="9.4431255"><ele>257.0</ele><time>2026-04-21T11:42:48.992Z</time></trkpt><trkpt lat="45.7037296" lon="9.4430235"><ele>257.3333333333333</ele><time>2026-04-21T11:42:50.992Z</time></trkpt><trkpt lat="45.7037718" lon="9.4429232"><ele>257.6666666666667</ele><time>2026-04-21T11:42:52.992Z</time></trkpt><trkpt lat="45.7037976" lon="9.442811"><ele>258.0</ele><time>2026-04-21T11:42:54.992Z</time></trkpt><trkpt lat="45.7038372" lon="9.4427091"><ele>258.8333333333333</ele><time>2026-04-21T11:42:56.992Z</time></trkpt><trkpt lat="45.7038589" lon="9.442576"><ele>259.6666666666667</ele><time>2026-04-21T11:42:58.992Z</time></trkpt><trkpt lat="45.7038865" lon="9.4424451"><ele>260.5</ele><time>2026-04-21T11:43:00.992Z</time></trkpt><trkpt lat="45.7039066" lon="9.4423187"><ele>261.33333333333337</ele><time>2026-04-21T11:43:02.992Z</time></trkpt><trkpt lat="45.703926" lon="9.4422012"><ele>262.1666666666667</ele><time>2026-04-21T11:43:04.992Z</time></trkpt><trkpt lat="45.7039484" lon="9.4420977"><ele>263.0</ele><time>2026-04-21T11:43:06.992Z</time></trkpt><trkpt lat="45.7039896" lon="9.4419734"><ele>264.83333333333337</ele><time>2026-04-21T11:43:09.992Z</time></trkpt><trkpt lat="45.7040246" lon="9.4418973"><ele>266.6666666666667</ele><time>2026-04-21T11:43:11.992Z</time></trkpt><trkpt lat="45.70407" lon="9.4417974"><ele>268.5</ele><time>2026-04-21T11:43:14.992Z</time></trkpt><trkpt lat="45.7041122" lon="9.4417038"><ele>270.3333333333333</ele><time>2026-04-21T11:43:16.992Z</time></trkpt><trkpt lat="45.7041685" lon="9.4416267"><ele>272.16666666666663</ele><time>2026-04-21T11:43:18.992Z</time></trkpt><trkpt lat="45.7042257" lon="9.4415523"><ele>274.0</ele><time>2026-04-21T11:43:20.992Z</time></trkpt><trkpt lat="45.7042542" lon="9.4414539"><ele>274.0</ele><time>2026-04-21T11:43:22.992Z</time></trkpt><trkpt lat="45.704298" lon="9.4413736"><ele>274.0</ele><time>2026-04-21T11:43:25.992Z</time></trkpt><trkpt lat="45.7042984" lon="9.4412598"><ele>274.0</ele><time>2026-04-21T11:43:28.992Z</time></trkpt><trkpt lat="45.7042908" lon="9.4411635"><ele>274.0</ele><time>2026-04-21T11:43:30.992Z</time></trkpt><trkpt lat="45.7043194" lon="9.4410423"><ele>274.0</ele><time>2026-04-21T11:43:32.992Z</time></trkpt><trkpt lat="45.7043449" lon="9.4409257"><ele>274.0</ele><time>2026-04-21T11:43:33.992Z</time></trkpt><trkpt lat="45.704394" lon="9.4408373"><ele>276.4</ele><time>2026-04-21T11:43:35.992Z</time></trkpt><trkpt lat="45.704474" lon="9.4407494"><ele>278.79999999999995</ele><time>2026-04-21T11:43:37.992Z</time></trkpt><trkpt lat="45.7044459" lon="9.4406"><ele>281.20000000000005</ele><time>2026-04-21T11:43:39.992Z</time></trkpt><trkpt lat="45.7044562" lon="9.4404709"><ele>283.6</ele><time>2026-04-21T11:43:44.992Z</time></trkpt><trkpt lat="45.7044866" lon="9.4403487"><ele>286.0</ele><time>2026-04-21T11:43:47.992Z</time></trkpt><trkpt lat="45.7045315" lon="9.4402409"><ele>286.5</ele><time>2026-04-21T11:43:50.992Z</time></trkpt><trkpt lat="45.7045671" lon="9.4401331"><ele>287.0</ele><time>2026-04-21T11:43:52.992Z</time></trkpt><trkpt lat="45.704607" lon="9.4400298"><ele>287.5</ele><time>2026-04-21T11:43:54.992Z</time></trkpt><trkpt lat="45.7046545" lon="9.4399366"><ele>288.0</ele><time>2026-04-21T11:43:56.992Z</time></trkpt><trkpt lat="45.7046862" lon="9.4398409"><ele>288.5</ele><time>2026-04-21T11:43:58.992Z</time></trkpt><trkpt lat="45.704731" lon="9.4397464"><ele>289.0</ele><time>2026-04-21T11:44:00.992Z</time></trkpt><trkpt lat="45.7047599" lon="9.4396641"><ele>288.8333333333333</ele><time>2026-04-21T11:44:01.992Z</time></trkpt><trkpt lat="45.7048258" lon="9.4395879"><ele>288.66666666666663</ele><time>2026-04-21T11:44:03.992Z</time></trkpt><trkpt lat="45.7048694" lon="9.4394976"><ele>288.5</ele><time>2026-04-21T11:44:05.992Z</time></trkpt><trkpt lat="45.7048888" lon="9.4393921"><ele>288.3333333333333</ele><time>2026-04-21T11:44:07.992Z</time></trkpt><trkpt lat="45.7049262" lon="9.4393122"><ele>288.1666666666667</ele><time>2026-04-21T11:44:09.992Z</time></trkpt><trkpt lat="45.7049829" lon="9.4392046"><ele>288.0</ele><time>2026-04-21T11:44:12.992Z</time></trkpt><trkpt lat="45.7050191" lon="9.4391206"><ele>288.0</ele><time>2026-04-21T11:44:14.992Z</time></trkpt><trkpt lat="45.7050499" lon="9.439026"><ele>288.0</ele><time>2026-04-21T11:44:16.992Z</time></trkpt><trkpt lat="45.7050693" lon="9.4389161"><ele>288.0</ele><time>2026-04-21T11:44:18.992Z</time></trkpt><trkpt lat="45.7050834" lon="9.4387984"><ele>288.0</ele><time>2026-04-21T11:44:20.992Z</time></trkpt><trkpt lat="45.7050845" lon="9.4386601"><ele>288.0</ele><time>2026-04-21T11:44:22.992Z</time></trkpt><trkpt lat="45.7050776" lon="9.4385228"><ele>288.0</ele><time>2026-04-21T11:44:24.992Z</time></trkpt><trkpt lat="45.7050791" lon="9.4384189"><ele>288.0</ele><time>2026-04-21T11:44:26.992Z</time></trkpt><trkpt lat="45.7050653" lon="9.4383275"><ele>288.0</ele><time>2026-04-21T11:44:29.992Z</time></trkpt><trkpt lat="45.705038" lon="9.4382083"><ele>288.0</ele><time>2026-04-21T11:44:32.992Z</time></trkpt><trkpt lat="45.7050365" lon="9.4380855"><ele>288.0</ele><time>2026-04-21T11:44:34.992Z</time></trkpt><trkpt lat="45.7050376" lon="9.4379809"><ele>288.0</ele><time>2026-04-21T11:44:36.992Z</time></trkpt><trkpt lat="45.7050279" lon="9.4378676"><ele>288.0</ele><time>2026-04-21T11:44:38.992Z</time></trkpt><trkpt lat="45.705071" lon="9.4377574"><ele>288.3333333333333</ele><time>2026-04-21T11:44:42.992Z</time></trkpt><trkpt lat="45.7050576" lon="9.4376404"><ele>288.6666666666667</ele><time>2026-04-21T11:44:45.992Z</time></trkpt><trkpt lat="45.7050511" lon="9.4375335"><ele>289.0</ele><time>2026-04-21T11:44:47.992Z</time></trkpt><trkpt lat="45.7050316" lon="9.4374384"><ele>289.33333333333337</ele><time>2026-04-21T11:44:49.992Z</time></trkpt><trkpt lat="45.7049883" lon="9.4373207"><ele>289.6666666666667</ele><time>2026-04-21T11:44:52.992Z</time></trkpt><trkpt lat="45.7049606" lon="9.4372324"><ele>290.0</ele><time>2026-04-21T11:44:54.992Z</time></trkpt><trkpt lat="45.7049335" lon="9.4371139"><ele>290.33333333333337</ele><time>2026-04-21T11:44:57.992Z</time></trkpt><trkpt lat="45.704936" lon="9.4370072"><ele>290.6666666666667</ele><time>2026-04-21T11:45:00.992Z</time></trkpt><trkpt lat="45.7049474" lon="9.4368892"><ele>291.0</ele><time>2026-04-21T11:45:05.992Z</time></trkpt><trkpt lat="45.7049053" lon="9.4367698"><ele>291.3333333333333</ele><time>2026-04-21T11:45:08.992Z</time></trkpt><trkpt lat="45.7048772" lon="9.4366526"><ele>291.66666666666663</ele><time>2026-04-21T11:45:11.992Z</time></trkpt><trkpt lat="45.7048484" lon="9.4365544"><ele>292.0</ele><time>2026-04-21T11:45:13.992Z</time></trkpt><trkpt lat="45.704817" lon="9.4364551"><ele>292.0</ele><time>2026-04-21T11:45:15.992Z</time></trkpt><trkpt lat="45.7048134" lon="9.4363552"><ele>292.0</ele><time>2026-04-21T11:45:17.992Z</time></trkpt><trkpt lat="45.7048199" lon="9.436243"><ele>292.0</ele><time>2026-04-21T11:45:20.992Z</time></trkpt><trkpt lat="45.7048339" lon="9.4361527"><ele>292.0</ele><time>2026-04-21T11:45:23.992Z</time></trkpt><trkpt lat="45.7048797" lon="9.4360859"><ele>292.0</ele><time>2026-04-21T11:45:26.992Z</time></trkpt><trkpt lat="45.7049456" lon="9.4360181"><ele>292.0</ele><time>2026-04-21T11:45:29.992Z</time></trkpt><trkpt lat="45.704991" lon="9.4359446"><ele>292.0</ele><time>2026-04-21T11:45:32.992Z</time></trkpt><trkpt lat="45.7050588" lon="9.4358868"><ele>292.3333333333333</ele><time>2026-04-21T11:45:36.992Z</time></trkpt><trkpt lat="45.7051134" lon="9.4358313"><ele>292.66666666666663</ele><time>2026-04-21T11:45:38.992Z</time></trkpt><trkpt lat="45.7051676" lon="9.4357473"><ele>293.0</ele><time>2026-04-21T11:45:41.992Z</time></trkpt><trkpt lat="45.7052257" lon="9.4356958"><ele>293.3333333333333</ele><time>2026-04-21T11:45:44.992Z</time></trkpt><trkpt lat="45.7052743" lon="9.4355874"><ele>293.6666666666667</ele><time>2026-04-21T11:45:48.992Z</time></trkpt><trkpt lat="45.7053299" lon="9.4355035"><ele>294.0</ele><time>2026-04-21T11:45:51.992Z</time></trkpt><trkpt lat="45.7053972" lon="9.4354111"><ele>295.0</ele><time>2026-04-21T11:45:54.991Z</time></trkpt><trkpt lat="45.7054681" lon="9.4353542"><ele>296.0</ele><time>2026-04-21T11:45:57.992Z</time></trkpt><trkpt lat="45.7055196" lon="9.4352763"><ele>297.0</ele><time>2026-04-21T11:46:00.992Z</time></trkpt><trkpt lat="45.7055785" lon="9.435212"><ele>298.0</ele><time>2026-04-21T11:46:04.992Z</time></trkpt><trkpt lat="45.7056421" lon="9.435154"><ele>299.0</ele><time>2026-04-21T11:46:08.992Z</time></trkpt><trkpt lat="45.7057998" lon="9.4351945"><ele>299.0</ele><time>2026-04-21T11:46:14.992Z</time></trkpt><trkpt lat="45.7058658" lon="9.4352553"><ele>299.0</ele><time>2026-04-21T11:46:17.992Z</time></trkpt><trkpt lat="45.7059265" lon="9.4353174"><ele>299.0</ele><time>2026-04-21T11:46:20.992Z</time></trkpt><trkpt lat="45.7059944" lon="9.4353515"><ele>299.0</ele><time>2026-04-21T11:46:23.992Z</time></trkpt><trkpt lat="45.7060689" lon="9.4353818"><ele>299.0</ele><time>2026-04-21T11:46:26.992Z</time></trkpt><trkpt lat="45.7061423" lon="9.435429"><ele>299.0</ele><time>2026-04-21T11:46:30.992Z</time></trkpt><trkpt lat="45.7061566" lon="9.4355213"><ele>299.0</ele><time>2026-04-21T11:46:34.992Z</time></trkpt><trkpt lat="45.7061503" lon="9.4356321"><ele>299.6666666666667</ele><time>2026-04-21T11:46:37.991Z</time></trkpt><trkpt lat="45.7061379" lon="9.4357403"><ele>300.33333333333337</ele><time>2026-04-21T11:46:40.992Z</time></trkpt><trkpt lat="45.706121" lon="9.4358556"><ele>301.0</ele><time>2026-04-21T11:46:43.992Z</time></trkpt><trkpt lat="45.7060961" lon="9.4359563"><ele>301.6666666666667</ele><time>2026-04-21T11:46:46.992Z</time></trkpt><trkpt lat="45.7060686" lon="9.4360714"><ele>302.3333333333333</ele><time>2026-04-21T11:46:51.991Z</time></trkpt><trkpt lat="45.706047" lon="9.4361932"><ele>303.0</ele><time>2026-04-21T11:46:54.992Z</time></trkpt><trkpt lat="45.7060068" lon="9.4363013"><ele>303.6666666666667</ele><time>2026-04-21T11:46:57.992Z</time></trkpt><trkpt lat="45.7059536" lon="9.4364127"><ele>304.3333333333333</ele><time>2026-04-21T11:47:00.992Z</time></trkpt><trkpt lat="45.7059213" lon="9.4364956"><ele>305.0</ele><time>2026-04-21T11:47:02.992Z</time></trkpt><trkpt lat="45.705909" lon="9.4366042"><ele>305.66666666666663</ele><time>2026-04-21T11:47:04.992Z</time></trkpt><trkpt lat="45.7059084" lon="9.4367093"><ele>306.3333333333333</ele><time>2026-04-21T11:47:06.991Z</time></trkpt><trkpt lat="45.7059815" lon="9.4368765"><ele>307.0</ele><time>2026-04-21T11:47:08.992Z</time></trkpt><trkpt lat="45.7060472" lon="9.4369886"><ele>309.0</ele><time>2026-04-21T11:47:10.991Z</time></trkpt><trkpt lat="45.7061273" lon="9.4370769"><ele>311.0</ele><time>2026-04-21T11:47:12.992Z</time></trkpt><trkpt lat="45.7061908" lon="9.4371674"><ele>313.0</ele><time>2026-04-21T11:47:14.992Z</time></trkpt><trkpt lat="45.7062315" lon="9.4372685"><ele>315.0</ele><time>2026-04-21T11:47:16.992Z</time></trkpt><trkpt lat="45.7063007" lon="9.4373967"><ele>317.0</ele><time>2026-04-21T11:47:18.992Z</time></trkpt><trkpt lat="45.7063475" lon="9.437543"><ele>317.0</ele><time>2026-04-21T11:47:20.992Z</time></trkpt><trkpt lat="45.7064251" lon="9.4376588"><ele>317.0</ele><time>2026-04-21T11:47:22.992Z</time></trkpt><trkpt lat="45.7064861" lon="9.4377795"><ele>317.0</ele><time>2026-04-21T11:47:24.992Z</time></trkpt><trkpt lat="45.7065354" lon="9.4378806"><ele>317.0</ele><time>2026-04-21T11:47:25.992Z</time></trkpt><trkpt lat="45.7065957" lon="9.4380073"><ele>317.0</ele><time>2026-04-21T11:47:27.992Z</time></trkpt><trkpt lat="45.7066115" lon="9.4381306"><ele>315.4</ele><time>2026-04-21T11:47:29.992Z</time></trkpt><trkpt lat="45.7066634" lon="9.4382873"><ele>313.79999999999995</ele><time>2026-04-21T11:47:32.992Z</time></trkpt><trkpt lat="45.7066781" lon="9.4384274"><ele>312.2</ele><time>2026-04-21T11:47:34.992Z</time></trkpt><trkpt lat="45.7067099" lon="9.4385496"><ele>310.59999999999997</ele><time>2026-04-21T11:47:36.992Z</time></trkpt><trkpt lat="45.7067632" lon="9.4386886"><ele>309.0</ele><time>2026-04-21T11:47:38.992Z</time></trkpt><trkpt lat="45.7067853" lon="9.4387962"><ele>308.0</ele><time>2026-04-21T11:47:39.992Z</time></trkpt><trkpt lat="45.7068178" lon="9.4389152"><ele>307.0</ele><time>2026-04-21T11:47:40.992Z</time></trkpt><trkpt lat="45.7067919" lon="9.4390683"><ele>306.0</ele><time>2026-04-21T11:47:42.992Z</time></trkpt><trkpt lat="45.7067836" lon="9.4391625"><ele>305.0</ele><time>2026-04-21T11:47:43.992Z</time></trkpt><trkpt lat="45.7067685" lon="9.4392938"><ele>304.0</ele><time>2026-04-21T11:47:45.992Z</time></trkpt><trkpt lat="45.7067632" lon="9.4393892"><ele>303.0</ele><time>2026-04-21T11:47:46.992Z</time></trkpt><trkpt lat="45.706725" lon="9.4394963"><ele>301.8</ele><time>2026-04-21T11:47:48.992Z</time></trkpt><trkpt lat="45.7067505" lon="9.439661"><ele>300.6</ele><time>2026-04-21T11:47:50.992Z</time></trkpt><trkpt lat="45.7067475" lon="9.4397523"><ele>299.4</ele><time>2026-04-21T11:47:51.992Z</time></trkpt><trkpt lat="45.7067413" lon="9.4399109"><ele>298.2</ele><time>2026-04-21T11:47:53.992Z</time></trkpt><trkpt lat="45.7067433" lon="9.4400312"><ele>297.0</ele><time>2026-04-21T11:47:54.992Z</time></trkpt><trkpt lat="45.7067677" lon="9.4401982"><ele>297.0</ele><time>2026-04-21T11:47:56.992Z</time></trkpt><trkpt lat="45.7067754" lon="9.4402941"><ele>297.0</ele><time>2026-04-21T11:47:57.992Z</time></trkpt><trkpt lat="45.7068021" lon="9.4404024"><ele>297.0</ele><time>2026-04-21T11:47:58.992Z</time></trkpt><trkpt lat="45.7068222" lon="9.4405038"><ele>297.0</ele><time>2026-04-21T11:47:59.992Z</time></trkpt><trkpt lat="45.7068488" lon="9.4405896"><ele>297.0</ele><time>2026-04-21T11:48:00.992Z</time></trkpt><trkpt lat="45.70688" lon="9.4406793"><ele>297.0</ele><time>2026-04-21T11:48:01.992Z</time></trkpt><trkpt lat="45.7068954" lon="9.4407712"><ele>297.0</ele><time>2026-04-21T11:48:02.992Z</time></trkpt><trkpt lat="45.7069098" lon="9.4408627"><ele>296.0</ele><time>2026-04-21T11:48:03.992Z</time></trkpt><trkpt lat="45.7068999" lon="9.4410404"><ele>295.0</ele><time>2026-04-21T11:48:05.992Z</time></trkpt><trkpt lat="45.7068794" lon="9.4411335"><ele>294.0</ele><time>2026-04-21T11:48:06.992Z</time></trkpt><trkpt lat="45.706823" lon="9.4412972"><ele>293.0</ele><time>2026-04-21T11:48:08.992Z</time></trkpt><trkpt lat="45.7067247" lon="9.4413847"><ele>292.0</ele><time>2026-04-21T11:48:10.992Z</time></trkpt><trkpt lat="45.7066635" lon="9.4414163"><ele>290.3333333333333</ele><time>2026-04-21T11:48:11.992Z</time></trkpt><trkpt lat="45.7065413" lon="9.4414484"><ele>288.66666666666663</ele><time>2026-04-21T11:48:13.992Z</time></trkpt><trkpt lat="45.7064704" lon="9.4414647"><ele>287.0</ele><time>2026-04-21T11:48:14.992Z</time></trkpt><trkpt lat="45.706406" lon="9.4414845"><ele>285.3333333333333</ele><time>2026-04-21T11:48:15.992Z</time></trkpt><trkpt lat="45.7063415" lon="9.4415163"><ele>283.6666666666667</ele><time>2026-04-21T11:48:16.992Z</time></trkpt><trkpt lat="45.7062659" lon="9.4415484"><ele>282.0</ele><time>2026-04-21T11:48:17.992Z</time></trkpt><trkpt lat="45.7061898" lon="9.4415748"><ele>282.0</ele><time>2026-04-21T11:48:18.992Z</time></trkpt><trkpt lat="45.7060913" lon="9.4416574"><ele>282.0</ele><time>2026-04-21T11:48:20.992Z</time></trkpt><trkpt lat="45.7060111" lon="9.4417719"><ele>282.0</ele><time>2026-04-21T11:48:22.992Z</time></trkpt><trkpt lat="45.70598" lon="9.4418622"><ele>282.0</ele><time>2026-04-21T11:48:23.992Z</time></trkpt><trkpt lat="45.7059748" lon="9.4419525"><ele>282.0</ele><time>2026-04-21T11:48:24.992Z</time></trkpt><trkpt lat="45.7059588" lon="9.4421325"><ele>281.5</ele><time>2026-04-21T11:48:26.992Z</time></trkpt><trkpt lat="45.7059339" lon="9.4422893"><ele>281.0</ele><time>2026-04-21T11:48:28.992Z</time></trkpt><trkpt lat="45.705932" lon="9.4424106"><ele>280.5</ele><time>2026-04-21T11:48:30.992Z</time></trkpt><trkpt lat="45.7059424" lon="9.4425026"><ele>280.0</ele><time>2026-04-21T11:48:31.992Z</time></trkpt><trkpt lat="45.7059712" lon="9.4426657"><ele>279.5</ele><time>2026-04-21T11:48:33.992Z</time></trkpt><trkpt lat="45.7059956" lon="9.4427519"><ele>279.0</ele><time>2026-04-21T11:48:34.992Z</time></trkpt><trkpt lat="45.706009" lon="9.4428494"><ele>279.0</ele><time>2026-04-21T11:48:35.992Z</time></trkpt><trkpt lat="45.7060241" lon="9.4429578"><ele>279.0</ele><time>2026-04-21T11:48:36.992Z</time></trkpt><trkpt lat="45.7060334" lon="9.4430527"><ele>279.0</ele><time>2026-04-21T11:48:37.992Z</time></trkpt><trkpt lat="45.7060466" lon="9.4432003"><ele>279.0</ele><time>2026-04-21T11:48:39.992Z</time></trkpt><trkpt lat="45.7060813" lon="9.4432784"><ele>279.0</ele><time>2026-04-21T11:48:41.992Z</time></trkpt><trkpt lat="45.7061432" lon="9.4433611"><ele>279.0</ele><time>2026-04-21T11:48:43.992Z</time></trkpt><trkpt lat="45.7062602" lon="9.443394"><ele>277.2</ele><time>2026-04-21T11:48:45.992Z</time></trkpt><trkpt lat="45.7063809" lon="9.4434282"><ele>275.4</ele><time>2026-04-21T11:48:47.992Z</time></trkpt><trkpt lat="45.7064443" lon="9.4434365"><ele>273.6</ele><time>2026-04-21T11:48:48.992Z</time></trkpt><trkpt lat="45.7065668" lon="9.4434568"><ele>271.8</ele><time>2026-04-21T11:48:50.992Z</time></trkpt><trkpt lat="45.7066695" lon="9.4434986"><ele>270.0</ele><time>2026-04-21T11:48:52.992Z</time></trkpt><trkpt lat="45.7065294" lon="9.4435767"><ele>270.0</ele><time>2026-04-21T11:49:02.992Z</time></trkpt><trkpt lat="45.7064442" lon="9.4435563"><ele>270.0</ele><time>2026-04-21T11:49:04.992Z</time></trkpt><trkpt lat="45.7063475" lon="9.4435746"><ele>270.0</ele><time>2026-04-21T11:49:06.992Z</time></trkpt><trkpt lat="45.7062814" lon="9.4435651"><ele>270.0</ele><time>2026-04-21T11:49:07.992Z</time></trkpt><trkpt lat="45.7061902" lon="9.4435923"><ele>270.0</ele><time>2026-04-21T11:49:09.992Z</time></trkpt><trkpt lat="45.7060941" lon="9.4436"><ele>270.0</ele><time>2026-04-21T11:49:11.992Z</time></trkpt><trkpt lat="45.706025" lon="9.4436393"><ele>270.2</ele><time>2026-04-21T11:49:12.992Z</time></trkpt><trkpt lat="45.7059561" lon="9.4437103"><ele>270.4</ele><time>2026-04-21T11:49:13.992Z</time></trkpt><trkpt lat="45.7058713" lon="9.4438351"><ele>270.6</ele><time>2026-04-21T11:49:15.992Z</time></trkpt><trkpt lat="45.705824" lon="9.4439069"><ele>270.8</ele><time>2026-04-21T11:49:16.992Z</time></trkpt><trkpt lat="45.7057882" lon="9.4440361"><ele>271.0</ele><time>2026-04-21T11:49:18.992Z</time></trkpt><trkpt lat="45.7057594" lon="9.4441569"><ele>269.3333333333333</ele><time>2026-04-21T11:49:20.992Z</time></trkpt><trkpt lat="45.7057559" lon="9.4442656"><ele>267.66666666666663</ele><time>2026-04-21T11:49:22.992Z</time></trkpt><trkpt lat="45.7057449" lon="9.4444117"><ele>266.0</ele><time>2026-04-21T11:49:24.992Z</time></trkpt><trkpt lat="45.7057504" lon="9.4445484"><ele>264.3333333333333</ele><time>2026-04-21T11:49:26.992Z</time></trkpt><trkpt lat="45.7057622" lon="9.4446869"><ele>262.6666666666667</ele><time>2026-04-21T11:49:28.992Z</time></trkpt><trkpt lat="45.7057747" lon="9.4447899"><ele>261.0</ele><time>2026-04-21T11:49:29.992Z</time></trkpt><trkpt lat="45.7057697" lon="9.4449221"><ele>260.6666666666667</ele><time>2026-04-21T11:49:31.992Z</time></trkpt><trkpt lat="45.7057762" lon="9.445062"><ele>260.3333333333333</ele><time>2026-04-21T11:49:33.992Z</time></trkpt><trkpt lat="45.7057859" lon="9.4451764"><ele>260.0</ele><time>2026-04-21T11:49:35.992Z</time></trkpt><trkpt lat="45.7057874" lon="9.4453009"><ele>259.66666666666663</ele><time>2026-04-21T11:49:37.992Z</time></trkpt><trkpt lat="45.7057897" lon="9.4453997"><ele>259.3333333333333</ele><time>2026-04-21T11:49:39.992Z</time></trkpt><trkpt lat="45.7057776" lon="9.4455207"><ele>259.0</ele><time>2026-04-21T11:49:41.992Z</time></trkpt><trkpt lat="45.7057781" lon="9.4456244"><ele>258.0</ele><time>2026-04-21T11:49:43.992Z</time></trkpt><trkpt lat="45.7058151" lon="9.4457307"><ele>257.0</ele><time>2026-04-21T11:49:49.992Z</time></trkpt><trkpt lat="45.7058028" lon="9.4458464"><ele>256.0</ele><time>2026-04-21T11:49:52.992Z</time></trkpt><trkpt lat="45.7057423" lon="9.4458861"><ele>255.0</ele><time>2026-04-21T11:49:54.992Z</time></trkpt><trkpt lat="45.7056597" lon="9.445892"><ele>253.99999999999997</ele><time>2026-04-21T11:49:56.992Z</time></trkpt><trkpt lat="45.7055974" lon="9.4459112"><ele>253.0</ele><time>2026-04-21T11:49:57.992Z</time></trkpt><trkpt lat="45.7054947" lon="9.4458761"><ele>252.99999999999997</ele><time>2026-04-21T11:49:59.992Z</time></trkpt><trkpt lat="45.7054305" lon="9.4458704"><ele>253.0</ele><time>2026-04-21T11:50:00.992Z</time></trkpt><trkpt lat="45.7053673" lon="9.4458508"><ele>253.0</ele><time>2026-04-21T11:50:01.992Z</time></trkpt><trkpt lat="45.7052642" lon="9.4458127"><ele>253.0</ele><time>2026-04-21T11:50:03.992Z</time></trkpt><trkpt lat="45.7051629" lon="9.4457782"><ele>252.99999999999997</ele><time>2026-04-21T11:50:05.992Z</time></trkpt><trkpt lat="45.7050723" lon="9.4457516"><ele>253.0</ele><time>2026-04-21T11:50:07.992Z</time></trkpt><trkpt lat="45.7049825" lon="9.4457046"><ele>253.0</ele><time>2026-04-21T11:50:09.992Z</time></trkpt><trkpt lat="45.7048856" lon="9.4455839"><ele>253.0</ele><time>2026-04-21T11:50:11.992Z</time></trkpt><trkpt lat="45.7048255" lon="9.445448"><ele>253.0</ele><time>2026-04-21T11:50:13.992Z</time></trkpt><trkpt lat="45.7047818" lon="9.4453144"><ele>253.0</ele><time>2026-04-21T11:50:15.992Z</time></trkpt><trkpt lat="45.7047214" lon="9.4451998"><ele>253.0</ele><time>2026-04-21T11:50:17.992Z</time></trkpt><trkpt lat="45.7046429" lon="9.4451215"><ele>253.0</ele><time>2026-04-21T11:50:19.992Z</time></trkpt><trkpt lat="45.7045659" lon="9.4450374"><ele>253.0</ele><time>2026-04-21T11:50:21.992Z</time></trkpt><trkpt lat="45.7044851" lon="9.4449414"><ele>253.0</ele><time>2026-04-21T11:50:23.992Z</time></trkpt><trkpt lat="45.7043938" lon="9.4448572"><ele>253.0</ele><time>2026-04-21T11:50:25.992Z</time></trkpt><trkpt lat="45.7042953" lon="9.4447918"><ele>253.0</ele><time>2026-04-21T11:50:27.992Z</time></trkpt><trkpt lat="45.7041967" lon="9.4447205"><ele>253.0</ele><time>2026-04-21T11:50:29.992Z</time></trkpt><trkpt lat="45.7040937" lon="9.4446791"><ele>253.0</ele><time>2026-04-21T11:50:31.991Z</time></trkpt><trkpt lat="45.7040168" lon="9.4446239"><ele>253.0</ele><time>2026-04-21T11:50:33.992Z</time></trkpt><trkpt lat="45.7039224" lon="9.4445692"><ele>253.0</ele><time>2026-04-21T11:50:35.992Z</time></trkpt><trkpt lat="45.7038409" lon="9.4445581"><ele>253.0</ele><time>2026-04-21T11:50:37.992Z</time></trkpt><trkpt lat="45.7037407" lon="9.444544"><ele>253.49999999999997</ele><time>2026-04-21T11:50:39.992Z</time></trkpt><trkpt lat="45.7036497" lon="9.4445007"><ele>254.0</ele><time>2026-04-21T11:50:42.992Z</time></trkpt><trkpt lat="45.7035463" lon="9.4444575"><ele>254.5</ele><time>2026-04-21T11:50:44.992Z</time></trkpt><trkpt lat="45.7034801" lon="9.4444075"><ele>255.0</ele><time>2026-04-21T11:50:46.992Z</time></trkpt><trkpt lat="45.7034194" lon="9.4443814"><ele>255.49999999999997</ele><time>2026-04-21T11:50:48.992Z</time></trkpt><trkpt lat="45.7033439" lon="9.4443492"><ele>256.0</ele><time>2026-04-21T11:50:51.992Z</time></trkpt><trkpt lat="45.7032821" lon="9.4443308"><ele>256.16666666666663</ele><time>2026-04-21T11:50:53.992Z</time></trkpt><trkpt lat="45.7032138" lon="9.4442778"><ele>256.3333333333333</ele><time>2026-04-21T11:50:56.992Z</time></trkpt><trkpt lat="45.7031396" lon="9.444249"><ele>256.5</ele><time>2026-04-21T11:50:59.992Z</time></trkpt><trkpt lat="45.7030497" lon="9.4441867"><ele>256.6666666666667</ele><time>2026-04-21T11:51:02.992Z</time></trkpt><trkpt lat="45.702973" lon="9.4441613"><ele>256.83333333333337</ele><time>2026-04-21T11:51:04.992Z</time></trkpt><trkpt lat="45.7028933" lon="9.4441223"><ele>257.0</ele><time>2026-04-21T11:51:06.992Z</time></trkpt><trkpt lat="45.7028284" lon="9.4441004"><ele>257.0</ele><time>2026-04-21T11:51:08.992Z</time></trkpt><trkpt lat="45.7027644" lon="9.4440833"><ele>257.0</ele><time>2026-04-21T11:51:10.992Z</time></trkpt><trkpt lat="45.7030156" lon="9.4441634"><ele>257.0</ele><time>2026-04-21T11:51:14.992Z</time></trkpt><trkpt lat="45.7027693" lon="9.4440821"><ele>258.4</ele><time>2026-04-21T11:51:17.992Z</time></trkpt><trkpt lat="45.7025988" lon="9.4440514"><ele>259.79999999999995</ele><time>2026-04-21T11:51:18.992Z</time></trkpt><trkpt lat="45.7025258" lon="9.4440328"><ele>261.2</ele><time>2026-04-21T11:51:20.002Z</time></trkpt><trkpt lat="45.7024708" lon="9.4439429"><ele>262.59999999999997</ele><time>2026-04-21T11:51:22.992Z</time></trkpt><trkpt lat="45.7024632" lon="9.4438505"><ele>264.0</ele><time>2026-04-21T11:51:25.992Z</time></trkpt><trkpt lat="45.7024333" lon="9.4437622"><ele>265.1428571428571</ele><time>2026-04-21T11:51:28.906Z</time></trkpt><trkpt lat="45.7023914" lon="9.4436732"><ele>266.2857142857143</ele><time>2026-04-21T11:51:31.992Z</time></trkpt><trkpt lat="45.7023793" lon="9.443551"><ele>267.42857142857144</ele><time>2026-04-21T11:51:32.992Z</time></trkpt><trkpt lat="45.7023388" lon="9.4434679"><ele>268.57142857142856</ele><time>2026-04-21T11:51:35.992Z</time></trkpt><trkpt lat="45.70231" lon="9.443371"><ele>269.7142857142857</ele><time>2026-04-21T11:51:38.992Z</time></trkpt><trkpt lat="45.7022671" lon="9.4432929"><ele>270.85714285714283</ele><time>2026-04-21T11:51:41.992Z</time></trkpt><trkpt lat="45.7022213" lon="9.4432139"><ele>272.0</ele><time>2026-04-21T11:51:44.992Z</time></trkpt><trkpt lat="45.7021865" lon="9.4431262"><ele>272.0</ele><time>2026-04-21T11:51:47.992Z</time></trkpt><trkpt lat="45.7021305" lon="9.4430809"><ele>272.0</ele><time>2026-04-21T11:51:50.992Z</time></trkpt><trkpt lat="45.7020568" lon="9.443048"><ele>272.0</ele><time>2026-04-21T11:51:54.992Z</time></trkpt><trkpt lat="45.7019998" lon="9.4429811"><ele>272.0</ele><time>2026-04-21T11:51:58.992Z</time></trkpt><trkpt lat="45.7019301" lon="9.4429141"><ele>272.0</ele><time>2026-04-21T11:52:02.992Z</time></trkpt><trkpt lat="45.7018682" lon="9.4428538"><ele>272.0</ele><time>2026-04-21T11:52:05.992Z</time></trkpt><trkpt lat="45.7017989" lon="9.4427846"><ele>274.6666666666667</ele><time>2026-04-21T11:52:08.992Z</time></trkpt><trkpt lat="45.7017291" lon="9.4427157"><ele>277.33333333333337</ele><time>2026-04-21T11:52:11.992Z</time></trkpt><trkpt lat="45.7016828" lon="9.442643"><ele>280.0</ele><time>2026-04-21T11:52:14.991Z</time></trkpt><trkpt lat="45.7016208" lon="9.4425975"><ele>282.6666666666667</ele><time>2026-04-21T11:52:17.992Z</time></trkpt><trkpt lat="45.7015583" lon="9.4425318"><ele>285.3333333333333</ele><time>2026-04-21T11:52:20.992Z</time></trkpt><trkpt lat="45.7014852" lon="9.4424667"><ele>288.0</ele><time>2026-04-21T11:52:23.992Z</time></trkpt><trkpt lat="45.701425" lon="9.442388"><ele>288.0</ele><time>2026-04-21T11:52:26.992Z</time></trkpt><trkpt lat="45.7013605" lon="9.4423445"><ele>288.0</ele><time>2026-04-21T11:52:28.992Z</time></trkpt><trkpt lat="45.7012905" lon="9.4422687"><ele>288.0</ele><time>2026-04-21T11:52:31.992Z</time></trkpt><trkpt lat="45.7012269" lon="9.442217"><ele>288.0</ele><time>2026-04-21T11:52:34.992Z</time></trkpt><trkpt lat="45.7011569" lon="9.4421677"><ele>288.0</ele><time>2026-04-21T11:52:37.992Z</time></trkpt><trkpt lat="45.7010871" lon="9.4420944"><ele>288.0</ele><time>2026-04-21T11:52:40.992Z</time></trkpt><trkpt lat="45.7010202" lon="9.4420116"><ele>289.6666666666667</ele><time>2026-04-21T11:52:43.992Z</time></trkpt><trkpt lat="45.7009616" lon="9.4419654"><ele>291.3333333333333</ele><time>2026-04-21T11:52:45.992Z</time></trkpt><trkpt lat="45.7008967" lon="9.4419177"><ele>293.0</ele><time>2026-04-21T11:52:47.992Z</time></trkpt><trkpt lat="45.7008191" lon="9.4418526"><ele>294.66666666666663</ele><time>2026-04-21T11:52:50.992Z</time></trkpt><trkpt lat="45.7007666" lon="9.4417931"><ele>296.3333333333333</ele><time>2026-04-21T11:52:52.992Z</time></trkpt><trkpt lat="45.7007095" lon="9.4417537"><ele>298.0</ele><time>2026-04-21T11:52:54.992Z</time></trkpt><trkpt lat="45.7006411" lon="9.4416639"><ele>298.0</ele><time>2026-04-21T11:52:57.992Z</time></trkpt><trkpt lat="45.7005654" lon="9.4415976"><ele>298.0</ele><time>2026-04-21T11:53:00.992Z</time></trkpt><trkpt lat="45.7005042" lon="9.4415608"><ele>298.0</ele><time>2026-04-21T11:53:02.992Z</time></trkpt><trkpt lat="45.7004199" lon="9.4414876"><ele>298.0</ele><time>2026-04-21T11:53:05.992Z</time></trkpt><trkpt lat="45.7003606" lon="9.4414319"><ele>298.0</ele><time>2026-04-21T11:53:07.992Z</time></trkpt><trkpt lat="45.700281" lon="9.4413929"><ele>298.0</ele><time>2026-04-21T11:53:10.992Z</time></trkpt><trkpt lat="45.7002035" lon="9.4413537"><ele>299.5</ele><time>2026-04-21T11:53:13.992Z</time></trkpt><trkpt lat="45.7001365" lon="9.4413358"><ele>301.0</ele><time>2026-04-21T11:53:15.992Z</time></trkpt><trkpt lat="45.7000668" lon="9.4413085"><ele>302.5</ele><time>2026-04-21T11:53:17.992Z</time></trkpt><trkpt lat="45.6999902" lon="9.4412517"><ele>304.0</ele><time>2026-04-21T11:53:19.992Z</time></trkpt><trkpt lat="45.6999008" lon="9.4412109"><ele>305.5</ele><time>2026-04-21T11:53:22.992Z</time></trkpt><trkpt lat="45.6998249" lon="9.4411453"><ele>307.0</ele><time>2026-04-21T11:53:24.991Z</time></trkpt><trkpt lat="45.6997328" lon="9.4411115"><ele>307.0</ele><time>2026-04-21T11:53:27.992Z</time></trkpt><trkpt lat="45.6996562" lon="9.4410565"><ele>307.0</ele><time>2026-04-21T11:53:29.992Z</time></trkpt><trkpt lat="45.6995915" lon="9.4409884"><ele>307.0</ele><time>2026-04-21T11:53:31.992Z</time></trkpt><trkpt lat="45.6995078" lon="9.4409284"><ele>307.0</ele><time>2026-04-21T11:53:33.992Z</time></trkpt><trkpt lat="45.6994325" lon="9.4408815"><ele>307.0</ele><time>2026-04-21T11:53:35.992Z</time></trkpt><trkpt lat="45.6993657" lon="9.4408506"><ele>307.0</ele><time>2026-04-21T11:53:37.992Z</time></trkpt><trkpt lat="45.6992845" lon="9.4408271"><ele>306.8333333333333</ele><time>2026-04-21T11:53:39.992Z</time></trkpt><trkpt lat="45.6992068" lon="9.440801"><ele>306.66666666666663</ele><time>2026-04-21T11:53:41.992Z</time></trkpt><trkpt lat="45.6991288" lon="9.440741"><ele>306.5</ele><time>2026-04-21T11:53:43.992Z</time></trkpt><trkpt lat="45.6990509" lon="9.4406964"><ele>306.3333333333333</ele><time>2026-04-21T11:53:45.992Z</time></trkpt><trkpt lat="45.6989651" lon="9.4406613"><ele>306.1666666666667</ele><time>2026-04-21T11:53:47.992Z</time></trkpt><trkpt lat="45.6988799" lon="9.4406189"><ele>306.0</ele><time>2026-04-21T11:53:49.992Z</time></trkpt><trkpt lat="45.6987886" lon="9.4405741"><ele>306.0</ele><time>2026-04-21T11:53:51.992Z</time></trkpt><trkpt lat="45.6987065" lon="9.4405271"><ele>306.0</ele><time>2026-04-21T11:53:53.992Z</time></trkpt><trkpt lat="45.6986086" lon="9.4404768"><ele>306.0</ele><time>2026-04-21T11:53:55.992Z</time></trkpt><trkpt lat="45.698503" lon="9.4404389"><ele>306.0</ele><time>2026-04-21T11:53:57.992Z</time></trkpt><trkpt lat="45.6984103" lon="9.4404282"><ele>306.0</ele><time>2026-04-21T11:53:59.992Z</time></trkpt><trkpt lat="45.6983151" lon="9.4404383"><ele>307.5</ele><time>2026-04-21T11:54:01.992Z</time></trkpt><trkpt lat="45.6985454" lon="9.4405417"><ele>309.0</ele><time>2026-04-21T11:54:03.992Z</time></trkpt><trkpt lat="45.6978201" lon="9.4405377"><ele>308.2</ele><time>2026-04-21T11:54:08.992Z</time></trkpt><trkpt lat="45.6977239" lon="9.4405693"><ele>307.4</ele><time>2026-04-21T11:54:09.992Z</time></trkpt><trkpt lat="45.6976393" lon="9.4405742"><ele>306.6</ele><time>2026-04-21T11:54:10.992Z</time></trkpt><trkpt lat="45.6975447" lon="9.440612"><ele>305.8</ele><time>2026-04-21T11:54:11.992Z</time></trkpt><trkpt lat="45.6974508" lon="9.4406237"><ele>305.0</ele><time>2026-04-21T11:54:12.992Z</time></trkpt><trkpt lat="45.6973467" lon="9.4406495"><ele>305.0</ele><time>2026-04-21T11:54:14.992Z</time></trkpt><trkpt lat="45.6971809" lon="9.4407105"><ele>305.0</ele><time>2026-04-21T11:54:23.992Z</time></trkpt><trkpt lat="45.6970497" lon="9.4407549"><ele>305.0</ele><time>2026-04-21T11:54:25.992Z</time></trkpt><trkpt lat="45.6969831" lon="9.4407873"><ele>305.0</ele><time>2026-04-21T11:54:26.992Z</time></trkpt><trkpt lat="45.6968337" lon="9.4407945"><ele>303.5</ele><time>2026-04-21T11:54:28.992Z</time></trkpt><trkpt lat="45.6967475" lon="9.4408025"><ele>302.0</ele><time>2026-04-21T11:54:29.992Z</time></trkpt><trkpt lat="45.6966769" lon="9.4408013"><ele>300.5</ele><time>2026-04-21T11:54:30.992Z</time></trkpt><trkpt lat="45.6965933" lon="9.4408028"><ele>299.0</ele><time>2026-04-21T11:54:31.992Z</time></trkpt><trkpt lat="45.6965016" lon="9.4408187"><ele>297.5</ele><time>2026-04-21T11:54:32.992Z</time></trkpt><trkpt lat="45.6964029" lon="9.44083"><ele>296.0</ele><time>2026-04-21T11:54:33.992Z</time></trkpt><trkpt lat="45.6963171" lon="9.4408437"><ele>296.0</ele><time>2026-04-21T11:54:34.992Z</time></trkpt><trkpt lat="45.6962316" lon="9.440856"><ele>296.0</ele><time>2026-04-21T11:54:35.992Z</time></trkpt><trkpt lat="45.6961454" lon="9.4408719"><ele>296.0</ele><time>2026-04-21T11:54:36.992Z</time></trkpt><trkpt lat="45.6960491" lon="9.4408805"><ele>296.0</ele><time>2026-04-21T11:54:37.992Z</time></trkpt><trkpt lat="45.6959497" lon="9.4408983"><ele>296.0</ele><time>2026-04-21T11:54:38.992Z</time></trkpt><trkpt lat="45.6958616" lon="9.4408947"><ele>295.2</ele><time>2026-04-21T11:54:39.992Z</time></trkpt><trkpt lat="45.6957636" lon="9.4408884"><ele>294.40000000000003</ele><time>2026-04-21T11:54:40.992Z</time></trkpt><trkpt lat="45.6956685" lon="9.440878"><ele>293.6</ele><time>2026-04-21T11:54:41.992Z</time></trkpt><trkpt lat="45.695563" lon="9.4408549"><ele>292.8</ele><time>2026-04-21T11:54:42.992Z</time></trkpt><trkpt lat="45.6954615" lon="9.4408439"><ele>292.0</ele><time>2026-04-21T11:54:43.992Z</time></trkpt><trkpt lat="45.6953561" lon="9.44083"><ele>292.0</ele><time>2026-04-21T11:54:44.992Z</time></trkpt><trkpt lat="45.6952542" lon="9.4408158"><ele>292.0</ele><time>2026-04-21T11:54:45.992Z</time></trkpt><trkpt lat="45.6951576" lon="9.4407932"><ele>292.0</ele><time>2026-04-21T11:54:46.992Z</time></trkpt><trkpt lat="45.6950571" lon="9.4407776"><ele>292.0</ele><time>2026-04-21T11:54:47.991Z</time></trkpt><trkpt lat="45.6949641" lon="9.4407763"><ele>292.0</ele><time>2026-04-21T11:54:48.992Z</time></trkpt><trkpt lat="45.6948658" lon="9.4407979"><ele>290.8</ele><time>2026-04-21T11:54:49.992Z</time></trkpt><trkpt lat="45.6947739" lon="9.4408284"><ele>289.6</ele><time>2026-04-21T11:54:50.992Z</time></trkpt><trkpt lat="45.6946876" lon="9.4408879"><ele>288.40000000000003</ele><time>2026-04-21T11:54:51.992Z</time></trkpt><trkpt lat="45.694606" lon="9.4409416"><ele>287.2</ele><time>2026-04-21T11:54:52.992Z</time></trkpt><trkpt lat="45.6945374" lon="9.4410131"><ele>286.0</ele><time>2026-04-21T11:54:53.992Z</time></trkpt><trkpt lat="45.6944555" lon="9.4410606"><ele>285.2</ele><time>2026-04-21T11:54:54.992Z</time></trkpt><trkpt lat="45.6943759" lon="9.4411275"><ele>284.40000000000003</ele><time>2026-04-21T11:54:55.992Z</time></trkpt><trkpt lat="45.6942617" lon="9.4411824"><ele>283.6</ele><time>2026-04-21T11:54:56.992Z</time></trkpt><trkpt lat="45.6941682" lon="9.4412128"><ele>282.8</ele><time>2026-04-21T11:54:57.992Z</time></trkpt><trkpt lat="45.6940804" lon="9.4412554"><ele>282.0</ele><time>2026-04-21T11:54:58.992Z</time></trkpt><trkpt lat="45.6939915" lon="9.4412927"><ele>282.1666666666667</ele><time>2026-04-21T11:54:59.992Z</time></trkpt><trkpt lat="45.6939071" lon="9.4413192"><ele>282.3333333333333</ele><time>2026-04-21T11:55:00.992Z</time></trkpt><trkpt lat="45.6938228" lon="9.4413517"><ele>282.5</ele><time>2026-04-21T11:55:01.992Z</time></trkpt><trkpt lat="45.6937448" lon="9.4413802"><ele>282.66666666666663</ele><time>2026-04-21T11:55:02.992Z</time></trkpt><trkpt lat="45.6936592" lon="9.4414055"><ele>282.8333333333333</ele><time>2026-04-21T11:55:03.992Z</time></trkpt><trkpt lat="45.6935785" lon="9.4414411"><ele>283.0</ele><time>2026-04-21T11:55:04.992Z</time></trkpt><trkpt lat="45.6935045" lon="9.4414658"><ele>282.66666666666663</ele><time>2026-04-21T11:55:05.992Z</time></trkpt><trkpt lat="45.6934252" lon="9.4414988"><ele>282.3333333333333</ele><time>2026-04-21T11:55:06.992Z</time></trkpt><trkpt lat="45.6933535" lon="9.4415217"><ele>282.0</ele><time>2026-04-21T11:55:07.992Z</time></trkpt><trkpt lat="45.6932736" lon="9.4415402"><ele>281.6666666666667</ele><time>2026-04-21T11:55:08.991Z</time></trkpt><trkpt lat="45.6931474" lon="9.441581"><ele>281.33333333333337</ele><time>2026-04-21T11:55:10.992Z</time></trkpt><trkpt lat="45.6930775" lon="9.4416173"><ele>281.0</ele><time>2026-04-21T11:55:11.992Z</time></trkpt><trkpt lat="45.6929833" lon="9.4416489"><ele>281.00000000000006</ele><time>2026-04-21T11:55:12.992Z</time></trkpt><trkpt lat="45.6929072" lon="9.4416733"><ele>281.0</ele><time>2026-04-21T11:55:13.992Z</time></trkpt><trkpt lat="45.6928381" lon="9.4417024"><ele>281.0</ele><time>2026-04-21T11:55:14.992Z</time></trkpt><trkpt lat="45.6927725" lon="9.4417049"><ele>281.0</ele><time>2026-04-21T11:55:15.992Z</time></trkpt><trkpt lat="45.6927076" lon="9.4417226"><ele>281.0</ele><time>2026-04-21T11:55:16.992Z</time></trkpt><trkpt lat="45.6926256" lon="9.4417468"><ele>281.00000000000006</ele><time>2026-04-21T11:55:17.992Z</time></trkpt><trkpt lat="45.6925563" lon="9.4417661"><ele>281.0</ele><time>2026-04-21T11:55:18.992Z</time></trkpt><trkpt lat="45.6924765" lon="9.4417779"><ele>280.0</ele><time>2026-04-21T11:55:19.992Z</time></trkpt><trkpt lat="45.6924102" lon="9.4417768"><ele>279.0</ele><time>2026-04-21T11:55:20.992Z</time></trkpt><trkpt lat="45.6923423" lon="9.441763"><ele>278.0</ele><time>2026-04-21T11:55:21.992Z</time></trkpt><trkpt lat="45.6922756" lon="9.4417597"><ele>277.0</ele><time>2026-04-21T11:55:22.992Z</time></trkpt><trkpt lat="45.6921588" lon="9.441766"><ele>276.0</ele><time>2026-04-21T11:55:24.991Z</time></trkpt><trkpt lat="45.6920455" lon="9.4417395"><ele>275.0</ele><time>2026-04-21T11:55:25.992Z</time></trkpt><trkpt lat="45.6919825" lon="9.4417334"><ele>274.6666666666667</ele><time>2026-04-21T11:55:26.992Z</time></trkpt><trkpt lat="45.6918998" lon="9.4416983"><ele>274.33333333333337</ele><time>2026-04-21T11:55:27.992Z</time></trkpt><trkpt lat="45.6918202" lon="9.441681"><ele>274.0</ele><time>2026-04-21T11:55:28.992Z</time></trkpt><trkpt lat="45.6917525" lon="9.4416749"><ele>273.6666666666667</ele><time>2026-04-21T11:55:29.992Z</time></trkpt><trkpt lat="45.6916819" lon="9.4416469"><ele>273.3333333333333</ele><time>2026-04-21T11:55:30.992Z</time></trkpt><trkpt lat="45.6916023" lon="9.4416484"><ele>273.0</ele><time>2026-04-21T11:55:31.992Z</time></trkpt><trkpt lat="45.6914924" lon="9.4417443"><ele>273.0</ele><time>2026-04-21T11:55:33.992Z</time></trkpt><trkpt lat="45.6914434" lon="9.4418868"><ele>273.0</ele><time>2026-04-21T11:55:35.992Z</time></trkpt><trkpt lat="45.6913598" lon="9.441991"><ele>273.0</ele><time>2026-04-21T11:55:37.992Z</time></trkpt><trkpt lat="45.6912486" lon="9.4420533"><ele>273.0</ele><time>2026-04-21T11:55:39.992Z</time></trkpt><trkpt lat="45.6911494" lon="9.4420985"><ele>273.0</ele><time>2026-04-21T11:55:41.992Z</time></trkpt><trkpt lat="45.6910619" lon="9.4421518"><ele>273.8333333333333</ele><time>2026-04-21T11:55:43.992Z</time></trkpt><trkpt lat="45.6909845" lon="9.4422104"><ele>274.6666666666667</ele><time>2026-04-21T11:55:47.992Z</time></trkpt><trkpt lat="45.6908942" lon="9.4422864"><ele>275.5</ele><time>2026-04-21T11:55:49.992Z</time></trkpt><trkpt lat="45.6908325" lon="9.44233"><ele>276.33333333333337</ele><time>2026-04-21T11:55:50.992Z</time></trkpt><trkpt lat="45.6907605" lon="9.4423347"><ele>277.1666666666667</ele><time>2026-04-21T11:55:51.992Z</time></trkpt><trkpt lat="45.6906962" lon="9.4423749"><ele>278.0</ele><time>2026-04-21T11:55:52.992Z</time></trkpt><trkpt lat="45.6905971" lon="9.4424665"><ele>278.0</ele><time>2026-04-21T11:55:54.992Z</time></trkpt><trkpt lat="45.6904906" lon="9.4425372"><ele>278.0</ele><time>2026-04-21T11:55:56.992Z</time></trkpt><trkpt lat="45.690381" lon="9.4425907"><ele>278.0</ele><time>2026-04-21T11:55:58.992Z</time></trkpt><trkpt lat="45.6903166" lon="9.4426341"><ele>278.0</ele><time>2026-04-21T11:55:59.991Z</time></trkpt><trkpt lat="45.6902485" lon="9.4426909"><ele>278.0</ele><time>2026-04-21T11:56:00.992Z</time></trkpt><trkpt lat="45.6901943" lon="9.4427456"><ele>278.0</ele><time>2026-04-21T11:56:01.992Z</time></trkpt><trkpt lat="45.6901263" lon="9.4427772"><ele>277.8</ele><time>2026-04-21T11:56:02.992Z</time></trkpt><trkpt lat="45.6900576" lon="9.4428124"><ele>277.6</ele><time>2026-04-21T11:56:03.992Z</time></trkpt><trkpt lat="45.6899441" lon="9.4428981"><ele>277.4</ele><time>2026-04-21T11:56:05.992Z</time></trkpt><trkpt lat="45.6898619" lon="9.4429356"><ele>277.2</ele><time>2026-04-21T11:56:06.992Z</time></trkpt><trkpt lat="45.6897756" lon="9.4430329"><ele>277.0</ele><time>2026-04-21T11:56:08.992Z</time></trkpt><trkpt lat="45.6897124" lon="9.4430819"><ele>277.0</ele><time>2026-04-21T11:56:09.992Z</time></trkpt><trkpt lat="45.6896111" lon="9.4431705"><ele>277.0</ele><time>2026-04-21T11:56:11.992Z</time></trkpt><trkpt lat="45.6895425" lon="9.4432092"><ele>277.0</ele><time>2026-04-21T11:56:12.992Z</time></trkpt><trkpt lat="45.6894383" lon="9.4432904"><ele>277.0</ele><time>2026-04-21T11:56:14.992Z</time></trkpt><trkpt lat="45.6893834" lon="9.4433453"><ele>277.0</ele><time>2026-04-21T11:56:15.992Z</time></trkpt><trkpt lat="45.6892879" lon="9.4434488"><ele>277.0</ele><time>2026-04-21T11:56:17.992Z</time></trkpt><trkpt lat="45.6891877" lon="9.4435527"><ele>277.0</ele><time>2026-04-21T11:56:19.992Z</time></trkpt><trkpt lat="45.6891377" lon="9.4436233"><ele>277.0</ele><time>2026-04-21T11:56:20.992Z</time></trkpt><trkpt lat="45.6890768" lon="9.4436852"><ele>277.0</ele><time>2026-04-21T11:56:21.992Z</time></trkpt><trkpt lat="45.6890192" lon="9.4437255"><ele>277.0</ele><time>2026-04-21T11:56:22.991Z</time></trkpt><trkpt lat="45.6889578" lon="9.4437904"><ele>277.0</ele><time>2026-04-21T11:56:23.992Z</time></trkpt><trkpt lat="45.6888817" lon="9.4438412"><ele>277.0</ele><time>2026-04-21T11:56:24.992Z</time></trkpt><trkpt lat="45.6887862" lon="9.4439335"><ele>277.0</ele><time>2026-04-21T11:56:26.992Z</time></trkpt><trkpt lat="45.6887074" lon="9.44402"><ele>277.0</ele><time>2026-04-21T11:56:28.992Z</time></trkpt><trkpt lat="45.6886393" lon="9.4440549"><ele>277.0</ele><time>2026-04-21T11:56:29.992Z</time></trkpt><trkpt lat="45.6885804" lon="9.4440992"><ele>277.0</ele><time>2026-04-21T11:56:30.992Z</time></trkpt><trkpt lat="45.6884826" lon="9.4441886"><ele>276.8333333333333</ele><time>2026-04-21T11:56:32.992Z</time></trkpt><trkpt lat="45.6884155" lon="9.4442131"><ele>276.66666666666663</ele><time>2026-04-21T11:56:33.992Z</time></trkpt><trkpt lat="45.688349" lon="9.4442544"><ele>276.5</ele><time>2026-04-21T11:56:34.992Z</time></trkpt><trkpt lat="45.6882525" lon="9.4443495"><ele>276.3333333333333</ele><time>2026-04-21T11:56:36.992Z</time></trkpt><trkpt lat="45.6881996" lon="9.4444123"><ele>276.1666666666667</ele><time>2026-04-21T11:56:37.992Z</time></trkpt><trkpt lat="45.6881249" lon="9.4444637"><ele>276.0</ele><time>2026-04-21T11:56:38.991Z</time></trkpt><trkpt lat="45.688014" lon="9.4445528"><ele>276.0</ele><time>2026-04-21T11:56:40.992Z</time></trkpt><trkpt lat="45.6879515" lon="9.4446113"><ele>276.0</ele><time>2026-04-21T11:56:41.992Z</time></trkpt><trkpt lat="45.6878882" lon="9.4446612"><ele>276.0</ele><time>2026-04-21T11:56:42.992Z</time></trkpt><trkpt lat="45.6878329" lon="9.4447163"><ele>276.0</ele><time>2026-04-21T11:56:43.992Z</time></trkpt><trkpt lat="45.6877581" lon="9.4447541"><ele>276.0</ele><time>2026-04-21T11:56:44.992Z</time></trkpt><trkpt lat="45.6876422" lon="9.4448402"><ele>276.0</ele><time>2026-04-21T11:56:46.992Z</time></trkpt><trkpt lat="45.6875867" lon="9.444883"><ele>275.75</ele><time>2026-04-21T11:56:47.991Z</time></trkpt><trkpt lat="45.6875079" lon="9.4449215"><ele>275.5</ele><time>2026-04-21T11:56:48.992Z</time></trkpt><trkpt lat="45.6873888" lon="9.445024"><ele>275.25</ele><time>2026-04-21T11:56:50.992Z</time></trkpt><trkpt lat="45.6872746" lon="9.4451219"><ele>275.0</ele><time>2026-04-21T11:56:52.992Z</time></trkpt><trkpt lat="45.6871828" lon="9.4451898"><ele>275.0</ele><time>2026-04-21T11:56:54.992Z</time></trkpt><trkpt lat="45.6871151" lon="9.4452224"><ele>275.0</ele><time>2026-04-21T11:56:55.992Z</time></trkpt><trkpt lat="45.6870115" lon="9.4452527"><ele>275.0</ele><time>2026-04-21T11:56:57.992Z</time></trkpt><trkpt lat="45.6869336" lon="9.4452443"><ele>275.0</ele><time>2026-04-21T11:57:00.992Z</time></trkpt><trkpt lat="45.6868455" lon="9.4452764"><ele>275.0</ele><time>2026-04-21T11:57:01.992Z</time></trkpt><trkpt lat="45.6867665" lon="9.4452758"><ele>275.0</ele><time>2026-04-21T11:57:02.992Z</time></trkpt><trkpt lat="45.6866644" lon="9.4452656"><ele>274.8571428571429</ele><time>2026-04-21T11:57:03.992Z</time></trkpt><trkpt lat="45.6866004" lon="9.4452516"><ele>274.7142857142857</ele><time>2026-04-21T11:57:04.992Z</time></trkpt><trkpt lat="45.6865357" lon="9.4452328"><ele>274.57142857142856</ele><time>2026-04-21T11:57:05.992Z</time></trkpt><trkpt lat="45.6864602" lon="9.4452123"><ele>274.42857142857144</ele><time>2026-04-21T11:57:06.992Z</time></trkpt><trkpt lat="45.6863807" lon="9.4451994"><ele>274.2857142857143</ele><time>2026-04-21T11:57:07.992Z</time></trkpt><trkpt lat="45.6863053" lon="9.4451866"><ele>274.14285714285717</ele><time>2026-04-21T11:57:08.992Z</time></trkpt><trkpt lat="45.6862387" lon="9.4451656"><ele>274.0</ele><time>2026-04-21T11:57:09.992Z</time></trkpt><trkpt lat="45.6861653" lon="9.4451572"><ele>273.7142857142857</ele><time>2026-04-21T11:57:10.992Z</time></trkpt><trkpt lat="45.686088" lon="9.4451466"><ele>273.42857142857144</ele><time>2026-04-21T11:57:11.992Z</time></trkpt><trkpt lat="45.6860199" lon="9.4451288"><ele>273.1428571428571</ele><time>2026-04-21T11:57:12.992Z</time></trkpt><trkpt lat="45.6859392" lon="9.4451233"><ele>272.8571428571429</ele><time>2026-04-21T11:57:13.992Z</time></trkpt><trkpt lat="45.6858775" lon="9.4451042"><ele>272.57142857142856</ele><time>2026-04-21T11:57:14.992Z</time></trkpt><trkpt lat="45.6858063" lon="9.4450887"><ele>272.2857142857143</ele><time>2026-04-21T11:57:15.992Z</time></trkpt><trkpt lat="45.6857355" lon="9.4450674"><ele>272.0</ele><time>2026-04-21T11:57:16.992Z</time></trkpt><trkpt lat="45.6856686" lon="9.4450488"><ele>271.99999999999994</ele><time>2026-04-21T11:57:17.992Z</time></trkpt><trkpt lat="45.6855958" lon="9.445034"><ele>272.0</ele><time>2026-04-21T11:57:18.992Z</time></trkpt><trkpt lat="45.68553" lon="9.4449997"><ele>272.0</ele><time>2026-04-21T11:57:19.991Z</time></trkpt><trkpt lat="45.6854571" lon="9.444971"><ele>272.0</ele><time>2026-04-21T11:57:20.992Z</time></trkpt><trkpt lat="45.6853901" lon="9.4449562"><ele>272.0</ele><time>2026-04-21T11:57:21.992Z</time></trkpt><trkpt lat="45.6853221" lon="9.444941"><ele>271.99999999999994</ele><time>2026-04-21T11:57:22.991Z</time></trkpt><trkpt lat="45.685254" lon="9.4449087"><ele>272.0</ele><time>2026-04-21T11:57:23.992Z</time></trkpt><trkpt lat="45.6851329" lon="9.444891"><ele>272.2</ele><time>2026-04-21T11:57:25.992Z</time></trkpt><trkpt lat="45.6850112" lon="9.4448533"><ele>272.4</ele><time>2026-04-21T11:57:27.992Z</time></trkpt><trkpt lat="45.6848967" lon="9.4448265"><ele>272.6</ele><time>2026-04-21T11:57:29.992Z</time></trkpt><trkpt lat="45.6848323" lon="9.4448191"><ele>272.8</ele><time>2026-04-21T11:57:30.992Z</time></trkpt><trkpt lat="45.6847818" lon="9.4447367"><ele>273.0</ele><time>2026-04-21T11:57:32.992Z</time></trkpt><trkpt lat="45.684753" lon="9.4446134"><ele>273.42857142857144</ele><time>2026-04-21T11:57:34.992Z</time></trkpt><trkpt lat="45.6847938" lon="9.4445445"><ele>273.8571428571429</ele><time>2026-04-21T11:57:36.992Z</time></trkpt><trkpt lat="45.6848339" lon="9.4444733"><ele>274.2857142857143</ele><time>2026-04-21T11:57:38.992Z</time></trkpt><trkpt lat="45.6848798" lon="9.4444022"><ele>274.7142857142857</ele><time>2026-04-21T11:57:40.991Z</time></trkpt><trkpt lat="45.6849353" lon="9.4443465"><ele>275.14285714285717</ele><time>2026-04-21T11:57:43.992Z</time></trkpt><trkpt lat="45.6849748" lon="9.4442426"><ele>275.57142857142856</ele><time>2026-04-21T11:57:45.992Z</time></trkpt><trkpt lat="45.685027" lon="9.4441332"><ele>276.0</ele><time>2026-04-21T11:57:47.992Z</time></trkpt><trkpt lat="45.6850845" lon="9.4440366"><ele>276.0</ele><time>2026-04-21T11:57:49.992Z</time></trkpt><trkpt lat="45.6851329" lon="9.44395"><ele>276.0</ele><time>2026-04-21T11:57:51.991Z</time></trkpt><trkpt lat="45.6851567" lon="9.4438543"><ele>276.0</ele><time>2026-04-21T11:57:53.992Z</time></trkpt><trkpt lat="45.6851916" lon="9.4437547"><ele>276.0</ele><time>2026-04-21T11:57:55.992Z</time></trkpt><trkpt lat="45.6852162" lon="9.4436642"><ele>276.0</ele><time>2026-04-21T11:57:57.992Z</time></trkpt><trkpt lat="45.6852759" lon="9.443543"><ele>276.0</ele><time>2026-04-21T11:58:00.992Z</time></trkpt><trkpt lat="45.6853304" lon="9.4434429"><ele>277.0</ele><time>2026-04-21T11:58:02.992Z</time></trkpt><trkpt lat="45.6853747" lon="9.4433481"><ele>278.0</ele><time>2026-04-21T11:58:04.992Z</time></trkpt><trkpt lat="45.6854149" lon="9.4432555"><ele>279.0</ele><time>2026-04-21T11:58:06.992Z</time></trkpt><trkpt lat="45.6854679" lon="9.4431714"><ele>280.0</ele><time>2026-04-21T11:58:08.992Z</time></trkpt><trkpt lat="45.6855095" lon="9.4430782"><ele>281.0</ele><time>2026-04-21T11:58:10.992Z</time></trkpt><trkpt lat="45.6855303" lon="9.4429638"><ele>282.0</ele><time>2026-04-21T11:58:12.992Z</time></trkpt><trkpt lat="45.6855614" lon="9.442842"><ele>282.0</ele><time>2026-04-21T11:58:14.992Z</time></trkpt><trkpt lat="45.685594" lon="9.4427192"><ele>282.0</ele><time>2026-04-21T11:58:16.992Z</time></trkpt><trkpt lat="45.6856278" lon="9.4425998"><ele>282.0</ele><time>2026-04-21T11:58:18.992Z</time></trkpt><trkpt lat="45.6856653" lon="9.4424765"><ele>282.0</ele><time>2026-04-21T11:58:20.992Z</time></trkpt><trkpt lat="45.6856878" lon="9.4423451"><ele>282.0</ele><time>2026-04-21T11:58:22.992Z</time></trkpt><trkpt lat="45.685705" lon="9.4422138"><ele>282.2</ele><time>2026-04-21T11:58:24.992Z</time></trkpt><trkpt lat="45.6857201" lon="9.4420663"><ele>282.4</ele><time>2026-04-21T11:58:26.992Z</time></trkpt><trkpt lat="45.6857432" lon="9.4419249"><ele>282.6</ele><time>2026-04-21T11:58:28.992Z</time></trkpt><trkpt lat="45.6857674" lon="9.441796"><ele>282.8</ele><time>2026-04-21T11:58:30.992Z</time></trkpt><trkpt lat="45.6858186" lon="9.4416985"><ele>283.0</ele><time>2026-04-21T11:58:32.992Z</time></trkpt><trkpt lat="45.6859458" lon="9.4416529"><ele>283.0</ele><time>2026-04-21T11:58:34.992Z</time></trkpt><trkpt lat="45.6860338" lon="9.4417264"><ele>283.0</ele><time>2026-04-21T11:58:36.992Z</time></trkpt><trkpt lat="45.6861039" lon="9.4417325"><ele>283.0</ele><time>2026-04-21T11:58:37.992Z</time></trkpt><trkpt lat="45.6861708" lon="9.4417614"><ele>283.0</ele><time>2026-04-21T11:58:38.992Z</time></trkpt><trkpt lat="45.6862306" lon="9.441791"><ele>283.0</ele><time>2026-04-21T11:58:39.992Z</time></trkpt><trkpt lat="45.6863269" lon="9.4418364"><ele>283.0</ele><time>2026-04-21T11:58:41.992Z</time></trkpt><trkpt lat="45.6864021" lon="9.4417206"><ele>280.75</ele><time>2026-04-21T11:58:47.992Z</time></trkpt><trkpt lat="45.6865423" lon="9.4415688"><ele>278.5</ele><time>2026-04-21T11:58:48.992Z</time></trkpt><trkpt lat="45.6866035" lon="9.4414762"><ele>276.25</ele><time>2026-04-21T11:58:50.992Z</time></trkpt><trkpt lat="45.6866479" lon="9.4413144"><ele>274.0</ele><time>2026-04-21T11:58:52.992Z</time></trkpt><trkpt lat="45.686672" lon="9.4412262"><ele>273.0</ele><time>2026-04-21T11:58:53.992Z</time></trkpt><trkpt lat="45.6867198" lon="9.4410971"><ele>272.0</ele><time>2026-04-21T11:58:55.992Z</time></trkpt><trkpt lat="45.6867503" lon="9.4409847"><ele>271.0</ele><time>2026-04-21T11:58:56.992Z</time></trkpt><trkpt lat="45.6867932" lon="9.4408513"><ele>270.0</ele><time>2026-04-21T11:58:57.992Z</time></trkpt><trkpt lat="45.6868106" lon="9.4407412"><ele>269.0</ele><time>2026-04-21T11:58:58.992Z</time></trkpt><trkpt lat="45.6868405" lon="9.4406339"><ele>268.0</ele><time>2026-04-21T11:58:59.992Z</time></trkpt><trkpt lat="45.6868676" lon="9.4405387"><ele>267.8333333333333</ele><time>2026-04-21T11:59:00.992Z</time></trkpt><trkpt lat="45.6868853" lon="9.4404329"><ele>267.66666666666663</ele><time>2026-04-21T11:59:01.992Z</time></trkpt><trkpt lat="45.686912" lon="9.4403192"><ele>267.5</ele><time>2026-04-21T11:59:02.991Z</time></trkpt><trkpt lat="45.6869319" lon="9.440209"><ele>267.3333333333333</ele><time>2026-04-21T11:59:03.992Z</time></trkpt><trkpt lat="45.6869488" lon="9.4400956"><ele>267.1666666666667</ele><time>2026-04-21T11:59:04.992Z</time></trkpt><trkpt lat="45.6869707" lon="9.4399939"><ele>267.0</ele><time>2026-04-21T11:59:05.992Z</time></trkpt><trkpt lat="45.6870287" lon="9.439898"><ele>267.0</ele><time>2026-04-21T11:59:06.992Z</time></trkpt><trkpt lat="45.68707" lon="9.4397523"><ele>267.0</ele><time>2026-04-21T11:59:07.992Z</time></trkpt><trkpt lat="45.6870897" lon="9.4396461"><ele>267.0</ele><time>2026-04-21T11:59:08.991Z</time></trkpt><trkpt lat="45.6871293" lon="9.439479"><ele>267.0</ele><time>2026-04-21T11:59:10.992Z</time></trkpt><trkpt lat="45.6871642" lon="9.4393408"><ele>267.0</ele><time>2026-04-21T11:59:12.992Z</time></trkpt><trkpt lat="45.6871607" lon="9.4392449"><ele>266.8</ele><time>2026-04-21T11:59:17.992Z</time></trkpt><trkpt lat="45.6870901" lon="9.4391561"><ele>266.6</ele><time>2026-04-21T11:59:20.992Z</time></trkpt><trkpt lat="45.6870168" lon="9.43912"><ele>266.40000000000003</ele><time>2026-04-21T11:59:22.992Z</time></trkpt><trkpt lat="45.6869166" lon="9.4390566"><ele>266.2</ele><time>2026-04-21T11:59:24.992Z</time></trkpt><trkpt lat="45.6868098" lon="9.4389977"><ele>266.0</ele><time>2026-04-21T11:59:26.991Z</time></trkpt><trkpt lat="45.6866975" lon="9.4389602"><ele>265.8</ele><time>2026-04-21T11:59:28.992Z</time></trkpt><trkpt lat="45.686634" lon="9.4389322"><ele>265.6</ele><time>2026-04-21T11:59:29.992Z</time></trkpt><trkpt lat="45.6865331" lon="9.4388677"><ele>265.4</ele><time>2026-04-21T11:59:31.992Z</time></trkpt><trkpt lat="45.6864221" lon="9.438809"><ele>265.2</ele><time>2026-04-21T11:59:33.992Z</time></trkpt><trkpt lat="45.6863179" lon="9.4387333"><ele>265.0</ele><time>2026-04-21T11:59:35.992Z</time></trkpt><trkpt lat="45.6862581" lon="9.4386968"><ele>265.0</ele><time>2026-04-21T11:59:36.992Z</time></trkpt><trkpt lat="45.6861601" lon="9.4386628"><ele>265.0</ele><time>2026-04-21T11:59:38.992Z</time></trkpt><trkpt lat="45.6860452" lon="9.4386019"><ele>265.0</ele><time>2026-04-21T11:59:40.992Z</time></trkpt><trkpt lat="45.6859499" lon="9.4385463"><ele>265.0</ele><time>2026-04-21T11:59:42.992Z</time></trkpt><trkpt lat="45.6858831" lon="9.4384964"><ele>265.0</ele><time>2026-04-21T11:59:44.992Z</time></trkpt><trkpt lat="45.6858406" lon="9.4384245"><ele>265.0</ele><time>2026-04-21T11:59:47.992Z</time></trkpt><trkpt lat="45.6857461" lon="9.4384338"><ele>265.0</ele><time>2026-04-21T12:00:14.992Z</time></trkpt><trkpt lat="45.685697" lon="9.4385037"><ele>265.0</ele><time>2026-04-21T12:00:15.992Z</time></trkpt><trkpt lat="45.6856441" lon="9.4385676"><ele>265.0</ele><time>2026-04-21T12:00:16.992Z</time></trkpt><trkpt lat="45.6855876" lon="9.4387273"><ele>265.0</ele><time>2026-04-21T12:00:18.992Z</time></trkpt><trkpt lat="45.6855504" lon="9.4388064"><ele>265.0</ele><time>2026-04-21T12:00:19.992Z</time></trkpt><trkpt lat="45.6854885" lon="9.4389494"><ele>265.0</ele><time>2026-04-21T12:00:21.992Z</time></trkpt><trkpt lat="45.6854408" lon="9.4390959"><ele>265.0</ele><time>2026-04-21T12:00:23.992Z</time></trkpt><trkpt lat="45.6853899" lon="9.4392347"><ele>265.0</ele><time>2026-04-21T12:00:25.992Z</time></trkpt><trkpt lat="45.685343" lon="9.4393748"><ele>265.0</ele><time>2026-04-21T12:00:27.992Z</time></trkpt><trkpt lat="45.6852881" lon="9.4395222"><ele>265.0</ele><time>2026-04-21T12:00:29.992Z</time></trkpt><trkpt lat="45.6852603" lon="9.4396125"><ele>265.4</ele><time>2026-04-21T12:00:30.992Z</time></trkpt><trkpt lat="45.6851981" lon="9.4398122"><ele>265.8</ele><time>2026-04-21T12:00:33.992Z</time></trkpt><trkpt lat="45.6851356" lon="9.4399644"><ele>266.2</ele><time>2026-04-21T12:00:35.992Z</time></trkpt><trkpt lat="45.6851107" lon="9.4400614"><ele>266.6</ele><time>2026-04-21T12:00:36.992Z</time></trkpt><trkpt lat="45.6850729" lon="9.4401468"><ele>267.0</ele><time>2026-04-21T12:00:37.992Z</time></trkpt><trkpt lat="45.6850573" lon="9.4402439"><ele>267.0</ele><time>2026-04-21T12:00:38.992Z</time></trkpt><trkpt lat="45.6849673" lon="9.4403667"><ele>267.0</ele><time>2026-04-21T12:00:40.992Z</time></trkpt><trkpt lat="45.6849175" lon="9.4404573"><ele>267.0</ele><time>2026-04-21T12:00:41.992Z</time></trkpt><trkpt lat="45.6848731" lon="9.4405349"><ele>267.0</ele><time>2026-04-21T12:00:42.992Z</time></trkpt><trkpt lat="45.6847986" lon="9.4406461"><ele>267.0</ele><time>2026-04-21T12:00:44.992Z</time></trkpt><trkpt lat="45.6847719" lon="9.4407354"><ele>268.5</ele><time>2026-04-21T12:00:45.992Z</time></trkpt><trkpt lat="45.6846744" lon="9.4408472"><ele>270.0</ele><time>2026-04-21T12:00:47.992Z</time></trkpt><trkpt lat="45.6845883" lon="9.4409274"><ele>271.5</ele><time>2026-04-21T12:00:49.992Z</time></trkpt><trkpt lat="45.6844956" lon="9.441046"><ele>273.0</ele><time>2026-04-21T12:00:51.992Z</time></trkpt><trkpt lat="45.6844425" lon="9.4411819"><ele>272.4</ele><time>2026-04-21T12:00:53.992Z</time></trkpt><trkpt lat="45.684412" lon="9.4412632"><ele>271.8</ele><time>2026-04-21T12:00:54.992Z</time></trkpt><trkpt lat="45.6843495" lon="9.4414003"><ele>271.2</ele><time>2026-04-21T12:00:56.991Z</time></trkpt><trkpt lat="45.6842738" lon="9.4415316"><ele>270.6</ele><time>2026-04-21T12:00:58.992Z</time></trkpt><trkpt lat="45.6842131" lon="9.4416874"><ele>270.0</ele><time>2026-04-21T12:01:00.992Z</time></trkpt><trkpt lat="45.6842025" lon="9.4418158"><ele>270.0</ele><time>2026-04-21T12:01:02.992Z</time></trkpt><trkpt lat="45.6841543" lon="9.4419123"><ele>270.0</ele><time>2026-04-21T12:01:04.992Z</time></trkpt><trkpt lat="45.6840831" lon="9.442035"><ele>270.0</ele><time>2026-04-21T12:01:06.992Z</time></trkpt><trkpt lat="45.6840106" lon="9.4421391"><ele>270.0</ele><time>2026-04-21T12:01:08.992Z</time></trkpt><trkpt lat="45.6840083" lon="9.4422305"><ele>270.0</ele><time>2026-04-21T12:01:09.992Z</time></trkpt><trkpt lat="45.6839703" lon="9.4423122"><ele>270.0</ele><time>2026-04-21T12:01:10.992Z</time></trkpt><trkpt lat="45.683918" lon="9.4424226"><ele>271.0</ele><time>2026-04-21T12:01:12.992Z</time></trkpt><trkpt lat="45.6838861" lon="9.4425612"><ele>272.0</ele><time>2026-04-21T12:01:14.992Z</time></trkpt><trkpt lat="45.683847" lon="9.4426892"><ele>273.0</ele><time>2026-04-21T12:01:16.992Z</time></trkpt><trkpt lat="45.6838166" lon="9.4428086"><ele>274.0</ele><time>2026-04-21T12:01:18.992Z</time></trkpt><trkpt lat="45.6837796" lon="9.4429157"><ele>275.0</ele><time>2026-04-21T12:01:20.992Z</time></trkpt><trkpt lat="45.6836929" lon="9.4430214"><ele>275.5</ele><time>2026-04-21T12:01:22.992Z</time></trkpt><trkpt lat="45.6836321" lon="9.4431564"><ele>276.0</ele><time>2026-04-21T12:01:24.992Z</time></trkpt><trkpt lat="45.6835606" lon="9.4432809"><ele>276.5</ele><time>2026-04-21T12:01:26.992Z</time></trkpt><trkpt lat="45.6835002" lon="9.4434228"><ele>277.0</ele><time>2026-04-21T12:01:28.992Z</time></trkpt><trkpt lat="45.6834343" lon="9.4435586"><ele>276.4</ele><time>2026-04-21T12:01:30.991Z</time></trkpt><trkpt lat="45.683379" lon="9.4436955"><ele>275.79999999999995</ele><time>2026-04-21T12:01:32.992Z</time></trkpt><trkpt lat="45.6833134" lon="9.443821"><ele>275.2</ele><time>2026-04-21T12:01:34.992Z</time></trkpt><trkpt lat="45.683256" lon="9.4439608"><ele>274.59999999999997</ele><time>2026-04-21T12:01:36.992Z</time></trkpt><trkpt lat="45.6832216" lon="9.4440404"><ele>274.0</ele><time>2026-04-21T12:01:37.991Z</time></trkpt><trkpt lat="45.6831885" lon="9.4441322"><ele>274.0</ele><time>2026-04-21T12:01:38.992Z</time></trkpt><trkpt lat="45.6831321" lon="9.4442748"><ele>274.0</ele><time>2026-04-21T12:01:40.992Z</time></trkpt><trkpt lat="45.683071" lon="9.4444082"><ele>274.0</ele><time>2026-04-21T12:01:42.992Z</time></trkpt><trkpt lat="45.6829991" lon="9.4445064"><ele>274.0</ele><time>2026-04-21T12:01:44.992Z</time></trkpt><trkpt lat="45.6828991" lon="9.4445609"><ele>274.0</ele><time>2026-04-21T12:01:46.992Z</time></trkpt><trkpt lat="45.6827953" lon="9.4445818"><ele>273.59999999999997</ele><time>2026-04-21T12:01:48.992Z</time></trkpt><trkpt lat="45.6827242" lon="9.444585"><ele>273.2</ele><time>2026-04-21T12:01:50.992Z</time></trkpt><trkpt lat="45.6826086" lon="9.4445955"><ele>272.79999999999995</ele><time>2026-04-21T12:01:52.992Z</time></trkpt><trkpt lat="45.6825249" lon="9.4446261"><ele>272.4</ele><time>2026-04-21T12:01:54.992Z</time></trkpt><trkpt lat="45.6824389" lon="9.4446724"><ele>272.0</ele><time>2026-04-21T12:01:56.992Z</time></trkpt><trkpt lat="45.6823186" lon="9.4446906"><ele>272.0</ele><time>2026-04-21T12:01:58.992Z</time></trkpt><trkpt lat="45.6821882" lon="9.4446734"><ele>272.0</ele><time>2026-04-21T12:02:00.992Z</time></trkpt><trkpt lat="45.6819109" lon="9.4447362"><ele>272.0</ele><time>2026-04-21T12:02:01.992Z</time></trkpt><trkpt lat="45.6817655" lon="9.4446878"><ele>272.0</ele><time>2026-04-21T12:02:04.992Z</time></trkpt><trkpt lat="45.6816836" lon="9.4446551"><ele>272.0</ele><time>2026-04-21T12:02:06.992Z</time></trkpt><trkpt lat="45.6815894" lon="9.4446291"><ele>272.0</ele><time>2026-04-21T12:02:08.992Z</time></trkpt><trkpt lat="45.6814857" lon="9.4446818"><ele>272.0</ele><time>2026-04-21T12:02:10.992Z</time></trkpt><trkpt lat="45.6813941" lon="9.4446231"><ele>272.0</ele><time>2026-04-21T12:02:12.992Z</time></trkpt><trkpt lat="45.6813072" lon="9.4447144"><ele>272.0</ele><time>2026-04-21T12:02:14.992Z</time></trkpt><trkpt lat="45.6812178" lon="9.4447094"><ele>272.0</ele><time>2026-04-21T12:02:16.992Z</time></trkpt><trkpt lat="45.6811518" lon="9.444647"><ele>272.0</ele><time>2026-04-21T12:02:18.992Z</time></trkpt><trkpt lat="45.6810322" lon="9.4446904"><ele>272.0</ele><time>2026-04-21T12:02:20.992Z</time></trkpt><trkpt lat="45.6809456" lon="9.4446645"><ele>272.0</ele><time>2026-04-21T12:02:22.992Z</time></trkpt><trkpt lat="45.6807456" lon="9.4445256"><ele>272.1666666666667</ele><time>2026-04-21T12:02:23.992Z</time></trkpt><trkpt lat="45.6806588" lon="9.4445092"><ele>272.33333333333337</ele><time>2026-04-21T12:02:26.992Z</time></trkpt><trkpt lat="45.6805532" lon="9.4445096"><ele>272.5</ele><time>2026-04-21T12:02:28.992Z</time></trkpt><trkpt lat="45.680481" lon="9.4445044"><ele>272.6666666666667</ele><time>2026-04-21T12:02:29.992Z</time></trkpt><trkpt lat="45.6804336" lon="9.4444116"><ele>272.8333333333333</ele><time>2026-04-21T12:02:31.992Z</time></trkpt><trkpt lat="45.6803392" lon="9.4444122"><ele>273.0</ele><time>2026-04-21T12:02:33.992Z</time></trkpt><trkpt lat="45.6802261" lon="9.4443309"><ele>272.4</ele><time>2026-04-21T12:02:35.992Z</time></trkpt><trkpt lat="45.6800885" lon="9.4443532"><ele>271.8</ele><time>2026-04-21T12:02:37.992Z</time></trkpt><trkpt lat="45.6799933" lon="9.4443305"><ele>271.2</ele><time>2026-04-21T12:02:38.992Z</time></trkpt><trkpt lat="45.6798983" lon="9.4442919"><ele>270.6</ele><time>2026-04-21T12:02:39.992Z</time></trkpt><trkpt lat="45.6797849" lon="9.4442715"><ele>270.0</ele><time>2026-04-21T12:02:41.992Z</time></trkpt><trkpt lat="45.6797081" lon="9.4442634"><ele>270.0</ele><time>2026-04-21T12:02:42.992Z</time></trkpt><trkpt lat="45.6796452" lon="9.4442292"><ele>270.0</ele><time>2026-04-21T12:02:43.992Z</time></trkpt><trkpt lat="45.6795155" lon="9.4442171"><ele>270.0</ele><time>2026-04-21T12:02:45.992Z</time></trkpt><trkpt lat="45.6794533" lon="9.4441928"><ele>270.0</ele><time>2026-04-21T12:02:46.992Z</time></trkpt><trkpt lat="45.679383" lon="9.4441861"><ele>270.0</ele><time>2026-04-21T12:02:47.992Z</time></trkpt><trkpt lat="45.6793113" lon="9.4441917"><ele>270.0</ele><time>2026-04-21T12:02:48.992Z</time></trkpt><trkpt lat="45.6792365" lon="9.4441933"><ele>269.5</ele><time>2026-04-21T12:02:49.992Z</time></trkpt><trkpt lat="45.6791524" lon="9.444149"><ele>269.0</ele><time>2026-04-21T12:02:50.992Z</time></trkpt><trkpt lat="45.6790673" lon="9.4441442"><ele>268.5</ele><time>2026-04-21T12:02:51.992Z</time></trkpt><trkpt lat="45.6789611" lon="9.4441442"><ele>268.0</ele><time>2026-04-21T12:02:53.992Z</time></trkpt><trkpt lat="45.6788976" lon="9.4441303"><ele>267.5</ele><time>2026-04-21T12:02:54.992Z</time></trkpt><trkpt lat="45.6788285" lon="9.4441201"><ele>267.0</ele><time>2026-04-21T12:02:55.992Z</time></trkpt><trkpt lat="45.6787622" lon="9.444101"><ele>267.0</ele><time>2026-04-21T12:02:56.992Z</time></trkpt><trkpt lat="45.6786377" lon="9.4440855"><ele>267.0</ele><time>2026-04-21T12:02:58.991Z</time></trkpt><trkpt lat="45.6785646" lon="9.4440592"><ele>267.0</ele><time>2026-04-21T12:02:59.992Z</time></trkpt><trkpt lat="45.6784875" lon="9.4440207"><ele>267.0</ele><time>2026-04-21T12:03:00.992Z</time></trkpt><trkpt lat="45.6783566" lon="9.4439589"><ele>267.0</ele><time>2026-04-21T12:03:02.992Z</time></trkpt><trkpt lat="45.6782818" lon="9.4439618"><ele>267.0</ele><time>2026-04-21T12:03:03.992Z</time></trkpt><trkpt lat="45.6782177" lon="9.4439512"><ele>267.0</ele><time>2026-04-21T12:03:04.992Z</time></trkpt><trkpt lat="45.678149" lon="9.4439223"><ele>267.0</ele><time>2026-04-21T12:03:05.992Z</time></trkpt><trkpt lat="45.6780284" lon="9.4439327"><ele>267.0</ele><time>2026-04-21T12:03:07.992Z</time></trkpt><trkpt lat="45.6779637" lon="9.4439251"><ele>267.0</ele><time>2026-04-21T12:03:08.992Z</time></trkpt><trkpt lat="45.6778922" lon="9.4439017"><ele>267.0</ele><time>2026-04-21T12:03:09.992Z</time></trkpt><trkpt lat="45.677812" lon="9.4438945"><ele>266.8</ele><time>2026-04-21T12:03:10.992Z</time></trkpt><trkpt lat="45.6777034" lon="9.4438653"><ele>266.6</ele><time>2026-04-21T12:03:12.992Z</time></trkpt><trkpt lat="45.6775951" lon="9.443841"><ele>266.40000000000003</ele><time>2026-04-21T12:03:14.992Z</time></trkpt><trkpt lat="45.6775142" lon="9.4438343"><ele>266.2</ele><time>2026-04-21T12:03:15.992Z</time></trkpt><trkpt lat="45.6774378" lon="9.443815"><ele>266.0</ele><time>2026-04-21T12:03:16.992Z</time></trkpt><trkpt lat="45.6773607" lon="9.4438118"><ele>266.0</ele><time>2026-04-21T12:03:17.992Z</time></trkpt><trkpt lat="45.6772816" lon="9.443817"><ele>266.0</ele><time>2026-04-21T12:03:18.992Z</time></trkpt><trkpt lat="45.6772082" lon="9.4438112"><ele>266.0</ele><time>2026-04-21T12:03:19.991Z</time></trkpt><trkpt lat="45.6771157" lon="9.4438358"><ele>266.0</ele><time>2026-04-21T12:03:20.992Z</time></trkpt><trkpt lat="45.6770525" lon="9.4438581"><ele>266.0</ele><time>2026-04-21T12:03:21.992Z</time></trkpt><trkpt lat="45.6768532" lon="9.443863"><ele>265.8</ele><time>2026-04-21T12:03:23.992Z</time></trkpt><trkpt lat="45.6767943" lon="9.4437423"><ele>265.6</ele><time>2026-04-21T12:03:24.992Z</time></trkpt><trkpt lat="45.6767335" lon="9.443701"><ele>265.4</ele><time>2026-04-21T12:03:25.991Z</time></trkpt><trkpt lat="45.6766266" lon="9.4436639"><ele>265.2</ele><time>2026-04-21T12:03:27.992Z</time></trkpt><trkpt lat="45.6764877" lon="9.4436406"><ele>265.0</ele><time>2026-04-21T12:03:29.992Z</time></trkpt><trkpt lat="45.6763977" lon="9.4436157"><ele>265.0</ele><time>2026-04-21T12:03:30.992Z</time></trkpt><trkpt lat="45.6762796" lon="9.4435984"><ele>265.0</ele><time>2026-04-21T12:03:32.992Z</time></trkpt><trkpt lat="45.6762043" lon="9.4435631"><ele>265.0</ele><time>2026-04-21T12:03:33.992Z</time></trkpt><trkpt lat="45.6761031" lon="9.4435086"><ele>265.0</ele><time>2026-04-21T12:03:35.992Z</time></trkpt><trkpt lat="45.6759629" lon="9.4434989"><ele>265.0</ele><time>2026-04-21T12:03:37.991Z</time></trkpt><trkpt lat="45.6758638" lon="9.4434383"><ele>264.8333333333333</ele><time>2026-04-21T12:03:38.992Z</time></trkpt><trkpt lat="45.6757855" lon="9.4434006"><ele>264.66666666666663</ele><time>2026-04-21T12:03:39.992Z</time></trkpt><trkpt lat="45.6757162" lon="9.4433716"><ele>264.5</ele><time>2026-04-21T12:03:40.991Z</time></trkpt><trkpt lat="45.675613" lon="9.4433111"><ele>264.3333333333333</ele><time>2026-04-21T12:03:42.992Z</time></trkpt><trkpt lat="45.6755468" lon="9.4432795"><ele>264.1666666666667</ele><time>2026-04-21T12:03:43.992Z</time></trkpt><trkpt lat="45.675467" lon="9.4432193"><ele>264.0</ele><time>2026-04-21T12:03:44.992Z</time></trkpt><trkpt lat="45.6753783" lon="9.4432273"><ele>264.0</ele><time>2026-04-21T12:03:45.992Z</time></trkpt><trkpt lat="45.6753001" lon="9.4432147"><ele>264.0</ele><time>2026-04-21T12:03:46.992Z</time></trkpt><trkpt lat="45.6752367" lon="9.4431848"><ele>264.0</ele><time>2026-04-21T12:03:47.992Z</time></trkpt><trkpt lat="45.6751679" lon="9.4431793"><ele>264.0</ele><time>2026-04-21T12:03:48.992Z</time></trkpt><trkpt lat="45.6751039" lon="9.4431337"><ele>264.0</ele><time>2026-04-21T12:03:49.992Z</time></trkpt><trkpt lat="45.6750354" lon="9.4431252"><ele>264.0</ele><time>2026-04-21T12:03:50.992Z</time></trkpt><trkpt lat="45.6749674" lon="9.4431008"><ele>264.0</ele><time>2026-04-21T12:03:51.992Z</time></trkpt><trkpt lat="45.6748772" lon="9.4430899"><ele>263.7142857142857</ele><time>2026-04-21T12:03:52.992Z</time></trkpt><trkpt lat="45.6748153" lon="9.4430581"><ele>263.42857142857144</ele><time>2026-04-21T12:03:53.992Z</time></trkpt><trkpt lat="45.6747507" lon="9.4430232"><ele>263.14285714285717</ele><time>2026-04-21T12:03:54.992Z</time></trkpt><trkpt lat="45.674673" lon="9.4430049"><ele>262.8571428571429</ele><time>2026-04-21T12:03:55.992Z</time></trkpt><trkpt lat="45.6745984" lon="9.4429897"><ele>262.5714285714286</ele><time>2026-04-21T12:03:56.992Z</time></trkpt><trkpt lat="45.674519" lon="9.4429437"><ele>262.2857142857143</ele><time>2026-04-21T12:03:57.991Z</time></trkpt><trkpt lat="45.6744523" lon="9.4429168"><ele>262.0</ele><time>2026-04-21T12:03:58.992Z</time></trkpt><trkpt lat="45.674323" lon="9.442852"><ele>261.8</ele><time>2026-04-21T12:04:00.992Z</time></trkpt><trkpt lat="45.6741967" lon="9.4428226"><ele>261.6</ele><time>2026-04-21T12:04:02.992Z</time></trkpt><trkpt lat="45.6740893" lon="9.4428385"><ele>261.40000000000003</ele><time>2026-04-21T12:04:04.992Z</time></trkpt><trkpt lat="45.6740107" lon="9.4428047"><ele>261.2</ele><time>2026-04-21T12:04:06.992Z</time></trkpt><trkpt lat="45.6739456" lon="9.4427281"><ele>261.0</ele><time>2026-04-21T12:04:08.992Z</time></trkpt><trkpt lat="45.6738435" lon="9.4426474"><ele>261.0</ele><time>2026-04-21T12:04:10.992Z</time></trkpt><trkpt lat="45.6737396" lon="9.4425662"><ele>261.0</ele><time>2026-04-21T12:04:12.992Z</time></trkpt><trkpt lat="45.6736854" lon="9.4425144"><ele>261.0</ele><time>2026-04-21T12:04:13.992Z</time></trkpt><trkpt lat="45.6736343" lon="9.4424442"><ele>261.0</ele><time>2026-04-21T12:04:14.992Z</time></trkpt><trkpt lat="45.6735874" lon="9.442375"><ele>261.0</ele><time>2026-04-21T12:04:15.992Z</time></trkpt><trkpt lat="45.6735318" lon="9.4422952"><ele>261.0</ele><time>2026-04-21T12:04:16.991Z</time></trkpt><trkpt lat="45.6734795" lon="9.4422171"><ele>260.8333333333333</ele><time>2026-04-21T12:04:17.992Z</time></trkpt><trkpt lat="45.6734328" lon="9.442142"><ele>260.6666666666667</ele><time>2026-04-21T12:04:18.992Z</time></trkpt><trkpt lat="45.6733744" lon="9.4420699"><ele>260.5</ele><time>2026-04-21T12:04:19.992Z</time></trkpt><trkpt lat="45.6733147" lon="9.4419809"><ele>260.33333333333337</ele><time>2026-04-21T12:04:20.992Z</time></trkpt><trkpt lat="45.6732561" lon="9.4418858"><ele>260.1666666666667</ele><time>2026-04-21T12:04:21.992Z</time></trkpt><trkpt lat="45.673203" lon="9.4417916"><ele>260.0</ele><time>2026-04-21T12:04:22.992Z</time></trkpt><trkpt lat="45.673148" lon="9.4417032"><ele>260.00000000000006</ele><time>2026-04-21T12:04:23.992Z</time></trkpt><trkpt lat="45.6730896" lon="9.4416294"><ele>260.0</ele><time>2026-04-21T12:04:24.992Z</time></trkpt><trkpt lat="45.6730264" lon="9.4415483"><ele>260.0</ele><time>2026-04-21T12:04:25.992Z</time></trkpt><trkpt lat="45.6729764" lon="9.4414663"><ele>260.0</ele><time>2026-04-21T12:04:26.992Z</time></trkpt><trkpt lat="45.6729266" lon="9.4413981"><ele>260.0</ele><time>2026-04-21T12:04:27.992Z</time></trkpt><trkpt lat="45.6728899" lon="9.441323"><ele>260.00000000000006</ele><time>2026-04-21T12:04:28.992Z</time></trkpt><trkpt lat="45.672852" lon="9.4412372"><ele>260.0</ele><time>2026-04-21T12:04:29.992Z</time></trkpt><trkpt lat="45.672828" lon="9.4411501"><ele>259.4</ele><time>2026-04-21T12:04:30.992Z</time></trkpt><trkpt lat="45.6727513" lon="9.4410302"><ele>258.8</ele><time>2026-04-21T12:04:32.992Z</time></trkpt><trkpt lat="45.6726881" lon="9.4409789"><ele>258.2</ele><time>2026-04-21T12:04:33.992Z</time></trkpt><trkpt lat="45.6726236" lon="9.4409859"><ele>257.6</ele><time>2026-04-21T12:04:34.992Z</time></trkpt><trkpt lat="45.6724703" lon="9.4409618"><ele>257.0</ele><time>2026-04-21T12:04:36.992Z</time></trkpt><trkpt lat="45.6724136" lon="9.4408721"><ele>257.0</ele><time>2026-04-21T12:04:37.992Z</time></trkpt><trkpt lat="45.6723296" lon="9.4407124"><ele>257.0</ele><time>2026-04-21T12:04:39.991Z</time></trkpt><trkpt lat="45.6722726" lon="9.4406415"><ele>257.0</ele><time>2026-04-21T12:04:40.991Z</time></trkpt><trkpt lat="45.6722201" lon="9.4405684"><ele>257.0</ele><time>2026-04-21T12:04:41.992Z</time></trkpt><trkpt lat="45.6721608" lon="9.4405041"><ele>257.0</ele><time>2026-04-21T12:04:42.992Z</time></trkpt><trkpt lat="45.6720953" lon="9.4404538"><ele>257.0</ele><time>2026-04-21T12:04:43.992Z</time></trkpt><trkpt lat="45.6720359" lon="9.4403905"><ele>256.7142857142857</ele><time>2026-04-21T12:04:44.992Z</time></trkpt><trkpt lat="45.671991" lon="9.4403261"><ele>256.42857142857144</ele><time>2026-04-21T12:04:45.992Z</time></trkpt><trkpt lat="45.6719318" lon="9.4402548"><ele>256.14285714285717</ele><time>2026-04-21T12:04:46.992Z</time></trkpt><trkpt lat="45.6718601" lon="9.4402005"><ele>255.85714285714286</ele><time>2026-04-21T12:04:47.991Z</time></trkpt><trkpt lat="45.6718007" lon="9.4401308"><ele>255.5714285714286</ele><time>2026-04-21T12:04:48.992Z</time></trkpt><trkpt lat="45.6717442" lon="9.4400664"><ele>255.2857142857143</ele><time>2026-04-21T12:04:49.992Z</time></trkpt><trkpt lat="45.6716849" lon="9.440007"><ele>255.0</ele><time>2026-04-21T12:04:50.992Z</time></trkpt><trkpt lat="45.6716264" lon="9.4399486"><ele>255.0</ele><time>2026-04-21T12:04:51.991Z</time></trkpt><trkpt lat="45.671563" lon="9.4398892"><ele>255.0</ele><time>2026-04-21T12:04:52.992Z</time></trkpt><trkpt lat="45.6714482" lon="9.4397858"><ele>255.0</ele><time>2026-04-21T12:04:54.992Z</time></trkpt><trkpt lat="45.6713959" lon="9.439729"><ele>255.0</ele><time>2026-04-21T12:04:55.992Z</time></trkpt><trkpt lat="45.6713417" lon="9.4396699"><ele>255.0</ele><time>2026-04-21T12:04:56.992Z</time></trkpt><trkpt lat="45.6712879" lon="9.4396004"><ele>255.0</ele><time>2026-04-21T12:04:57.992Z</time></trkpt><trkpt lat="45.6712199" lon="9.4395472"><ele>254.66666666666666</ele><time>2026-04-21T12:04:58.992Z</time></trkpt><trkpt lat="45.6711585" lon="9.4394819"><ele>254.33333333333331</ele><time>2026-04-21T12:04:59.992Z</time></trkpt><trkpt lat="45.6710935" lon="9.4394257"><ele>254.0</ele><time>2026-04-21T12:05:00.992Z</time></trkpt><trkpt lat="45.6710292" lon="9.4393787"><ele>253.66666666666666</ele><time>2026-04-21T12:05:01.992Z</time></trkpt><trkpt lat="45.6709749" lon="9.4392992"><ele>253.33333333333331</ele><time>2026-04-21T12:05:02.992Z</time></trkpt><trkpt lat="45.6709083" lon="9.4392355"><ele>253.0</ele><time>2026-04-21T12:05:03.992Z</time></trkpt><trkpt lat="45.6708387" lon="9.4391844"><ele>252.99999999999997</ele><time>2026-04-21T12:05:04.992Z</time></trkpt><trkpt lat="45.670769" lon="9.4391234"><ele>253.0</ele><time>2026-04-21T12:05:05.992Z</time></trkpt><trkpt lat="45.6707076" lon="9.4390738"><ele>253.0</ele><time>2026-04-21T12:05:06.992Z</time></trkpt><trkpt lat="45.6706431" lon="9.438986"><ele>253.0</ele><time>2026-04-21T12:05:07.992Z</time></trkpt><trkpt lat="45.6705891" lon="9.4389313"><ele>252.99999999999997</ele><time>2026-04-21T12:05:08.992Z</time></trkpt><trkpt lat="45.6705131" lon="9.4388689"><ele>253.0</ele><time>2026-04-21T12:05:09.992Z</time></trkpt><trkpt lat="45.670442" lon="9.4388242"><ele>252.49999999999997</ele><time>2026-04-21T12:05:10.992Z</time></trkpt><trkpt lat="45.6703869" lon="9.4387469"><ele>252.0</ele><time>2026-04-21T12:05:11.992Z</time></trkpt><trkpt lat="45.6703137" lon="9.4386937"><ele>251.5</ele><time>2026-04-21T12:05:12.992Z</time></trkpt><trkpt lat="45.670251" lon="9.438658"><ele>251.0</ele><time>2026-04-21T12:05:13.992Z</time></trkpt><trkpt lat="45.6701909" lon="9.4386112"><ele>250.49999999999997</ele><time>2026-04-21T12:05:14.992Z</time></trkpt><trkpt lat="45.6701297" lon="9.4385494"><ele>250.0</ele><time>2026-04-21T12:05:15.992Z</time></trkpt><trkpt lat="45.6700198" lon="9.4384273"><ele>249.99999999999997</ele><time>2026-04-21T12:05:17.992Z</time></trkpt><trkpt lat="45.669965" lon="9.4383779"><ele>250.0</ele><time>2026-04-21T12:05:18.992Z</time></trkpt><trkpt lat="45.6699129" lon="9.4383195"><ele>250.0</ele><time>2026-04-21T12:05:19.992Z</time></trkpt><trkpt lat="45.6698179" lon="9.4382208"><ele>250.0</ele><time>2026-04-21T12:05:21.992Z</time></trkpt><trkpt lat="45.6697855" lon="9.4381013"><ele>249.99999999999997</ele><time>2026-04-21T12:05:23.992Z</time></trkpt><trkpt lat="45.6697362" lon="9.4379662"><ele>250.0</ele><time>2026-04-21T12:05:25.992Z</time></trkpt><trkpt lat="45.6696516" lon="9.4378987"><ele>249.83333333333331</ele><time>2026-04-21T12:05:27.992Z</time></trkpt><trkpt lat="45.6695845" lon="9.4378943"><ele>249.66666666666666</ele><time>2026-04-21T12:05:29.992Z</time></trkpt><trkpt lat="45.6695176" lon="9.4379525"><ele>249.5</ele><time>2026-04-21T12:05:31.992Z</time></trkpt><trkpt lat="45.6694395" lon="9.4379211"><ele>249.33333333333331</ele><time>2026-04-21T12:05:33.992Z</time></trkpt><trkpt lat="45.6693733" lon="9.4378444"><ele>249.16666666666666</ele><time>2026-04-21T12:05:35.992Z</time></trkpt><trkpt lat="45.669255" lon="9.4377679"><ele>249.0</ele><time>2026-04-21T12:05:37.992Z</time></trkpt><trkpt lat="45.669191" lon="9.4377237"><ele>249.0</ele><time>2026-04-21T12:05:38.992Z</time></trkpt><trkpt lat="45.6691342" lon="9.4376766"><ele>249.0</ele><time>2026-04-21T12:05:39.992Z</time></trkpt><trkpt lat="45.6690254" lon="9.4375792"><ele>249.0</ele><time>2026-04-21T12:05:41.992Z</time></trkpt><trkpt lat="45.6689724" lon="9.4375024"><ele>249.0</ele><time>2026-04-21T12:05:42.992Z</time></trkpt><trkpt lat="45.6689253" lon="9.4374413"><ele>249.0</ele><time>2026-04-21T12:05:43.992Z</time></trkpt><trkpt lat="45.6688603" lon="9.4373943"><ele>249.0</ele><time>2026-04-21T12:05:44.992Z</time></trkpt><trkpt lat="45.668798" lon="9.4373436"><ele>249.0</ele><time>2026-04-21T12:05:45.992Z</time></trkpt><trkpt lat="45.6686934" lon="9.4372574"><ele>248.99999999999997</ele><time>2026-04-21T12:05:47.992Z</time></trkpt><trkpt lat="45.6685976" lon="9.4371492"><ele>248.99999999999997</ele><time>2026-04-21T12:05:49.992Z</time></trkpt><trkpt lat="45.6685325" lon="9.4370832"><ele>249.0</ele><time>2026-04-21T12:05:50.992Z</time></trkpt><trkpt lat="45.6684455" lon="9.4370532"><ele>249.0</ele><time>2026-04-21T12:05:51.992Z</time></trkpt><trkpt lat="45.6683815" lon="9.437028"><ele>249.14285714285714</ele><time>2026-04-21T12:05:52.992Z</time></trkpt><trkpt lat="45.6683116" lon="9.4369819"><ele>249.28571428571428</ele><time>2026-04-21T12:05:53.992Z</time></trkpt><trkpt lat="45.6682435" lon="9.436947"><ele>249.42857142857142</ele><time>2026-04-21T12:05:54.992Z</time></trkpt><trkpt lat="45.6681845" lon="9.4369096"><ele>249.57142857142856</ele><time>2026-04-21T12:05:55.992Z</time></trkpt><trkpt lat="45.6681235" lon="9.4368556"><ele>249.71428571428572</ele><time>2026-04-21T12:05:56.992Z</time></trkpt><trkpt lat="45.6680754" lon="9.436791"><ele>249.85714285714283</ele><time>2026-04-21T12:05:57.992Z</time></trkpt><trkpt lat="45.668023" lon="9.4367278"><ele>250.0</ele><time>2026-04-21T12:05:58.992Z</time></trkpt><trkpt lat="45.6679703" lon="9.4366664"><ele>250.0</ele><time>2026-04-21T12:05:59.992Z</time></trkpt><trkpt lat="45.6679036" lon="9.4366096"><ele>250.0</ele><time>2026-04-21T12:06:00.991Z</time></trkpt><trkpt lat="45.667836" lon="9.4365476"><ele>250.0</ele><time>2026-04-21T12:06:01.992Z</time></trkpt><trkpt lat="45.6677781" lon="9.4364983"><ele>250.0</ele><time>2026-04-21T12:06:02.992Z</time></trkpt><trkpt lat="45.6676765" lon="9.4364064"><ele>250.0</ele><time>2026-04-21T12:06:04.992Z</time></trkpt><trkpt lat="45.6675704" lon="9.4363177"><ele>249.33333333333331</ele><time>2026-04-21T12:06:06.992Z</time></trkpt><trkpt lat="45.6675191" lon="9.4362641"><ele>248.66666666666666</ele><time>2026-04-21T12:06:07.992Z</time></trkpt><trkpt lat="45.6674548" lon="9.4362177"><ele>248.0</ele><time>2026-04-21T12:06:08.992Z</time></trkpt><trkpt lat="45.6673509" lon="9.4361203"><ele>247.33333333333331</ele><time>2026-04-21T12:06:10.992Z</time></trkpt><trkpt lat="45.6673019" lon="9.4360626"><ele>246.66666666666666</ele><time>2026-04-21T12:06:11.992Z</time></trkpt><trkpt lat="45.6672184" lon="9.4359593"><ele>246.0</ele><time>2026-04-21T12:06:13.992Z</time></trkpt><trkpt lat="45.6671176" lon="9.4358457"><ele>246.0</ele><time>2026-04-21T12:06:15.992Z</time></trkpt><trkpt lat="45.667079" lon="9.4357674"><ele>246.00000000000003</ele><time>2026-04-21T12:06:16.992Z</time></trkpt><trkpt lat="45.6669834" lon="9.4356891"><ele>246.00000000000003</ele><time>2026-04-21T12:06:18.992Z</time></trkpt><trkpt lat="45.6669059" lon="9.4355694"><ele>246.0</ele><time>2026-04-21T12:06:20.992Z</time></trkpt><trkpt lat="45.666815" lon="9.4354784"><ele>246.0</ele><time>2026-04-21T12:06:22.992Z</time></trkpt><trkpt lat="45.6667489" lon="9.4353994"><ele>245.5</ele><time>2026-04-21T12:06:24.992Z</time></trkpt><trkpt lat="45.6666769" lon="9.4352748"><ele>245.0</ele><time>2026-04-21T12:06:26.992Z</time></trkpt><trkpt lat="45.6665879" lon="9.4351611"><ele>244.5</ele><time>2026-04-21T12:06:28.992Z</time></trkpt><trkpt lat="45.666489" lon="9.435051"><ele>244.0</ele><time>2026-04-21T12:06:30.992Z</time></trkpt><trkpt lat="45.6664191" lon="9.434951"><ele>244.0</ele><time>2026-04-21T12:06:32.992Z</time></trkpt><trkpt lat="45.6663476" lon="9.4348464"><ele>243.99999999999997</ele><time>2026-04-21T12:06:34.992Z</time></trkpt><trkpt lat="45.6662478" lon="9.4347738"><ele>243.99999999999997</ele><time>2026-04-21T12:06:37.376Z</time></trkpt><trkpt lat="45.6662118" lon="9.4346842"><ele>244.0</ele><time>2026-04-21T12:06:38.986Z</time></trkpt><trkpt lat="45.666204" lon="9.4345833"><ele>244.0</ele><time>2026-04-21T12:06:40.985Z</time></trkpt><trkpt lat="45.666283" lon="9.4344526"><ele>243.71428571428567</ele><time>2026-04-21T12:06:42Z</time></trkpt><trkpt lat="45.6663078" lon="9.4343602"><ele>243.42857142857142</ele><time>2026-04-21T12:06:42.992Z</time></trkpt><trkpt lat="45.6663879" lon="9.43428"><ele>243.1428571428571</ele><time>2026-04-21T12:06:43.992Z</time></trkpt><trkpt lat="45.6664144" lon="9.4341862"><ele>242.85714285714283</ele><time>2026-04-21T12:06:44.992Z</time></trkpt><trkpt lat="45.6664459" lon="9.4341042"><ele>242.57142857142856</ele><time>2026-04-21T12:06:45.992Z</time></trkpt><trkpt lat="45.6664817" lon="9.4340252"><ele>242.28571428571428</ele><time>2026-04-21T12:06:46.992Z</time></trkpt><trkpt lat="45.6665039" lon="9.4339319"><ele>242.0</ele><time>2026-04-21T12:06:47.992Z</time></trkpt><trkpt lat="45.6665375" lon="9.4338556"><ele>242.0</ele><time>2026-04-21T12:06:48.992Z</time></trkpt><trkpt lat="45.6665924" lon="9.4336814"><ele>242.0</ele><time>2026-04-21T12:06:50.992Z</time></trkpt><trkpt lat="45.6666413" lon="9.4335321"><ele>242.0</ele><time>2026-04-21T12:06:52.992Z</time></trkpt><trkpt lat="45.6667128" lon="9.4333807"><ele>242.0</ele><time>2026-04-21T12:06:54.992Z</time></trkpt><trkpt lat="45.6667419" lon="9.4332886"><ele>242.0</ele><time>2026-04-21T12:06:55.992Z</time></trkpt><trkpt lat="45.6667728" lon="9.4332087"><ele>242.00000000000003</ele><time>2026-04-21T12:06:56.992Z</time></trkpt><trkpt lat="45.666806" lon="9.4331213"><ele>242.0</ele><time>2026-04-21T12:06:57.992Z</time></trkpt><trkpt lat="45.666841" lon="9.4330408"><ele>242.0</ele><time>2026-04-21T12:06:58.992Z</time></trkpt><trkpt lat="45.6669029" lon="9.4329039"><ele>242.0</ele><time>2026-04-21T12:07:00.992Z</time></trkpt><trkpt lat="45.6669424" lon="9.4327849"><ele>242.00000000000003</ele><time>2026-04-21T12:07:02.992Z</time></trkpt><trkpt lat="45.666975" lon="9.4326969"><ele>242.0</ele><time>2026-04-21T12:07:06.992Z</time></trkpt><trkpt lat="45.6669545" lon="9.4325647"><ele>242.16666666666669</ele><time>2026-04-21T12:07:30.992Z</time></trkpt><trkpt lat="45.6669355" lon="9.4324477"><ele>242.33333333333334</ele><time>2026-04-21T12:07:32.992Z</time></trkpt><trkpt lat="45.6668857" lon="9.4323437"><ele>242.5</ele><time>2026-04-21T12:07:34.992Z</time></trkpt><trkpt lat="45.6668582" lon="9.4322507"><ele>242.66666666666669</ele><time>2026-04-21T12:07:36.992Z</time></trkpt><trkpt lat="45.6667939" lon="9.4321495"><ele>242.83333333333334</ele><time>2026-04-21T12:07:38.992Z</time></trkpt><trkpt lat="45.6667226" lon="9.4320283"><ele>243.0</ele><time>2026-04-21T12:07:40.992Z</time></trkpt><trkpt lat="45.666661" lon="9.4319852"><ele>242.66666666666666</ele><time>2026-04-21T12:07:41.992Z</time></trkpt><trkpt lat="45.6666096" lon="9.431924"><ele>242.33333333333331</ele><time>2026-04-21T12:07:42.992Z</time></trkpt><trkpt lat="45.666553" lon="9.4318757"><ele>242.0</ele><time>2026-04-21T12:07:43.992Z</time></trkpt><trkpt lat="45.666495" lon="9.4318178"><ele>241.66666666666666</ele><time>2026-04-21T12:07:44.992Z</time></trkpt><trkpt lat="45.6664406" lon="9.4317584"><ele>241.33333333333331</ele><time>2026-04-21T12:07:45.992Z</time></trkpt><trkpt lat="45.6663364" lon="9.4316517"><ele>241.0</ele><time>2026-04-21T12:07:47.992Z</time></trkpt><trkpt lat="45.6662322" lon="9.4315439"><ele>240.99999999999997</ele><time>2026-04-21T12:07:49.991Z</time></trkpt><trkpt lat="45.6661639" lon="9.4314044"><ele>241.0</ele><time>2026-04-21T12:07:51.992Z</time></trkpt><trkpt lat="45.6661222" lon="9.4313268"><ele>241.0</ele><time>2026-04-21T12:07:52.992Z</time></trkpt><trkpt lat="45.6660635" lon="9.4312769"><ele>241.0</ele><time>2026-04-21T12:07:53.992Z</time></trkpt><trkpt lat="45.6660033" lon="9.4312479"><ele>240.99999999999997</ele><time>2026-04-21T12:07:54.992Z</time></trkpt><trkpt lat="45.6659407" lon="9.4312147"><ele>241.0</ele><time>2026-04-21T12:07:55.992Z</time></trkpt><trkpt lat="45.6658763" lon="9.4311813"><ele>241.20000000000002</ele><time>2026-04-21T12:07:56.992Z</time></trkpt><trkpt lat="45.6657761" lon="9.4310774"><ele>241.40000000000003</ele><time>2026-04-21T12:07:58.992Z</time></trkpt><trkpt lat="45.6656925" lon="9.4309757"><ele>241.6</ele><time>2026-04-21T12:08:00.992Z</time></trkpt><trkpt lat="45.6656265" lon="9.4309257"><ele>241.8</ele><time>2026-04-21T12:08:01.992Z</time></trkpt><trkpt lat="45.6655688" lon="9.4308641"><ele>242.0</ele><time>2026-04-21T12:08:02.992Z</time></trkpt><trkpt lat="45.6655087" lon="9.4308142"><ele>242.0</ele><time>2026-04-21T12:08:03.992Z</time></trkpt><trkpt lat="45.6654522" lon="9.4307523"><ele>241.99999999999997</ele><time>2026-04-21T12:08:04.992Z</time></trkpt><trkpt lat="45.6653871" lon="9.4307012"><ele>242.0</ele><time>2026-04-21T12:08:05.992Z</time></trkpt><trkpt lat="45.6653294" lon="9.430651"><ele>242.0</ele><time>2026-04-21T12:08:06.992Z</time></trkpt><trkpt lat="45.6652703" lon="9.4305981"><ele>241.99999999999997</ele><time>2026-04-21T12:08:07.991Z</time></trkpt><trkpt lat="45.6652176" lon="9.4305436"><ele>242.0</ele><time>2026-04-21T12:08:08.992Z</time></trkpt><trkpt lat="45.6651631" lon="9.4304865"><ele>242.0</ele><time>2026-04-21T12:08:09.992Z</time></trkpt><trkpt lat="45.6651086" lon="9.4304281"><ele>241.83333333333334</ele><time>2026-04-21T12:08:10.992Z</time></trkpt><trkpt lat="45.6650493" lon="9.4303687"><ele>241.66666666666669</ele><time>2026-04-21T12:08:11.992Z</time></trkpt><trkpt lat="45.6649816" lon="9.4303184"><ele>241.5</ele><time>2026-04-21T12:08:12.992Z</time></trkpt><trkpt lat="45.6649273" lon="9.4302638"><ele>241.33333333333331</ele><time>2026-04-21T12:08:13.992Z</time></trkpt><trkpt lat="45.6648717" lon="9.430212"><ele>241.16666666666666</ele><time>2026-04-21T12:08:14.991Z</time></trkpt><trkpt lat="45.6648124" lon="9.430163"><ele>241.0</ele><time>2026-04-21T12:08:15.992Z</time></trkpt><trkpt lat="45.664712" lon="9.4300521"><ele>240.99999999999997</ele><time>2026-04-21T12:08:17.992Z</time></trkpt><trkpt lat="45.6646603" lon="9.4299897"><ele>241.0</ele><time>2026-04-21T12:08:18.992Z</time></trkpt><trkpt lat="45.6646055" lon="9.4299313"><ele>241.0</ele><time>2026-04-21T12:08:19.992Z</time></trkpt><trkpt lat="45.6645532" lon="9.4298786"><ele>241.0</ele><time>2026-04-21T12:08:20.992Z</time></trkpt><trkpt lat="45.6644961" lon="9.4298272"><ele>240.99999999999997</ele><time>2026-04-21T12:08:21.992Z</time></trkpt><trkpt lat="45.6644071" lon="9.4297056"><ele>241.0</ele><time>2026-04-21T12:08:23.992Z</time></trkpt><trkpt lat="45.6642906" lon="9.4296041"><ele>240.49999999999997</ele><time>2026-04-21T12:08:25.992Z</time></trkpt><trkpt lat="45.6642365" lon="9.4295403"><ele>240.0</ele><time>2026-04-21T12:08:26.992Z</time></trkpt><trkpt lat="45.6641726" lon="9.4294687"><ele>239.5</ele><time>2026-04-21T12:08:27.992Z</time></trkpt><trkpt lat="45.6641208" lon="9.4294137"><ele>239.0</ele><time>2026-04-21T12:08:28.992Z</time></trkpt><trkpt lat="45.664005" lon="9.429327"><ele>238.49999999999997</ele><time>2026-04-21T12:08:30.992Z</time></trkpt><trkpt lat="45.6639415" lon="9.4292786"><ele>238.0</ele><time>2026-04-21T12:08:31.992Z</time></trkpt><trkpt lat="45.6638323" lon="9.4291958"><ele>237.99999999999997</ele><time>2026-04-21T12:08:33.992Z</time></trkpt><trkpt lat="45.6637717" lon="9.4291288"><ele>238.0</ele><time>2026-04-21T12:08:34.992Z</time></trkpt><trkpt lat="45.6637228" lon="9.4290609"><ele>238.0</ele><time>2026-04-21T12:08:35.992Z</time></trkpt><trkpt lat="45.6636044" lon="9.4289634"><ele>238.0</ele><time>2026-04-21T12:08:37.992Z</time></trkpt><trkpt lat="45.6635442" lon="9.428901"><ele>237.99999999999997</ele><time>2026-04-21T12:08:38.992Z</time></trkpt><trkpt lat="45.663491" lon="9.4288319"><ele>238.0</ele><time>2026-04-21T12:08:39.992Z</time></trkpt><trkpt lat="45.6634342" lon="9.4287834"><ele>238.2</ele><time>2026-04-21T12:08:40.992Z</time></trkpt><trkpt lat="45.6633438" lon="9.4287267"><ele>238.4</ele><time>2026-04-21T12:08:42.992Z</time></trkpt><trkpt lat="45.66324" lon="9.4286303"><ele>238.59999999999997</ele><time>2026-04-21T12:08:44.992Z</time></trkpt><trkpt lat="45.6631642" lon="9.4285207"><ele>238.79999999999998</ele><time>2026-04-21T12:08:46.992Z</time></trkpt><trkpt lat="45.6631425" lon="9.4284357"><ele>239.0</ele><time>2026-04-21T12:08:47.992Z</time></trkpt><trkpt lat="45.6631268" lon="9.4282465"><ele>239.00000000000003</ele><time>2026-04-21T12:08:49.992Z</time></trkpt><trkpt lat="45.6631264" lon="9.4281484"><ele>239.0</ele><time>2026-04-21T12:08:50.992Z</time></trkpt><trkpt lat="45.6631235" lon="9.427967"><ele>239.0</ele><time>2026-04-21T12:08:52.992Z</time></trkpt><trkpt lat="45.663136" lon="9.4278516"><ele>239.0</ele><time>2026-04-21T12:08:53.992Z</time></trkpt><trkpt lat="45.6631413" lon="9.4277537"><ele>239.00000000000003</ele><time>2026-04-21T12:08:54.992Z</time></trkpt><trkpt lat="45.6631503" lon="9.4276546"><ele>239.0</ele><time>2026-04-21T12:08:55.992Z</time></trkpt><trkpt lat="45.6631467" lon="9.4275646"><ele>239.16666666666669</ele><time>2026-04-21T12:08:56.992Z</time></trkpt><trkpt lat="45.663159" lon="9.4274659"><ele>239.33333333333334</ele><time>2026-04-21T12:08:57.992Z</time></trkpt><trkpt lat="45.6631896" lon="9.4273747"><ele>239.5</ele><time>2026-04-21T12:08:58.992Z</time></trkpt><trkpt lat="45.6632034" lon="9.427278"><ele>239.66666666666669</ele><time>2026-04-21T12:08:59.992Z</time></trkpt><trkpt lat="45.6632056" lon="9.4271755"><ele>239.83333333333334</ele><time>2026-04-21T12:09:00.992Z</time></trkpt><trkpt lat="45.6632359" lon="9.4270407"><ele>240.0</ele><time>2026-04-21T12:09:02.992Z</time></trkpt><trkpt lat="45.6630911" lon="9.4269392"><ele>240.4</ele><time>2026-04-21T12:09:04.992Z</time></trkpt><trkpt lat="45.6630337" lon="9.4268885"><ele>240.8</ele><time>2026-04-21T12:09:05.992Z</time></trkpt><trkpt lat="45.6629366" lon="9.4267541"><ele>241.2</ele><time>2026-04-21T12:09:07.992Z</time></trkpt><trkpt lat="45.6628778" lon="9.4266978"><ele>241.6</ele><time>2026-04-21T12:09:08.992Z</time></trkpt><trkpt lat="45.6627729" lon="9.4265992"><ele>242.0</ele><time>2026-04-21T12:09:10.992Z</time></trkpt><trkpt lat="45.6627178" lon="9.426535"><ele>241.16666666666669</ele><time>2026-04-21T12:09:11.992Z</time></trkpt><trkpt lat="45.662646" lon="9.4264801"><ele>240.33333333333334</ele><time>2026-04-21T12:09:12.992Z</time></trkpt><trkpt lat="45.6625808" lon="9.4264152"><ele>239.5</ele><time>2026-04-21T12:09:13.992Z</time></trkpt><trkpt lat="45.6624595" lon="9.4263286"><ele>238.66666666666669</ele><time>2026-04-21T12:09:15.992Z</time></trkpt><trkpt lat="45.6624015" lon="9.4262687"><ele>237.83333333333334</ele><time>2026-04-21T12:09:16.992Z</time></trkpt><trkpt lat="45.6623437" lon="9.4262197"><ele>237.0</ele><time>2026-04-21T12:09:17.992Z</time></trkpt><trkpt lat="45.6622124" lon="9.4261426"><ele>236.99999999999997</ele><time>2026-04-21T12:09:19.992Z</time></trkpt><trkpt lat="45.6621534" lon="9.4260871"><ele>237.0</ele><time>2026-04-21T12:09:20.992Z</time></trkpt><trkpt lat="45.6620941" lon="9.4260481"><ele>236.99999999999997</ele><time>2026-04-21T12:09:21.992Z</time></trkpt><trkpt lat="45.6620402" lon="9.4259961"><ele>236.99999999999997</ele><time>2026-04-21T12:09:22.992Z</time></trkpt><trkpt lat="45.6619721" lon="9.4259106"><ele>237.0</ele><time>2026-04-21T12:09:24.992Z</time></trkpt><trkpt lat="45.6619086" lon="9.4258609"><ele>236.99999999999997</ele><time>2026-04-21T12:09:25.992Z</time></trkpt><trkpt lat="45.6618368" lon="9.425807"><ele>236.99999999999997</ele><time>2026-04-21T12:09:26.992Z</time></trkpt><trkpt lat="45.6617747" lon="9.4257464"><ele>237.6</ele><time>2026-04-21T12:09:27.992Z</time></trkpt><trkpt lat="45.6617189" lon="9.4256995"><ele>238.2</ele><time>2026-04-21T12:09:28.992Z</time></trkpt><trkpt lat="45.6616423" lon="9.4256288"><ele>238.8</ele><time>2026-04-21T12:09:29.992Z</time></trkpt><trkpt lat="45.6615371" lon="9.4255374"><ele>239.4</ele><time>2026-04-21T12:09:31.992Z</time></trkpt><trkpt lat="45.6614577" lon="9.4254826"><ele>240.0</ele><time>2026-04-21T12:09:32.992Z</time></trkpt><trkpt lat="45.6613434" lon="9.4253725"><ele>240.0</ele><time>2026-04-21T12:09:34.992Z</time></trkpt><trkpt lat="45.66128" lon="9.4253131"><ele>240.0</ele><time>2026-04-21T12:09:35.992Z</time></trkpt><trkpt lat="45.6611604" lon="9.425206"><ele>240.0</ele><time>2026-04-21T12:09:37.992Z</time></trkpt><trkpt lat="45.6611003" lon="9.4251512"><ele>240.0</ele><time>2026-04-21T12:09:38.992Z</time></trkpt><trkpt lat="45.6610446" lon="9.4250898"><ele>240.0</ele><time>2026-04-21T12:09:39.992Z</time></trkpt><trkpt lat="45.6609884" lon="9.4250481"><ele>240.0</ele><time>2026-04-21T12:09:40.992Z</time></trkpt><trkpt lat="45.6609279" lon="9.4249702"><ele>240.16666666666666</ele><time>2026-04-21T12:09:41.992Z</time></trkpt><trkpt lat="45.6608726" lon="9.4248938"><ele>240.33333333333331</ele><time>2026-04-21T12:09:42.992Z</time></trkpt><trkpt lat="45.6607588" lon="9.4248037"><ele>240.5</ele><time>2026-04-21T12:09:44.992Z</time></trkpt><trkpt lat="45.6607046" lon="9.4247423"><ele>240.66666666666666</ele><time>2026-04-21T12:09:45.992Z</time></trkpt><trkpt lat="45.6606437" lon="9.424691"><ele>240.83333333333331</ele><time>2026-04-21T12:09:46.992Z</time></trkpt><trkpt lat="45.660587" lon="9.4246403"><ele>241.0</ele><time>2026-04-21T12:09:47.992Z</time></trkpt><trkpt lat="45.6605272" lon="9.4245836"><ele>240.99999999999997</ele><time>2026-04-21T12:09:48.992Z</time></trkpt><trkpt lat="45.6604113" lon="9.4244611"><ele>241.0</ele><time>2026-04-21T12:09:50.992Z</time></trkpt><trkpt lat="45.6603585" lon="9.42441"><ele>241.0</ele><time>2026-04-21T12:09:51.992Z</time></trkpt><trkpt lat="45.6602977" lon="9.4243587"><ele>241.0</ele><time>2026-04-21T12:09:52.992Z</time></trkpt><trkpt lat="45.6602382" lon="9.4243032"><ele>240.99999999999997</ele><time>2026-04-21T12:09:53.992Z</time></trkpt><trkpt lat="45.6601808" lon="9.4242497"><ele>241.0</ele><time>2026-04-21T12:09:54.992Z</time></trkpt><trkpt lat="45.6601223" lon="9.4241957"><ele>240.57142857142858</ele><time>2026-04-21T12:09:55.992Z</time></trkpt><trkpt lat="45.6600648" lon="9.4241438"><ele>240.14285714285717</ele><time>2026-04-21T12:09:56.992Z</time></trkpt><trkpt lat="45.6600074" lon="9.4240899"><ele>239.71428571428572</ele><time>2026-04-21T12:09:57.992Z</time></trkpt><trkpt lat="45.6599508" lon="9.4240349"><ele>239.28571428571428</ele><time>2026-04-21T12:09:58.992Z</time></trkpt><trkpt lat="45.6598885" lon="9.4239753"><ele>238.85714285714286</ele><time>2026-04-21T12:09:59.992Z</time></trkpt><trkpt lat="45.6598312" lon="9.4239233"><ele>238.42857142857144</ele><time>2026-04-21T12:10:00.992Z</time></trkpt><trkpt lat="45.6597692" lon="9.4238809"><ele>238.0</ele><time>2026-04-21T12:10:01.992Z</time></trkpt><trkpt lat="45.6597047" lon="9.4238435"><ele>238.0</ele><time>2026-04-21T12:10:02.992Z</time></trkpt><trkpt lat="45.6596408" lon="9.4238181"><ele>238.0</ele><time>2026-04-21T12:10:03.992Z</time></trkpt><trkpt lat="45.6595618" lon="9.423793"><ele>238.0</ele><time>2026-04-21T12:10:04.992Z</time></trkpt><trkpt lat="45.659504" lon="9.4238557"><ele>238.0</ele><time>2026-04-21T12:10:05.992Z</time></trkpt><trkpt lat="45.6594036" lon="9.4239458"><ele>238.0</ele><time>2026-04-21T12:10:07.992Z</time></trkpt><trkpt lat="45.65931" lon="9.4240576"><ele>237.49999999999997</ele><time>2026-04-21T12:10:09.992Z</time></trkpt><trkpt lat="45.659209" lon="9.4241139"><ele>237.0</ele><time>2026-04-21T12:10:11.992Z</time></trkpt><trkpt lat="45.6591083" lon="9.4240455"><ele>236.5</ele><time>2026-04-21T12:10:13.992Z</time></trkpt><trkpt lat="45.6590663" lon="9.4239782"><ele>236.0</ele><time>2026-04-21T12:10:14.992Z</time></trkpt><trkpt lat="45.6590151" lon="9.4239198"><ele>235.49999999999997</ele><time>2026-04-21T12:10:15.992Z</time></trkpt><trkpt lat="45.6589612" lon="9.4238683"><ele>235.0</ele><time>2026-04-21T12:10:16.992Z</time></trkpt><trkpt lat="45.6589038" lon="9.4238162"><ele>234.99999999999997</ele><time>2026-04-21T12:10:17.992Z</time></trkpt><trkpt lat="45.6588421" lon="9.4237674"><ele>235.0</ele><time>2026-04-21T12:10:18.992Z</time></trkpt><trkpt lat="45.6587754" lon="9.423721"><ele>235.0</ele><time>2026-04-21T12:10:19.992Z</time></trkpt><trkpt lat="45.6587132" lon="9.4236719"><ele>235.0</ele><time>2026-04-21T12:10:20.992Z</time></trkpt><trkpt lat="45.6586048" lon="9.4235807"><ele>234.99999999999997</ele><time>2026-04-21T12:10:22.992Z</time></trkpt><trkpt lat="45.6585474" lon="9.4235242"><ele>235.0</ele><time>2026-04-21T12:10:23.992Z</time></trkpt><trkpt lat="45.658486" lon="9.4234741"><ele>234.99999999999997</ele><time>2026-04-21T12:10:24.992Z</time></trkpt><trkpt lat="45.6584284" lon="9.4234265"><ele>235.0</ele><time>2026-04-21T12:10:25.992Z</time></trkpt><trkpt lat="45.6583735" lon="9.423371"><ele>235.0</ele><time>2026-04-21T12:10:26.992Z</time></trkpt><trkpt lat="45.6583169" lon="9.423315"><ele>235.0</ele><time>2026-04-21T12:10:27.992Z</time></trkpt><trkpt lat="45.6582601" lon="9.4232668"><ele>234.99999999999997</ele><time>2026-04-21T12:10:28.992Z</time></trkpt><trkpt lat="45.6581518" lon="9.423184"><ele>235.0</ele><time>2026-04-21T12:10:30.992Z</time></trkpt><trkpt lat="45.6580924" lon="9.4231447"><ele>235.0</ele><time>2026-04-21T12:10:31.992Z</time></trkpt><trkpt lat="45.6579741" lon="9.4230596"><ele>235.0</ele><time>2026-04-21T12:10:33.992Z</time></trkpt><trkpt lat="45.6578823" lon="9.423022"><ele>235.0</ele><time>2026-04-21T12:10:35.992Z</time></trkpt><trkpt lat="45.6577917" lon="9.4229887"><ele>235.0</ele><time>2026-04-21T12:10:37.992Z</time></trkpt><trkpt lat="45.6577117" lon="9.4229871"><ele>235.0</ele><time>2026-04-21T12:10:38.992Z</time></trkpt><trkpt lat="45.6576492" lon="9.4229719"><ele>235.4</ele><time>2026-04-21T12:10:39.992Z</time></trkpt><trkpt lat="45.6575712" lon="9.4229754"><ele>235.8</ele><time>2026-04-21T12:10:40.992Z</time></trkpt><trkpt lat="45.657501" lon="9.4229557"><ele>236.2</ele><time>2026-04-21T12:10:41.992Z</time></trkpt><trkpt lat="45.6573748" lon="9.422926"><ele>236.6</ele><time>2026-04-21T12:10:43.992Z</time></trkpt><trkpt lat="45.6572778" lon="9.4228908"><ele>237.0</ele><time>2026-04-21T12:10:45.992Z</time></trkpt><trkpt lat="45.65716" lon="9.4228614"><ele>237.0</ele><time>2026-04-21T12:10:47.992Z</time></trkpt><trkpt lat="45.6570905" lon="9.4228368"><ele>237.0</ele><time>2026-04-21T12:10:48.992Z</time></trkpt><trkpt lat="45.6570131" lon="9.4228165"><ele>237.0</ele><time>2026-04-21T12:10:49.992Z</time></trkpt><trkpt lat="45.6569281" lon="9.4228119"><ele>237.0</ele><time>2026-04-21T12:10:50.992Z</time></trkpt><trkpt lat="45.65683" lon="9.42274"><ele>237.0</ele><time>2026-04-21T12:10:52.992Z</time></trkpt><trkpt lat="45.656711" lon="9.422704"><ele>236.8</ele><time>2026-04-21T12:10:54.992Z</time></trkpt><trkpt lat="45.6566124" lon="9.4226307"><ele>236.6</ele><time>2026-04-21T12:10:56.992Z</time></trkpt><trkpt lat="45.6565328" lon="9.4226089"><ele>236.40000000000003</ele><time>2026-04-21T12:10:57.992Z</time></trkpt><trkpt lat="45.6564709" lon="9.4225902"><ele>236.20000000000002</ele><time>2026-04-21T12:10:58.992Z</time></trkpt><trkpt lat="45.6563793" lon="9.4225164"><ele>236.0</ele><time>2026-04-21T12:11:00.992Z</time></trkpt><trkpt lat="45.6562561" lon="9.4224491"><ele>236.00000000000003</ele><time>2026-04-21T12:11:02.992Z</time></trkpt><trkpt lat="45.6562003" lon="9.4224038"><ele>236.0</ele><time>2026-04-21T12:11:03.992Z</time></trkpt><trkpt lat="45.6561385" lon="9.4223781"><ele>236.0</ele><time>2026-04-21T12:11:04.992Z</time></trkpt><trkpt lat="45.6560434" lon="9.4223726"><ele>236.0</ele><time>2026-04-21T12:11:06.992Z</time></trkpt><trkpt lat="45.6559763" lon="9.4223236"><ele>236.00000000000003</ele><time>2026-04-21T12:11:07.992Z</time></trkpt><trkpt lat="45.6558563" lon="9.4222356"><ele>236.0</ele><time>2026-04-21T12:11:09.992Z</time></trkpt><trkpt lat="45.6557615" lon="9.4221365"><ele>236.00000000000003</ele><time>2026-04-21T12:11:11.992Z</time></trkpt><trkpt lat="45.6556994" lon="9.4220899"><ele>236.0</ele><time>2026-04-21T12:11:12.992Z</time></trkpt><trkpt lat="45.6555864" lon="9.422018"><ele>236.0</ele><time>2026-04-21T12:11:14.992Z</time></trkpt><trkpt lat="45.6555177" lon="9.4219904"><ele>236.0</ele><time>2026-04-21T12:11:15.992Z</time></trkpt><trkpt lat="45.6554589" lon="9.4219395"><ele>236.00000000000003</ele><time>2026-04-21T12:11:16.992Z</time></trkpt><trkpt lat="45.6553995" lon="9.4219076"><ele>236.0</ele><time>2026-04-21T12:11:17.992Z</time></trkpt><trkpt lat="45.6552813" lon="9.4218435"><ele>236.0</ele><time>2026-04-21T12:11:19.992Z</time></trkpt><trkpt lat="45.6552169" lon="9.421808"><ele>236.00000000000003</ele><time>2026-04-21T12:11:20.992Z</time></trkpt><trkpt lat="45.6551544" lon="9.421782"><ele>236.00000000000003</ele><time>2026-04-21T12:11:21.992Z</time></trkpt><trkpt lat="45.6550611" lon="9.421772"><ele>236.0</ele><time>2026-04-21T12:11:22.992Z</time></trkpt><trkpt lat="45.6549237" lon="9.4216843"><ele>236.0</ele><time>2026-04-21T12:11:24.992Z</time></trkpt><trkpt lat="45.6547929" lon="9.4216571"><ele>236.00000000000003</ele><time>2026-04-21T12:11:26.992Z</time></trkpt><trkpt lat="45.6547259" lon="9.4216436"><ele>236.0</ele><time>2026-04-21T12:11:27.992Z</time></trkpt><trkpt lat="45.6546591" lon="9.4216329"><ele>236.0</ele><time>2026-04-21T12:11:28.992Z</time></trkpt><trkpt lat="45.6545959" lon="9.4216545"><ele>236.0</ele><time>2026-04-21T12:11:29.992Z</time></trkpt><trkpt lat="45.6545201" lon="9.421664"><ele>236.00000000000003</ele><time>2026-04-21T12:11:31.992Z</time></trkpt><trkpt lat="45.6544349" lon="9.4216701"><ele>236.0</ele><time>2026-04-21T12:11:33.992Z</time></trkpt><trkpt lat="45.6543203" lon="9.4216826"><ele>235.8</ele><time>2026-04-21T12:11:35.992Z</time></trkpt><trkpt lat="45.6542534" lon="9.4216935"><ele>235.60000000000002</ele><time>2026-04-21T12:11:36.992Z</time></trkpt><trkpt lat="45.6541323" lon="9.421802"><ele>235.4</ele><time>2026-04-21T12:11:38.992Z</time></trkpt><trkpt lat="45.6540281" lon="9.4218649"><ele>235.2</ele><time>2026-04-21T12:11:39.992Z</time></trkpt><trkpt lat="45.65394" lon="9.421889"><ele>235.0</ele><time>2026-04-21T12:11:40.992Z</time></trkpt><trkpt lat="45.6538149" lon="9.4218718"><ele>235.0</ele><time>2026-04-21T12:11:42.992Z</time></trkpt><trkpt lat="45.6537378" lon="9.421888"><ele>235.0</ele><time>2026-04-21T12:11:43.992Z</time></trkpt><trkpt lat="45.653627" lon="9.4218885"><ele>235.0</ele><time>2026-04-21T12:11:45.992Z</time></trkpt><trkpt lat="45.6535596" lon="9.4218962"><ele>235.0</ele><time>2026-04-21T12:11:46.992Z</time></trkpt><trkpt lat="45.6533939" lon="9.4219348"><ele>235.0</ele><time>2026-04-21T12:11:48.992Z</time></trkpt><trkpt lat="45.6533272" lon="9.4219482"><ele>235.33333333333331</ele><time>2026-04-21T12:11:49.992Z</time></trkpt><trkpt lat="45.6532576" lon="9.4219578"><ele>235.66666666666666</ele><time>2026-04-21T12:11:50.992Z</time></trkpt><trkpt lat="45.65317" lon="9.4219631"><ele>236.0</ele><time>2026-04-21T12:11:52.992Z</time></trkpt><trkpt lat="45.6530811" lon="9.4219769"><ele>236.33333333333331</ele><time>2026-04-21T12:11:54.992Z</time></trkpt><trkpt lat="45.6529943" lon="9.4220011"><ele>236.66666666666666</ele><time>2026-04-21T12:11:56.992Z</time></trkpt><trkpt lat="45.652887" lon="9.421982"><ele>237.0</ele><time>2026-04-21T12:11:58.992Z</time></trkpt><trkpt lat="45.6528173" lon="9.4219746"><ele>237.2</ele><time>2026-04-21T12:11:59.992Z</time></trkpt><trkpt lat="45.6527161" lon="9.4219631"><ele>237.39999999999998</ele><time>2026-04-21T12:12:01.992Z</time></trkpt><trkpt lat="45.6525938" lon="9.4219387"><ele>237.60000000000002</ele><time>2026-04-21T12:12:03.992Z</time></trkpt><trkpt lat="45.6524798" lon="9.4218966"><ele>237.8</ele><time>2026-04-21T12:12:05.992Z</time></trkpt><trkpt lat="45.6523842" lon="9.4218307"><ele>238.0</ele><time>2026-04-21T12:12:07.992Z</time></trkpt><trkpt lat="45.6523229" lon="9.4217724"><ele>237.99999999999997</ele><time>2026-04-21T12:12:08.992Z</time></trkpt><trkpt lat="45.6522598" lon="9.4217662"><ele>238.0</ele><time>2026-04-21T12:12:09.992Z</time></trkpt><trkpt lat="45.6521893" lon="9.4217443"><ele>238.0</ele><time>2026-04-21T12:12:10.992Z</time></trkpt><trkpt lat="45.6521188" lon="9.4217392"><ele>238.0</ele><time>2026-04-21T12:12:11.992Z</time></trkpt><trkpt lat="45.6519966" lon="9.4216955"><ele>237.99999999999997</ele><time>2026-04-21T12:12:13.992Z</time></trkpt><trkpt lat="45.6519159" lon="9.42167"><ele>238.0</ele><time>2026-04-21T12:12:15.992Z</time></trkpt><trkpt lat="45.6518263" lon="9.4216257"><ele>237.66666666666666</ele><time>2026-04-21T12:12:17.992Z</time></trkpt><trkpt lat="45.6517416" lon="9.4215804"><ele>237.33333333333331</ele><time>2026-04-21T12:12:19.992Z</time></trkpt><trkpt lat="45.6517015" lon="9.4216755"><ele>237.0</ele><time>2026-04-21T12:12:21.992Z</time></trkpt><trkpt lat="45.6516813" lon="9.4217783"><ele>236.66666666666669</ele><time>2026-04-21T12:12:23.992Z</time></trkpt><trkpt lat="45.6516435" lon="9.4218604"><ele>236.33333333333334</ele><time>2026-04-21T12:12:25.992Z</time></trkpt><trkpt lat="45.6516023" lon="9.4220088"><ele>236.0</ele><time>2026-04-21T12:12:27.992Z</time></trkpt><trkpt lat="45.6515842" lon="9.4221301"><ele>235.0</ele><time>2026-04-21T12:12:29.992Z</time></trkpt><trkpt lat="45.6515851" lon="9.4222703"><ele>234.0</ele><time>2026-04-21T12:12:31.992Z</time></trkpt><trkpt lat="45.6515545" lon="9.4224119"><ele>233.0</ele><time>2026-04-21T12:12:33.992Z</time></trkpt><trkpt lat="45.6514829" lon="9.4224858"><ele>232.0</ele><time>2026-04-21T12:12:35.992Z</time></trkpt><trkpt lat="45.651303" lon="9.4225083"><ele>231.99999999999997</ele><time>2026-04-21T12:12:39.991Z</time></trkpt><trkpt lat="45.651232" lon="9.4225151"><ele>232.0</ele><time>2026-04-21T12:12:40.985Z</time></trkpt><trkpt lat="45.6511392" lon="9.4225475"><ele>232.0</ele><time>2026-04-21T12:12:43.055Z</time></trkpt><trkpt lat="45.6510423" lon="9.4225042"><ele>232.0</ele><time>2026-04-21T12:12:44.993Z</time></trkpt><trkpt lat="45.650978" lon="9.4224926"><ele>231.99999999999997</ele><time>2026-04-21T12:12:45.993Z</time></trkpt><trkpt lat="45.6508769" lon="9.4224563"><ele>232.0</ele><time>2026-04-21T12:12:47.993Z</time></trkpt><trkpt lat="45.650748" lon="9.422436"><ele>232.2</ele><time>2026-04-21T12:12:49.993Z</time></trkpt><trkpt lat="45.6506181" lon="9.4224066"><ele>232.39999999999998</ele><time>2026-04-21T12:12:51.993Z</time></trkpt><trkpt lat="45.6505062" lon="9.4223807"><ele>232.60000000000002</ele><time>2026-04-21T12:12:53.993Z</time></trkpt><trkpt lat="45.6504173" lon="9.4224221"><ele>232.8</ele><time>2026-04-21T12:12:55.993Z</time></trkpt><trkpt lat="45.6503184" lon="9.4224472"><ele>233.0</ele><time>2026-04-21T12:12:57.993Z</time></trkpt><trkpt lat="45.650228" lon="9.4224299"><ele>233.16666666666669</ele><time>2026-04-21T12:12:59.993Z</time></trkpt><trkpt lat="45.6501294" lon="9.4224142"><ele>233.33333333333334</ele><time>2026-04-21T12:13:01.993Z</time></trkpt><trkpt lat="45.6500399" lon="9.4223855"><ele>233.5</ele><time>2026-04-21T12:13:03.993Z</time></trkpt><trkpt lat="45.6499383" lon="9.4223688"><ele>233.66666666666669</ele><time>2026-04-21T12:13:05.993Z</time></trkpt><trkpt lat="45.6498678" lon="9.4223491"><ele>233.83333333333334</ele><time>2026-04-21T12:13:06.993Z</time></trkpt><trkpt lat="45.6497978" lon="9.4223321"><ele>234.0</ele><time>2026-04-21T12:13:07.993Z</time></trkpt><trkpt lat="45.6497248" lon="9.422317"><ele>234.0</ele><time>2026-04-21T12:13:08.993Z</time></trkpt><trkpt lat="45.649652" lon="9.4223004"><ele>234.00000000000003</ele><time>2026-04-21T12:13:09.993Z</time></trkpt><trkpt lat="45.6495806" lon="9.4222856"><ele>234.0</ele><time>2026-04-21T12:13:10.993Z</time></trkpt><trkpt lat="45.6495151" lon="9.4222818"><ele>234.0</ele><time>2026-04-21T12:13:11.993Z</time></trkpt><trkpt lat="45.6494503" lon="9.4222867"><ele>234.00000000000003</ele><time>2026-04-21T12:13:12.992Z</time></trkpt><trkpt lat="45.6493758" lon="9.4222816"><ele>234.0</ele><time>2026-04-21T12:13:13.993Z</time></trkpt><trkpt lat="45.649307" lon="9.4222783"><ele>234.0</ele><time>2026-04-21T12:13:14.993Z</time></trkpt><trkpt lat="45.6492377" lon="9.4222715"><ele>233.66666666666666</ele><time>2026-04-21T12:13:15.993Z</time></trkpt><trkpt lat="45.6491747" lon="9.4222634"><ele>233.33333333333331</ele><time>2026-04-21T12:13:16.993Z</time></trkpt><trkpt lat="45.6490609" lon="9.4222335"><ele>233.0</ele><time>2026-04-21T12:13:18.993Z</time></trkpt><trkpt lat="45.6489946" lon="9.4222089"><ele>232.66666666666666</ele><time>2026-04-21T12:13:19.993Z</time></trkpt><trkpt lat="45.6489328" lon="9.4223334"><ele>232.33333333333331</ele><time>2026-04-21T12:13:21.993Z</time></trkpt><trkpt lat="45.6489359" lon="9.42246"><ele>232.0</ele><time>2026-04-21T12:13:23.993Z</time></trkpt><trkpt lat="45.648932" lon="9.4225838"><ele>232.0</ele><time>2026-04-21T12:13:25.993Z</time></trkpt><trkpt lat="45.6489383" lon="9.4227138"><ele>232.0</ele><time>2026-04-21T12:13:27.993Z</time></trkpt><trkpt lat="45.6489495" lon="9.4228541"><ele>232.0</ele><time>2026-04-21T12:13:29.993Z</time></trkpt><trkpt lat="45.6489619" lon="9.4229792"><ele>232.0</ele><time>2026-04-21T12:13:31.993Z</time></trkpt><trkpt lat="45.6489663" lon="9.4231139"><ele>232.0</ele><time>2026-04-21T12:13:33.993Z</time></trkpt><trkpt lat="45.6489714" lon="9.4232425"><ele>233.0</ele><time>2026-04-21T12:13:35.993Z</time></trkpt><trkpt lat="45.6489679" lon="9.4233406"><ele>234.0</ele><time>2026-04-21T12:13:37.993Z</time></trkpt><trkpt lat="45.6488841" lon="9.4233939"><ele>235.0</ele><time>2026-04-21T12:13:39.993Z</time></trkpt><trkpt lat="45.6487798" lon="9.4233997"><ele>236.0</ele><time>2026-04-21T12:13:41.993Z</time></trkpt><trkpt lat="45.6486683" lon="9.4233875"><ele>237.0</ele><time>2026-04-21T12:13:43.993Z</time></trkpt><trkpt lat="45.6485538" lon="9.4233882"><ele>237.0</ele><time>2026-04-21T12:13:45.993Z</time></trkpt><trkpt lat="45.6484415" lon="9.4233919"><ele>237.0</ele><time>2026-04-21T12:13:47.993Z</time></trkpt><trkpt lat="45.6483177" lon="9.4233872"><ele>237.0</ele><time>2026-04-21T12:13:49.993Z</time></trkpt><trkpt lat="45.648201" lon="9.4234016"><ele>237.0</ele><time>2026-04-21T12:13:51.993Z</time></trkpt><trkpt lat="45.6480946" lon="9.423412"><ele>237.0</ele><time>2026-04-21T12:13:53.993Z</time></trkpt><trkpt lat="45.6479828" lon="9.4234287"><ele>237.0</ele><time>2026-04-21T12:13:55.993Z</time></trkpt><trkpt lat="45.6479131" lon="9.4234134"><ele>237.0</ele><time>2026-04-21T12:13:56.993Z</time></trkpt><trkpt lat="45.6478145" lon="9.4234433"><ele>237.0</ele><time>2026-04-21T12:13:58.993Z</time></trkpt><trkpt lat="45.6477005" lon="9.4234544"><ele>237.0</ele><time>2026-04-21T12:14:00.993Z</time></trkpt><trkpt lat="45.6475942" lon="9.42347"><ele>237.2</ele><time>2026-04-21T12:14:02.993Z</time></trkpt><trkpt lat="45.647492" lon="9.4234907"><ele>237.39999999999998</ele><time>2026-04-21T12:14:04.993Z</time></trkpt><trkpt lat="45.6473907" lon="9.423497"><ele>237.60000000000002</ele><time>2026-04-21T12:14:06.993Z</time></trkpt><trkpt lat="45.647284" lon="9.4234783"><ele>237.8</ele><time>2026-04-21T12:14:08.993Z</time></trkpt><trkpt lat="45.6471768" lon="9.4234678"><ele>238.0</ele><time>2026-04-21T12:14:10.993Z</time></trkpt><trkpt lat="45.6470898" lon="9.4234282"><ele>238.0</ele><time>2026-04-21T12:14:12.993Z</time></trkpt><trkpt lat="45.6470282" lon="9.423376"><ele>238.0</ele><time>2026-04-21T12:14:14.993Z</time></trkpt><trkpt lat="45.6469676" lon="9.4233159"><ele>238.0</ele><time>2026-04-21T12:14:15.993Z</time></trkpt><trkpt lat="45.6468773" lon="9.4232511"><ele>238.0</ele><time>2026-04-21T12:14:17.993Z</time></trkpt><trkpt lat="45.6467834" lon="9.4231871"><ele>238.0</ele><time>2026-04-21T12:14:19.993Z</time></trkpt><trkpt lat="45.6466815" lon="9.4231186"><ele>238.2</ele><time>2026-04-21T12:14:21.993Z</time></trkpt><trkpt lat="45.646581" lon="9.4230518"><ele>238.4</ele><time>2026-04-21T12:14:23.993Z</time></trkpt><trkpt lat="45.6464843" lon="9.4229715"><ele>238.59999999999997</ele><time>2026-04-21T12:14:25.993Z</time></trkpt><trkpt lat="45.6463881" lon="9.4228842"><ele>238.79999999999998</ele><time>2026-04-21T12:14:27.993Z</time></trkpt><trkpt lat="45.6462965" lon="9.4227968"><ele>239.0</ele><time>2026-04-21T12:14:29.993Z</time></trkpt><trkpt lat="45.6461956" lon="9.4227112"><ele>239.25</ele><time>2026-04-21T12:14:31.993Z</time></trkpt><trkpt lat="45.6460975" lon="9.4226312"><ele>239.5</ele><time>2026-04-21T12:14:33.993Z</time></trkpt><trkpt lat="45.6459969" lon="9.422547"><ele>239.75</ele><time>2026-04-21T12:14:35.993Z</time></trkpt><trkpt lat="45.6458987" lon="9.4224728"><ele>240.0</ele><time>2026-04-21T12:14:37.993Z</time></trkpt><trkpt lat="45.6458032" lon="9.4223967"><ele>240.0</ele><time>2026-04-21T12:14:39.993Z</time></trkpt><trkpt lat="45.6457046" lon="9.422319"><ele>240.0</ele><time>2026-04-21T12:14:41.993Z</time></trkpt><trkpt lat="45.6456156" lon="9.422226"><ele>240.0</ele><time>2026-04-21T12:14:43.993Z</time></trkpt><trkpt lat="45.6455409" lon="9.4221144"><ele>240.0</ele><time>2026-04-21T12:14:45.993Z</time></trkpt><trkpt lat="45.645458" lon="9.4219794"><ele>239.6</ele><time>2026-04-21T12:14:47.993Z</time></trkpt><trkpt lat="45.6453969" lon="9.4218382"><ele>239.2</ele><time>2026-04-21T12:14:49.993Z</time></trkpt><trkpt lat="45.6453459" lon="9.4216853"><ele>238.8</ele><time>2026-04-21T12:14:51.993Z</time></trkpt><trkpt lat="45.6453197" lon="9.4216022"><ele>238.4</ele><time>2026-04-21T12:14:52.993Z</time></trkpt><trkpt lat="45.6452678" lon="9.421445"><ele>238.0</ele><time>2026-04-21T12:14:54.993Z</time></trkpt><trkpt lat="45.6452371" lon="9.421354"><ele>237.85714285714286</ele><time>2026-04-21T12:14:55.993Z</time></trkpt><trkpt lat="45.6452067" lon="9.4212658"><ele>237.71428571428572</ele><time>2026-04-21T12:14:56.993Z</time></trkpt><trkpt lat="45.6451746" lon="9.421182"><ele>237.57142857142856</ele><time>2026-04-21T12:14:57.993Z</time></trkpt><trkpt lat="45.6451454" lon="9.4210966"><ele>237.42857142857142</ele><time>2026-04-21T12:14:58.993Z</time></trkpt><trkpt lat="45.6451083" lon="9.4210108"><ele>237.28571428571428</ele><time>2026-04-21T12:14:59.993Z</time></trkpt><trkpt lat="45.6450782" lon="9.4209307"><ele>237.1428571428571</ele><time>2026-04-21T12:15:00.993Z</time></trkpt><trkpt lat="45.6450421" lon="9.4208244"><ele>236.99999999999997</ele><time>2026-04-21T12:15:01.993Z</time></trkpt><trkpt lat="45.6450045" lon="9.4207225"><ele>237.0</ele><time>2026-04-21T12:15:02.993Z</time></trkpt><trkpt lat="45.6449626" lon="9.4206184"><ele>237.0</ele><time>2026-04-21T12:15:03.993Z</time></trkpt><trkpt lat="45.6449237" lon="9.4205056"><ele>237.0</ele><time>2026-04-21T12:15:04.993Z</time></trkpt><trkpt lat="45.644885" lon="9.4203987"><ele>237.0</ele><time>2026-04-21T12:15:05.993Z</time></trkpt><trkpt lat="45.6448437" lon="9.4203014"><ele>237.0</ele><time>2026-04-21T12:15:06.993Z</time></trkpt><trkpt lat="45.6448054" lon="9.4201991"><ele>237.0</ele><time>2026-04-21T12:15:07.993Z</time></trkpt><trkpt lat="45.6447667" lon="9.4200865"><ele>236.33333333333334</ele><time>2026-04-21T12:15:08.993Z</time></trkpt><trkpt lat="45.6447279" lon="9.4199729"><ele>235.66666666666669</ele><time>2026-04-21T12:15:09.993Z</time></trkpt><trkpt lat="45.6446913" lon="9.419872"><ele>235.0</ele><time>2026-04-21T12:15:10.993Z</time></trkpt><trkpt lat="45.6446544" lon="9.4197712"><ele>234.33333333333334</ele><time>2026-04-21T12:15:11.993Z</time></trkpt><trkpt lat="45.6446181" lon="9.4196599"><ele>233.66666666666669</ele><time>2026-04-21T12:15:12.992Z</time></trkpt><trkpt lat="45.6445799" lon="9.419561"><ele>233.0</ele><time>2026-04-21T12:15:13.993Z</time></trkpt><trkpt lat="45.6445471" lon="9.4194628"><ele>232.57142857142858</ele><time>2026-04-21T12:15:14.993Z</time></trkpt><trkpt lat="45.6445169" lon="9.4193642"><ele>232.1428571428571</ele><time>2026-04-21T12:15:15.993Z</time></trkpt><trkpt lat="45.6444851" lon="9.4192588"><ele>231.7142857142857</ele><time>2026-04-21T12:15:16.993Z</time></trkpt><trkpt lat="45.6444496" lon="9.4191617"><ele>231.28571428571428</ele><time>2026-04-21T12:15:17.993Z</time></trkpt><trkpt lat="45.6444167" lon="9.4190761"><ele>230.85714285714283</ele><time>2026-04-21T12:15:18.993Z</time></trkpt><trkpt lat="45.6443809" lon="9.4189792"><ele>230.4285714285714</ele><time>2026-04-21T12:15:19.993Z</time></trkpt><trkpt lat="45.6443496" lon="9.4188903"><ele>229.99999999999997</ele><time>2026-04-21T12:15:20.993Z</time></trkpt><trkpt lat="45.6443177" lon="9.4187918"><ele>229.71428571428567</ele><time>2026-04-21T12:15:21.993Z</time></trkpt><trkpt lat="45.6442861" lon="9.4186956"><ele>229.42857142857142</ele><time>2026-04-21T12:15:22.993Z</time></trkpt><trkpt lat="45.6442553" lon="9.4186095"><ele>229.1428571428571</ele><time>2026-04-21T12:15:23.993Z</time></trkpt><trkpt lat="45.6442286" lon="9.4185163"><ele>228.85714285714283</ele><time>2026-04-21T12:15:24.993Z</time></trkpt><trkpt lat="45.6441992" lon="9.4184307"><ele>228.57142857142856</ele><time>2026-04-21T12:15:25.993Z</time></trkpt><trkpt lat="45.6441644" lon="9.4183379"><ele>228.28571428571428</ele><time>2026-04-21T12:15:26.993Z</time></trkpt><trkpt lat="45.6441195" lon="9.4182577"><ele>228.0</ele><time>2026-04-21T12:15:27.993Z</time></trkpt><trkpt lat="45.6440748" lon="9.4181797"><ele>228.0</ele><time>2026-04-21T12:15:28.993Z</time></trkpt><trkpt lat="45.6440256" lon="9.4181179"><ele>228.0</ele><time>2026-04-21T12:15:29.993Z</time></trkpt><trkpt lat="45.6439673" lon="9.4180546"><ele>228.0</ele><time>2026-04-21T12:15:30.993Z</time></trkpt><trkpt lat="45.643903" lon="9.4180116"><ele>228.0</ele><time>2026-04-21T12:15:31.993Z</time></trkpt><trkpt lat="45.6437766" lon="9.4179335"><ele>228.0</ele><time>2026-04-21T12:15:33.993Z</time></trkpt><trkpt lat="45.6437132" lon="9.4178866"><ele>228.0</ele><time>2026-04-21T12:15:34.993Z</time></trkpt><trkpt lat="45.6436488" lon="9.4178447"><ele>228.14285714285714</ele><time>2026-04-21T12:15:35.993Z</time></trkpt><trkpt lat="45.6435904" lon="9.4178091"><ele>228.28571428571428</ele><time>2026-04-21T12:15:36.993Z</time></trkpt><trkpt lat="45.6435218" lon="9.4177464"><ele>228.42857142857142</ele><time>2026-04-21T12:15:37.993Z</time></trkpt><trkpt lat="45.6434549" lon="9.4176989"><ele>228.57142857142856</ele><time>2026-04-21T12:15:38.993Z</time></trkpt><trkpt lat="45.643394" lon="9.4176579"><ele>228.71428571428572</ele><time>2026-04-21T12:15:39.993Z</time></trkpt><trkpt lat="45.6433265" lon="9.4176102"><ele>228.85714285714283</ele><time>2026-04-21T12:15:40.993Z</time></trkpt><trkpt lat="45.6432592" lon="9.4175692"><ele>229.0</ele><time>2026-04-21T12:15:41.993Z</time></trkpt><trkpt lat="45.6431967" lon="9.4175279"><ele>229.0</ele><time>2026-04-21T12:15:42.993Z</time></trkpt><trkpt lat="45.6431258" lon="9.4174909"><ele>229.0</ele><time>2026-04-21T12:15:43.993Z</time></trkpt><trkpt lat="45.6430665" lon="9.4174456"><ele>229.0</ele><time>2026-04-21T12:15:44.993Z</time></trkpt><trkpt lat="45.6429941" lon="9.4173929"><ele>229.0</ele><time>2026-04-21T12:15:45.993Z</time></trkpt><trkpt lat="45.6429286" lon="9.4173328"><ele>229.0</ele><time>2026-04-21T12:15:46.993Z</time></trkpt><trkpt lat="45.6428624" lon="9.4172876"><ele>229.0</ele><time>2026-04-21T12:15:47.993Z</time></trkpt><trkpt lat="45.6427994" lon="9.4172452"><ele>229.0</ele><time>2026-04-21T12:15:48.993Z</time></trkpt><trkpt lat="45.6427247" lon="9.4171985"><ele>229.0</ele><time>2026-04-21T12:15:49.993Z</time></trkpt><trkpt lat="45.6426516" lon="9.4171468"><ele>229.0</ele><time>2026-04-21T12:15:50.993Z</time></trkpt><trkpt lat="45.6425885" lon="9.4171095"><ele>229.0</ele><time>2026-04-21T12:15:51.993Z</time></trkpt><trkpt lat="45.6425231" lon="9.4170723"><ele>229.0</ele><time>2026-04-21T12:15:52.993Z</time></trkpt><trkpt lat="45.6424585" lon="9.4170424"><ele>229.0</ele><time>2026-04-21T12:15:53.993Z</time></trkpt><trkpt lat="45.6423946" lon="9.4169905"><ele>229.0</ele><time>2026-04-21T12:15:54.993Z</time></trkpt><trkpt lat="45.642333" lon="9.4169317"><ele>229.0</ele><time>2026-04-21T12:15:55.992Z</time></trkpt><trkpt lat="45.6422648" lon="9.4168882"><ele>228.99999999999997</ele><time>2026-04-21T12:15:56.993Z</time></trkpt><trkpt lat="45.6421954" lon="9.416842"><ele>229.0</ele><time>2026-04-21T12:15:57.993Z</time></trkpt><trkpt lat="45.6421249" lon="9.4167905"><ele>229.0</ele><time>2026-04-21T12:15:58.993Z</time></trkpt><trkpt lat="45.6420569" lon="9.4167309"><ele>229.0</ele><time>2026-04-21T12:15:59.993Z</time></trkpt><trkpt lat="45.6419904" lon="9.4166846"><ele>228.99999999999997</ele><time>2026-04-21T12:16:00.993Z</time></trkpt><trkpt lat="45.6419268" lon="9.4166438"><ele>229.0</ele><time>2026-04-21T12:16:01.993Z</time></trkpt><trkpt lat="45.6418478" lon="9.4166018"><ele>229.0</ele><time>2026-04-21T12:16:02.993Z</time></trkpt><trkpt lat="45.6417774" lon="9.4165598"><ele>229.0</ele><time>2026-04-21T12:16:03.993Z</time></trkpt><trkpt lat="45.6417081" lon="9.416521"><ele>229.0</ele><time>2026-04-21T12:16:04.992Z</time></trkpt><trkpt lat="45.6416347" lon="9.4164834"><ele>229.0</ele><time>2026-04-21T12:16:05.993Z</time></trkpt><trkpt lat="45.6415729" lon="9.4164432"><ele>229.0</ele><time>2026-04-21T12:16:06.992Z</time></trkpt><trkpt lat="45.6415138" lon="9.416398"><ele>229.0</ele><time>2026-04-21T12:16:07.993Z</time></trkpt><trkpt lat="45.6414543" lon="9.4163412"><ele>229.0</ele><time>2026-04-21T12:16:08.993Z</time></trkpt><trkpt lat="45.6413333" lon="9.4163066"><ele>229.0</ele><time>2026-04-21T12:16:10.993Z</time></trkpt><trkpt lat="45.641268" lon="9.4163563"><ele>228.99999999999997</ele><time>2026-04-21T12:16:11.993Z</time></trkpt><trkpt lat="45.6412446" lon="9.416489"><ele>228.99999999999997</ele><time>2026-04-21T12:16:13.993Z</time></trkpt><trkpt lat="45.6412049" lon="9.4166352"><ele>229.0</ele><time>2026-04-21T12:16:15.993Z</time></trkpt><trkpt lat="45.6411601" lon="9.4167899"><ele>229.0</ele><time>2026-04-21T12:16:17.993Z</time></trkpt><trkpt lat="45.6411059" lon="9.4169466"><ele>228.99999999999997</ele><time>2026-04-21T12:16:19.993Z</time></trkpt><trkpt lat="45.6410559" lon="9.4171132"><ele>229.0</ele><time>2026-04-21T12:16:21.993Z</time></trkpt><trkpt lat="45.6410039" lon="9.4172637"><ele>229.0</ele><time>2026-04-21T12:16:23.993Z</time></trkpt><trkpt lat="45.6409818" lon="9.417355"><ele>229.0</ele><time>2026-04-21T12:16:24.993Z</time></trkpt><trkpt lat="45.6409419" lon="9.4174293"><ele>228.99999999999997</ele><time>2026-04-21T12:16:25.993Z</time></trkpt><trkpt lat="45.6409168" lon="9.4175127"><ele>229.0</ele><time>2026-04-21T12:16:26.993Z</time></trkpt><trkpt lat="45.6408867" lon="9.4175954"><ele>229.0</ele><time>2026-04-21T12:16:27.993Z</time></trkpt><trkpt lat="45.6408212" lon="9.4177381"><ele>228.99999999999997</ele><time>2026-04-21T12:16:29.993Z</time></trkpt><trkpt lat="45.6407412" lon="9.4178716"><ele>228.99999999999997</ele><time>2026-04-21T12:16:31.993Z</time></trkpt><trkpt lat="45.6406495" lon="9.4179895"><ele>229.0</ele><time>2026-04-21T12:16:33.993Z</time></trkpt><trkpt lat="45.640599" lon="9.4180486"><ele>229.0</ele><time>2026-04-21T12:16:34.993Z</time></trkpt><trkpt lat="45.6405328" lon="9.4180922"><ele>229.0</ele><time>2026-04-21T12:16:35.993Z</time></trkpt><trkpt lat="45.6404766" lon="9.4181394"><ele>228.99999999999997</ele><time>2026-04-21T12:16:36.993Z</time></trkpt><trkpt lat="45.6404116" lon="9.4181819"><ele>228.99999999999997</ele><time>2026-04-21T12:16:37.993Z</time></trkpt><trkpt lat="45.6402864" lon="9.4182209"><ele>229.0</ele><time>2026-04-21T12:16:39.993Z</time></trkpt><trkpt lat="45.6401632" lon="9.4182327"><ele>229.0</ele><time>2026-04-21T12:16:41.993Z</time></trkpt><trkpt lat="45.6400315" lon="9.4182104"><ele>229.0</ele><time>2026-04-21T12:16:43.993Z</time></trkpt><trkpt lat="45.6399663" lon="9.4182016"><ele>229.0</ele><time>2026-04-21T12:16:44.993Z</time></trkpt><trkpt lat="45.639888" lon="9.4181836"><ele>229.0</ele><time>2026-04-21T12:16:45.993Z</time></trkpt><trkpt lat="45.6398123" lon="9.418174"><ele>229.0</ele><time>2026-04-21T12:16:46.993Z</time></trkpt><trkpt lat="45.6397435" lon="9.4181657"><ele>229.0</ele><time>2026-04-21T12:16:47.993Z</time></trkpt><trkpt lat="45.6396709" lon="9.4181549"><ele>229.0</ele><time>2026-04-21T12:16:48.993Z</time></trkpt><trkpt lat="45.6395904" lon="9.418144"><ele>229.0</ele><time>2026-04-21T12:16:49.993Z</time></trkpt><trkpt lat="45.6395191" lon="9.4181296"><ele>228.71428571428572</ele><time>2026-04-21T12:16:50.993Z</time></trkpt><trkpt lat="45.6394519" lon="9.4181147"><ele>228.42857142857144</ele><time>2026-04-21T12:16:51.993Z</time></trkpt><trkpt lat="45.6393881" lon="9.4181032"><ele>228.14285714285717</ele><time>2026-04-21T12:16:52.993Z</time></trkpt><trkpt lat="45.6393133" lon="9.4180771"><ele>227.85714285714286</ele><time>2026-04-21T12:16:53.993Z</time></trkpt><trkpt lat="45.6392359" lon="9.4180672"><ele>227.5714285714286</ele><time>2026-04-21T12:16:54.993Z</time></trkpt><trkpt lat="45.6391619" lon="9.418053"><ele>227.2857142857143</ele><time>2026-04-21T12:16:55.993Z</time></trkpt><trkpt lat="45.639091" lon="9.4180343"><ele>227.0</ele><time>2026-04-21T12:16:56.993Z</time></trkpt><trkpt lat="45.63902" lon="9.4180208"><ele>227.00000000000003</ele><time>2026-04-21T12:16:57.993Z</time></trkpt><trkpt lat="45.6389465" lon="9.4180046"><ele>227.0</ele><time>2026-04-21T12:16:58.993Z</time></trkpt><trkpt lat="45.6388779" lon="9.4179941"><ele>227.0</ele><time>2026-04-21T12:16:59.993Z</time></trkpt><trkpt lat="45.6388065" lon="9.4179836"><ele>227.0</ele><time>2026-04-21T12:17:00.993Z</time></trkpt><trkpt lat="45.6387397" lon="9.4179761"><ele>227.00000000000003</ele><time>2026-04-21T12:17:01.993Z</time></trkpt><trkpt lat="45.6386411" lon="9.4179649"><ele>227.0</ele><time>2026-04-21T12:17:03.993Z</time></trkpt><trkpt lat="45.6385615" lon="9.4179339"><ele>226.0</ele><time>2026-04-21T12:17:05.993Z</time></trkpt><trkpt lat="45.6384489" lon="9.4180319"><ele>225.0</ele><time>2026-04-21T12:17:09.993Z</time></trkpt><trkpt lat="45.6383467" lon="9.418064"><ele>224.0</ele><time>2026-04-21T12:17:11.993Z</time></trkpt><trkpt lat="45.6382446" lon="9.4181031"><ele>223.0</ele><time>2026-04-21T12:17:13.993Z</time></trkpt><trkpt lat="45.6381126" lon="9.4181005"><ele>222.99999999999997</ele><time>2026-04-21T12:17:15.993Z</time></trkpt><trkpt lat="45.6379879" lon="9.4180788"><ele>223.0</ele><time>2026-04-21T12:17:17.993Z</time></trkpt><trkpt lat="45.6379255" lon="9.4180661"><ele>223.0</ele><time>2026-04-21T12:17:18.993Z</time></trkpt><trkpt lat="45.6378597" lon="9.4180403"><ele>223.0</ele><time>2026-04-21T12:17:19.993Z</time></trkpt><trkpt lat="45.637798" lon="9.4180203"><ele>222.99999999999997</ele><time>2026-04-21T12:17:20.993Z</time></trkpt><trkpt lat="45.6377353" lon="9.4180053"><ele>223.0</ele><time>2026-04-21T12:17:21.993Z</time></trkpt><trkpt lat="45.6376628" lon="9.4179772"><ele>223.14285714285714</ele><time>2026-04-21T12:17:22.993Z</time></trkpt><trkpt lat="45.6376006" lon="9.4179531"><ele>223.28571428571428</ele><time>2026-04-21T12:17:23.993Z</time></trkpt><trkpt lat="45.6375332" lon="9.4179302"><ele>223.42857142857144</ele><time>2026-04-21T12:17:24.993Z</time></trkpt><trkpt lat="45.6374688" lon="9.4179138"><ele>223.57142857142856</ele><time>2026-04-21T12:17:25.993Z</time></trkpt><trkpt lat="45.6374071" lon="9.4178924"><ele>223.71428571428572</ele><time>2026-04-21T12:17:26.993Z</time></trkpt><trkpt lat="45.6373367" lon="9.417893"><ele>223.85714285714286</ele><time>2026-04-21T12:17:27.993Z</time></trkpt><trkpt lat="45.6372705" lon="9.4178968"><ele>224.0</ele><time>2026-04-21T12:17:28.993Z</time></trkpt><trkpt lat="45.6372015" lon="9.4178926"><ele>224.00000000000003</ele><time>2026-04-21T12:17:29.993Z</time></trkpt><trkpt lat="45.6371331" lon="9.4178864"><ele>224.0</ele><time>2026-04-21T12:17:30.993Z</time></trkpt><trkpt lat="45.6370697" lon="9.4178645"><ele>224.0</ele><time>2026-04-21T12:17:31.993Z</time></trkpt><trkpt lat="45.6369495" lon="9.4178121"><ele>224.0</ele><time>2026-04-21T12:17:33.993Z</time></trkpt><trkpt lat="45.636889" lon="9.4177818"><ele>224.00000000000003</ele><time>2026-04-21T12:17:34.993Z</time></trkpt><trkpt lat="45.6368251" lon="9.4177482"><ele>224.0</ele><time>2026-04-21T12:17:35.993Z</time></trkpt><trkpt lat="45.6367624" lon="9.4177113"><ele>223.79999999999998</ele><time>2026-04-21T12:17:36.993Z</time></trkpt><trkpt lat="45.6366994" lon="9.4176778"><ele>223.59999999999997</ele><time>2026-04-21T12:17:37.993Z</time></trkpt><trkpt lat="45.636582" lon="9.4176277"><ele>223.4</ele><time>2026-04-21T12:17:39.993Z</time></trkpt><trkpt lat="45.6365206" lon="9.4176012"><ele>223.2</ele><time>2026-04-21T12:17:40.993Z</time></trkpt><trkpt lat="45.6364148" lon="9.4175516"><ele>223.0</ele><time>2026-04-21T12:17:42.993Z</time></trkpt><trkpt lat="45.6363208" lon="9.417543"><ele>223.0</ele><time>2026-04-21T12:17:44.993Z</time></trkpt><trkpt lat="45.6362708" lon="9.4176243"><ele>223.0</ele><time>2026-04-21T12:17:46.993Z</time></trkpt><trkpt lat="45.6362245" lon="9.4177542"><ele>223.0</ele><time>2026-04-21T12:17:48.993Z</time></trkpt><trkpt lat="45.6361643" lon="9.4178807"><ele>223.0</ele><time>2026-04-21T12:17:50.993Z</time></trkpt><trkpt lat="45.6361051" lon="9.4180269"><ele>223.0</ele><time>2026-04-21T12:17:52.993Z</time></trkpt><trkpt lat="45.6360489" lon="9.4181791"><ele>223.4</ele><time>2026-04-21T12:17:54.993Z</time></trkpt><trkpt lat="45.6359885" lon="9.4183261"><ele>223.8</ele><time>2026-04-21T12:17:56.993Z</time></trkpt><trkpt lat="45.6359385" lon="9.4184621"><ele>224.2</ele><time>2026-04-21T12:17:58.993Z</time></trkpt><trkpt lat="45.6358872" lon="9.4185909"><ele>224.6</ele><time>2026-04-21T12:18:00.993Z</time></trkpt><trkpt lat="45.6358185" lon="9.4186843"><ele>225.0</ele><time>2026-04-21T12:18:02.993Z</time></trkpt><trkpt lat="45.6357796" lon="9.4187632"><ele>225.4</ele><time>2026-04-21T12:18:04.993Z</time></trkpt><trkpt lat="45.635733" lon="9.4188725"><ele>225.8</ele><time>2026-04-21T12:18:06.993Z</time></trkpt><trkpt lat="45.6356969" lon="9.4189793"><ele>226.2</ele><time>2026-04-21T12:18:08.993Z</time></trkpt><trkpt lat="45.635648" lon="9.4190962"><ele>226.6</ele><time>2026-04-21T12:18:10.993Z</time></trkpt><trkpt lat="45.6356004" lon="9.4192092"><ele>227.0</ele><time>2026-04-21T12:18:12.993Z</time></trkpt><trkpt lat="45.6355552" lon="9.4193238"><ele>227.0</ele><time>2026-04-21T12:18:14.993Z</time></trkpt><trkpt lat="45.6355164" lon="9.4194138"><ele>227.0</ele><time>2026-04-21T12:18:16.993Z</time></trkpt><trkpt lat="45.635442" lon="9.4194742"><ele>227.0</ele><time>2026-04-21T12:18:18.993Z</time></trkpt><trkpt lat="45.6353865" lon="9.4194314"><ele>227.0</ele><time>2026-04-21T12:18:20.993Z</time></trkpt><trkpt lat="45.6352926" lon="9.4193513"><ele>227.0</ele><time>2026-04-21T12:18:22.993Z</time></trkpt><trkpt lat="45.6351821" lon="9.4192709"><ele>227.39999999999998</ele><time>2026-04-21T12:18:24.993Z</time></trkpt><trkpt lat="45.6350692" lon="9.4191977"><ele>227.79999999999998</ele><time>2026-04-21T12:18:26.993Z</time></trkpt><trkpt lat="45.634961" lon="9.4190871"><ele>228.2</ele><time>2026-04-21T12:18:28.993Z</time></trkpt><trkpt lat="45.6348504" lon="9.4190241"><ele>228.6</ele><time>2026-04-21T12:18:30.993Z</time></trkpt><trkpt lat="45.6347878" lon="9.4189951"><ele>229.0</ele><time>2026-04-21T12:18:31.993Z</time></trkpt><trkpt lat="45.6347264" lon="9.4189501"><ele>228.99999999999997</ele><time>2026-04-21T12:18:32.993Z</time></trkpt><trkpt lat="45.6346605" lon="9.4189203"><ele>229.0</ele><time>2026-04-21T12:18:33.993Z</time></trkpt><trkpt lat="45.6345875" lon="9.4188867"><ele>229.0</ele><time>2026-04-21T12:18:34.993Z</time></trkpt><trkpt lat="45.6345193" lon="9.4188608"><ele>229.0</ele><time>2026-04-21T12:18:35.993Z</time></trkpt><trkpt lat="45.6343991" lon="9.4188077"><ele>228.99999999999997</ele><time>2026-04-21T12:18:37.993Z</time></trkpt><trkpt lat="45.6343366" lon="9.4187884"><ele>229.0</ele><time>2026-04-21T12:18:38.993Z</time></trkpt><trkpt lat="45.6342641" lon="9.4187593"><ele>228.28571428571428</ele><time>2026-04-21T12:18:39.993Z</time></trkpt><trkpt lat="45.6341951" lon="9.4187314"><ele>227.57142857142858</ele><time>2026-04-21T12:18:40.993Z</time></trkpt><trkpt lat="45.6341234" lon="9.4187117"><ele>226.85714285714286</ele><time>2026-04-21T12:18:41.993Z</time></trkpt><trkpt lat="45.634057" lon="9.4186947"><ele>226.14285714285714</ele><time>2026-04-21T12:18:42.993Z</time></trkpt><trkpt lat="45.6339915" lon="9.4186671"><ele>225.42857142857144</ele><time>2026-04-21T12:18:43.993Z</time></trkpt><trkpt lat="45.6339221" lon="9.4186462"><ele>224.71428571428572</ele><time>2026-04-21T12:18:44.993Z</time></trkpt><trkpt lat="45.6338532" lon="9.4186194"><ele>224.0</ele><time>2026-04-21T12:18:45.993Z</time></trkpt><trkpt lat="45.6337251" lon="9.4185896"><ele>224.00000000000003</ele><time>2026-04-21T12:18:47.993Z</time></trkpt><trkpt lat="45.6336487" lon="9.4185749"><ele>224.0</ele><time>2026-04-21T12:18:48.993Z</time></trkpt><trkpt lat="45.6335222" lon="9.4185421"><ele>224.0</ele><time>2026-04-21T12:18:50.993Z</time></trkpt><trkpt lat="45.6334573" lon="9.4185358"><ele>224.0</ele><time>2026-04-21T12:18:51.993Z</time></trkpt><trkpt lat="45.6333917" lon="9.4185077"><ele>224.00000000000003</ele><time>2026-04-21T12:18:52.993Z</time></trkpt><trkpt lat="45.6333297" lon="9.4184852"><ele>224.0</ele><time>2026-04-21T12:18:53.993Z</time></trkpt><trkpt lat="45.6332585" lon="9.4184624"><ele>224.0</ele><time>2026-04-21T12:18:54.993Z</time></trkpt><trkpt lat="45.6331863" lon="9.4184752"><ele>224.0</ele><time>2026-04-21T12:18:55.993Z</time></trkpt><trkpt lat="45.6331173" lon="9.4184824"><ele>224.0</ele><time>2026-04-21T12:18:56.993Z</time></trkpt><trkpt lat="45.6330447" lon="9.4184582"><ele>224.0</ele><time>2026-04-21T12:18:57.993Z</time></trkpt><trkpt lat="45.6329741" lon="9.4184333"><ele>224.0</ele><time>2026-04-21T12:18:58.993Z</time></trkpt><trkpt lat="45.6329021" lon="9.4184373"><ele>224.0</ele><time>2026-04-21T12:18:59.993Z</time></trkpt><trkpt lat="45.6328288" lon="9.4184394"><ele>224.0</ele><time>2026-04-21T12:19:00.993Z</time></trkpt><trkpt lat="45.632762" lon="9.4184055"><ele>224.0</ele><time>2026-04-21T12:19:01.993Z</time></trkpt><trkpt lat="45.6326992" lon="9.4183904"><ele>224.0</ele><time>2026-04-21T12:19:02.993Z</time></trkpt><trkpt lat="45.6326262" lon="9.4183701"><ele>224.0</ele><time>2026-04-21T12:19:03.993Z</time></trkpt><trkpt lat="45.6325518" lon="9.4183514"><ele>224.0</ele><time>2026-04-21T12:19:04.993Z</time></trkpt><trkpt lat="45.6324878" lon="9.4183264"><ele>224.0</ele><time>2026-04-21T12:19:05.993Z</time></trkpt><trkpt lat="45.6324217" lon="9.4183004"><ele>224.0</ele><time>2026-04-21T12:19:06.993Z</time></trkpt><trkpt lat="45.6323426" lon="9.4182886"><ele>224.0</ele><time>2026-04-21T12:19:07.993Z</time></trkpt><trkpt lat="45.6322732" lon="9.4182554"><ele>224.00000000000003</ele><time>2026-04-21T12:19:08.993Z</time></trkpt><trkpt lat="45.632202" lon="9.4182275"><ele>224.0</ele><time>2026-04-21T12:19:09.993Z</time></trkpt><trkpt lat="45.6321324" lon="9.4181969"><ele>224.0</ele><time>2026-04-21T12:19:10.993Z</time></trkpt><trkpt lat="45.6320604" lon="9.418201"><ele>224.0</ele><time>2026-04-21T12:19:11.993Z</time></trkpt><trkpt lat="45.6319863" lon="9.4181912"><ele>224.00000000000003</ele><time>2026-04-21T12:19:12.993Z</time></trkpt><trkpt lat="45.6318608" lon="9.4181465"><ele>224.0</ele><time>2026-04-21T12:19:14.993Z</time></trkpt><trkpt lat="45.6317879" lon="9.4181392"><ele>223.83333333333334</ele><time>2026-04-21T12:19:15.993Z</time></trkpt><trkpt lat="45.6317084" lon="9.4181314"><ele>223.66666666666669</ele><time>2026-04-21T12:19:16.993Z</time></trkpt><trkpt lat="45.6316296" lon="9.4181267"><ele>223.5</ele><time>2026-04-21T12:19:17.993Z</time></trkpt><trkpt lat="45.631559" lon="9.4181094"><ele>223.33333333333331</ele><time>2026-04-21T12:19:18.993Z</time></trkpt><trkpt lat="45.6314695" lon="9.4181131"><ele>223.16666666666666</ele><time>2026-04-21T12:19:19.993Z</time></trkpt><trkpt lat="45.6313963" lon="9.4181263"><ele>223.0</ele><time>2026-04-21T12:19:20.993Z</time></trkpt><trkpt lat="45.6313093" lon="9.4181071"><ele>222.99999999999997</ele><time>2026-04-21T12:19:21.993Z</time></trkpt><trkpt lat="45.6312313" lon="9.4180926"><ele>223.0</ele><time>2026-04-21T12:19:22.993Z</time></trkpt><trkpt lat="45.6311601" lon="9.4180699"><ele>223.0</ele><time>2026-04-21T12:19:23.993Z</time></trkpt><trkpt lat="45.6310863" lon="9.4180502"><ele>223.0</ele><time>2026-04-21T12:19:24.993Z</time></trkpt><trkpt lat="45.6310194" lon="9.4180296"><ele>222.99999999999997</ele><time>2026-04-21T12:19:25.993Z</time></trkpt><trkpt lat="45.6309361" lon="9.4180308"><ele>223.0</ele><time>2026-04-21T12:19:26.993Z</time></trkpt><trkpt lat="45.6308592" lon="9.4180371"><ele>223.28571428571428</ele><time>2026-04-21T12:19:27.993Z</time></trkpt><trkpt lat="45.6307909" lon="9.4180391"><ele>223.57142857142856</ele><time>2026-04-21T12:19:28.993Z</time></trkpt><trkpt lat="45.6307105" lon="9.4180289"><ele>223.8571428571429</ele><time>2026-04-21T12:19:29.993Z</time></trkpt><trkpt lat="45.6306303" lon="9.4180513"><ele>224.14285714285717</ele><time>2026-04-21T12:19:30.993Z</time></trkpt><trkpt lat="45.630556" lon="9.4180672"><ele>224.42857142857144</ele><time>2026-04-21T12:19:31.993Z</time></trkpt><trkpt lat="45.6304933" lon="9.4180764"><ele>224.71428571428575</ele><time>2026-04-21T12:19:32.993Z</time></trkpt><trkpt lat="45.6304175" lon="9.4180772"><ele>225.00000000000003</ele><time>2026-04-21T12:19:33.993Z</time></trkpt><trkpt lat="45.6303538" lon="9.4180801"><ele>224.33333333333334</ele><time>2026-04-21T12:19:34.993Z</time></trkpt><trkpt lat="45.6302795" lon="9.418103"><ele>223.66666666666669</ele><time>2026-04-21T12:19:35.993Z</time></trkpt><trkpt lat="45.6302026" lon="9.4181163"><ele>223.0</ele><time>2026-04-21T12:19:36.993Z</time></trkpt><trkpt lat="45.6300981" lon="9.4181295"><ele>222.33333333333334</ele><time>2026-04-21T12:19:38.992Z</time></trkpt><trkpt lat="45.6300121" lon="9.4181789"><ele>221.66666666666669</ele><time>2026-04-21T12:19:39.993Z</time></trkpt><trkpt lat="45.6299555" lon="9.4181018"><ele>221.0</ele><time>2026-04-21T12:19:40.993Z</time></trkpt><trkpt lat="45.6298964" lon="9.418047"><ele>221.00000000000003</ele><time>2026-04-21T12:19:41.993Z</time></trkpt><trkpt lat="45.629826" lon="9.4180307"><ele>221.0</ele><time>2026-04-21T12:19:42.993Z</time></trkpt><trkpt lat="45.629743" lon="9.4180589"><ele>221.0</ele><time>2026-04-21T12:19:43.993Z</time></trkpt><trkpt lat="45.629678" lon="9.418107"><ele>221.0</ele><time>2026-04-21T12:19:44.993Z</time></trkpt><trkpt lat="45.6296214" lon="9.4181746"><ele>221.00000000000003</ele><time>2026-04-21T12:19:45.993Z</time></trkpt><trkpt lat="45.6295567" lon="9.418221"><ele>221.0</ele><time>2026-04-21T12:19:46.993Z</time></trkpt><trkpt lat="45.6294818" lon="9.4182346"><ele>220.71428571428572</ele><time>2026-04-21T12:19:47.993Z</time></trkpt><trkpt lat="45.6294132" lon="9.4182429"><ele>220.42857142857144</ele><time>2026-04-21T12:19:48.993Z</time></trkpt><trkpt lat="45.6293398" lon="9.4182562"><ele>220.14285714285717</ele><time>2026-04-21T12:19:49.993Z</time></trkpt><trkpt lat="45.6292681" lon="9.4182765"><ele>219.85714285714286</ele><time>2026-04-21T12:19:50.993Z</time></trkpt><trkpt lat="45.6291978" lon="9.4182865"><ele>219.57142857142856</ele><time>2026-04-21T12:19:51.993Z</time></trkpt><trkpt lat="45.6291222" lon="9.4182954"><ele>219.2857142857143</ele><time>2026-04-21T12:19:52.993Z</time></trkpt><trkpt lat="45.6290533" lon="9.4182982"><ele>219.0</ele><time>2026-04-21T12:19:53.993Z</time></trkpt><trkpt lat="45.6289872" lon="9.4183234"><ele>219.0</ele><time>2026-04-21T12:19:54.993Z</time></trkpt><trkpt lat="45.6289086" lon="9.4183152"><ele>219.0</ele><time>2026-04-21T12:19:55.993Z</time></trkpt><trkpt lat="45.6288276" lon="9.418319"><ele>219.0</ele><time>2026-04-21T12:19:56.993Z</time></trkpt><trkpt lat="45.6287619" lon="9.4183331"><ele>219.0</ele><time>2026-04-21T12:19:57.993Z</time></trkpt><trkpt lat="45.6286894" lon="9.4183378"><ele>219.0</ele><time>2026-04-21T12:19:58.993Z</time></trkpt><trkpt lat="45.6286141" lon="9.4183471"><ele>219.0</ele><time>2026-04-21T12:19:59.993Z</time></trkpt><trkpt lat="45.6285412" lon="9.4183541"><ele>219.0</ele><time>2026-04-21T12:20:00.993Z</time></trkpt><trkpt lat="45.6284642" lon="9.4183534"><ele>218.33333333333334</ele><time>2026-04-21T12:20:01.993Z</time></trkpt><trkpt lat="45.6283889" lon="9.418351"><ele>217.66666666666669</ele><time>2026-04-21T12:20:02.993Z</time></trkpt><trkpt lat="45.6283154" lon="9.4183442"><ele>217.0</ele><time>2026-04-21T12:20:03.993Z</time></trkpt><trkpt lat="45.6282231" lon="9.4183263"><ele>216.33333333333334</ele><time>2026-04-21T12:20:04.993Z</time></trkpt><trkpt lat="45.6281464" lon="9.4183317"><ele>215.66666666666669</ele><time>2026-04-21T12:20:05.993Z</time></trkpt><trkpt lat="45.6280669" lon="9.4183286"><ele>215.0</ele><time>2026-04-21T12:20:06.993Z</time></trkpt><trkpt lat="45.6279883" lon="9.4183195"><ele>215.00000000000003</ele><time>2026-04-21T12:20:07.993Z</time></trkpt><trkpt lat="45.6279062" lon="9.4183211"><ele>215.0</ele><time>2026-04-21T12:20:08.992Z</time></trkpt><trkpt lat="45.6278295" lon="9.4183045"><ele>215.0</ele><time>2026-04-21T12:20:09.993Z</time></trkpt><trkpt lat="45.6277571" lon="9.4183107"><ele>215.0</ele><time>2026-04-21T12:20:10.993Z</time></trkpt><trkpt lat="45.6276708" lon="9.4183111"><ele>215.00000000000003</ele><time>2026-04-21T12:20:11.993Z</time></trkpt><trkpt lat="45.6275856" lon="9.4183214"><ele>215.0</ele><time>2026-04-21T12:20:12.993Z</time></trkpt><trkpt lat="45.6275117" lon="9.4183172"><ele>215.00000000000003</ele><time>2026-04-21T12:20:13.993Z</time></trkpt><trkpt lat="45.6274366" lon="9.4183196"><ele>215.0</ele><time>2026-04-21T12:20:14.993Z</time></trkpt><trkpt lat="45.6273603" lon="9.4183031"><ele>215.0</ele><time>2026-04-21T12:20:15.993Z</time></trkpt><trkpt lat="45.6272835" lon="9.4183092"><ele>215.0</ele><time>2026-04-21T12:20:16.993Z</time></trkpt><trkpt lat="45.6272113" lon="9.4183088"><ele>215.00000000000003</ele><time>2026-04-21T12:20:17.993Z</time></trkpt><trkpt lat="45.627128" lon="9.4183107"><ele>215.0</ele><time>2026-04-21T12:20:18.993Z</time></trkpt><trkpt lat="45.6270513" lon="9.4183065"><ele>215.00000000000003</ele><time>2026-04-21T12:20:19.993Z</time></trkpt><trkpt lat="45.6269827" lon="9.4183265"><ele>215.0</ele><time>2026-04-21T12:20:20.993Z</time></trkpt><trkpt lat="45.6268941" lon="9.4183175"><ele>215.0</ele><time>2026-04-21T12:20:21.993Z</time></trkpt><trkpt lat="45.6268218" lon="9.4183265"><ele>215.0</ele><time>2026-04-21T12:20:22.993Z</time></trkpt><trkpt lat="45.6267399" lon="9.4183195"><ele>215.00000000000003</ele><time>2026-04-21T12:20:23.992Z</time></trkpt><trkpt lat="45.6266684" lon="9.418308"><ele>215.0</ele><time>2026-04-21T12:20:24.993Z</time></trkpt><trkpt lat="45.6265843" lon="9.4183174"><ele>215.16666666666669</ele><time>2026-04-21T12:20:25.993Z</time></trkpt><trkpt lat="45.6264989" lon="9.4182873"><ele>215.33333333333334</ele><time>2026-04-21T12:20:26.993Z</time></trkpt><trkpt lat="45.6264204" lon="9.4182798"><ele>215.5</ele><time>2026-04-21T12:20:27.993Z</time></trkpt><trkpt lat="45.6263341" lon="9.4182482"><ele>215.66666666666669</ele><time>2026-04-21T12:20:28.993Z</time></trkpt><trkpt lat="45.6262549" lon="9.4182334"><ele>215.83333333333334</ele><time>2026-04-21T12:20:29.993Z</time></trkpt><trkpt lat="45.6261716" lon="9.4182008"><ele>216.0</ele><time>2026-04-21T12:20:30.993Z</time></trkpt><trkpt lat="45.6260813" lon="9.4181722"><ele>215.66666666666666</ele><time>2026-04-21T12:20:31.993Z</time></trkpt><trkpt lat="45.6259927" lon="9.4181577"><ele>215.33333333333331</ele><time>2026-04-21T12:20:32.993Z</time></trkpt><trkpt lat="45.625916" lon="9.4181513"><ele>215.0</ele><time>2026-04-21T12:20:33.993Z</time></trkpt><trkpt lat="45.6258336" lon="9.4181395"><ele>214.66666666666666</ele><time>2026-04-21T12:20:34.993Z</time></trkpt><trkpt lat="45.6257519" lon="9.4181193"><ele>214.33333333333331</ele><time>2026-04-21T12:20:35.993Z</time></trkpt><trkpt lat="45.6256684" lon="9.4180688"><ele>214.0</ele><time>2026-04-21T12:20:36.993Z</time></trkpt><trkpt lat="45.6255922" lon="9.4180599"><ele>214.00000000000003</ele><time>2026-04-21T12:20:37.993Z</time></trkpt><trkpt lat="45.6255111" lon="9.4180536"><ele>214.0</ele><time>2026-04-21T12:20:38.993Z</time></trkpt><trkpt lat="45.6254266" lon="9.4180394"><ele>214.0</ele><time>2026-04-21T12:20:39.993Z</time></trkpt><trkpt lat="45.6253533" lon="9.4180268"><ele>214.0</ele><time>2026-04-21T12:20:40.993Z</time></trkpt><trkpt lat="45.6252798" lon="9.4179982"><ele>214.0</ele><time>2026-04-21T12:20:41.993Z</time></trkpt><trkpt lat="45.6252298" lon="9.4179379"><ele>214.00000000000003</ele><time>2026-04-21T12:20:42.993Z</time></trkpt><trkpt lat="45.6251873" lon="9.4178705"><ele>214.0</ele><time>2026-04-21T12:20:43.993Z</time></trkpt><trkpt lat="45.6251487" lon="9.4177969"><ele>213.83333333333331</ele><time>2026-04-21T12:20:44.992Z</time></trkpt><trkpt lat="45.6250768" lon="9.4177192"><ele>213.66666666666666</ele><time>2026-04-21T12:20:46.993Z</time></trkpt><trkpt lat="45.6250128" lon="9.4176984"><ele>213.5</ele><time>2026-04-21T12:21:00.993Z</time></trkpt><trkpt lat="45.6249237" lon="9.4177106"><ele>213.33333333333331</ele><time>2026-04-21T12:21:04.993Z</time></trkpt><trkpt lat="45.6248599" lon="9.4177706"><ele>213.16666666666666</ele><time>2026-04-21T12:21:07.993Z</time></trkpt><trkpt lat="45.6247954" lon="9.4178621"><ele>213.0</ele><time>2026-04-21T12:21:10.993Z</time></trkpt><trkpt lat="45.6247448" lon="9.417928"><ele>213.0</ele><time>2026-04-21T12:21:24.993Z</time></trkpt><trkpt lat="45.6246569" lon="9.4179666"><ele>213.0</ele><time>2026-04-21T12:21:27.993Z</time></trkpt><trkpt lat="45.6245657" lon="9.4179459"><ele>213.0</ele><time>2026-04-21T12:21:29.993Z</time></trkpt><trkpt lat="45.6244588" lon="9.4179598"><ele>213.0</ele><time>2026-04-21T12:21:31.993Z</time></trkpt><trkpt lat="45.6243542" lon="9.4179514"><ele>213.0</ele><time>2026-04-21T12:21:33.993Z</time></trkpt><trkpt lat="45.6242493" lon="9.417922"><ele>213.60000000000002</ele><time>2026-04-21T12:21:35.993Z</time></trkpt><trkpt lat="45.6241855" lon="9.4179074"><ele>214.20000000000002</ele><time>2026-04-21T12:21:36.993Z</time></trkpt><trkpt lat="45.6241201" lon="9.4178916"><ele>214.8</ele><time>2026-04-21T12:21:37.993Z</time></trkpt><trkpt lat="45.6239989" lon="9.417865"><ele>215.4</ele><time>2026-04-21T12:21:39.993Z</time></trkpt><trkpt lat="45.6239316" lon="9.4178471"><ele>216.0</ele><time>2026-04-21T12:21:40.993Z</time></trkpt><trkpt lat="45.6238018" lon="9.4178398"><ele>216.0</ele><time>2026-04-21T12:21:42.993Z</time></trkpt><trkpt lat="45.6237315" lon="9.4178336"><ele>216.0</ele><time>2026-04-21T12:21:43.993Z</time></trkpt><trkpt lat="45.6236646" lon="9.4178196"><ele>216.0</ele><time>2026-04-21T12:21:44.993Z</time></trkpt><trkpt lat="45.6235948" lon="9.4178088"><ele>216.0</ele><time>2026-04-21T12:21:45.993Z</time></trkpt><trkpt lat="45.623523" lon="9.417801"><ele>216.0</ele><time>2026-04-21T12:21:46.993Z</time></trkpt><trkpt lat="45.6234583" lon="9.4177893"><ele>216.0</ele><time>2026-04-21T12:21:47.993Z</time></trkpt><trkpt lat="45.6233376" lon="9.4177581"><ele>215.85714285714286</ele><time>2026-04-21T12:21:49.993Z</time></trkpt><trkpt lat="45.6232737" lon="9.4177532"><ele>215.71428571428572</ele><time>2026-04-21T12:21:50.993Z</time></trkpt><trkpt lat="45.623203" lon="9.4177459"><ele>215.57142857142856</ele><time>2026-04-21T12:21:51.993Z</time></trkpt><trkpt lat="45.6231303" lon="9.4177357"><ele>215.42857142857144</ele><time>2026-04-21T12:21:52.993Z</time></trkpt><trkpt lat="45.6230546" lon="9.4177208"><ele>215.2857142857143</ele><time>2026-04-21T12:21:53.993Z</time></trkpt><trkpt lat="45.6229841" lon="9.4176981"><ele>215.14285714285714</ele><time>2026-04-21T12:21:54.993Z</time></trkpt><trkpt lat="45.6229154" lon="9.4176556"><ele>215.0</ele><time>2026-04-21T12:21:55.993Z</time></trkpt><trkpt lat="45.622845" lon="9.4176494"><ele>214.66666666666669</ele><time>2026-04-21T12:21:56.993Z</time></trkpt><trkpt lat="45.6227614" lon="9.4176581"><ele>214.33333333333334</ele><time>2026-04-21T12:21:57.993Z</time></trkpt><trkpt lat="45.6226955" lon="9.4176697"><ele>214.0</ele><time>2026-04-21T12:21:58.993Z</time></trkpt><trkpt lat="45.6226271" lon="9.4176436"><ele>213.66666666666669</ele><time>2026-04-21T12:21:59.993Z</time></trkpt><trkpt lat="45.6225178" lon="9.417615"><ele>213.33333333333334</ele><time>2026-04-21T12:22:01.993Z</time></trkpt><trkpt lat="45.6224621" lon="9.4176994"><ele>213.0</ele><time>2026-04-21T12:22:02.993Z</time></trkpt><trkpt lat="45.6224261" lon="9.4178524"><ele>213.2</ele><time>2026-04-21T12:22:04.993Z</time></trkpt><trkpt lat="45.6223677" lon="9.4179864"><ele>213.4</ele><time>2026-04-21T12:22:06.993Z</time></trkpt><trkpt lat="45.6222842" lon="9.4180866"><ele>213.59999999999997</ele><time>2026-04-21T12:22:08.993Z</time></trkpt><trkpt lat="45.6222197" lon="9.4181147"><ele>213.79999999999998</ele><time>2026-04-21T12:22:09.993Z</time></trkpt><trkpt lat="45.6220998" lon="9.4181376"><ele>214.0</ele><time>2026-04-21T12:22:11.993Z</time></trkpt><trkpt lat="45.622035" lon="9.4181439"><ele>213.79999999999998</ele><time>2026-04-21T12:22:12.993Z</time></trkpt><trkpt lat="45.6219209" lon="9.4181409"><ele>213.59999999999997</ele><time>2026-04-21T12:22:14.993Z</time></trkpt><trkpt lat="45.621792" lon="9.4181418"><ele>213.4</ele><time>2026-04-21T12:22:16.993Z</time></trkpt><trkpt lat="45.6217195" lon="9.4181585"><ele>213.2</ele><time>2026-04-21T12:22:17.993Z</time></trkpt><trkpt lat="45.6216349" lon="9.4181649"><ele>213.0</ele><time>2026-04-21T12:22:18.993Z</time></trkpt><trkpt lat="45.6215622" lon="9.4181763"><ele>213.0</ele><time>2026-04-21T12:22:19.993Z</time></trkpt><trkpt lat="45.6214785" lon="9.4181775"><ele>213.0</ele><time>2026-04-21T12:22:20.993Z</time></trkpt><trkpt lat="45.6213944" lon="9.4182031"><ele>213.0</ele><time>2026-04-21T12:22:21.993Z</time></trkpt><trkpt lat="45.6213195" lon="9.4181986"><ele>213.0</ele><time>2026-04-21T12:22:22.993Z</time></trkpt><trkpt lat="45.6212032" lon="9.4182311"><ele>213.0</ele><time>2026-04-21T12:22:23.993Z</time></trkpt><trkpt lat="45.621072" lon="9.4182794"><ele>212.8</ele><time>2026-04-21T12:22:25.993Z</time></trkpt><trkpt lat="45.6209353" lon="9.4183132"><ele>212.60000000000002</ele><time>2026-04-21T12:22:27.993Z</time></trkpt><trkpt lat="45.6208714" lon="9.4183317"><ele>212.39999999999998</ele><time>2026-04-21T12:22:28.993Z</time></trkpt><trkpt lat="45.6208038" lon="9.4183491"><ele>212.2</ele><time>2026-04-21T12:22:29.993Z</time></trkpt><trkpt lat="45.620716" lon="9.4184475"><ele>212.0</ele><time>2026-04-21T12:22:31.993Z</time></trkpt><trkpt lat="45.6207066" lon="9.4186215"><ele>212.0</ele><time>2026-04-21T12:22:33.993Z</time></trkpt><trkpt lat="45.620716" lon="9.4187606"><ele>212.0</ele><time>2026-04-21T12:22:35.993Z</time></trkpt><trkpt lat="45.620714" lon="9.4189321"><ele>212.0</ele><time>2026-04-21T12:22:37.993Z</time></trkpt><trkpt lat="45.6207302" lon="9.419101"><ele>212.0</ele><time>2026-04-21T12:22:39.993Z</time></trkpt><trkpt lat="45.6207366" lon="9.4192621"><ele>211.6</ele><time>2026-04-21T12:22:41.993Z</time></trkpt><trkpt lat="45.6207488" lon="9.4194197"><ele>211.2</ele><time>2026-04-21T12:22:43.993Z</time></trkpt><trkpt lat="45.6207667" lon="9.4195682"><ele>210.8</ele><time>2026-04-21T12:22:45.993Z</time></trkpt><trkpt lat="45.6207414" lon="9.4196974"><ele>210.4</ele><time>2026-04-21T12:22:47.992Z</time></trkpt><trkpt lat="45.620653" lon="9.4197562"><ele>210.0</ele><time>2026-04-21T12:22:49.993Z</time></trkpt><trkpt lat="45.6205524" lon="9.4197462"><ele>210.0</ele><time>2026-04-21T12:22:51.993Z</time></trkpt><trkpt lat="45.6204848" lon="9.4197439"><ele>210.0</ele><time>2026-04-21T12:22:52.993Z</time></trkpt><trkpt lat="45.6204193" lon="9.419747"><ele>210.0</ele><time>2026-04-21T12:22:53.993Z</time></trkpt><trkpt lat="45.6202937" lon="9.4197455"><ele>210.0</ele><time>2026-04-21T12:22:55.993Z</time></trkpt><trkpt lat="45.6202298" lon="9.4197418"><ele>210.0</ele><time>2026-04-21T12:22:56.993Z</time></trkpt><trkpt lat="45.6201584" lon="9.4197459"><ele>210.0</ele><time>2026-04-21T12:22:57.993Z</time></trkpt><trkpt lat="45.6200902" lon="9.4197497"><ele>209.6</ele><time>2026-04-21T12:22:58.992Z</time></trkpt><trkpt lat="45.6200248" lon="9.4197546"><ele>209.2</ele><time>2026-04-21T12:22:59.993Z</time></trkpt><trkpt lat="45.6198821" lon="9.4197684"><ele>208.8</ele><time>2026-04-21T12:23:01.993Z</time></trkpt><trkpt lat="45.6197618" lon="9.4197695"><ele>208.4</ele><time>2026-04-21T12:23:03.993Z</time></trkpt><trkpt lat="45.6196939" lon="9.4197672"><ele>208.0</ele><time>2026-04-21T12:23:04.993Z</time></trkpt><trkpt lat="45.6196237" lon="9.4197661"><ele>208.0</ele><time>2026-04-21T12:23:05.993Z</time></trkpt><trkpt lat="45.6195539" lon="9.4197631"><ele>208.0</ele><time>2026-04-21T12:23:06.993Z</time></trkpt><trkpt lat="45.6194873" lon="9.4197631"><ele>208.0</ele><time>2026-04-21T12:23:07.993Z</time></trkpt><trkpt lat="45.6194203" lon="9.4197612"><ele>208.0</ele><time>2026-04-21T12:23:08.993Z</time></trkpt><trkpt lat="45.6193477" lon="9.4197608"><ele>208.0</ele><time>2026-04-21T12:23:09.993Z</time></trkpt><trkpt lat="45.6192754" lon="9.4197619"><ele>208.0</ele><time>2026-04-21T12:23:10.993Z</time></trkpt><trkpt lat="45.6192113" lon="9.4197599"><ele>208.0</ele><time>2026-04-21T12:23:11.993Z</time></trkpt><trkpt lat="45.6191308" lon="9.4197687"><ele>208.14285714285714</ele><time>2026-04-21T12:23:12.993Z</time></trkpt><trkpt lat="45.6190633" lon="9.4197652"><ele>208.2857142857143</ele><time>2026-04-21T12:23:13.993Z</time></trkpt><trkpt lat="45.6189878" lon="9.4197694"><ele>208.42857142857144</ele><time>2026-04-21T12:23:14.993Z</time></trkpt><trkpt lat="45.6189203" lon="9.4197719"><ele>208.57142857142856</ele><time>2026-04-21T12:23:15.993Z</time></trkpt><trkpt lat="45.618854" lon="9.4197667"><ele>208.71428571428572</ele><time>2026-04-21T12:23:16.993Z</time></trkpt><trkpt lat="45.6187828" lon="9.4197664"><ele>208.85714285714286</ele><time>2026-04-21T12:23:17.993Z</time></trkpt><trkpt lat="45.6187126" lon="9.419753"><ele>209.0</ele><time>2026-04-21T12:23:18.993Z</time></trkpt><trkpt lat="45.6186417" lon="9.4197572"><ele>208.66666666666669</ele><time>2026-04-21T12:23:19.993Z</time></trkpt><trkpt lat="45.6185736" lon="9.4197571"><ele>208.33333333333334</ele><time>2026-04-21T12:23:20.993Z</time></trkpt><trkpt lat="45.6185003" lon="9.4197622"><ele>208.0</ele><time>2026-04-21T12:23:21.993Z</time></trkpt><trkpt lat="45.6184254" lon="9.4197487"><ele>207.66666666666669</ele><time>2026-04-21T12:23:22.993Z</time></trkpt><trkpt lat="45.6183537" lon="9.4197486"><ele>207.33333333333334</ele><time>2026-04-21T12:23:23.992Z</time></trkpt><trkpt lat="45.6182851" lon="9.4197428"><ele>207.0</ele><time>2026-04-21T12:23:24.993Z</time></trkpt><trkpt lat="45.6181377" lon="9.4197455"><ele>207.00000000000003</ele><time>2026-04-21T12:23:26.993Z</time></trkpt><trkpt lat="45.6180692" lon="9.4197462"><ele>207.0</ele><time>2026-04-21T12:23:27.993Z</time></trkpt><trkpt lat="45.6179984" lon="9.4197512"><ele>207.0</ele><time>2026-04-21T12:23:28.993Z</time></trkpt><trkpt lat="45.6179245" lon="9.4197574"><ele>207.0</ele><time>2026-04-21T12:23:29.993Z</time></trkpt><trkpt lat="45.617842" lon="9.419768"><ele>207.0</ele><time>2026-04-21T12:23:30.993Z</time></trkpt><trkpt lat="45.6177782" lon="9.419771"><ele>207.00000000000003</ele><time>2026-04-21T12:23:31.993Z</time></trkpt><trkpt lat="45.6177046" lon="9.4197732"><ele>207.0</ele><time>2026-04-21T12:23:32.993Z</time></trkpt><trkpt lat="45.6176297" lon="9.4197771"><ele>206.83333333333334</ele><time>2026-04-21T12:23:33.993Z</time></trkpt><trkpt lat="45.6175535" lon="9.4197614"><ele>206.66666666666669</ele><time>2026-04-21T12:23:34.993Z</time></trkpt><trkpt lat="45.6174813" lon="9.419764"><ele>206.5</ele><time>2026-04-21T12:23:35.993Z</time></trkpt><trkpt lat="45.6174043" lon="9.4197707"><ele>206.33333333333334</ele><time>2026-04-21T12:23:36.993Z</time></trkpt><trkpt lat="45.6173306" lon="9.4197787"><ele>206.16666666666669</ele><time>2026-04-21T12:23:37.993Z</time></trkpt><trkpt lat="45.6172007" lon="9.419751"><ele>206.0</ele><time>2026-04-21T12:23:39.993Z</time></trkpt><trkpt lat="45.6171273" lon="9.4197562"><ele>206.00000000000003</ele><time>2026-04-21T12:23:40.993Z</time></trkpt><trkpt lat="45.6170628" lon="9.4197875"><ele>206.0</ele><time>2026-04-21T12:23:41.993Z</time></trkpt><trkpt lat="45.6169956" lon="9.4197793"><ele>206.0</ele><time>2026-04-21T12:23:42.993Z</time></trkpt><trkpt lat="45.6169339" lon="9.4197446"><ele>206.0</ele><time>2026-04-21T12:23:43.993Z</time></trkpt><trkpt lat="45.616894" lon="9.4196264"><ele>206.00000000000003</ele><time>2026-04-21T12:23:45.993Z</time></trkpt><trkpt lat="45.6169036" lon="9.4194694"><ele>206.0</ele><time>2026-04-21T12:23:47.993Z</time></trkpt><trkpt lat="45.6168978" lon="9.4192903"><ele>205.83333333333334</ele><time>2026-04-21T12:23:49.993Z</time></trkpt><trkpt lat="45.616892" lon="9.4191952"><ele>205.66666666666669</ele><time>2026-04-21T12:23:50.993Z</time></trkpt><trkpt lat="45.6168869" lon="9.4190103"><ele>205.5</ele><time>2026-04-21T12:23:52.993Z</time></trkpt><trkpt lat="45.6168825" lon="9.4188995"><ele>205.33333333333331</ele><time>2026-04-21T12:23:53.992Z</time></trkpt><trkpt lat="45.6168905" lon="9.4187661"><ele>205.16666666666666</ele><time>2026-04-21T12:23:54.993Z</time></trkpt><trkpt lat="45.6168916" lon="9.4186714"><ele>205.0</ele><time>2026-04-21T12:23:55.993Z</time></trkpt><trkpt lat="45.6169134" lon="9.4185168"><ele>204.83333333333331</ele><time>2026-04-21T12:23:57.993Z</time></trkpt><trkpt lat="45.616909" lon="9.4183682"><ele>204.66666666666666</ele><time>2026-04-21T12:23:59.993Z</time></trkpt><trkpt lat="45.616885" lon="9.4182571"><ele>204.5</ele><time>2026-04-21T12:24:01.993Z</time></trkpt><trkpt lat="45.6168162" lon="9.4182737"><ele>204.33333333333331</ele><time>2026-04-21T12:24:02.993Z</time></trkpt><trkpt lat="45.6167164" lon="9.4182715"><ele>204.16666666666666</ele><time>2026-04-21T12:24:04.993Z</time></trkpt><trkpt lat="45.6166453" lon="9.4182528"><ele>204.0</ele><time>2026-04-21T12:24:05.993Z</time></trkpt><trkpt lat="45.616582" lon="9.4182344"><ele>204.0</ele><time>2026-04-21T12:24:06.992Z</time></trkpt><trkpt lat="45.6165183" lon="9.4182254"><ele>204.0</ele><time>2026-04-21T12:24:07.993Z</time></trkpt><trkpt lat="45.6164533" lon="9.4182142"><ele>204.0</ele><time>2026-04-21T12:24:08.993Z</time></trkpt><trkpt lat="45.6163378" lon="9.4181774"><ele>204.0</ele><time>2026-04-21T12:24:10.993Z</time></trkpt><trkpt lat="45.6162768" lon="9.4181547"><ele>204.0</ele><time>2026-04-21T12:24:11.993Z</time></trkpt><trkpt lat="45.6162131" lon="9.4181189"><ele>204.0</ele><time>2026-04-21T12:24:12.993Z</time></trkpt><trkpt lat="45.6161429" lon="9.4180872"><ele>203.79999999999998</ele><time>2026-04-21T12:24:13.993Z</time></trkpt><trkpt lat="45.6160569" lon="9.4180079"><ele>203.6</ele><time>2026-04-21T12:24:15.993Z</time></trkpt><trkpt lat="45.61595" lon="9.4180357"><ele>203.4</ele><time>2026-04-21T12:24:17.993Z</time></trkpt><trkpt lat="45.6158466" lon="9.4180571"><ele>203.2</ele><time>2026-04-21T12:24:18.993Z</time></trkpt><trkpt lat="45.6157838" lon="9.4180976"><ele>203.0</ele><time>2026-04-21T12:24:19.993Z</time></trkpt><trkpt lat="45.6156874" lon="9.4181447"><ele>203.0</ele><time>2026-04-21T12:24:21.993Z</time></trkpt><trkpt lat="45.6155874" lon="9.4181673"><ele>203.0</ele><time>2026-04-21T12:24:23.993Z</time></trkpt><trkpt lat="45.6155482" lon="9.4182702"><ele>203.0</ele><time>2026-04-21T12:24:25.992Z</time></trkpt><trkpt lat="45.6155242" lon="9.4183783"><ele>203.0</ele><time>2026-04-21T12:24:27.993Z</time></trkpt><trkpt lat="45.6154623" lon="9.4185016"><ele>203.0</ele><time>2026-04-21T12:24:29.993Z</time></trkpt><trkpt lat="45.6154015" lon="9.4186267"><ele>202.8</ele><time>2026-04-21T12:24:31.993Z</time></trkpt><trkpt lat="45.6152929" lon="9.4186268"><ele>202.60000000000002</ele><time>2026-04-21T12:24:33.993Z</time></trkpt><trkpt lat="45.615197" lon="9.4186851"><ele>202.39999999999998</ele><time>2026-04-21T12:24:35.993Z</time></trkpt><trkpt lat="45.6150846" lon="9.4186876"><ele>202.2</ele><time>2026-04-21T12:24:37.993Z</time></trkpt><trkpt lat="45.615013" lon="9.4186949"><ele>202.0</ele><time>2026-04-21T12:24:38.993Z</time></trkpt><trkpt lat="45.6149381" lon="9.4186971"><ele>202.0</ele><time>2026-04-21T12:24:39.993Z</time></trkpt><trkpt lat="45.6148686" lon="9.4187155"><ele>202.0</ele><time>2026-04-21T12:24:40.991Z</time></trkpt><trkpt lat="45.6147984" lon="9.4187054"><ele>202.0</ele><time>2026-04-21T12:24:41.993Z</time></trkpt><trkpt lat="45.6147341" lon="9.418715"><ele>202.0</ele><time>2026-04-21T12:24:42.993Z</time></trkpt><trkpt lat="45.6146715" lon="9.4187275"><ele>202.0</ele><time>2026-04-21T12:24:43.993Z</time></trkpt><trkpt lat="45.614599" lon="9.4187404"><ele>202.0</ele><time>2026-04-21T12:24:44.993Z</time></trkpt><trkpt lat="45.6145315" lon="9.4187386"><ele>202.0</ele><time>2026-04-21T12:24:45.993Z</time></trkpt><trkpt lat="45.6144572" lon="9.4187408"><ele>201.85714285714286</ele><time>2026-04-21T12:24:46.993Z</time></trkpt><trkpt lat="45.6143772" lon="9.4187276"><ele>201.71428571428572</ele><time>2026-04-21T12:24:47.993Z</time></trkpt><trkpt lat="45.6143106" lon="9.4187263"><ele>201.57142857142856</ele><time>2026-04-21T12:24:48.993Z</time></trkpt><trkpt lat="45.6142407" lon="9.4187424"><ele>201.42857142857144</ele><time>2026-04-21T12:24:49.993Z</time></trkpt><trkpt lat="45.6141676" lon="9.4187531"><ele>201.2857142857143</ele><time>2026-04-21T12:24:50.993Z</time></trkpt><trkpt lat="45.6141036" lon="9.4187643"><ele>201.14285714285714</ele><time>2026-04-21T12:24:51.993Z</time></trkpt><trkpt lat="45.6140385" lon="9.4187497"><ele>201.0</ele><time>2026-04-21T12:24:52.992Z</time></trkpt><trkpt lat="45.6139732" lon="9.4187464"><ele>201.0</ele><time>2026-04-21T12:24:53.993Z</time></trkpt><trkpt lat="45.6139079" lon="9.4187594"><ele>201.0</ele><time>2026-04-21T12:24:54.993Z</time></trkpt><trkpt lat="45.6138327" lon="9.4187751"><ele>201.0</ele><time>2026-04-21T12:24:55.993Z</time></trkpt><trkpt lat="45.6137659" lon="9.4187761"><ele>201.0</ele><time>2026-04-21T12:24:56.993Z</time></trkpt><trkpt lat="45.6137019" lon="9.4187878"><ele>201.0</ele><time>2026-04-21T12:24:57.993Z</time></trkpt><trkpt lat="45.6136277" lon="9.4187836"><ele>201.0</ele><time>2026-04-21T12:24:58.993Z</time></trkpt><trkpt lat="45.613564" lon="9.4187846"><ele>201.0</ele><time>2026-04-21T12:24:59.993Z</time></trkpt><trkpt lat="45.613492" lon="9.4187794"><ele>200.66666666666666</ele><time>2026-04-21T12:25:00.993Z</time></trkpt><trkpt lat="45.6133864" lon="9.4187902"><ele>200.33333333333331</ele><time>2026-04-21T12:25:02.993Z</time></trkpt><trkpt lat="45.613316" lon="9.4187745"><ele>200.0</ele><time>2026-04-21T12:25:04.993Z</time></trkpt><trkpt lat="45.6132188" lon="9.4187252"><ele>199.66666666666666</ele><time>2026-04-21T12:25:06.992Z</time></trkpt><trkpt lat="45.6131607" lon="9.4186898"><ele>199.33333333333331</ele><time>2026-04-21T12:25:07.993Z</time></trkpt><trkpt lat="45.6131071" lon="9.4186411"><ele>199.0</ele><time>2026-04-21T12:25:08.993Z</time></trkpt><trkpt lat="45.6129919" lon="9.4186099"><ele>199.0</ele><time>2026-04-21T12:25:10.993Z</time></trkpt><trkpt lat="45.6128744" lon="9.4186632"><ele>199.0</ele><time>2026-04-21T12:25:12.992Z</time></trkpt><trkpt lat="45.6128228" lon="9.4187243"><ele>199.0</ele><time>2026-04-21T12:25:13.993Z</time></trkpt><trkpt lat="45.6127428" lon="9.4188255"><ele>199.0</ele><time>2026-04-21T12:25:15.993Z</time></trkpt><trkpt lat="45.6127232" lon="9.4189195"><ele>199.0</ele><time>2026-04-21T12:25:18.992Z</time></trkpt><trkpt lat="45.6126762" lon="9.4190266"><ele>199.25</ele><time>2026-04-21T12:25:21.993Z</time></trkpt><trkpt lat="45.6125723" lon="9.4190366"><ele>199.5</ele><time>2026-04-21T12:25:23.993Z</time></trkpt><trkpt lat="45.61245" lon="9.4190462"><ele>199.75</ele><time>2026-04-21T12:25:25.993Z</time></trkpt><trkpt lat="45.6123238" lon="9.4190397"><ele>200.0</ele><time>2026-04-21T12:25:27.993Z</time></trkpt><trkpt lat="45.6122086" lon="9.4190517"><ele>200.00000000000003</ele><time>2026-04-21T12:25:29.993Z</time></trkpt><trkpt lat="45.6121449" lon="9.4190456"><ele>200.0</ele><time>2026-04-21T12:25:30.993Z</time></trkpt><trkpt lat="45.6120207" lon="9.4190582"><ele>200.0</ele><time>2026-04-21T12:25:32.993Z</time></trkpt><trkpt lat="45.6119558" lon="9.4190561"><ele>200.0</ele><time>2026-04-21T12:25:33.993Z</time></trkpt><trkpt lat="45.6118296" lon="9.4190648"><ele>200.00000000000003</ele><time>2026-04-21T12:25:35.993Z</time></trkpt><trkpt lat="45.6117638" lon="9.4190744"><ele>200.0</ele><time>2026-04-21T12:25:36.993Z</time></trkpt><trkpt lat="45.6116984" lon="9.4190789"><ele>199.66666666666669</ele><time>2026-04-21T12:25:37.992Z</time></trkpt><trkpt lat="45.6116302" lon="9.4190932"><ele>199.33333333333334</ele><time>2026-04-21T12:25:38.993Z</time></trkpt><trkpt lat="45.6115623" lon="9.4191083"><ele>199.0</ele><time>2026-04-21T12:25:39.993Z</time></trkpt><trkpt lat="45.6114931" lon="9.4191066"><ele>198.66666666666669</ele><time>2026-04-21T12:25:40.993Z</time></trkpt><trkpt lat="45.6114257" lon="9.4191135"><ele>198.33333333333334</ele><time>2026-04-21T12:25:41.993Z</time></trkpt><trkpt lat="45.6112984" lon="9.4191297"><ele>198.0</ele><time>2026-04-21T12:25:43.993Z</time></trkpt><trkpt lat="45.611229" lon="9.4191389"><ele>198.0</ele><time>2026-04-21T12:25:44.993Z</time></trkpt><trkpt lat="45.6111608" lon="9.4191449"><ele>198.0</ele><time>2026-04-21T12:25:45.993Z</time></trkpt><trkpt lat="45.6110907" lon="9.4191503"><ele>198.0</ele><time>2026-04-21T12:25:46.993Z</time></trkpt><trkpt lat="45.6110251" lon="9.4191577"><ele>198.0</ele><time>2026-04-21T12:25:47.993Z</time></trkpt><trkpt lat="45.6109613" lon="9.4191506"><ele>198.0</ele><time>2026-04-21T12:25:48.993Z</time></trkpt><trkpt lat="45.6108909" lon="9.4191507"><ele>198.0</ele><time>2026-04-21T12:25:49.993Z</time></trkpt><trkpt lat="45.6108214" lon="9.4191471"><ele>198.0</ele><time>2026-04-21T12:25:50.993Z</time></trkpt><trkpt lat="45.6107562" lon="9.4191441"><ele>197.83333333333334</ele><time>2026-04-21T12:25:51.993Z</time></trkpt><trkpt lat="45.6106325" lon="9.4191731"><ele>197.66666666666669</ele><time>2026-04-21T12:25:53.993Z</time></trkpt><trkpt lat="45.6105659" lon="9.4191811"><ele>197.5</ele><time>2026-04-21T12:25:54.993Z</time></trkpt><trkpt lat="45.6104932" lon="9.4191791"><ele>197.33333333333334</ele><time>2026-04-21T12:25:55.993Z</time></trkpt><trkpt lat="45.6104256" lon="9.4192007"><ele>197.16666666666669</ele><time>2026-04-21T12:25:56.993Z</time></trkpt><trkpt lat="45.6103518" lon="9.4192258"><ele>197.0</ele><time>2026-04-21T12:25:57.993Z</time></trkpt><trkpt lat="45.6102153" lon="9.4192286"><ele>196.85714285714286</ele><time>2026-04-21T12:25:59.993Z</time></trkpt><trkpt lat="45.6101436" lon="9.4192455"><ele>196.71428571428572</ele><time>2026-04-21T12:26:00.993Z</time></trkpt><trkpt lat="45.6100719" lon="9.4192546"><ele>196.57142857142856</ele><time>2026-04-21T12:26:01.993Z</time></trkpt><trkpt lat="45.610003" lon="9.4192675"><ele>196.42857142857144</ele><time>2026-04-21T12:26:02.993Z</time></trkpt><trkpt lat="45.6099299" lon="9.4192794"><ele>196.28571428571428</ele><time>2026-04-21T12:26:03.993Z</time></trkpt><trkpt lat="45.6098518" lon="9.4192918"><ele>196.14285714285714</ele><time>2026-04-21T12:26:04.993Z</time></trkpt><trkpt lat="45.6097725" lon="9.4192989"><ele>196.0</ele><time>2026-04-21T12:26:05.993Z</time></trkpt><trkpt lat="45.6096993" lon="9.4192957"><ele>196.0</ele><time>2026-04-21T12:26:06.993Z</time></trkpt><trkpt lat="45.6096312" lon="9.4193105"><ele>196.0</ele><time>2026-04-21T12:26:07.993Z</time></trkpt><trkpt lat="45.6095564" lon="9.4193086"><ele>196.0</ele><time>2026-04-21T12:26:08.993Z</time></trkpt><trkpt lat="45.6094885" lon="9.4193162"><ele>196.0</ele><time>2026-04-21T12:26:09.993Z</time></trkpt><trkpt lat="45.6094168" lon="9.4193369"><ele>196.0</ele><time>2026-04-21T12:26:10.993Z</time></trkpt><trkpt lat="45.6093499" lon="9.4193518"><ele>196.0</ele><time>2026-04-21T12:26:11.993Z</time></trkpt><trkpt lat="45.6092828" lon="9.4193545"><ele>196.0</ele><time>2026-04-21T12:26:12.993Z</time></trkpt><trkpt lat="45.6092094" lon="9.4193619"><ele>195.85714285714286</ele><time>2026-04-21T12:26:13.993Z</time></trkpt><trkpt lat="45.6091427" lon="9.4193765"><ele>195.71428571428572</ele><time>2026-04-21T12:26:14.992Z</time></trkpt><trkpt lat="45.6090695" lon="9.4193797"><ele>195.57142857142856</ele><time>2026-04-21T12:26:15.993Z</time></trkpt><trkpt lat="45.6090057" lon="9.4193772"><ele>195.42857142857144</ele><time>2026-04-21T12:26:16.993Z</time></trkpt><trkpt lat="45.6089393" lon="9.4193773"><ele>195.28571428571428</ele><time>2026-04-21T12:26:17.993Z</time></trkpt><trkpt lat="45.6088757" lon="9.4193937"><ele>195.14285714285714</ele><time>2026-04-21T12:26:18.993Z</time></trkpt><trkpt lat="45.6088105" lon="9.4193958"><ele>195.0</ele><time>2026-04-21T12:26:19.993Z</time></trkpt><trkpt lat="45.6087441" lon="9.4194011"><ele>195.0</ele><time>2026-04-21T12:26:20.993Z</time></trkpt><trkpt lat="45.6086768" lon="9.419412"><ele>195.0</ele><time>2026-04-21T12:26:21.993Z</time></trkpt><trkpt lat="45.6086038" lon="9.4194151"><ele>195.0</ele><time>2026-04-21T12:26:22.993Z</time></trkpt><trkpt lat="45.6085352" lon="9.4194195"><ele>195.0</ele><time>2026-04-21T12:26:23.993Z</time></trkpt><trkpt lat="45.6084661" lon="9.4194236"><ele>195.0</ele><time>2026-04-21T12:26:24.993Z</time></trkpt><trkpt lat="45.6083973" lon="9.4194348"><ele>195.0</ele><time>2026-04-21T12:26:25.993Z</time></trkpt><trkpt lat="45.6083252" lon="9.4194402"><ele>195.0</ele><time>2026-04-21T12:26:26.993Z</time></trkpt><trkpt lat="45.6082588" lon="9.4194379"><ele>194.83333333333334</ele><time>2026-04-21T12:26:27.992Z</time></trkpt><trkpt lat="45.6081889" lon="9.4194327"><ele>194.66666666666669</ele><time>2026-04-21T12:26:28.992Z</time></trkpt><trkpt lat="45.6081239" lon="9.4194432"><ele>194.5</ele><time>2026-04-21T12:26:29.993Z</time></trkpt><trkpt lat="45.6080569" lon="9.4194495"><ele>194.33333333333334</ele><time>2026-04-21T12:26:30.993Z</time></trkpt><trkpt lat="45.6079343" lon="9.4194755"><ele>194.16666666666669</ele><time>2026-04-21T12:26:32.993Z</time></trkpt><trkpt lat="45.6078684" lon="9.4195066"><ele>194.0</ele><time>2026-04-21T12:26:33.993Z</time></trkpt><trkpt lat="45.6078056" lon="9.4195473"><ele>193.83333333333334</ele><time>2026-04-21T12:26:34.992Z</time></trkpt><trkpt lat="45.6077588" lon="9.4196222"><ele>193.66666666666669</ele><time>2026-04-21T12:26:35.993Z</time></trkpt><trkpt lat="45.6077273" lon="9.4197069"><ele>193.5</ele><time>2026-04-21T12:26:36.993Z</time></trkpt><trkpt lat="45.6076999" lon="9.4197952"><ele>193.33333333333331</ele><time>2026-04-21T12:26:37.993Z</time></trkpt><trkpt lat="45.6076784" lon="9.4198798"><ele>193.16666666666666</ele><time>2026-04-21T12:26:38.993Z</time></trkpt><trkpt lat="45.6076469" lon="9.4199648"><ele>193.0</ele><time>2026-04-21T12:26:39.993Z</time></trkpt><trkpt lat="45.6075738" lon="9.4200956"><ele>192.99999999999997</ele><time>2026-04-21T12:26:41.993Z</time></trkpt><trkpt lat="45.6075212" lon="9.4201511"><ele>193.0</ele><time>2026-04-21T12:26:42.993Z</time></trkpt><trkpt lat="45.607476" lon="9.4202153"><ele>193.0</ele><time>2026-04-21T12:26:43.993Z</time></trkpt><trkpt lat="45.6074325" lon="9.4202819"><ele>193.0</ele><time>2026-04-21T12:26:44.993Z</time></trkpt><trkpt lat="45.6073885" lon="9.4203615"><ele>192.99999999999997</ele><time>2026-04-21T12:26:45.993Z</time></trkpt><trkpt lat="45.6073696" lon="9.4205345"><ele>193.0</ele><time>2026-04-21T12:26:47.993Z</time></trkpt><trkpt lat="45.6073639" lon="9.4207288"><ele>193.00000000000003</ele><time>2026-04-21T12:26:49.993Z</time></trkpt><trkpt lat="45.6073644" lon="9.4208343"><ele>193.0</ele><time>2026-04-21T12:26:50.993Z</time></trkpt><trkpt lat="45.6073678" lon="9.4209256"><ele>193.0</ele><time>2026-04-21T12:26:51.993Z</time></trkpt><trkpt lat="45.6073693" lon="9.4210212"><ele>193.0</ele><time>2026-04-21T12:26:52.993Z</time></trkpt><trkpt lat="45.6073569" lon="9.4211186"><ele>193.0</ele><time>2026-04-21T12:26:53.993Z</time></trkpt><trkpt lat="45.607356" lon="9.4212138"><ele>193.00000000000003</ele><time>2026-04-21T12:26:54.993Z</time></trkpt><trkpt lat="45.6073556" lon="9.4213197"><ele>193.0</ele><time>2026-04-21T12:26:55.993Z</time></trkpt><trkpt lat="45.6073531" lon="9.4214223"><ele>193.00000000000003</ele><time>2026-04-21T12:26:56.993Z</time></trkpt><trkpt lat="45.6073593" lon="9.421518"><ele>193.0</ele><time>2026-04-21T12:26:57.993Z</time></trkpt><trkpt lat="45.6073582" lon="9.4216163"><ele>193.0</ele><time>2026-04-21T12:26:58.993Z</time></trkpt><trkpt lat="45.607353" lon="9.4217115"><ele>193.0</ele><time>2026-04-21T12:26:59.993Z</time></trkpt><trkpt lat="45.6073488" lon="9.4218045"><ele>193.0</ele><time>2026-04-21T12:27:00.993Z</time></trkpt><trkpt lat="45.6073467" lon="9.4219074"><ele>193.00000000000003</ele><time>2026-04-21T12:27:01.993Z</time></trkpt><trkpt lat="45.6073407" lon="9.4220093"><ele>193.0</ele><time>2026-04-21T12:27:02.993Z</time></trkpt><trkpt lat="45.607331" lon="9.4221197"><ele>193.00000000000003</ele><time>2026-04-21T12:27:03.993Z</time></trkpt><trkpt lat="45.6073244" lon="9.4222119"><ele>193.0</ele><time>2026-04-21T12:27:04.993Z</time></trkpt><trkpt lat="45.6073186" lon="9.4223124"><ele>193.0</ele><time>2026-04-21T12:27:05.993Z</time></trkpt><trkpt lat="45.6073165" lon="9.4224163"><ele>193.0</ele><time>2026-04-21T12:27:06.993Z</time></trkpt><trkpt lat="45.6073088" lon="9.4225196"><ele>193.0</ele><time>2026-04-21T12:27:07.993Z</time></trkpt><trkpt lat="45.6073031" lon="9.4226321"><ele>193.00000000000003</ele><time>2026-04-21T12:27:08.993Z</time></trkpt><trkpt lat="45.6073051" lon="9.4227315"><ele>193.0</ele><time>2026-04-21T12:27:09.993Z</time></trkpt><trkpt lat="45.6073045" lon="9.422836"><ele>193.00000000000003</ele><time>2026-04-21T12:27:10.993Z</time></trkpt><trkpt lat="45.607304" lon="9.4229418"><ele>193.0</ele><time>2026-04-21T12:27:11.993Z</time></trkpt><trkpt lat="45.6073047" lon="9.4230399"><ele>193.0</ele><time>2026-04-21T12:27:12.993Z</time></trkpt><trkpt lat="45.6073043" lon="9.4231443"><ele>193.0</ele><time>2026-04-21T12:27:13.993Z</time></trkpt><trkpt lat="45.6073026" lon="9.4232399"><ele>193.0</ele><time>2026-04-21T12:27:14.993Z</time></trkpt><trkpt lat="45.6073037" lon="9.4233341"><ele>193.00000000000003</ele><time>2026-04-21T12:27:15.993Z</time></trkpt><trkpt lat="45.6073004" lon="9.4234314"><ele>193.0</ele><time>2026-04-21T12:27:16.993Z</time></trkpt><trkpt lat="45.6073039" lon="9.4235314"><ele>193.0</ele><time>2026-04-21T12:27:17.993Z</time></trkpt><trkpt lat="45.6073308" lon="9.4237051"><ele>193.0</ele><time>2026-04-21T12:27:19.993Z</time></trkpt><trkpt lat="45.6073481" lon="9.4237973"><ele>193.0</ele><time>2026-04-21T12:27:20.993Z</time></trkpt><trkpt lat="45.6073854" lon="9.4239654"><ele>193.0</ele><time>2026-04-21T12:27:22.993Z</time></trkpt><trkpt lat="45.6074044" lon="9.4240555"><ele>193.0</ele><time>2026-04-21T12:27:23.993Z</time></trkpt><trkpt lat="45.6074281" lon="9.424211"><ele>193.25</ele><time>2026-04-21T12:27:25.993Z</time></trkpt><trkpt lat="45.6074456" lon="9.4243675"><ele>193.5</ele><time>2026-04-21T12:27:27.993Z</time></trkpt><trkpt lat="45.6074447" lon="9.4245451"><ele>193.75</ele><time>2026-04-21T12:27:29.993Z</time></trkpt><trkpt lat="45.6074359" lon="9.424708"><ele>194.0</ele><time>2026-04-21T12:27:31.993Z</time></trkpt><trkpt lat="45.6074235" lon="9.4248548"><ele>194.2</ele><time>2026-04-21T12:27:33.993Z</time></trkpt><trkpt lat="45.6074238" lon="9.4250186"><ele>194.39999999999998</ele><time>2026-04-21T12:27:35.993Z</time></trkpt><trkpt lat="45.6074236" lon="9.4251705"><ele>194.6</ele><time>2026-04-21T12:27:37.993Z</time></trkpt><trkpt lat="45.6074145" lon="9.4253295"><ele>194.8</ele><time>2026-04-21T12:27:39.993Z</time></trkpt><trkpt lat="45.6074231" lon="9.4254739"><ele>195.0</ele><time>2026-04-21T12:27:41.993Z</time></trkpt><trkpt lat="45.6074161" lon="9.4255934"><ele>195.0</ele><time>2026-04-21T12:27:43.993Z</time></trkpt><trkpt lat="45.607418" lon="9.4257101"><ele>195.0</ele><time>2026-04-21T12:27:45.993Z</time></trkpt><trkpt lat="45.6074145" lon="9.4258178"><ele>195.0</ele><time>2026-04-21T12:27:47.993Z</time></trkpt><trkpt lat="45.6074628" lon="9.4259324"><ele>195.0</ele><time>2026-04-21T12:27:50.993Z</time></trkpt><trkpt lat="45.6075588" lon="9.4259553"><ele>195.0</ele><time>2026-04-21T12:27:52.993Z</time></trkpt><trkpt lat="45.6076675" lon="9.4259628"><ele>195.0</ele><time>2026-04-21T12:27:54.992Z</time></trkpt><trkpt lat="45.6077755" lon="9.425979"><ele>195.0</ele><time>2026-04-21T12:27:56.993Z</time></trkpt><trkpt lat="45.6078826" lon="9.4259776"><ele>195.0</ele><time>2026-04-21T12:27:58.993Z</time></trkpt><trkpt lat="45.6079994" lon="9.4259794"><ele>195.0</ele><time>2026-04-21T12:28:00.993Z</time></trkpt><trkpt lat="45.6081159" lon="9.4259766"><ele>195.0</ele><time>2026-04-21T12:28:02.992Z</time></trkpt><trkpt lat="45.6082312" lon="9.4259768"><ele>195.25</ele><time>2026-04-21T12:28:04.993Z</time></trkpt><trkpt lat="45.6083434" lon="9.4259845"><ele>195.5</ele><time>2026-04-21T12:28:06.993Z</time></trkpt><trkpt lat="45.6084586" lon="9.4259837"><ele>195.75</ele><time>2026-04-21T12:28:08.993Z</time></trkpt><trkpt lat="45.6085821" lon="9.4259852"><ele>196.0</ele><time>2026-04-21T12:28:10.993Z</time></trkpt><trkpt lat="45.6086926" lon="9.4259856"><ele>196.60000000000002</ele><time>2026-04-21T12:28:12.993Z</time></trkpt><trkpt lat="45.6088028" lon="9.425995"><ele>197.2</ele><time>2026-04-21T12:28:14.993Z</time></trkpt><trkpt lat="45.6089194" lon="9.4259933"><ele>197.8</ele><time>2026-04-21T12:28:16.993Z</time></trkpt><trkpt lat="45.6090268" lon="9.4260024"><ele>198.39999999999998</ele><time>2026-04-21T12:28:18.993Z</time></trkpt><trkpt lat="45.6091322" lon="9.4259746"><ele>199.0</ele><time>2026-04-21T12:28:20.993Z</time></trkpt><trkpt lat="45.6092025" lon="9.4259895"><ele>199.0</ele><time>2026-04-21T12:28:21.993Z</time></trkpt><trkpt lat="45.6093107" lon="9.4259905"><ele>199.0</ele><time>2026-04-21T12:28:23.993Z</time></trkpt><trkpt lat="45.6094135" lon="9.425983"><ele>199.0</ele><time>2026-04-21T12:28:25.993Z</time></trkpt><trkpt lat="45.6095136" lon="9.4259821"><ele>199.0</ele><time>2026-04-21T12:28:27.993Z</time></trkpt><trkpt lat="45.6095899" lon="9.4259791"><ele>199.0</ele><time>2026-04-21T12:28:29.993Z</time></trkpt><trkpt lat="45.6096524" lon="9.4260251"><ele>199.6</ele><time>2026-04-21T12:29:02.993Z</time></trkpt><trkpt lat="45.6096582" lon="9.4261157"><ele>200.2</ele><time>2026-04-21T12:29:04.993Z</time></trkpt><trkpt lat="45.6096577" lon="9.4262304"><ele>200.79999999999998</ele><time>2026-04-21T12:29:06.993Z</time></trkpt><trkpt lat="45.6096793" lon="9.4263851"><ele>201.39999999999998</ele><time>2026-04-21T12:29:08.993Z</time></trkpt><trkpt lat="45.6096757" lon="9.4265243"><ele>202.0</ele><time>2026-04-21T12:29:10.993Z</time></trkpt><trkpt lat="45.6096704" lon="9.4266748"><ele>202.0</ele><time>2026-04-21T12:29:12.993Z</time></trkpt><trkpt lat="45.609662" lon="9.4268073"><ele>202.0</ele><time>2026-04-21T12:29:14.993Z</time></trkpt><trkpt lat="45.6096495" lon="9.4269373"><ele>202.0</ele><time>2026-04-21T12:29:16.993Z</time></trkpt><trkpt lat="45.6096294" lon="9.4270613"><ele>202.0</ele><time>2026-04-21T12:29:18.993Z</time></trkpt><trkpt lat="45.6096491" lon="9.4271602"><ele>202.0</ele><time>2026-04-21T12:29:20.993Z</time></trkpt><trkpt lat="45.6101296" lon="9.4272367"><ele>202.0</ele><time>2026-04-21T12:32:06.08Z</time></trkpt><trkpt lat="45.6099057" lon="9.4272243"><ele>202.0</ele><time>2026-04-21T12:32:27.86Z</time></trkpt><trkpt lat="45.610022" lon="9.4271644"><ele>202.0</ele><time>2026-04-21T12:32:43.952Z</time></trkpt><trkpt lat="45.6100063" lon="9.4270726"><ele>202.0</ele><time>2026-04-21T12:32:58.99Z</time></trkpt><trkpt lat="45.6099415" lon="9.4270026"><ele>202.0</ele><time>2026-04-21T12:33:00.99Z</time></trkpt><trkpt lat="45.6100199" lon="9.4272438"><ele>200.0</ele><time>2026-04-21T12:34:50.99Z</time></trkpt><trkpt lat="45.6100199" lon="9.4272438"><ele>200.0</ele><time>2026-04-21T12:34:50.99Z</time></trkpt></trkseg></trk></gpx>